<?xml version="1.0" encoding="UTF-8" standalone="no" ?>
<gpx xmlns="http://www.topografix.com/GPX/1/1" xmlns:xsi="http://www.w3.org/2001/XMLSchema-instance" xsi:schemaLocation="http://www.topografix.com/GPX/1/1 http://www.topografix.com/GPX/1/1/gpx.xsd" version="1.1" creator="VisuGPX - https://www.visugpx.com">
  <metadata>
    <name>2018-02-06 Bike ride-Amberieux-Savigneux O 33</name>
    <desc><![CDATA[2018-02-06 Bike ride-Amberieux-Savigneux O 33]]></desc>
  </metadata>
  <wpt lat="45.92456" lon="4.73716">
    <ele>174</ele>
    <name><![CDATA[2018-02-06 10:51 (Start)]]></name>
  </wpt>
  <wpt lat="45.92454" lon="4.73709">
    <ele>174</ele>
    <name><![CDATA[2018-02-06 10:51 (End)]]></name>
  </wpt>
  <trk>
    <name><![CDATA[2018-02-06 10:51]]></name>
    <trkseg>
      <trkpt lat="45.92456" lon="4.73716">
        <ele>174</ele>
        <time>2018-02-06T09:51:07.057Z</time>
      </trkpt>
      <trkpt lat="45.9246" lon="4.73707">
        <ele>174</ele>
        <time>2018-02-06T09:51:52Z</time>
      </trkpt>
      <trkpt lat="45.92461" lon="4.73704">
        <ele>174</ele>
        <time>2018-02-06T09:51:53Z</time>
      </trkpt>
      <trkpt lat="45.92461" lon="4.73695">
        <ele>174</ele>
        <time>2018-02-06T09:51:56Z</time>
      </trkpt>
      <trkpt lat="45.92462" lon="4.73691">
        <ele>174</ele>
        <time>2018-02-06T09:51:57Z</time>
      </trkpt>
      <trkpt lat="45.92463" lon="4.7368">
        <ele>174</ele>
        <time>2018-02-06T09:52:00Z</time>
      </trkpt>
      <trkpt lat="45.92462" lon="4.73677">
        <ele>174</ele>
        <time>2018-02-06T09:52:01Z</time>
      </trkpt>
      <trkpt lat="45.92461" lon="4.73668">
        <ele>174</ele>
        <time>2018-02-06T09:52:03Z</time>
      </trkpt>
      <trkpt lat="45.92461" lon="4.73663">
        <ele>174</ele>
        <time>2018-02-06T09:52:04Z</time>
      </trkpt>
      <trkpt lat="45.92464" lon="4.73654">
        <ele>174</ele>
        <time>2018-02-06T09:52:06Z</time>
      </trkpt>
      <trkpt lat="45.92466" lon="4.7365">
        <ele>174</ele>
        <time>2018-02-06T09:52:07Z</time>
      </trkpt>
      <trkpt lat="45.92473" lon="4.73644">
        <ele>174</ele>
        <time>2018-02-06T09:52:10Z</time>
      </trkpt>
      <trkpt lat="45.92477" lon="4.73644">
        <ele>174</ele>
        <time>2018-02-06T09:52:11Z</time>
      </trkpt>
      <trkpt lat="45.92485" lon="4.73644">
        <ele>174</ele>
        <time>2018-02-06T09:52:13Z</time>
      </trkpt>
      <trkpt lat="45.92489" lon="4.73643">
        <ele>174</ele>
        <time>2018-02-06T09:52:14Z</time>
      </trkpt>
      <trkpt lat="45.92498" lon="4.73644">
        <ele>174</ele>
        <time>2018-02-06T09:52:16Z</time>
      </trkpt>
      <trkpt lat="45.92502" lon="4.73644">
        <ele>174</ele>
        <time>2018-02-06T09:52:17Z</time>
      </trkpt>
      <trkpt lat="45.92507" lon="4.73644">
        <ele>174</ele>
        <time>2018-02-06T09:52:18Z</time>
      </trkpt>
      <trkpt lat="45.92511" lon="4.73644">
        <ele>174</ele>
        <time>2018-02-06T09:52:19Z</time>
      </trkpt>
      <trkpt lat="45.92517" lon="4.73643">
        <ele>174</ele>
        <time>2018-02-06T09:52:20Z</time>
      </trkpt>
      <trkpt lat="45.92523" lon="4.73641">
        <ele>173</ele>
        <time>2018-02-06T09:52:21Z</time>
      </trkpt>
      <trkpt lat="45.9253" lon="4.73639">
        <ele>173</ele>
        <time>2018-02-06T09:52:22Z</time>
      </trkpt>
      <trkpt lat="45.92534" lon="4.73639">
        <ele>173</ele>
        <time>2018-02-06T09:52:23Z</time>
      </trkpt>
      <trkpt lat="45.92539" lon="4.73638">
        <ele>173</ele>
        <time>2018-02-06T09:52:24Z</time>
      </trkpt>
      <trkpt lat="45.92544" lon="4.73637">
        <ele>173</ele>
        <time>2018-02-06T09:52:25Z</time>
      </trkpt>
      <trkpt lat="45.92548" lon="4.73637">
        <ele>173</ele>
        <time>2018-02-06T09:52:26Z</time>
      </trkpt>
      <trkpt lat="45.92553" lon="4.73636">
        <ele>173</ele>
        <time>2018-02-06T09:52:27Z</time>
      </trkpt>
      <trkpt lat="45.92558" lon="4.73634">
        <ele>173</ele>
        <time>2018-02-06T09:52:28Z</time>
      </trkpt>
      <trkpt lat="45.92562" lon="4.73634">
        <ele>173</ele>
        <time>2018-02-06T09:52:29Z</time>
      </trkpt>
      <trkpt lat="45.92567" lon="4.73632">
        <ele>173</ele>
        <time>2018-02-06T09:52:30Z</time>
      </trkpt>
      <trkpt lat="45.92572" lon="4.7363">
        <ele>173</ele>
        <time>2018-02-06T09:52:31Z</time>
      </trkpt>
      <trkpt lat="45.92577" lon="4.73627">
        <ele>173</ele>
        <time>2018-02-06T09:52:32Z</time>
      </trkpt>
      <trkpt lat="45.92581" lon="4.73626">
        <ele>173</ele>
        <time>2018-02-06T09:52:33Z</time>
      </trkpt>
      <trkpt lat="45.92586" lon="4.73625">
        <ele>172</ele>
        <time>2018-02-06T09:52:34Z</time>
      </trkpt>
      <trkpt lat="45.92591" lon="4.73623">
        <ele>173</ele>
        <time>2018-02-06T09:52:35Z</time>
      </trkpt>
      <trkpt lat="45.92595" lon="4.73622">
        <ele>173</ele>
        <time>2018-02-06T09:52:36Z</time>
      </trkpt>
      <trkpt lat="45.926" lon="4.73624">
        <ele>173</ele>
        <time>2018-02-06T09:52:37Z</time>
      </trkpt>
      <trkpt lat="45.92606" lon="4.73625">
        <ele>173</ele>
        <time>2018-02-06T09:52:38Z</time>
      </trkpt>
      <trkpt lat="45.92611" lon="4.73626">
        <ele>173</ele>
        <time>2018-02-06T09:52:39Z</time>
      </trkpt>
      <trkpt lat="45.92616" lon="4.73632">
        <ele>173</ele>
        <time>2018-02-06T09:52:40Z</time>
      </trkpt>
      <trkpt lat="45.9262" lon="4.73637">
        <ele>173</ele>
        <time>2018-02-06T09:52:41Z</time>
      </trkpt>
      <trkpt lat="45.92623" lon="4.73643">
        <ele>173</ele>
        <time>2018-02-06T09:52:42Z</time>
      </trkpt>
      <trkpt lat="45.92626" lon="4.73649">
        <ele>173</ele>
        <time>2018-02-06T09:52:43Z</time>
      </trkpt>
      <trkpt lat="45.92628" lon="4.73656">
        <ele>173</ele>
        <time>2018-02-06T09:52:44Z</time>
      </trkpt>
      <trkpt lat="45.92631" lon="4.73661">
        <ele>173</ele>
        <time>2018-02-06T09:52:45Z</time>
      </trkpt>
      <trkpt lat="45.92636" lon="4.73671">
        <ele>173</ele>
        <time>2018-02-06T09:52:47Z</time>
      </trkpt>
      <trkpt lat="45.92639" lon="4.73677">
        <ele>173</ele>
        <time>2018-02-06T09:52:48Z</time>
      </trkpt>
      <trkpt lat="45.92643" lon="4.73682">
        <ele>173</ele>
        <time>2018-02-06T09:52:49Z</time>
      </trkpt>
      <trkpt lat="45.92647" lon="4.73687">
        <ele>173</ele>
        <time>2018-02-06T09:52:50Z</time>
      </trkpt>
      <trkpt lat="45.92652" lon="4.73691">
        <ele>173</ele>
        <time>2018-02-06T09:52:51Z</time>
      </trkpt>
      <trkpt lat="45.92656" lon="4.73695">
        <ele>173</ele>
        <time>2018-02-06T09:52:52Z</time>
      </trkpt>
      <trkpt lat="45.92661" lon="4.73698">
        <ele>173</ele>
        <time>2018-02-06T09:52:53Z</time>
      </trkpt>
      <trkpt lat="45.92666" lon="4.73702">
        <ele>173</ele>
        <time>2018-02-06T09:52:54Z</time>
      </trkpt>
      <trkpt lat="45.92671" lon="4.73703">
        <ele>174</ele>
        <time>2018-02-06T09:52:55Z</time>
      </trkpt>
      <trkpt lat="45.92676" lon="4.73706">
        <ele>173</ele>
        <time>2018-02-06T09:52:56Z</time>
      </trkpt>
      <trkpt lat="45.9268" lon="4.73708">
        <ele>173</ele>
        <time>2018-02-06T09:52:57Z</time>
      </trkpt>
      <trkpt lat="45.92685" lon="4.7371">
        <ele>173</ele>
        <time>2018-02-06T09:52:58Z</time>
      </trkpt>
      <trkpt lat="45.92691" lon="4.73712">
        <ele>173</ele>
        <time>2018-02-06T09:52:59Z</time>
      </trkpt>
      <trkpt lat="45.92697" lon="4.73713">
        <ele>173</ele>
        <time>2018-02-06T09:53:00Z</time>
      </trkpt>
      <trkpt lat="45.92703" lon="4.73714">
        <ele>173</ele>
        <time>2018-02-06T09:53:01Z</time>
      </trkpt>
      <trkpt lat="45.92707" lon="4.73715">
        <ele>173</ele>
        <time>2018-02-06T09:53:02Z</time>
      </trkpt>
      <trkpt lat="45.92713" lon="4.73716">
        <ele>173</ele>
        <time>2018-02-06T09:53:03Z</time>
      </trkpt>
      <trkpt lat="45.92718" lon="4.73717">
        <ele>173</ele>
        <time>2018-02-06T09:53:04Z</time>
      </trkpt>
      <trkpt lat="45.92722" lon="4.73718">
        <ele>173</ele>
        <time>2018-02-06T09:53:05Z</time>
      </trkpt>
      <trkpt lat="45.92727" lon="4.7372">
        <ele>173</ele>
        <time>2018-02-06T09:53:06Z</time>
      </trkpt>
      <trkpt lat="45.92732" lon="4.73722">
        <ele>173</ele>
        <time>2018-02-06T09:53:07Z</time>
      </trkpt>
      <trkpt lat="45.92737" lon="4.73723">
        <ele>173</ele>
        <time>2018-02-06T09:53:08Z</time>
      </trkpt>
      <trkpt lat="45.92742" lon="4.73724">
        <ele>173</ele>
        <time>2018-02-06T09:53:09Z</time>
      </trkpt>
      <trkpt lat="45.92747" lon="4.73726">
        <ele>173</ele>
        <time>2018-02-06T09:53:10Z</time>
      </trkpt>
      <trkpt lat="45.92752" lon="4.73728">
        <ele>172</ele>
        <time>2018-02-06T09:53:11Z</time>
      </trkpt>
      <trkpt lat="45.92757" lon="4.73729">
        <ele>172</ele>
        <time>2018-02-06T09:53:12Z</time>
      </trkpt>
      <trkpt lat="45.92765" lon="4.73733">
        <ele>172</ele>
        <time>2018-02-06T09:53:14Z</time>
      </trkpt>
      <trkpt lat="45.92769" lon="4.73734">
        <ele>172</ele>
        <time>2018-02-06T09:53:15Z</time>
      </trkpt>
      <trkpt lat="45.92774" lon="4.73737">
        <ele>172</ele>
        <time>2018-02-06T09:53:16Z</time>
      </trkpt>
      <trkpt lat="45.92777" lon="4.7374">
        <ele>172</ele>
        <time>2018-02-06T09:53:17Z</time>
      </trkpt>
      <trkpt lat="45.92781" lon="4.73747">
        <ele>172</ele>
        <time>2018-02-06T09:53:19Z</time>
      </trkpt>
      <trkpt lat="45.92783" lon="4.73752">
        <ele>173</ele>
        <time>2018-02-06T09:53:20Z</time>
      </trkpt>
      <trkpt lat="45.92787" lon="4.73756">
        <ele>173</ele>
        <time>2018-02-06T09:53:21Z</time>
      </trkpt>
      <trkpt lat="45.9279" lon="4.73759">
        <ele>173</ele>
        <time>2018-02-06T09:53:22Z</time>
      </trkpt>
      <trkpt lat="45.92795" lon="4.73763">
        <ele>173</ele>
        <time>2018-02-06T09:53:23Z</time>
      </trkpt>
      <trkpt lat="45.928" lon="4.73765">
        <ele>173</ele>
        <time>2018-02-06T09:53:24Z</time>
      </trkpt>
      <trkpt lat="45.92806" lon="4.73769">
        <ele>173</ele>
        <time>2018-02-06T09:53:25Z</time>
      </trkpt>
      <trkpt lat="45.9281" lon="4.73772">
        <ele>173</ele>
        <time>2018-02-06T09:53:26Z</time>
      </trkpt>
      <trkpt lat="45.92815" lon="4.73776">
        <ele>173</ele>
        <time>2018-02-06T09:53:27Z</time>
      </trkpt>
      <trkpt lat="45.92821" lon="4.73778">
        <ele>173</ele>
        <time>2018-02-06T09:53:28Z</time>
      </trkpt>
      <trkpt lat="45.92826" lon="4.73782">
        <ele>173</ele>
        <time>2018-02-06T09:53:29Z</time>
      </trkpt>
      <trkpt lat="45.92832" lon="4.73785">
        <ele>173</ele>
        <time>2018-02-06T09:53:30Z</time>
      </trkpt>
      <trkpt lat="45.92836" lon="4.73789">
        <ele>173</ele>
        <time>2018-02-06T09:53:31Z</time>
      </trkpt>
      <trkpt lat="45.92842" lon="4.73792">
        <ele>173</ele>
        <time>2018-02-06T09:53:32Z</time>
      </trkpt>
      <trkpt lat="45.92847" lon="4.73796">
        <ele>173</ele>
        <time>2018-02-06T09:53:33Z</time>
      </trkpt>
      <trkpt lat="45.92852" lon="4.73802">
        <ele>173</ele>
        <time>2018-02-06T09:53:34Z</time>
      </trkpt>
      <trkpt lat="45.92855" lon="4.7381">
        <ele>173</ele>
        <time>2018-02-06T09:53:35Z</time>
      </trkpt>
      <trkpt lat="45.92858" lon="4.73817">
        <ele>173</ele>
        <time>2018-02-06T09:53:36Z</time>
      </trkpt>
      <trkpt lat="45.9286" lon="4.73825">
        <ele>173</ele>
        <time>2018-02-06T09:53:37Z</time>
      </trkpt>
      <trkpt lat="45.92862" lon="4.73833">
        <ele>173</ele>
        <time>2018-02-06T09:53:38Z</time>
      </trkpt>
      <trkpt lat="45.92865" lon="4.7384">
        <ele>173</ele>
        <time>2018-02-06T09:53:39Z</time>
      </trkpt>
      <trkpt lat="45.92866" lon="4.73847">
        <ele>173</ele>
        <time>2018-02-06T09:53:40Z</time>
      </trkpt>
      <trkpt lat="45.92869" lon="4.73855">
        <ele>173</ele>
        <time>2018-02-06T09:53:41Z</time>
      </trkpt>
      <trkpt lat="45.92871" lon="4.73863">
        <ele>173</ele>
        <time>2018-02-06T09:53:42Z</time>
      </trkpt>
      <trkpt lat="45.92874" lon="4.7387">
        <ele>173</ele>
        <time>2018-02-06T09:53:43Z</time>
      </trkpt>
      <trkpt lat="45.92876" lon="4.73879">
        <ele>173</ele>
        <time>2018-02-06T09:53:44Z</time>
      </trkpt>
      <trkpt lat="45.92879" lon="4.73886">
        <ele>173</ele>
        <time>2018-02-06T09:53:45Z</time>
      </trkpt>
      <trkpt lat="45.9288" lon="4.73893">
        <ele>173</ele>
        <time>2018-02-06T09:53:46Z</time>
      </trkpt>
      <trkpt lat="45.92881" lon="4.73901">
        <ele>173</ele>
        <time>2018-02-06T09:53:47Z</time>
      </trkpt>
      <trkpt lat="45.92882" lon="4.73909">
        <ele>173</ele>
        <time>2018-02-06T09:53:48Z</time>
      </trkpt>
      <trkpt lat="45.92883" lon="4.73917">
        <ele>172</ele>
        <time>2018-02-06T09:53:49Z</time>
      </trkpt>
      <trkpt lat="45.92884" lon="4.73926">
        <ele>172</ele>
        <time>2018-02-06T09:53:50Z</time>
      </trkpt>
      <trkpt lat="45.92884" lon="4.73934">
        <ele>172</ele>
        <time>2018-02-06T09:53:51Z</time>
      </trkpt>
      <trkpt lat="45.92884" lon="4.73942">
        <ele>172</ele>
        <time>2018-02-06T09:53:52Z</time>
      </trkpt>
      <trkpt lat="45.92885" lon="4.7395">
        <ele>172</ele>
        <time>2018-02-06T09:53:53Z</time>
      </trkpt>
      <trkpt lat="45.92885" lon="4.73957">
        <ele>172</ele>
        <time>2018-02-06T09:53:54Z</time>
      </trkpt>
      <trkpt lat="45.92884" lon="4.73965">
        <ele>172</ele>
        <time>2018-02-06T09:53:55Z</time>
      </trkpt>
      <trkpt lat="45.92884" lon="4.73972">
        <ele>172</ele>
        <time>2018-02-06T09:53:56Z</time>
      </trkpt>
      <trkpt lat="45.92883" lon="4.73979">
        <ele>172</ele>
        <time>2018-02-06T09:53:57Z</time>
      </trkpt>
      <trkpt lat="45.92882" lon="4.73987">
        <ele>172</ele>
        <time>2018-02-06T09:53:58Z</time>
      </trkpt>
      <trkpt lat="45.9288" lon="4.73994">
        <ele>172</ele>
        <time>2018-02-06T09:53:59Z</time>
      </trkpt>
      <trkpt lat="45.92879" lon="4.74002">
        <ele>172</ele>
        <time>2018-02-06T09:54:00Z</time>
      </trkpt>
      <trkpt lat="45.92877" lon="4.7401">
        <ele>172</ele>
        <time>2018-02-06T09:54:01Z</time>
      </trkpt>
      <trkpt lat="45.92876" lon="4.74019">
        <ele>172</ele>
        <time>2018-02-06T09:54:02Z</time>
      </trkpt>
      <trkpt lat="45.92874" lon="4.74026">
        <ele>172</ele>
        <time>2018-02-06T09:54:03Z</time>
      </trkpt>
      <trkpt lat="45.92871" lon="4.74034">
        <ele>172</ele>
        <time>2018-02-06T09:54:04Z</time>
      </trkpt>
      <trkpt lat="45.92868" lon="4.74042">
        <ele>172</ele>
        <time>2018-02-06T09:54:05Z</time>
      </trkpt>
      <trkpt lat="45.92864" lon="4.74048">
        <ele>172</ele>
        <time>2018-02-06T09:54:06Z</time>
      </trkpt>
      <trkpt lat="45.9286" lon="4.74054">
        <ele>172</ele>
        <time>2018-02-06T09:54:07Z</time>
      </trkpt>
      <trkpt lat="45.92856" lon="4.7406">
        <ele>172</ele>
        <time>2018-02-06T09:54:08Z</time>
      </trkpt>
      <trkpt lat="45.92852" lon="4.74065">
        <ele>172</ele>
        <time>2018-02-06T09:54:09Z</time>
      </trkpt>
      <trkpt lat="45.92847" lon="4.7407">
        <ele>172</ele>
        <time>2018-02-06T09:54:10Z</time>
      </trkpt>
      <trkpt lat="45.92843" lon="4.74076">
        <ele>172</ele>
        <time>2018-02-06T09:54:11Z</time>
      </trkpt>
      <trkpt lat="45.92838" lon="4.74082">
        <ele>171</ele>
        <time>2018-02-06T09:54:12Z</time>
      </trkpt>
      <trkpt lat="45.92833" lon="4.74087">
        <ele>171</ele>
        <time>2018-02-06T09:54:13Z</time>
      </trkpt>
      <trkpt lat="45.92829" lon="4.74092">
        <ele>171</ele>
        <time>2018-02-06T09:54:14Z</time>
      </trkpt>
      <trkpt lat="45.92825" lon="4.74098">
        <ele>171</ele>
        <time>2018-02-06T09:54:15Z</time>
      </trkpt>
      <trkpt lat="45.92821" lon="4.74103">
        <ele>171</ele>
        <time>2018-02-06T09:54:16Z</time>
      </trkpt>
      <trkpt lat="45.92816" lon="4.74108">
        <ele>172</ele>
        <time>2018-02-06T09:54:17Z</time>
      </trkpt>
      <trkpt lat="45.92811" lon="4.74113">
        <ele>172</ele>
        <time>2018-02-06T09:54:18Z</time>
      </trkpt>
      <trkpt lat="45.92807" lon="4.74117">
        <ele>172</ele>
        <time>2018-02-06T09:54:19Z</time>
      </trkpt>
      <trkpt lat="45.92801" lon="4.74123">
        <ele>172</ele>
        <time>2018-02-06T09:54:20Z</time>
      </trkpt>
      <trkpt lat="45.92796" lon="4.74127">
        <ele>172</ele>
        <time>2018-02-06T09:54:21Z</time>
      </trkpt>
      <trkpt lat="45.92791" lon="4.74133">
        <ele>172</ele>
        <time>2018-02-06T09:54:22Z</time>
      </trkpt>
      <trkpt lat="45.92786" lon="4.74137">
        <ele>172</ele>
        <time>2018-02-06T09:54:23Z</time>
      </trkpt>
      <trkpt lat="45.92781" lon="4.74142">
        <ele>172</ele>
        <time>2018-02-06T09:54:24Z</time>
      </trkpt>
      <trkpt lat="45.92777" lon="4.74146">
        <ele>172</ele>
        <time>2018-02-06T09:54:25Z</time>
      </trkpt>
      <trkpt lat="45.92772" lon="4.7415">
        <ele>172</ele>
        <time>2018-02-06T09:54:26Z</time>
      </trkpt>
      <trkpt lat="45.92768" lon="4.74155">
        <ele>172</ele>
        <time>2018-02-06T09:54:27Z</time>
      </trkpt>
      <trkpt lat="45.92764" lon="4.74162">
        <ele>172</ele>
        <time>2018-02-06T09:54:28Z</time>
      </trkpt>
      <trkpt lat="45.92759" lon="4.74167">
        <ele>172</ele>
        <time>2018-02-06T09:54:29Z</time>
      </trkpt>
      <trkpt lat="45.92755" lon="4.74172">
        <ele>172</ele>
        <time>2018-02-06T09:54:30Z</time>
      </trkpt>
      <trkpt lat="45.9275" lon="4.74177">
        <ele>172</ele>
        <time>2018-02-06T09:54:31Z</time>
      </trkpt>
      <trkpt lat="45.92746" lon="4.74182">
        <ele>172</ele>
        <time>2018-02-06T09:54:32Z</time>
      </trkpt>
      <trkpt lat="45.92743" lon="4.74188">
        <ele>172</ele>
        <time>2018-02-06T09:54:33Z</time>
      </trkpt>
      <trkpt lat="45.92739" lon="4.74193">
        <ele>171</ele>
        <time>2018-02-06T09:54:34Z</time>
      </trkpt>
      <trkpt lat="45.92735" lon="4.742">
        <ele>171</ele>
        <time>2018-02-06T09:54:35Z</time>
      </trkpt>
      <trkpt lat="45.92731" lon="4.74205">
        <ele>171</ele>
        <time>2018-02-06T09:54:36Z</time>
      </trkpt>
      <trkpt lat="45.92726" lon="4.74211">
        <ele>171</ele>
        <time>2018-02-06T09:54:37Z</time>
      </trkpt>
      <trkpt lat="45.92722" lon="4.74217">
        <ele>171</ele>
        <time>2018-02-06T09:54:38Z</time>
      </trkpt>
      <trkpt lat="45.92718" lon="4.74223">
        <ele>171</ele>
        <time>2018-02-06T09:54:39Z</time>
      </trkpt>
      <trkpt lat="45.92714" lon="4.7423">
        <ele>171</ele>
        <time>2018-02-06T09:54:40Z</time>
      </trkpt>
      <trkpt lat="45.9271" lon="4.74237">
        <ele>171</ele>
        <time>2018-02-06T09:54:41Z</time>
      </trkpt>
      <trkpt lat="45.92706" lon="4.74244">
        <ele>171</ele>
        <time>2018-02-06T09:54:42Z</time>
      </trkpt>
      <trkpt lat="45.92703" lon="4.74251">
        <ele>171</ele>
        <time>2018-02-06T09:54:43Z</time>
      </trkpt>
      <trkpt lat="45.92698" lon="4.74258">
        <ele>171</ele>
        <time>2018-02-06T09:54:44Z</time>
      </trkpt>
      <trkpt lat="45.92693" lon="4.74265">
        <ele>171</ele>
        <time>2018-02-06T09:54:45Z</time>
      </trkpt>
      <trkpt lat="45.92689" lon="4.74272">
        <ele>171</ele>
        <time>2018-02-06T09:54:46Z</time>
      </trkpt>
      <trkpt lat="45.92686" lon="4.74278">
        <ele>171</ele>
        <time>2018-02-06T09:54:47Z</time>
      </trkpt>
      <trkpt lat="45.92682" lon="4.74285">
        <ele>171</ele>
        <time>2018-02-06T09:54:48Z</time>
      </trkpt>
      <trkpt lat="45.92677" lon="4.74292">
        <ele>171</ele>
        <time>2018-02-06T09:54:49Z</time>
      </trkpt>
      <trkpt lat="45.92673" lon="4.74298">
        <ele>171</ele>
        <time>2018-02-06T09:54:50Z</time>
      </trkpt>
      <trkpt lat="45.9267" lon="4.74304">
        <ele>171</ele>
        <time>2018-02-06T09:54:51Z</time>
      </trkpt>
      <trkpt lat="45.92666" lon="4.74312">
        <ele>171</ele>
        <time>2018-02-06T09:54:52Z</time>
      </trkpt>
      <trkpt lat="45.92662" lon="4.74318">
        <ele>171</ele>
        <time>2018-02-06T09:54:53Z</time>
      </trkpt>
      <trkpt lat="45.92658" lon="4.74324">
        <ele>171</ele>
        <time>2018-02-06T09:54:54Z</time>
      </trkpt>
      <trkpt lat="45.92654" lon="4.74331">
        <ele>171</ele>
        <time>2018-02-06T09:54:55Z</time>
      </trkpt>
      <trkpt lat="45.92651" lon="4.74338">
        <ele>171</ele>
        <time>2018-02-06T09:54:56Z</time>
      </trkpt>
      <trkpt lat="45.92646" lon="4.74345">
        <ele>171</ele>
        <time>2018-02-06T09:54:57Z</time>
      </trkpt>
      <trkpt lat="45.92643" lon="4.74352">
        <ele>171</ele>
        <time>2018-02-06T09:54:58Z</time>
      </trkpt>
      <trkpt lat="45.92639" lon="4.74358">
        <ele>171</ele>
        <time>2018-02-06T09:54:59Z</time>
      </trkpt>
      <trkpt lat="45.92635" lon="4.74365">
        <ele>171</ele>
        <time>2018-02-06T09:55:00Z</time>
      </trkpt>
      <trkpt lat="45.92631" lon="4.74371">
        <ele>171</ele>
        <time>2018-02-06T09:55:01Z</time>
      </trkpt>
      <trkpt lat="45.92628" lon="4.74378">
        <ele>170</ele>
        <time>2018-02-06T09:55:02Z</time>
      </trkpt>
      <trkpt lat="45.92624" lon="4.74385">
        <ele>170</ele>
        <time>2018-02-06T09:55:03Z</time>
      </trkpt>
      <trkpt lat="45.92621" lon="4.74392">
        <ele>170</ele>
        <time>2018-02-06T09:55:04Z</time>
      </trkpt>
      <trkpt lat="45.92618" lon="4.74398">
        <ele>170</ele>
        <time>2018-02-06T09:55:05Z</time>
      </trkpt>
      <trkpt lat="45.92614" lon="4.74404">
        <ele>170</ele>
        <time>2018-02-06T09:55:06Z</time>
      </trkpt>
      <trkpt lat="45.9261" lon="4.74411">
        <ele>170</ele>
        <time>2018-02-06T09:55:07Z</time>
      </trkpt>
      <trkpt lat="45.92606" lon="4.74418">
        <ele>170</ele>
        <time>2018-02-06T09:55:08Z</time>
      </trkpt>
      <trkpt lat="45.92602" lon="4.74425">
        <ele>170</ele>
        <time>2018-02-06T09:55:09Z</time>
      </trkpt>
      <trkpt lat="45.92598" lon="4.74432">
        <ele>170</ele>
        <time>2018-02-06T09:55:10Z</time>
      </trkpt>
      <trkpt lat="45.92595" lon="4.74438">
        <ele>170</ele>
        <time>2018-02-06T09:55:11Z</time>
      </trkpt>
      <trkpt lat="45.92591" lon="4.74446">
        <ele>170</ele>
        <time>2018-02-06T09:55:12Z</time>
      </trkpt>
      <trkpt lat="45.92587" lon="4.74452">
        <ele>170</ele>
        <time>2018-02-06T09:55:13Z</time>
      </trkpt>
      <trkpt lat="45.92584" lon="4.74459">
        <ele>170</ele>
        <time>2018-02-06T09:55:14Z</time>
      </trkpt>
      <trkpt lat="45.9258" lon="4.74466">
        <ele>170</ele>
        <time>2018-02-06T09:55:15Z</time>
      </trkpt>
      <trkpt lat="45.92576" lon="4.74473">
        <ele>170</ele>
        <time>2018-02-06T09:55:16Z</time>
      </trkpt>
      <trkpt lat="45.92573" lon="4.7448">
        <ele>170</ele>
        <time>2018-02-06T09:55:17Z</time>
      </trkpt>
      <trkpt lat="45.9257" lon="4.74487">
        <ele>170</ele>
        <time>2018-02-06T09:55:18Z</time>
      </trkpt>
      <trkpt lat="45.92566" lon="4.74494">
        <ele>170</ele>
        <time>2018-02-06T09:55:19Z</time>
      </trkpt>
      <trkpt lat="45.92563" lon="4.74501">
        <ele>170</ele>
        <time>2018-02-06T09:55:20Z</time>
      </trkpt>
      <trkpt lat="45.92559" lon="4.74508">
        <ele>170</ele>
        <time>2018-02-06T09:55:21Z</time>
      </trkpt>
      <trkpt lat="45.92556" lon="4.74514">
        <ele>170</ele>
        <time>2018-02-06T09:55:22Z</time>
      </trkpt>
      <trkpt lat="45.92553" lon="4.7452">
        <ele>170</ele>
        <time>2018-02-06T09:55:23Z</time>
      </trkpt>
      <trkpt lat="45.92549" lon="4.74526">
        <ele>170</ele>
        <time>2018-02-06T09:55:24Z</time>
      </trkpt>
      <trkpt lat="45.92545" lon="4.74532">
        <ele>170</ele>
        <time>2018-02-06T09:55:25Z</time>
      </trkpt>
      <trkpt lat="45.92542" lon="4.74538">
        <ele>170</ele>
        <time>2018-02-06T09:55:26Z</time>
      </trkpt>
      <trkpt lat="45.92538" lon="4.74545">
        <ele>171</ele>
        <time>2018-02-06T09:55:27Z</time>
      </trkpt>
      <trkpt lat="45.92534" lon="4.74551">
        <ele>171</ele>
        <time>2018-02-06T09:55:28Z</time>
      </trkpt>
      <trkpt lat="45.92528" lon="4.74555">
        <ele>171</ele>
        <time>2018-02-06T09:55:29Z</time>
      </trkpt>
      <trkpt lat="45.92523" lon="4.74561">
        <ele>171</ele>
        <time>2018-02-06T09:55:30Z</time>
      </trkpt>
      <trkpt lat="45.92519" lon="4.74567">
        <ele>171</ele>
        <time>2018-02-06T09:55:31Z</time>
      </trkpt>
      <trkpt lat="45.92514" lon="4.74572">
        <ele>171</ele>
        <time>2018-02-06T09:55:32Z</time>
      </trkpt>
      <trkpt lat="45.92509" lon="4.74577">
        <ele>171</ele>
        <time>2018-02-06T09:55:33Z</time>
      </trkpt>
      <trkpt lat="45.92505" lon="4.74583">
        <ele>171</ele>
        <time>2018-02-06T09:55:34Z</time>
      </trkpt>
      <trkpt lat="45.925" lon="4.74589">
        <ele>171</ele>
        <time>2018-02-06T09:55:35Z</time>
      </trkpt>
      <trkpt lat="45.92495" lon="4.74595">
        <ele>171</ele>
        <time>2018-02-06T09:55:36Z</time>
      </trkpt>
      <trkpt lat="45.9249" lon="4.746">
        <ele>171</ele>
        <time>2018-02-06T09:55:37Z</time>
      </trkpt>
      <trkpt lat="45.92485" lon="4.74605">
        <ele>171</ele>
        <time>2018-02-06T09:55:38Z</time>
      </trkpt>
      <trkpt lat="45.92481" lon="4.74612">
        <ele>171</ele>
        <time>2018-02-06T09:55:39Z</time>
      </trkpt>
      <trkpt lat="45.92476" lon="4.74618">
        <ele>171</ele>
        <time>2018-02-06T09:55:40Z</time>
      </trkpt>
      <trkpt lat="45.92471" lon="4.74624">
        <ele>171</ele>
        <time>2018-02-06T09:55:41Z</time>
      </trkpt>
      <trkpt lat="45.92467" lon="4.74631">
        <ele>171</ele>
        <time>2018-02-06T09:55:42Z</time>
      </trkpt>
      <trkpt lat="45.92462" lon="4.74638">
        <ele>171</ele>
        <time>2018-02-06T09:55:43Z</time>
      </trkpt>
      <trkpt lat="45.92458" lon="4.74645">
        <ele>171</ele>
        <time>2018-02-06T09:55:44Z</time>
      </trkpt>
      <trkpt lat="45.92455" lon="4.7465">
        <ele>171</ele>
        <time>2018-02-06T09:55:45Z</time>
      </trkpt>
      <trkpt lat="45.92452" lon="4.74659">
        <ele>171</ele>
        <time>2018-02-06T09:55:46Z</time>
      </trkpt>
      <trkpt lat="45.92449" lon="4.74667">
        <ele>171</ele>
        <time>2018-02-06T09:55:47Z</time>
      </trkpt>
      <trkpt lat="45.92446" lon="4.74675">
        <ele>171</ele>
        <time>2018-02-06T09:55:48Z</time>
      </trkpt>
      <trkpt lat="45.92442" lon="4.74683">
        <ele>171</ele>
        <time>2018-02-06T09:55:49Z</time>
      </trkpt>
      <trkpt lat="45.92438" lon="4.74691">
        <ele>171</ele>
        <time>2018-02-06T09:55:50Z</time>
      </trkpt>
      <trkpt lat="45.92433" lon="4.74698">
        <ele>171</ele>
        <time>2018-02-06T09:55:51Z</time>
      </trkpt>
      <trkpt lat="45.9243" lon="4.74707">
        <ele>171</ele>
        <time>2018-02-06T09:55:52Z</time>
      </trkpt>
      <trkpt lat="45.92428" lon="4.74714">
        <ele>171</ele>
        <time>2018-02-06T09:55:53Z</time>
      </trkpt>
      <trkpt lat="45.92425" lon="4.74722">
        <ele>171</ele>
        <time>2018-02-06T09:55:54Z</time>
      </trkpt>
      <trkpt lat="45.92422" lon="4.7473">
        <ele>171</ele>
        <time>2018-02-06T09:55:55Z</time>
      </trkpt>
      <trkpt lat="45.9242" lon="4.74739">
        <ele>172</ele>
        <time>2018-02-06T09:55:56Z</time>
      </trkpt>
      <trkpt lat="45.92418" lon="4.74747">
        <ele>172</ele>
        <time>2018-02-06T09:55:57Z</time>
      </trkpt>
      <trkpt lat="45.92415" lon="4.74756">
        <ele>172</ele>
        <time>2018-02-06T09:55:58Z</time>
      </trkpt>
      <trkpt lat="45.92413" lon="4.74764">
        <ele>172</ele>
        <time>2018-02-06T09:55:59Z</time>
      </trkpt>
      <trkpt lat="45.9241" lon="4.74773">
        <ele>171</ele>
        <time>2018-02-06T09:56:00Z</time>
      </trkpt>
      <trkpt lat="45.92409" lon="4.74784">
        <ele>171</ele>
        <time>2018-02-06T09:56:01Z</time>
      </trkpt>
      <trkpt lat="45.92407" lon="4.74792">
        <ele>171</ele>
        <time>2018-02-06T09:56:02Z</time>
      </trkpt>
      <trkpt lat="45.92405" lon="4.74801">
        <ele>171</ele>
        <time>2018-02-06T09:56:03Z</time>
      </trkpt>
      <trkpt lat="45.92403" lon="4.74809">
        <ele>171</ele>
        <time>2018-02-06T09:56:04Z</time>
      </trkpt>
      <trkpt lat="45.924" lon="4.74817">
        <ele>171</ele>
        <time>2018-02-06T09:56:05Z</time>
      </trkpt>
      <trkpt lat="45.92399" lon="4.74827">
        <ele>171</ele>
        <time>2018-02-06T09:56:06Z</time>
      </trkpt>
      <trkpt lat="45.92397" lon="4.74836">
        <ele>171</ele>
        <time>2018-02-06T09:56:07Z</time>
      </trkpt>
      <trkpt lat="45.92394" lon="4.74845">
        <ele>171</ele>
        <time>2018-02-06T09:56:08Z</time>
      </trkpt>
      <trkpt lat="45.92391" lon="4.74853">
        <ele>171</ele>
        <time>2018-02-06T09:56:09Z</time>
      </trkpt>
      <trkpt lat="45.92388" lon="4.74861">
        <ele>171</ele>
        <time>2018-02-06T09:56:10Z</time>
      </trkpt>
      <trkpt lat="45.92385" lon="4.7487">
        <ele>171</ele>
        <time>2018-02-06T09:56:11Z</time>
      </trkpt>
      <trkpt lat="45.92382" lon="4.7488">
        <ele>171</ele>
        <time>2018-02-06T09:56:12Z</time>
      </trkpt>
      <trkpt lat="45.92378" lon="4.74889">
        <ele>171</ele>
        <time>2018-02-06T09:56:13Z</time>
      </trkpt>
      <trkpt lat="45.92375" lon="4.74898">
        <ele>171</ele>
        <time>2018-02-06T09:56:14Z</time>
      </trkpt>
      <trkpt lat="45.92372" lon="4.74906">
        <ele>171</ele>
        <time>2018-02-06T09:56:15Z</time>
      </trkpt>
      <trkpt lat="45.92368" lon="4.74914">
        <ele>171</ele>
        <time>2018-02-06T09:56:16Z</time>
      </trkpt>
      <trkpt lat="45.92366" lon="4.74922">
        <ele>170</ele>
        <time>2018-02-06T09:56:17Z</time>
      </trkpt>
      <trkpt lat="45.92363" lon="4.74929">
        <ele>170</ele>
        <time>2018-02-06T09:56:18Z</time>
      </trkpt>
      <trkpt lat="45.9236" lon="4.74937">
        <ele>170</ele>
        <time>2018-02-06T09:56:19Z</time>
      </trkpt>
      <trkpt lat="45.92357" lon="4.74944">
        <ele>170</ele>
        <time>2018-02-06T09:56:20Z</time>
      </trkpt>
      <trkpt lat="45.92354" lon="4.74952">
        <ele>170</ele>
        <time>2018-02-06T09:56:21Z</time>
      </trkpt>
      <trkpt lat="45.92351" lon="4.74958">
        <ele>170</ele>
        <time>2018-02-06T09:56:22Z</time>
      </trkpt>
      <trkpt lat="45.92348" lon="4.74966">
        <ele>170</ele>
        <time>2018-02-06T09:56:23Z</time>
      </trkpt>
      <trkpt lat="45.92346" lon="4.74973">
        <ele>170</ele>
        <time>2018-02-06T09:56:24Z</time>
      </trkpt>
      <trkpt lat="45.92343" lon="4.74981">
        <ele>170</ele>
        <time>2018-02-06T09:56:25Z</time>
      </trkpt>
      <trkpt lat="45.9234" lon="4.74988">
        <ele>170</ele>
        <time>2018-02-06T09:56:26Z</time>
      </trkpt>
      <trkpt lat="45.92337" lon="4.74995">
        <ele>170</ele>
        <time>2018-02-06T09:56:27Z</time>
      </trkpt>
      <trkpt lat="45.92334" lon="4.75003">
        <ele>170</ele>
        <time>2018-02-06T09:56:28Z</time>
      </trkpt>
      <trkpt lat="45.92331" lon="4.75008">
        <ele>171</ele>
        <time>2018-02-06T09:56:29Z</time>
      </trkpt>
      <trkpt lat="45.92328" lon="4.75015">
        <ele>171</ele>
        <time>2018-02-06T09:56:30Z</time>
      </trkpt>
      <trkpt lat="45.92324" lon="4.75023">
        <ele>171</ele>
        <time>2018-02-06T09:56:31Z</time>
      </trkpt>
      <trkpt lat="45.9232" lon="4.7503">
        <ele>171</ele>
        <time>2018-02-06T09:56:32Z</time>
      </trkpt>
      <trkpt lat="45.92317" lon="4.75037">
        <ele>171</ele>
        <time>2018-02-06T09:56:33Z</time>
      </trkpt>
      <trkpt lat="45.92313" lon="4.75043">
        <ele>172</ele>
        <time>2018-02-06T09:56:34Z</time>
      </trkpt>
      <trkpt lat="45.92308" lon="4.7505">
        <ele>172</ele>
        <time>2018-02-06T09:56:35Z</time>
      </trkpt>
      <trkpt lat="45.92305" lon="4.75057">
        <ele>172</ele>
        <time>2018-02-06T09:56:36Z</time>
      </trkpt>
      <trkpt lat="45.92301" lon="4.75063">
        <ele>172</ele>
        <time>2018-02-06T09:56:37Z</time>
      </trkpt>
      <trkpt lat="45.92297" lon="4.75068">
        <ele>172</ele>
        <time>2018-02-06T09:56:38Z</time>
      </trkpt>
      <trkpt lat="45.92292" lon="4.75074">
        <ele>172</ele>
        <time>2018-02-06T09:56:39Z</time>
      </trkpt>
      <trkpt lat="45.92288" lon="4.75077">
        <ele>172</ele>
        <time>2018-02-06T09:56:40Z</time>
      </trkpt>
      <trkpt lat="45.92283" lon="4.75082">
        <ele>172</ele>
        <time>2018-02-06T09:56:41Z</time>
      </trkpt>
      <trkpt lat="45.92278" lon="4.75087">
        <ele>173</ele>
        <time>2018-02-06T09:56:42Z</time>
      </trkpt>
      <trkpt lat="45.92273" lon="4.75091">
        <ele>173</ele>
        <time>2018-02-06T09:56:43Z</time>
      </trkpt>
      <trkpt lat="45.92269" lon="4.75096">
        <ele>173</ele>
        <time>2018-02-06T09:56:44Z</time>
      </trkpt>
      <trkpt lat="45.92264" lon="4.75098">
        <ele>173</ele>
        <time>2018-02-06T09:56:45Z</time>
      </trkpt>
      <trkpt lat="45.9226" lon="4.75104">
        <ele>173</ele>
        <time>2018-02-06T09:56:46Z</time>
      </trkpt>
      <trkpt lat="45.92255" lon="4.75109">
        <ele>174</ele>
        <time>2018-02-06T09:56:47Z</time>
      </trkpt>
      <trkpt lat="45.92251" lon="4.75116">
        <ele>174</ele>
        <time>2018-02-06T09:56:48Z</time>
      </trkpt>
      <trkpt lat="45.92246" lon="4.75123">
        <ele>174</ele>
        <time>2018-02-06T09:56:49Z</time>
      </trkpt>
      <trkpt lat="45.92242" lon="4.75129">
        <ele>174</ele>
        <time>2018-02-06T09:56:50Z</time>
      </trkpt>
      <trkpt lat="45.92237" lon="4.75135">
        <ele>174</ele>
        <time>2018-02-06T09:56:51Z</time>
      </trkpt>
      <trkpt lat="45.92234" lon="4.75141">
        <ele>174</ele>
        <time>2018-02-06T09:56:52Z</time>
      </trkpt>
      <trkpt lat="45.9223" lon="4.75148">
        <ele>174</ele>
        <time>2018-02-06T09:56:53Z</time>
      </trkpt>
      <trkpt lat="45.92227" lon="4.75153">
        <ele>174</ele>
        <time>2018-02-06T09:56:54Z</time>
      </trkpt>
      <trkpt lat="45.92224" lon="4.75161">
        <ele>174</ele>
        <time>2018-02-06T09:56:55Z</time>
      </trkpt>
      <trkpt lat="45.92221" lon="4.75168">
        <ele>175</ele>
        <time>2018-02-06T09:56:56Z</time>
      </trkpt>
      <trkpt lat="45.92219" lon="4.75175">
        <ele>175</ele>
        <time>2018-02-06T09:56:57Z</time>
      </trkpt>
      <trkpt lat="45.92216" lon="4.75182">
        <ele>175</ele>
        <time>2018-02-06T09:56:58Z</time>
      </trkpt>
      <trkpt lat="45.92215" lon="4.7519">
        <ele>175</ele>
        <time>2018-02-06T09:56:59Z</time>
      </trkpt>
      <trkpt lat="45.92214" lon="4.75196">
        <ele>175</ele>
        <time>2018-02-06T09:57:00Z</time>
      </trkpt>
      <trkpt lat="45.92213" lon="4.75204">
        <ele>175</ele>
        <time>2018-02-06T09:57:01Z</time>
      </trkpt>
      <trkpt lat="45.92212" lon="4.75212">
        <ele>175</ele>
        <time>2018-02-06T09:57:02Z</time>
      </trkpt>
      <trkpt lat="45.92212" lon="4.75221">
        <ele>175</ele>
        <time>2018-02-06T09:57:03Z</time>
      </trkpt>
      <trkpt lat="45.92212" lon="4.75229">
        <ele>175</ele>
        <time>2018-02-06T09:57:04Z</time>
      </trkpt>
      <trkpt lat="45.92211" lon="4.75238">
        <ele>175</ele>
        <time>2018-02-06T09:57:05Z</time>
      </trkpt>
      <trkpt lat="45.92211" lon="4.75245">
        <ele>175</ele>
        <time>2018-02-06T09:57:06Z</time>
      </trkpt>
      <trkpt lat="45.92211" lon="4.75253">
        <ele>175</ele>
        <time>2018-02-06T09:57:07Z</time>
      </trkpt>
      <trkpt lat="45.9221" lon="4.75259">
        <ele>176</ele>
        <time>2018-02-06T09:57:08Z</time>
      </trkpt>
      <trkpt lat="45.92209" lon="4.75267">
        <ele>176</ele>
        <time>2018-02-06T09:57:09Z</time>
      </trkpt>
      <trkpt lat="45.92209" lon="4.75274">
        <ele>176</ele>
        <time>2018-02-06T09:57:10Z</time>
      </trkpt>
      <trkpt lat="45.92209" lon="4.75282">
        <ele>176</ele>
        <time>2018-02-06T09:57:11Z</time>
      </trkpt>
      <trkpt lat="45.92209" lon="4.7529">
        <ele>176</ele>
        <time>2018-02-06T09:57:12Z</time>
      </trkpt>
      <trkpt lat="45.92209" lon="4.75296">
        <ele>176</ele>
        <time>2018-02-06T09:57:13Z</time>
      </trkpt>
      <trkpt lat="45.92208" lon="4.75303">
        <ele>176</ele>
        <time>2018-02-06T09:57:14Z</time>
      </trkpt>
      <trkpt lat="45.92207" lon="4.7531">
        <ele>176</ele>
        <time>2018-02-06T09:57:15Z</time>
      </trkpt>
      <trkpt lat="45.92206" lon="4.75317">
        <ele>176</ele>
        <time>2018-02-06T09:57:16Z</time>
      </trkpt>
      <trkpt lat="45.92206" lon="4.75324">
        <ele>176</ele>
        <time>2018-02-06T09:57:17Z</time>
      </trkpt>
      <trkpt lat="45.92205" lon="4.75331">
        <ele>176</ele>
        <time>2018-02-06T09:57:18Z</time>
      </trkpt>
      <trkpt lat="45.92204" lon="4.75338">
        <ele>177</ele>
        <time>2018-02-06T09:57:19Z</time>
      </trkpt>
      <trkpt lat="45.92202" lon="4.75345">
        <ele>177</ele>
        <time>2018-02-06T09:57:20Z</time>
      </trkpt>
      <trkpt lat="45.922" lon="4.75352">
        <ele>177</ele>
        <time>2018-02-06T09:57:21Z</time>
      </trkpt>
      <trkpt lat="45.92196" lon="4.75359">
        <ele>177</ele>
        <time>2018-02-06T09:57:22Z</time>
      </trkpt>
      <trkpt lat="45.92194" lon="4.75367">
        <ele>177</ele>
        <time>2018-02-06T09:57:23Z</time>
      </trkpt>
      <trkpt lat="45.92192" lon="4.75375">
        <ele>177</ele>
        <time>2018-02-06T09:57:24Z</time>
      </trkpt>
      <trkpt lat="45.9219" lon="4.75381">
        <ele>177</ele>
        <time>2018-02-06T09:57:25Z</time>
      </trkpt>
      <trkpt lat="45.92186" lon="4.75388">
        <ele>177</ele>
        <time>2018-02-06T09:57:26Z</time>
      </trkpt>
      <trkpt lat="45.92184" lon="4.75395">
        <ele>177</ele>
        <time>2018-02-06T09:57:27Z</time>
      </trkpt>
      <trkpt lat="45.92182" lon="4.75403">
        <ele>177</ele>
        <time>2018-02-06T09:57:28Z</time>
      </trkpt>
      <trkpt lat="45.9218" lon="4.75408">
        <ele>177</ele>
        <time>2018-02-06T09:57:29Z</time>
      </trkpt>
      <trkpt lat="45.92177" lon="4.75416">
        <ele>178</ele>
        <time>2018-02-06T09:57:30Z</time>
      </trkpt>
      <trkpt lat="45.92175" lon="4.75423">
        <ele>177</ele>
        <time>2018-02-06T09:57:31Z</time>
      </trkpt>
      <trkpt lat="45.92172" lon="4.7543">
        <ele>177</ele>
        <time>2018-02-06T09:57:32Z</time>
      </trkpt>
      <trkpt lat="45.9217" lon="4.75437">
        <ele>177</ele>
        <time>2018-02-06T09:57:33Z</time>
      </trkpt>
      <trkpt lat="45.92167" lon="4.75443">
        <ele>176</ele>
        <time>2018-02-06T09:57:34Z</time>
      </trkpt>
      <trkpt lat="45.92162" lon="4.7545">
        <ele>176</ele>
        <time>2018-02-06T09:57:35Z</time>
      </trkpt>
      <trkpt lat="45.9216" lon="4.75456">
        <ele>176</ele>
        <time>2018-02-06T09:57:36Z</time>
      </trkpt>
      <trkpt lat="45.92157" lon="4.75463">
        <ele>176</ele>
        <time>2018-02-06T09:57:37Z</time>
      </trkpt>
      <trkpt lat="45.92154" lon="4.75469">
        <ele>176</ele>
        <time>2018-02-06T09:57:38Z</time>
      </trkpt>
      <trkpt lat="45.92152" lon="4.75475">
        <ele>176</ele>
        <time>2018-02-06T09:57:39Z</time>
      </trkpt>
      <trkpt lat="45.92149" lon="4.75482">
        <ele>176</ele>
        <time>2018-02-06T09:57:40Z</time>
      </trkpt>
      <trkpt lat="45.92146" lon="4.75489">
        <ele>176</ele>
        <time>2018-02-06T09:57:41Z</time>
      </trkpt>
      <trkpt lat="45.92144" lon="4.75496">
        <ele>175</ele>
        <time>2018-02-06T09:57:42Z</time>
      </trkpt>
      <trkpt lat="45.9214" lon="4.75503">
        <ele>174</ele>
        <time>2018-02-06T09:57:43Z</time>
      </trkpt>
      <trkpt lat="45.92136" lon="4.75509">
        <ele>174</ele>
        <time>2018-02-06T09:57:44Z</time>
      </trkpt>
      <trkpt lat="45.92132" lon="4.75516">
        <ele>174</ele>
        <time>2018-02-06T09:57:45Z</time>
      </trkpt>
      <trkpt lat="45.92128" lon="4.75523">
        <ele>174</ele>
        <time>2018-02-06T09:57:46Z</time>
      </trkpt>
      <trkpt lat="45.92123" lon="4.75528">
        <ele>174</ele>
        <time>2018-02-06T09:57:47Z</time>
      </trkpt>
      <trkpt lat="45.9212" lon="4.75536">
        <ele>174</ele>
        <time>2018-02-06T09:57:48Z</time>
      </trkpt>
      <trkpt lat="45.92118" lon="4.75543">
        <ele>174</ele>
        <time>2018-02-06T09:57:49Z</time>
      </trkpt>
      <trkpt lat="45.92115" lon="4.7555">
        <ele>174</ele>
        <time>2018-02-06T09:57:50Z</time>
      </trkpt>
      <trkpt lat="45.92109" lon="4.7556">
        <ele>174</ele>
        <time>2018-02-06T09:57:52Z</time>
      </trkpt>
      <trkpt lat="45.92105" lon="4.75565">
        <ele>174</ele>
        <time>2018-02-06T09:57:53Z</time>
      </trkpt>
      <trkpt lat="45.92103" lon="4.75571">
        <ele>174</ele>
        <time>2018-02-06T09:57:54Z</time>
      </trkpt>
      <trkpt lat="45.92104" lon="4.75579">
        <ele>174</ele>
        <time>2018-02-06T09:57:55Z</time>
      </trkpt>
      <trkpt lat="45.92107" lon="4.75585">
        <ele>174</ele>
        <time>2018-02-06T09:57:56Z</time>
      </trkpt>
      <trkpt lat="45.92111" lon="4.75589">
        <ele>174</ele>
        <time>2018-02-06T09:57:57Z</time>
      </trkpt>
      <trkpt lat="45.92115" lon="4.75591">
        <ele>174</ele>
        <time>2018-02-06T09:57:58Z</time>
      </trkpt>
      <trkpt lat="45.9212" lon="4.75594">
        <ele>174</ele>
        <time>2018-02-06T09:57:59Z</time>
      </trkpt>
      <trkpt lat="45.92125" lon="4.75597">
        <ele>174</ele>
        <time>2018-02-06T09:58:00Z</time>
      </trkpt>
      <trkpt lat="45.9213" lon="4.75601">
        <ele>174</ele>
        <time>2018-02-06T09:58:01Z</time>
      </trkpt>
      <trkpt lat="45.92134" lon="4.75606">
        <ele>174</ele>
        <time>2018-02-06T09:58:02Z</time>
      </trkpt>
      <trkpt lat="45.92138" lon="4.75612">
        <ele>174</ele>
        <time>2018-02-06T09:58:03Z</time>
      </trkpt>
      <trkpt lat="45.92143" lon="4.75617">
        <ele>174</ele>
        <time>2018-02-06T09:58:04Z</time>
      </trkpt>
      <trkpt lat="45.92148" lon="4.75623">
        <ele>174</ele>
        <time>2018-02-06T09:58:05Z</time>
      </trkpt>
      <trkpt lat="45.92152" lon="4.75627">
        <ele>174</ele>
        <time>2018-02-06T09:58:06Z</time>
      </trkpt>
      <trkpt lat="45.92157" lon="4.75632">
        <ele>174</ele>
        <time>2018-02-06T09:58:07Z</time>
      </trkpt>
      <trkpt lat="45.92162" lon="4.75636">
        <ele>174</ele>
        <time>2018-02-06T09:58:08Z</time>
      </trkpt>
      <trkpt lat="45.92166" lon="4.7564">
        <ele>174</ele>
        <time>2018-02-06T09:58:09Z</time>
      </trkpt>
      <trkpt lat="45.92171" lon="4.75646">
        <ele>174</ele>
        <time>2018-02-06T09:58:10Z</time>
      </trkpt>
      <trkpt lat="45.92177" lon="4.75649">
        <ele>174</ele>
        <time>2018-02-06T09:58:11Z</time>
      </trkpt>
      <trkpt lat="45.92182" lon="4.75654">
        <ele>174</ele>
        <time>2018-02-06T09:58:12Z</time>
      </trkpt>
      <trkpt lat="45.92186" lon="4.75658">
        <ele>174</ele>
        <time>2018-02-06T09:58:13Z</time>
      </trkpt>
      <trkpt lat="45.9219" lon="4.75664">
        <ele>174</ele>
        <time>2018-02-06T09:58:14Z</time>
      </trkpt>
      <trkpt lat="45.92195" lon="4.75668">
        <ele>174</ele>
        <time>2018-02-06T09:58:15Z</time>
      </trkpt>
      <trkpt lat="45.92199" lon="4.75673">
        <ele>174</ele>
        <time>2018-02-06T09:58:16Z</time>
      </trkpt>
      <trkpt lat="45.92205" lon="4.75677">
        <ele>174</ele>
        <time>2018-02-06T09:58:17Z</time>
      </trkpt>
      <trkpt lat="45.92209" lon="4.7568">
        <ele>174</ele>
        <time>2018-02-06T09:58:18Z</time>
      </trkpt>
      <trkpt lat="45.92214" lon="4.75685">
        <ele>174</ele>
        <time>2018-02-06T09:58:19Z</time>
      </trkpt>
      <trkpt lat="45.92219" lon="4.7569">
        <ele>174</ele>
        <time>2018-02-06T09:58:20Z</time>
      </trkpt>
      <trkpt lat="45.92224" lon="4.75696">
        <ele>174</ele>
        <time>2018-02-06T09:58:21Z</time>
      </trkpt>
      <trkpt lat="45.92228" lon="4.75701">
        <ele>174</ele>
        <time>2018-02-06T09:58:22Z</time>
      </trkpt>
      <trkpt lat="45.92233" lon="4.75707">
        <ele>174</ele>
        <time>2018-02-06T09:58:23Z</time>
      </trkpt>
      <trkpt lat="45.92236" lon="4.75714">
        <ele>174</ele>
        <time>2018-02-06T09:58:24Z</time>
      </trkpt>
      <trkpt lat="45.92239" lon="4.75725">
        <ele>174</ele>
        <time>2018-02-06T09:58:25Z</time>
      </trkpt>
      <trkpt lat="45.92242" lon="4.75732">
        <ele>174</ele>
        <time>2018-02-06T09:58:26Z</time>
      </trkpt>
      <trkpt lat="45.92244" lon="4.7574">
        <ele>174</ele>
        <time>2018-02-06T09:58:27Z</time>
      </trkpt>
      <trkpt lat="45.92247" lon="4.75748">
        <ele>174</ele>
        <time>2018-02-06T09:58:28Z</time>
      </trkpt>
      <trkpt lat="45.92248" lon="4.75755">
        <ele>174</ele>
        <time>2018-02-06T09:58:29Z</time>
      </trkpt>
      <trkpt lat="45.9225" lon="4.75762">
        <ele>174</ele>
        <time>2018-02-06T09:58:30Z</time>
      </trkpt>
      <trkpt lat="45.92252" lon="4.75769">
        <ele>174</ele>
        <time>2018-02-06T09:58:31Z</time>
      </trkpt>
      <trkpt lat="45.92254" lon="4.75777">
        <ele>174</ele>
        <time>2018-02-06T09:58:32Z</time>
      </trkpt>
      <trkpt lat="45.92255" lon="4.75785">
        <ele>174</ele>
        <time>2018-02-06T09:58:33Z</time>
      </trkpt>
      <trkpt lat="45.92256" lon="4.75793">
        <ele>174</ele>
        <time>2018-02-06T09:58:34Z</time>
      </trkpt>
      <trkpt lat="45.92258" lon="4.758">
        <ele>174</ele>
        <time>2018-02-06T09:58:35Z</time>
      </trkpt>
      <trkpt lat="45.92261" lon="4.75808">
        <ele>174</ele>
        <time>2018-02-06T09:58:36Z</time>
      </trkpt>
      <trkpt lat="45.92264" lon="4.75814">
        <ele>174</ele>
        <time>2018-02-06T09:58:37Z</time>
      </trkpt>
      <trkpt lat="45.92267" lon="4.75822">
        <ele>174</ele>
        <time>2018-02-06T09:58:38Z</time>
      </trkpt>
      <trkpt lat="45.92271" lon="4.75829">
        <ele>174</ele>
        <time>2018-02-06T09:58:39Z</time>
      </trkpt>
      <trkpt lat="45.92275" lon="4.75834">
        <ele>173</ele>
        <time>2018-02-06T09:58:40Z</time>
      </trkpt>
      <trkpt lat="45.92281" lon="4.7584">
        <ele>173</ele>
        <time>2018-02-06T09:58:41Z</time>
      </trkpt>
      <trkpt lat="45.92287" lon="4.75843">
        <ele>173</ele>
        <time>2018-02-06T09:58:42Z</time>
      </trkpt>
      <trkpt lat="45.92293" lon="4.75846">
        <ele>173</ele>
        <time>2018-02-06T09:58:43Z</time>
      </trkpt>
      <trkpt lat="45.92299" lon="4.75849">
        <ele>173</ele>
        <time>2018-02-06T09:58:44Z</time>
      </trkpt>
      <trkpt lat="45.92305" lon="4.75852">
        <ele>173</ele>
        <time>2018-02-06T09:58:45Z</time>
      </trkpt>
      <trkpt lat="45.92311" lon="4.75856">
        <ele>173</ele>
        <time>2018-02-06T09:58:46Z</time>
      </trkpt>
      <trkpt lat="45.92317" lon="4.7586">
        <ele>173</ele>
        <time>2018-02-06T09:58:47Z</time>
      </trkpt>
      <trkpt lat="45.92322" lon="4.75863">
        <ele>173</ele>
        <time>2018-02-06T09:58:48Z</time>
      </trkpt>
      <trkpt lat="45.92327" lon="4.75866">
        <ele>173</ele>
        <time>2018-02-06T09:58:49Z</time>
      </trkpt>
      <trkpt lat="45.92333" lon="4.7587">
        <ele>173</ele>
        <time>2018-02-06T09:58:50Z</time>
      </trkpt>
      <trkpt lat="45.92339" lon="4.75873">
        <ele>173</ele>
        <time>2018-02-06T09:58:51Z</time>
      </trkpt>
      <trkpt lat="45.92344" lon="4.75877">
        <ele>173</ele>
        <time>2018-02-06T09:58:52Z</time>
      </trkpt>
      <trkpt lat="45.92349" lon="4.75883">
        <ele>173</ele>
        <time>2018-02-06T09:58:53Z</time>
      </trkpt>
      <trkpt lat="45.92353" lon="4.75887">
        <ele>173</ele>
        <time>2018-02-06T09:58:54Z</time>
      </trkpt>
      <trkpt lat="45.92357" lon="4.7589">
        <ele>173</ele>
        <time>2018-02-06T09:58:55Z</time>
      </trkpt>
      <trkpt lat="45.92363" lon="4.75893">
        <ele>173</ele>
        <time>2018-02-06T09:58:56Z</time>
      </trkpt>
      <trkpt lat="45.92368" lon="4.75896">
        <ele>173</ele>
        <time>2018-02-06T09:58:57Z</time>
      </trkpt>
      <trkpt lat="45.92374" lon="4.75898">
        <ele>173</ele>
        <time>2018-02-06T09:58:58Z</time>
      </trkpt>
      <trkpt lat="45.92379" lon="4.75902">
        <ele>173</ele>
        <time>2018-02-06T09:58:59Z</time>
      </trkpt>
      <trkpt lat="45.92383" lon="4.75906">
        <ele>173</ele>
        <time>2018-02-06T09:59:00Z</time>
      </trkpt>
      <trkpt lat="45.92388" lon="4.7591">
        <ele>173</ele>
        <time>2018-02-06T09:59:01Z</time>
      </trkpt>
      <trkpt lat="45.92393" lon="4.75913">
        <ele>173</ele>
        <time>2018-02-06T09:59:02Z</time>
      </trkpt>
      <trkpt lat="45.92398" lon="4.75916">
        <ele>173</ele>
        <time>2018-02-06T09:59:03Z</time>
      </trkpt>
      <trkpt lat="45.92404" lon="4.75919">
        <ele>172</ele>
        <time>2018-02-06T09:59:04Z</time>
      </trkpt>
      <trkpt lat="45.9241" lon="4.75923">
        <ele>172</ele>
        <time>2018-02-06T09:59:05Z</time>
      </trkpt>
      <trkpt lat="45.92414" lon="4.75927">
        <ele>172</ele>
        <time>2018-02-06T09:59:06Z</time>
      </trkpt>
      <trkpt lat="45.9242" lon="4.75931">
        <ele>172</ele>
        <time>2018-02-06T09:59:07Z</time>
      </trkpt>
      <trkpt lat="45.92424" lon="4.75934">
        <ele>172</ele>
        <time>2018-02-06T09:59:08Z</time>
      </trkpt>
      <trkpt lat="45.92429" lon="4.75938">
        <ele>172</ele>
        <time>2018-02-06T09:59:09Z</time>
      </trkpt>
      <trkpt lat="45.92434" lon="4.75941">
        <ele>172</ele>
        <time>2018-02-06T09:59:10Z</time>
      </trkpt>
      <trkpt lat="45.92439" lon="4.75944">
        <ele>172</ele>
        <time>2018-02-06T09:59:11Z</time>
      </trkpt>
      <trkpt lat="45.92443" lon="4.75946">
        <ele>172</ele>
        <time>2018-02-06T09:59:12Z</time>
      </trkpt>
      <trkpt lat="45.92448" lon="4.75949">
        <ele>172</ele>
        <time>2018-02-06T09:59:13Z</time>
      </trkpt>
      <trkpt lat="45.92456" lon="4.75954">
        <ele>172</ele>
        <time>2018-02-06T09:59:15Z</time>
      </trkpt>
      <trkpt lat="45.9246" lon="4.75957">
        <ele>172</ele>
        <time>2018-02-06T09:59:16Z</time>
      </trkpt>
      <trkpt lat="45.92465" lon="4.7596">
        <ele>172</ele>
        <time>2018-02-06T09:59:17Z</time>
      </trkpt>
      <trkpt lat="45.92468" lon="4.75964">
        <ele>172</ele>
        <time>2018-02-06T09:59:18Z</time>
      </trkpt>
      <trkpt lat="45.92475" lon="4.75969">
        <ele>172</ele>
        <time>2018-02-06T09:59:20Z</time>
      </trkpt>
      <trkpt lat="45.92478" lon="4.75971">
        <ele>172</ele>
        <time>2018-02-06T09:59:21Z</time>
      </trkpt>
      <trkpt lat="45.92485" lon="4.75979">
        <ele>172</ele>
        <time>2018-02-06T09:59:23Z</time>
      </trkpt>
      <trkpt lat="45.92488" lon="4.75983">
        <ele>172</ele>
        <time>2018-02-06T09:59:24Z</time>
      </trkpt>
      <trkpt lat="45.92495" lon="4.75989">
        <ele>172</ele>
        <time>2018-02-06T09:59:26Z</time>
      </trkpt>
      <trkpt lat="45.92499" lon="4.75992">
        <ele>172</ele>
        <time>2018-02-06T09:59:27Z</time>
      </trkpt>
      <trkpt lat="45.92507" lon="4.75998">
        <ele>172</ele>
        <time>2018-02-06T09:59:29Z</time>
      </trkpt>
      <trkpt lat="45.92511" lon="4.76">
        <ele>172</ele>
        <time>2018-02-06T09:59:30Z</time>
      </trkpt>
      <trkpt lat="45.92515" lon="4.76003">
        <ele>172</ele>
        <time>2018-02-06T09:59:31Z</time>
      </trkpt>
      <trkpt lat="45.92519" lon="4.76005">
        <ele>172</ele>
        <time>2018-02-06T09:59:32Z</time>
      </trkpt>
      <trkpt lat="45.92527" lon="4.76011">
        <ele>172</ele>
        <time>2018-02-06T09:59:34Z</time>
      </trkpt>
      <trkpt lat="45.92532" lon="4.76014">
        <ele>172</ele>
        <time>2018-02-06T09:59:35Z</time>
      </trkpt>
      <trkpt lat="45.92536" lon="4.76017">
        <ele>172</ele>
        <time>2018-02-06T09:59:36Z</time>
      </trkpt>
      <trkpt lat="45.9254" lon="4.7602">
        <ele>172</ele>
        <time>2018-02-06T09:59:37Z</time>
      </trkpt>
      <trkpt lat="45.92544" lon="4.76024">
        <ele>172</ele>
        <time>2018-02-06T09:59:38Z</time>
      </trkpt>
      <trkpt lat="45.92548" lon="4.76026">
        <ele>172</ele>
        <time>2018-02-06T09:59:39Z</time>
      </trkpt>
      <trkpt lat="45.92553" lon="4.76029">
        <ele>172</ele>
        <time>2018-02-06T09:59:40Z</time>
      </trkpt>
      <trkpt lat="45.92557" lon="4.76032">
        <ele>172</ele>
        <time>2018-02-06T09:59:41Z</time>
      </trkpt>
      <trkpt lat="45.92565" lon="4.76036">
        <ele>172</ele>
        <time>2018-02-06T09:59:43Z</time>
      </trkpt>
      <trkpt lat="45.92569" lon="4.7604">
        <ele>172</ele>
        <time>2018-02-06T09:59:44Z</time>
      </trkpt>
      <trkpt lat="45.92573" lon="4.76043">
        <ele>171</ele>
        <time>2018-02-06T09:59:45Z</time>
      </trkpt>
      <trkpt lat="45.92578" lon="4.76047">
        <ele>171</ele>
        <time>2018-02-06T09:59:46Z</time>
      </trkpt>
      <trkpt lat="45.92583" lon="4.7605">
        <ele>171</ele>
        <time>2018-02-06T09:59:47Z</time>
      </trkpt>
      <trkpt lat="45.92588" lon="4.76054">
        <ele>171</ele>
        <time>2018-02-06T09:59:48Z</time>
      </trkpt>
      <trkpt lat="45.92592" lon="4.76058">
        <ele>171</ele>
        <time>2018-02-06T09:59:49Z</time>
      </trkpt>
      <trkpt lat="45.92598" lon="4.76061">
        <ele>171</ele>
        <time>2018-02-06T09:59:50Z</time>
      </trkpt>
      <trkpt lat="45.92603" lon="4.76064">
        <ele>171</ele>
        <time>2018-02-06T09:59:51Z</time>
      </trkpt>
      <trkpt lat="45.92609" lon="4.76068">
        <ele>171</ele>
        <time>2018-02-06T09:59:52Z</time>
      </trkpt>
      <trkpt lat="45.92614" lon="4.76071">
        <ele>171</ele>
        <time>2018-02-06T09:59:53Z</time>
      </trkpt>
      <trkpt lat="45.9262" lon="4.76075">
        <ele>171</ele>
        <time>2018-02-06T09:59:54Z</time>
      </trkpt>
      <trkpt lat="45.92625" lon="4.7608">
        <ele>171</ele>
        <time>2018-02-06T09:59:55Z</time>
      </trkpt>
      <trkpt lat="45.92631" lon="4.76084">
        <ele>170</ele>
        <time>2018-02-06T09:59:56Z</time>
      </trkpt>
      <trkpt lat="45.92638" lon="4.76088">
        <ele>170</ele>
        <time>2018-02-06T09:59:57Z</time>
      </trkpt>
      <trkpt lat="45.92643" lon="4.76092">
        <ele>170</ele>
        <time>2018-02-06T09:59:58Z</time>
      </trkpt>
      <trkpt lat="45.92648" lon="4.76097">
        <ele>170</ele>
        <time>2018-02-06T09:59:59Z</time>
      </trkpt>
      <trkpt lat="45.92654" lon="4.76101">
        <ele>170</ele>
        <time>2018-02-06T10:00:00Z</time>
      </trkpt>
      <trkpt lat="45.9266" lon="4.76104">
        <ele>170</ele>
        <time>2018-02-06T10:00:01Z</time>
      </trkpt>
      <trkpt lat="45.92667" lon="4.76108">
        <ele>169</ele>
        <time>2018-02-06T10:00:02Z</time>
      </trkpt>
      <trkpt lat="45.92673" lon="4.76112">
        <ele>169</ele>
        <time>2018-02-06T10:00:03Z</time>
      </trkpt>
      <trkpt lat="45.92681" lon="4.76116">
        <ele>169</ele>
        <time>2018-02-06T10:00:04Z</time>
      </trkpt>
      <trkpt lat="45.92687" lon="4.7612">
        <ele>169</ele>
        <time>2018-02-06T10:00:05Z</time>
      </trkpt>
      <trkpt lat="45.92694" lon="4.76125">
        <ele>169</ele>
        <time>2018-02-06T10:00:06Z</time>
      </trkpt>
      <trkpt lat="45.927" lon="4.76129">
        <ele>169</ele>
        <time>2018-02-06T10:00:07Z</time>
      </trkpt>
      <trkpt lat="45.92708" lon="4.76134">
        <ele>169</ele>
        <time>2018-02-06T10:00:08Z</time>
      </trkpt>
      <trkpt lat="45.92714" lon="4.76138">
        <ele>168</ele>
        <time>2018-02-06T10:00:09Z</time>
      </trkpt>
      <trkpt lat="45.92721" lon="4.76143">
        <ele>168</ele>
        <time>2018-02-06T10:00:10Z</time>
      </trkpt>
      <trkpt lat="45.92728" lon="4.76148">
        <ele>168</ele>
        <time>2018-02-06T10:00:11Z</time>
      </trkpt>
      <trkpt lat="45.92735" lon="4.76153">
        <ele>168</ele>
        <time>2018-02-06T10:00:12Z</time>
      </trkpt>
      <trkpt lat="45.92741" lon="4.76158">
        <ele>168</ele>
        <time>2018-02-06T10:00:13Z</time>
      </trkpt>
      <trkpt lat="45.92747" lon="4.76163">
        <ele>167</ele>
        <time>2018-02-06T10:00:14Z</time>
      </trkpt>
      <trkpt lat="45.92753" lon="4.76168">
        <ele>167</ele>
        <time>2018-02-06T10:00:15Z</time>
      </trkpt>
      <trkpt lat="45.92759" lon="4.76173">
        <ele>167</ele>
        <time>2018-02-06T10:00:16Z</time>
      </trkpt>
      <trkpt lat="45.92763" lon="4.76178">
        <ele>167</ele>
        <time>2018-02-06T10:00:17Z</time>
      </trkpt>
      <trkpt lat="45.92769" lon="4.76182">
        <ele>167</ele>
        <time>2018-02-06T10:00:18Z</time>
      </trkpt>
      <trkpt lat="45.92774" lon="4.76186">
        <ele>167</ele>
        <time>2018-02-06T10:00:19Z</time>
      </trkpt>
      <trkpt lat="45.92778" lon="4.7619">
        <ele>168</ele>
        <time>2018-02-06T10:00:20Z</time>
      </trkpt>
      <trkpt lat="45.92783" lon="4.76195">
        <ele>168</ele>
        <time>2018-02-06T10:00:21Z</time>
      </trkpt>
      <trkpt lat="45.92787" lon="4.76199">
        <ele>168</ele>
        <time>2018-02-06T10:00:22Z</time>
      </trkpt>
      <trkpt lat="45.92791" lon="4.76203">
        <ele>168</ele>
        <time>2018-02-06T10:00:23Z</time>
      </trkpt>
      <trkpt lat="45.92795" lon="4.76207">
        <ele>168</ele>
        <time>2018-02-06T10:00:24Z</time>
      </trkpt>
      <trkpt lat="45.928" lon="4.76212">
        <ele>168</ele>
        <time>2018-02-06T10:00:25Z</time>
      </trkpt>
      <trkpt lat="45.92805" lon="4.76217">
        <ele>168</ele>
        <time>2018-02-06T10:00:26Z</time>
      </trkpt>
      <trkpt lat="45.9281" lon="4.76222">
        <ele>168</ele>
        <time>2018-02-06T10:00:27Z</time>
      </trkpt>
      <trkpt lat="45.92814" lon="4.76228">
        <ele>168</ele>
        <time>2018-02-06T10:00:28Z</time>
      </trkpt>
      <trkpt lat="45.92819" lon="4.76232">
        <ele>168</ele>
        <time>2018-02-06T10:00:29Z</time>
      </trkpt>
      <trkpt lat="45.92824" lon="4.76237">
        <ele>168</ele>
        <time>2018-02-06T10:00:30Z</time>
      </trkpt>
      <trkpt lat="45.92829" lon="4.76241">
        <ele>169</ele>
        <time>2018-02-06T10:00:31Z</time>
      </trkpt>
      <trkpt lat="45.92834" lon="4.76246">
        <ele>169</ele>
        <time>2018-02-06T10:00:32Z</time>
      </trkpt>
      <trkpt lat="45.92839" lon="4.7625">
        <ele>169</ele>
        <time>2018-02-06T10:00:33Z</time>
      </trkpt>
      <trkpt lat="45.92843" lon="4.76253">
        <ele>169</ele>
        <time>2018-02-06T10:00:34Z</time>
      </trkpt>
      <trkpt lat="45.92847" lon="4.76255">
        <ele>169</ele>
        <time>2018-02-06T10:00:35Z</time>
      </trkpt>
      <trkpt lat="45.92852" lon="4.76262">
        <ele>169</ele>
        <time>2018-02-06T10:00:36Z</time>
      </trkpt>
      <trkpt lat="45.92857" lon="4.76267">
        <ele>169</ele>
        <time>2018-02-06T10:00:37Z</time>
      </trkpt>
      <trkpt lat="45.92861" lon="4.7627">
        <ele>169</ele>
        <time>2018-02-06T10:00:38Z</time>
      </trkpt>
      <trkpt lat="45.92866" lon="4.76275">
        <ele>169</ele>
        <time>2018-02-06T10:00:39Z</time>
      </trkpt>
      <trkpt lat="45.9287" lon="4.76279">
        <ele>169</ele>
        <time>2018-02-06T10:00:40Z</time>
      </trkpt>
      <trkpt lat="45.92875" lon="4.76284">
        <ele>169</ele>
        <time>2018-02-06T10:00:41Z</time>
      </trkpt>
      <trkpt lat="45.92878" lon="4.76291">
        <ele>169</ele>
        <time>2018-02-06T10:00:42Z</time>
      </trkpt>
      <trkpt lat="45.92882" lon="4.76296">
        <ele>169</ele>
        <time>2018-02-06T10:00:43Z</time>
      </trkpt>
      <trkpt lat="45.92887" lon="4.763">
        <ele>169</ele>
        <time>2018-02-06T10:00:44Z</time>
      </trkpt>
      <trkpt lat="45.92891" lon="4.76305">
        <ele>169</ele>
        <time>2018-02-06T10:00:45Z</time>
      </trkpt>
      <trkpt lat="45.92896" lon="4.76311">
        <ele>169</ele>
        <time>2018-02-06T10:00:46Z</time>
      </trkpt>
      <trkpt lat="45.929" lon="4.76315">
        <ele>169</ele>
        <time>2018-02-06T10:00:47Z</time>
      </trkpt>
      <trkpt lat="45.92905" lon="4.7632">
        <ele>169</ele>
        <time>2018-02-06T10:00:48Z</time>
      </trkpt>
      <trkpt lat="45.9291" lon="4.76324">
        <ele>169</ele>
        <time>2018-02-06T10:00:49Z</time>
      </trkpt>
      <trkpt lat="45.92915" lon="4.76329">
        <ele>169</ele>
        <time>2018-02-06T10:00:50Z</time>
      </trkpt>
      <trkpt lat="45.92919" lon="4.76334">
        <ele>169</ele>
        <time>2018-02-06T10:00:51Z</time>
      </trkpt>
      <trkpt lat="45.92924" lon="4.7634">
        <ele>169</ele>
        <time>2018-02-06T10:00:52Z</time>
      </trkpt>
      <trkpt lat="45.92929" lon="4.76345">
        <ele>169</ele>
        <time>2018-02-06T10:00:53Z</time>
      </trkpt>
      <trkpt lat="45.92933" lon="4.76349">
        <ele>169</ele>
        <time>2018-02-06T10:00:54Z</time>
      </trkpt>
      <trkpt lat="45.92938" lon="4.76354">
        <ele>169</ele>
        <time>2018-02-06T10:00:55Z</time>
      </trkpt>
      <trkpt lat="45.92943" lon="4.76358">
        <ele>169</ele>
        <time>2018-02-06T10:00:56Z</time>
      </trkpt>
      <trkpt lat="45.92947" lon="4.76362">
        <ele>169</ele>
        <time>2018-02-06T10:00:57Z</time>
      </trkpt>
      <trkpt lat="45.92952" lon="4.76366">
        <ele>169</ele>
        <time>2018-02-06T10:00:58Z</time>
      </trkpt>
      <trkpt lat="45.92957" lon="4.76372">
        <ele>169</ele>
        <time>2018-02-06T10:00:59Z</time>
      </trkpt>
      <trkpt lat="45.92961" lon="4.76376">
        <ele>169</ele>
        <time>2018-02-06T10:01:00Z</time>
      </trkpt>
      <trkpt lat="45.92965" lon="4.76379">
        <ele>169</ele>
        <time>2018-02-06T10:01:01Z</time>
      </trkpt>
      <trkpt lat="45.9297" lon="4.76384">
        <ele>169</ele>
        <time>2018-02-06T10:01:02Z</time>
      </trkpt>
      <trkpt lat="45.92974" lon="4.76387">
        <ele>169</ele>
        <time>2018-02-06T10:01:03Z</time>
      </trkpt>
      <trkpt lat="45.92978" lon="4.76392">
        <ele>169</ele>
        <time>2018-02-06T10:01:04Z</time>
      </trkpt>
      <trkpt lat="45.92983" lon="4.76397">
        <ele>169</ele>
        <time>2018-02-06T10:01:05Z</time>
      </trkpt>
      <trkpt lat="45.92987" lon="4.76401">
        <ele>169</ele>
        <time>2018-02-06T10:01:06Z</time>
      </trkpt>
      <trkpt lat="45.92991" lon="4.76405">
        <ele>169</ele>
        <time>2018-02-06T10:01:07Z</time>
      </trkpt>
      <trkpt lat="45.92996" lon="4.7641">
        <ele>169</ele>
        <time>2018-02-06T10:01:08Z</time>
      </trkpt>
      <trkpt lat="45.93" lon="4.76413">
        <ele>169</ele>
        <time>2018-02-06T10:01:09Z</time>
      </trkpt>
      <trkpt lat="45.93004" lon="4.76418">
        <ele>169</ele>
        <time>2018-02-06T10:01:10Z</time>
      </trkpt>
      <trkpt lat="45.93009" lon="4.76424">
        <ele>169</ele>
        <time>2018-02-06T10:01:11Z</time>
      </trkpt>
      <trkpt lat="45.93014" lon="4.76429">
        <ele>169</ele>
        <time>2018-02-06T10:01:12Z</time>
      </trkpt>
      <trkpt lat="45.93018" lon="4.76433">
        <ele>169</ele>
        <time>2018-02-06T10:01:13Z</time>
      </trkpt>
      <trkpt lat="45.93023" lon="4.76438">
        <ele>169</ele>
        <time>2018-02-06T10:01:14Z</time>
      </trkpt>
      <trkpt lat="45.93028" lon="4.76442">
        <ele>169</ele>
        <time>2018-02-06T10:01:15Z</time>
      </trkpt>
      <trkpt lat="45.93033" lon="4.76446">
        <ele>169</ele>
        <time>2018-02-06T10:01:16Z</time>
      </trkpt>
      <trkpt lat="45.93038" lon="4.76451">
        <ele>169</ele>
        <time>2018-02-06T10:01:17Z</time>
      </trkpt>
      <trkpt lat="45.93042" lon="4.76456">
        <ele>169</ele>
        <time>2018-02-06T10:01:18Z</time>
      </trkpt>
      <trkpt lat="45.93047" lon="4.76459">
        <ele>169</ele>
        <time>2018-02-06T10:01:19Z</time>
      </trkpt>
      <trkpt lat="45.93052" lon="4.76463">
        <ele>169</ele>
        <time>2018-02-06T10:01:20Z</time>
      </trkpt>
      <trkpt lat="45.93057" lon="4.76468">
        <ele>169</ele>
        <time>2018-02-06T10:01:21Z</time>
      </trkpt>
      <trkpt lat="45.93062" lon="4.76472">
        <ele>169</ele>
        <time>2018-02-06T10:01:22Z</time>
      </trkpt>
      <trkpt lat="45.93066" lon="4.76476">
        <ele>169</ele>
        <time>2018-02-06T10:01:23Z</time>
      </trkpt>
      <trkpt lat="45.93071" lon="4.7648">
        <ele>169</ele>
        <time>2018-02-06T10:01:24Z</time>
      </trkpt>
      <trkpt lat="45.93076" lon="4.76485">
        <ele>169</ele>
        <time>2018-02-06T10:01:25Z</time>
      </trkpt>
      <trkpt lat="45.93081" lon="4.7649">
        <ele>170</ele>
        <time>2018-02-06T10:01:26Z</time>
      </trkpt>
      <trkpt lat="45.93085" lon="4.76495">
        <ele>170</ele>
        <time>2018-02-06T10:01:27Z</time>
      </trkpt>
      <trkpt lat="45.93089" lon="4.76499">
        <ele>170</ele>
        <time>2018-02-06T10:01:28Z</time>
      </trkpt>
      <trkpt lat="45.93094" lon="4.76504">
        <ele>170</ele>
        <time>2018-02-06T10:01:29Z</time>
      </trkpt>
      <trkpt lat="45.93098" lon="4.76508">
        <ele>170</ele>
        <time>2018-02-06T10:01:30Z</time>
      </trkpt>
      <trkpt lat="45.93102" lon="4.76512">
        <ele>170</ele>
        <time>2018-02-06T10:01:31Z</time>
      </trkpt>
      <trkpt lat="45.93106" lon="4.76516">
        <ele>170</ele>
        <time>2018-02-06T10:01:32Z</time>
      </trkpt>
      <trkpt lat="45.9311" lon="4.76519">
        <ele>170</ele>
        <time>2018-02-06T10:01:33Z</time>
      </trkpt>
      <trkpt lat="45.93115" lon="4.76524">
        <ele>170</ele>
        <time>2018-02-06T10:01:34Z</time>
      </trkpt>
      <trkpt lat="45.93119" lon="4.76528">
        <ele>170</ele>
        <time>2018-02-06T10:01:35Z</time>
      </trkpt>
      <trkpt lat="45.93123" lon="4.76533">
        <ele>170</ele>
        <time>2018-02-06T10:01:36Z</time>
      </trkpt>
      <trkpt lat="45.93129" lon="4.76538">
        <ele>170</ele>
        <time>2018-02-06T10:01:37Z</time>
      </trkpt>
      <trkpt lat="45.93133" lon="4.76541">
        <ele>170</ele>
        <time>2018-02-06T10:01:38Z</time>
      </trkpt>
      <trkpt lat="45.93137" lon="4.76546">
        <ele>170</ele>
        <time>2018-02-06T10:01:39Z</time>
      </trkpt>
      <trkpt lat="45.93142" lon="4.76551">
        <ele>170</ele>
        <time>2018-02-06T10:01:40Z</time>
      </trkpt>
      <trkpt lat="45.93147" lon="4.76555">
        <ele>170</ele>
        <time>2018-02-06T10:01:41Z</time>
      </trkpt>
      <trkpt lat="45.93151" lon="4.7656">
        <ele>170</ele>
        <time>2018-02-06T10:01:42Z</time>
      </trkpt>
      <trkpt lat="45.93156" lon="4.76564">
        <ele>170</ele>
        <time>2018-02-06T10:01:43Z</time>
      </trkpt>
      <trkpt lat="45.9316" lon="4.76569">
        <ele>170</ele>
        <time>2018-02-06T10:01:44Z</time>
      </trkpt>
      <trkpt lat="45.93165" lon="4.76573">
        <ele>171</ele>
        <time>2018-02-06T10:01:45Z</time>
      </trkpt>
      <trkpt lat="45.93168" lon="4.76578">
        <ele>171</ele>
        <time>2018-02-06T10:01:46Z</time>
      </trkpt>
      <trkpt lat="45.93173" lon="4.76583">
        <ele>171</ele>
        <time>2018-02-06T10:01:47Z</time>
      </trkpt>
      <trkpt lat="45.93177" lon="4.76586">
        <ele>171</ele>
        <time>2018-02-06T10:01:48Z</time>
      </trkpt>
      <trkpt lat="45.93181" lon="4.7659">
        <ele>171</ele>
        <time>2018-02-06T10:01:49Z</time>
      </trkpt>
      <trkpt lat="45.93185" lon="4.76595">
        <ele>171</ele>
        <time>2018-02-06T10:01:50Z</time>
      </trkpt>
      <trkpt lat="45.93189" lon="4.76601">
        <ele>171</ele>
        <time>2018-02-06T10:01:51Z</time>
      </trkpt>
      <trkpt lat="45.93193" lon="4.76606">
        <ele>170</ele>
        <time>2018-02-06T10:01:52Z</time>
      </trkpt>
      <trkpt lat="45.93197" lon="4.7661">
        <ele>170</ele>
        <time>2018-02-06T10:01:53Z</time>
      </trkpt>
      <trkpt lat="45.93202" lon="4.76615">
        <ele>170</ele>
        <time>2018-02-06T10:01:54Z</time>
      </trkpt>
      <trkpt lat="45.93206" lon="4.76619">
        <ele>170</ele>
        <time>2018-02-06T10:01:55Z</time>
      </trkpt>
      <trkpt lat="45.93212" lon="4.76623">
        <ele>170</ele>
        <time>2018-02-06T10:01:56Z</time>
      </trkpt>
      <trkpt lat="45.93215" lon="4.76626">
        <ele>170</ele>
        <time>2018-02-06T10:01:57Z</time>
      </trkpt>
      <trkpt lat="45.93219" lon="4.7663">
        <ele>170</ele>
        <time>2018-02-06T10:01:58Z</time>
      </trkpt>
      <trkpt lat="45.93223" lon="4.76634">
        <ele>171</ele>
        <time>2018-02-06T10:01:59Z</time>
      </trkpt>
      <trkpt lat="45.93227" lon="4.76639">
        <ele>171</ele>
        <time>2018-02-06T10:02:00Z</time>
      </trkpt>
      <trkpt lat="45.93232" lon="4.76643">
        <ele>171</ele>
        <time>2018-02-06T10:02:01Z</time>
      </trkpt>
      <trkpt lat="45.93236" lon="4.76647">
        <ele>171</ele>
        <time>2018-02-06T10:02:02Z</time>
      </trkpt>
      <trkpt lat="45.93241" lon="4.76652">
        <ele>171</ele>
        <time>2018-02-06T10:02:03Z</time>
      </trkpt>
      <trkpt lat="45.93245" lon="4.76657">
        <ele>171</ele>
        <time>2018-02-06T10:02:04Z</time>
      </trkpt>
      <trkpt lat="45.93249" lon="4.76662">
        <ele>172</ele>
        <time>2018-02-06T10:02:05Z</time>
      </trkpt>
      <trkpt lat="45.93254" lon="4.76667">
        <ele>172</ele>
        <time>2018-02-06T10:02:06Z</time>
      </trkpt>
      <trkpt lat="45.93259" lon="4.7667">
        <ele>172</ele>
        <time>2018-02-06T10:02:07Z</time>
      </trkpt>
      <trkpt lat="45.93263" lon="4.76674">
        <ele>172</ele>
        <time>2018-02-06T10:02:08Z</time>
      </trkpt>
      <trkpt lat="45.93268" lon="4.76679">
        <ele>172</ele>
        <time>2018-02-06T10:02:09Z</time>
      </trkpt>
      <trkpt lat="45.93272" lon="4.76682">
        <ele>172</ele>
        <time>2018-02-06T10:02:10Z</time>
      </trkpt>
      <trkpt lat="45.93276" lon="4.76685">
        <ele>172</ele>
        <time>2018-02-06T10:02:11Z</time>
      </trkpt>
      <trkpt lat="45.93281" lon="4.7669">
        <ele>172</ele>
        <time>2018-02-06T10:02:12Z</time>
      </trkpt>
      <trkpt lat="45.93285" lon="4.76694">
        <ele>172</ele>
        <time>2018-02-06T10:02:13Z</time>
      </trkpt>
      <trkpt lat="45.93289" lon="4.76699">
        <ele>172</ele>
        <time>2018-02-06T10:02:14Z</time>
      </trkpt>
      <trkpt lat="45.93294" lon="4.76703">
        <ele>172</ele>
        <time>2018-02-06T10:02:15Z</time>
      </trkpt>
      <trkpt lat="45.93298" lon="4.76707">
        <ele>172</ele>
        <time>2018-02-06T10:02:16Z</time>
      </trkpt>
      <trkpt lat="45.93303" lon="4.76711">
        <ele>172</ele>
        <time>2018-02-06T10:02:17Z</time>
      </trkpt>
      <trkpt lat="45.93308" lon="4.76717">
        <ele>172</ele>
        <time>2018-02-06T10:02:18Z</time>
      </trkpt>
      <trkpt lat="45.93312" lon="4.7672">
        <ele>172</ele>
        <time>2018-02-06T10:02:19Z</time>
      </trkpt>
      <trkpt lat="45.93316" lon="4.76725">
        <ele>172</ele>
        <time>2018-02-06T10:02:20Z</time>
      </trkpt>
      <trkpt lat="45.93321" lon="4.76729">
        <ele>172</ele>
        <time>2018-02-06T10:02:21Z</time>
      </trkpt>
      <trkpt lat="45.93325" lon="4.76732">
        <ele>172</ele>
        <time>2018-02-06T10:02:22Z</time>
      </trkpt>
      <trkpt lat="45.93329" lon="4.76736">
        <ele>172</ele>
        <time>2018-02-06T10:02:23Z</time>
      </trkpt>
      <trkpt lat="45.93333" lon="4.7674">
        <ele>173</ele>
        <time>2018-02-06T10:02:24Z</time>
      </trkpt>
      <trkpt lat="45.93337" lon="4.76744">
        <ele>173</ele>
        <time>2018-02-06T10:02:25Z</time>
      </trkpt>
      <trkpt lat="45.93341" lon="4.76748">
        <ele>173</ele>
        <time>2018-02-06T10:02:26Z</time>
      </trkpt>
      <trkpt lat="45.93345" lon="4.76752">
        <ele>172</ele>
        <time>2018-02-06T10:02:27Z</time>
      </trkpt>
      <trkpt lat="45.9335" lon="4.76757">
        <ele>172</ele>
        <time>2018-02-06T10:02:28Z</time>
      </trkpt>
      <trkpt lat="45.93355" lon="4.76761">
        <ele>172</ele>
        <time>2018-02-06T10:02:29Z</time>
      </trkpt>
      <trkpt lat="45.93359" lon="4.76766">
        <ele>172</ele>
        <time>2018-02-06T10:02:30Z</time>
      </trkpt>
      <trkpt lat="45.93364" lon="4.7677">
        <ele>172</ele>
        <time>2018-02-06T10:02:31Z</time>
      </trkpt>
      <trkpt lat="45.93369" lon="4.76775">
        <ele>172</ele>
        <time>2018-02-06T10:02:32Z</time>
      </trkpt>
      <trkpt lat="45.93373" lon="4.76779">
        <ele>172</ele>
        <time>2018-02-06T10:02:33Z</time>
      </trkpt>
      <trkpt lat="45.93378" lon="4.76784">
        <ele>172</ele>
        <time>2018-02-06T10:02:34Z</time>
      </trkpt>
      <trkpt lat="45.93381" lon="4.76789">
        <ele>172</ele>
        <time>2018-02-06T10:02:35Z</time>
      </trkpt>
      <trkpt lat="45.93386" lon="4.76794">
        <ele>172</ele>
        <time>2018-02-06T10:02:36Z</time>
      </trkpt>
      <trkpt lat="45.9339" lon="4.76799">
        <ele>172</ele>
        <time>2018-02-06T10:02:37Z</time>
      </trkpt>
      <trkpt lat="45.93394" lon="4.76804">
        <ele>172</ele>
        <time>2018-02-06T10:02:38Z</time>
      </trkpt>
      <trkpt lat="45.93398" lon="4.76809">
        <ele>172</ele>
        <time>2018-02-06T10:02:39Z</time>
      </trkpt>
      <trkpt lat="45.93401" lon="4.76814">
        <ele>172</ele>
        <time>2018-02-06T10:02:40Z</time>
      </trkpt>
      <trkpt lat="45.93404" lon="4.76822">
        <ele>172</ele>
        <time>2018-02-06T10:02:41Z</time>
      </trkpt>
      <trkpt lat="45.93408" lon="4.76827">
        <ele>172</ele>
        <time>2018-02-06T10:02:42Z</time>
      </trkpt>
      <trkpt lat="45.93411" lon="4.76832">
        <ele>172</ele>
        <time>2018-02-06T10:02:43Z</time>
      </trkpt>
      <trkpt lat="45.93414" lon="4.76837">
        <ele>172</ele>
        <time>2018-02-06T10:02:44Z</time>
      </trkpt>
      <trkpt lat="45.93417" lon="4.76842">
        <ele>171</ele>
        <time>2018-02-06T10:02:45Z</time>
      </trkpt>
      <trkpt lat="45.93419" lon="4.76848">
        <ele>171</ele>
        <time>2018-02-06T10:02:46Z</time>
      </trkpt>
      <trkpt lat="45.93421" lon="4.76856">
        <ele>171</ele>
        <time>2018-02-06T10:02:47Z</time>
      </trkpt>
      <trkpt lat="45.93424" lon="4.76863">
        <ele>171</ele>
        <time>2018-02-06T10:02:48Z</time>
      </trkpt>
      <trkpt lat="45.93427" lon="4.76869">
        <ele>171</ele>
        <time>2018-02-06T10:02:49Z</time>
      </trkpt>
      <trkpt lat="45.93429" lon="4.76876">
        <ele>171</ele>
        <time>2018-02-06T10:02:50Z</time>
      </trkpt>
      <trkpt lat="45.93433" lon="4.76885">
        <ele>171</ele>
        <time>2018-02-06T10:02:51Z</time>
      </trkpt>
      <trkpt lat="45.93435" lon="4.76891">
        <ele>171</ele>
        <time>2018-02-06T10:02:52Z</time>
      </trkpt>
      <trkpt lat="45.93438" lon="4.769">
        <ele>170</ele>
        <time>2018-02-06T10:02:53Z</time>
      </trkpt>
      <trkpt lat="45.93441" lon="4.76906">
        <ele>170</ele>
        <time>2018-02-06T10:02:54Z</time>
      </trkpt>
      <trkpt lat="45.93443" lon="4.76913">
        <ele>170</ele>
        <time>2018-02-06T10:02:55Z</time>
      </trkpt>
      <trkpt lat="45.93445" lon="4.7692">
        <ele>170</ele>
        <time>2018-02-06T10:02:56Z</time>
      </trkpt>
      <trkpt lat="45.93447" lon="4.76928">
        <ele>170</ele>
        <time>2018-02-06T10:02:57Z</time>
      </trkpt>
      <trkpt lat="45.93448" lon="4.76935">
        <ele>170</ele>
        <time>2018-02-06T10:02:58Z</time>
      </trkpt>
      <trkpt lat="45.93449" lon="4.76943">
        <ele>170</ele>
        <time>2018-02-06T10:02:59Z</time>
      </trkpt>
      <trkpt lat="45.9345" lon="4.7695">
        <ele>170</ele>
        <time>2018-02-06T10:03:00Z</time>
      </trkpt>
      <trkpt lat="45.93451" lon="4.76957">
        <ele>170</ele>
        <time>2018-02-06T10:03:01Z</time>
      </trkpt>
      <trkpt lat="45.93452" lon="4.76965">
        <ele>170</ele>
        <time>2018-02-06T10:03:02Z</time>
      </trkpt>
      <trkpt lat="45.93453" lon="4.76972">
        <ele>170</ele>
        <time>2018-02-06T10:03:03Z</time>
      </trkpt>
      <trkpt lat="45.93455" lon="4.76978">
        <ele>170</ele>
        <time>2018-02-06T10:03:04Z</time>
      </trkpt>
      <trkpt lat="45.93456" lon="4.76986">
        <ele>170</ele>
        <time>2018-02-06T10:03:05Z</time>
      </trkpt>
      <trkpt lat="45.93457" lon="4.76992">
        <ele>170</ele>
        <time>2018-02-06T10:03:06Z</time>
      </trkpt>
      <trkpt lat="45.93458" lon="4.76999">
        <ele>170</ele>
        <time>2018-02-06T10:03:07Z</time>
      </trkpt>
      <trkpt lat="45.93459" lon="4.77006">
        <ele>170</ele>
        <time>2018-02-06T10:03:08Z</time>
      </trkpt>
      <trkpt lat="45.9346" lon="4.77013">
        <ele>170</ele>
        <time>2018-02-06T10:03:09Z</time>
      </trkpt>
      <trkpt lat="45.93461" lon="4.77021">
        <ele>170</ele>
        <time>2018-02-06T10:03:10Z</time>
      </trkpt>
      <trkpt lat="45.93463" lon="4.77029">
        <ele>170</ele>
        <time>2018-02-06T10:03:11Z</time>
      </trkpt>
      <trkpt lat="45.93464" lon="4.77037">
        <ele>170</ele>
        <time>2018-02-06T10:03:12Z</time>
      </trkpt>
      <trkpt lat="45.93465" lon="4.77044">
        <ele>170</ele>
        <time>2018-02-06T10:03:13Z</time>
      </trkpt>
      <trkpt lat="45.93466" lon="4.77052">
        <ele>170</ele>
        <time>2018-02-06T10:03:14Z</time>
      </trkpt>
      <trkpt lat="45.93467" lon="4.7706">
        <ele>170</ele>
        <time>2018-02-06T10:03:15Z</time>
      </trkpt>
      <trkpt lat="45.93469" lon="4.77067">
        <ele>170</ele>
        <time>2018-02-06T10:03:16Z</time>
      </trkpt>
      <trkpt lat="45.9347" lon="4.77076">
        <ele>170</ele>
        <time>2018-02-06T10:03:17Z</time>
      </trkpt>
      <trkpt lat="45.93471" lon="4.77084">
        <ele>169</ele>
        <time>2018-02-06T10:03:18Z</time>
      </trkpt>
      <trkpt lat="45.93473" lon="4.77092">
        <ele>169</ele>
        <time>2018-02-06T10:03:19Z</time>
      </trkpt>
      <trkpt lat="45.93475" lon="4.771">
        <ele>169</ele>
        <time>2018-02-06T10:03:20Z</time>
      </trkpt>
      <trkpt lat="45.93476" lon="4.77107">
        <ele>169</ele>
        <time>2018-02-06T10:03:21Z</time>
      </trkpt>
      <trkpt lat="45.93477" lon="4.77113">
        <ele>169</ele>
        <time>2018-02-06T10:03:22Z</time>
      </trkpt>
      <trkpt lat="45.93479" lon="4.7712">
        <ele>169</ele>
        <time>2018-02-06T10:03:23Z</time>
      </trkpt>
      <trkpt lat="45.9348" lon="4.77128">
        <ele>169</ele>
        <time>2018-02-06T10:03:24Z</time>
      </trkpt>
      <trkpt lat="45.93482" lon="4.77135">
        <ele>169</ele>
        <time>2018-02-06T10:03:25Z</time>
      </trkpt>
      <trkpt lat="45.93483" lon="4.77142">
        <ele>169</ele>
        <time>2018-02-06T10:03:26Z</time>
      </trkpt>
      <trkpt lat="45.93485" lon="4.7715">
        <ele>169</ele>
        <time>2018-02-06T10:03:27Z</time>
      </trkpt>
      <trkpt lat="45.93487" lon="4.77157">
        <ele>169</ele>
        <time>2018-02-06T10:03:28Z</time>
      </trkpt>
      <trkpt lat="45.93488" lon="4.77165">
        <ele>169</ele>
        <time>2018-02-06T10:03:29Z</time>
      </trkpt>
      <trkpt lat="45.9349" lon="4.77172">
        <ele>169</ele>
        <time>2018-02-06T10:03:30Z</time>
      </trkpt>
      <trkpt lat="45.93491" lon="4.77179">
        <ele>169</ele>
        <time>2018-02-06T10:03:31Z</time>
      </trkpt>
      <trkpt lat="45.93493" lon="4.77187">
        <ele>169</ele>
        <time>2018-02-06T10:03:32Z</time>
      </trkpt>
      <trkpt lat="45.93494" lon="4.77194">
        <ele>169</ele>
        <time>2018-02-06T10:03:33Z</time>
      </trkpt>
      <trkpt lat="45.93496" lon="4.77201">
        <ele>169</ele>
        <time>2018-02-06T10:03:34Z</time>
      </trkpt>
      <trkpt lat="45.93498" lon="4.77208">
        <ele>169</ele>
        <time>2018-02-06T10:03:35Z</time>
      </trkpt>
      <trkpt lat="45.93499" lon="4.77215">
        <ele>169</ele>
        <time>2018-02-06T10:03:36Z</time>
      </trkpt>
      <trkpt lat="45.93501" lon="4.77223">
        <ele>169</ele>
        <time>2018-02-06T10:03:37Z</time>
      </trkpt>
      <trkpt lat="45.93502" lon="4.77231">
        <ele>169</ele>
        <time>2018-02-06T10:03:38Z</time>
      </trkpt>
      <trkpt lat="45.93504" lon="4.77238">
        <ele>169</ele>
        <time>2018-02-06T10:03:39Z</time>
      </trkpt>
      <trkpt lat="45.93506" lon="4.77245">
        <ele>170</ele>
        <time>2018-02-06T10:03:40Z</time>
      </trkpt>
      <trkpt lat="45.93509" lon="4.77253">
        <ele>170</ele>
        <time>2018-02-06T10:03:41Z</time>
      </trkpt>
      <trkpt lat="45.9351" lon="4.77261">
        <ele>170</ele>
        <time>2018-02-06T10:03:42Z</time>
      </trkpt>
      <trkpt lat="45.93512" lon="4.77267">
        <ele>170</ele>
        <time>2018-02-06T10:03:43Z</time>
      </trkpt>
      <trkpt lat="45.93514" lon="4.77274">
        <ele>170</ele>
        <time>2018-02-06T10:03:44Z</time>
      </trkpt>
      <trkpt lat="45.93515" lon="4.77281">
        <ele>170</ele>
        <time>2018-02-06T10:03:45Z</time>
      </trkpt>
      <trkpt lat="45.93516" lon="4.77288">
        <ele>170</ele>
        <time>2018-02-06T10:03:46Z</time>
      </trkpt>
      <trkpt lat="45.93518" lon="4.77295">
        <ele>170</ele>
        <time>2018-02-06T10:03:47Z</time>
      </trkpt>
      <trkpt lat="45.93519" lon="4.77301">
        <ele>170</ele>
        <time>2018-02-06T10:03:48Z</time>
      </trkpt>
      <trkpt lat="45.93522" lon="4.77313">
        <ele>170</ele>
        <time>2018-02-06T10:03:50Z</time>
      </trkpt>
      <trkpt lat="45.93523" lon="4.7732">
        <ele>170</ele>
        <time>2018-02-06T10:03:51Z</time>
      </trkpt>
      <trkpt lat="45.93525" lon="4.77326">
        <ele>170</ele>
        <time>2018-02-06T10:03:52Z</time>
      </trkpt>
      <trkpt lat="45.93527" lon="4.77333">
        <ele>170</ele>
        <time>2018-02-06T10:03:53Z</time>
      </trkpt>
      <trkpt lat="45.93528" lon="4.7734">
        <ele>170</ele>
        <time>2018-02-06T10:03:54Z</time>
      </trkpt>
      <trkpt lat="45.93529" lon="4.77347">
        <ele>170</ele>
        <time>2018-02-06T10:03:55Z</time>
      </trkpt>
      <trkpt lat="45.93531" lon="4.77354">
        <ele>170</ele>
        <time>2018-02-06T10:03:56Z</time>
      </trkpt>
      <trkpt lat="45.93532" lon="4.77362">
        <ele>170</ele>
        <time>2018-02-06T10:03:57Z</time>
      </trkpt>
      <trkpt lat="45.93534" lon="4.77369">
        <ele>170</ele>
        <time>2018-02-06T10:03:58Z</time>
      </trkpt>
      <trkpt lat="45.93535" lon="4.77377">
        <ele>170</ele>
        <time>2018-02-06T10:03:59Z</time>
      </trkpt>
      <trkpt lat="45.93537" lon="4.77384">
        <ele>170</ele>
        <time>2018-02-06T10:04:00Z</time>
      </trkpt>
      <trkpt lat="45.93539" lon="4.77393">
        <ele>170</ele>
        <time>2018-02-06T10:04:01Z</time>
      </trkpt>
      <trkpt lat="45.9354" lon="4.774">
        <ele>170</ele>
        <time>2018-02-06T10:04:02Z</time>
      </trkpt>
      <trkpt lat="45.93542" lon="4.77407">
        <ele>170</ele>
        <time>2018-02-06T10:04:03Z</time>
      </trkpt>
      <trkpt lat="45.93544" lon="4.77415">
        <ele>170</ele>
        <time>2018-02-06T10:04:04Z</time>
      </trkpt>
      <trkpt lat="45.93546" lon="4.77423">
        <ele>170</ele>
        <time>2018-02-06T10:04:05Z</time>
      </trkpt>
      <trkpt lat="45.93547" lon="4.77431">
        <ele>169</ele>
        <time>2018-02-06T10:04:06Z</time>
      </trkpt>
      <trkpt lat="45.93549" lon="4.77438">
        <ele>169</ele>
        <time>2018-02-06T10:04:07Z</time>
      </trkpt>
      <trkpt lat="45.93551" lon="4.77445">
        <ele>169</ele>
        <time>2018-02-06T10:04:08Z</time>
      </trkpt>
      <trkpt lat="45.93553" lon="4.77454">
        <ele>169</ele>
        <time>2018-02-06T10:04:09Z</time>
      </trkpt>
      <trkpt lat="45.93554" lon="4.77462">
        <ele>169</ele>
        <time>2018-02-06T10:04:10Z</time>
      </trkpt>
      <trkpt lat="45.93556" lon="4.7747">
        <ele>169</ele>
        <time>2018-02-06T10:04:11Z</time>
      </trkpt>
      <trkpt lat="45.93558" lon="4.77478">
        <ele>169</ele>
        <time>2018-02-06T10:04:12Z</time>
      </trkpt>
      <trkpt lat="45.9356" lon="4.77486">
        <ele>169</ele>
        <time>2018-02-06T10:04:13Z</time>
      </trkpt>
      <trkpt lat="45.93562" lon="4.77494">
        <ele>169</ele>
        <time>2018-02-06T10:04:14Z</time>
      </trkpt>
      <trkpt lat="45.93564" lon="4.77501">
        <ele>169</ele>
        <time>2018-02-06T10:04:15Z</time>
      </trkpt>
      <trkpt lat="45.93566" lon="4.77508">
        <ele>169</ele>
        <time>2018-02-06T10:04:16Z</time>
      </trkpt>
      <trkpt lat="45.93567" lon="4.77515">
        <ele>169</ele>
        <time>2018-02-06T10:04:17Z</time>
      </trkpt>
      <trkpt lat="45.93568" lon="4.77522">
        <ele>169</ele>
        <time>2018-02-06T10:04:18Z</time>
      </trkpt>
      <trkpt lat="45.9357" lon="4.77529">
        <ele>169</ele>
        <time>2018-02-06T10:04:19Z</time>
      </trkpt>
      <trkpt lat="45.93572" lon="4.77536">
        <ele>169</ele>
        <time>2018-02-06T10:04:20Z</time>
      </trkpt>
      <trkpt lat="45.93574" lon="4.77543">
        <ele>169</ele>
        <time>2018-02-06T10:04:21Z</time>
      </trkpt>
      <trkpt lat="45.93574" lon="4.77551">
        <ele>169</ele>
        <time>2018-02-06T10:04:22Z</time>
      </trkpt>
      <trkpt lat="45.93577" lon="4.77558">
        <ele>169</ele>
        <time>2018-02-06T10:04:23Z</time>
      </trkpt>
      <trkpt lat="45.93579" lon="4.77565">
        <ele>169</ele>
        <time>2018-02-06T10:04:24Z</time>
      </trkpt>
      <trkpt lat="45.93581" lon="4.77572">
        <ele>170</ele>
        <time>2018-02-06T10:04:25Z</time>
      </trkpt>
      <trkpt lat="45.93583" lon="4.7758">
        <ele>170</ele>
        <time>2018-02-06T10:04:26Z</time>
      </trkpt>
      <trkpt lat="45.93586" lon="4.77587">
        <ele>170</ele>
        <time>2018-02-06T10:04:27Z</time>
      </trkpt>
      <trkpt lat="45.93589" lon="4.77595">
        <ele>170</ele>
        <time>2018-02-06T10:04:28Z</time>
      </trkpt>
      <trkpt lat="45.93591" lon="4.77602">
        <ele>170</ele>
        <time>2018-02-06T10:04:29Z</time>
      </trkpt>
      <trkpt lat="45.93593" lon="4.7761">
        <ele>170</ele>
        <time>2018-02-06T10:04:30Z</time>
      </trkpt>
      <trkpt lat="45.93596" lon="4.77618">
        <ele>170</ele>
        <time>2018-02-06T10:04:31Z</time>
      </trkpt>
      <trkpt lat="45.93598" lon="4.77625">
        <ele>169</ele>
        <time>2018-02-06T10:04:32Z</time>
      </trkpt>
      <trkpt lat="45.936" lon="4.77632">
        <ele>169</ele>
        <time>2018-02-06T10:04:33Z</time>
      </trkpt>
      <trkpt lat="45.93603" lon="4.7764">
        <ele>169</ele>
        <time>2018-02-06T10:04:34Z</time>
      </trkpt>
      <trkpt lat="45.93606" lon="4.77646">
        <ele>169</ele>
        <time>2018-02-06T10:04:35Z</time>
      </trkpt>
      <trkpt lat="45.93608" lon="4.77654">
        <ele>169</ele>
        <time>2018-02-06T10:04:36Z</time>
      </trkpt>
      <trkpt lat="45.93611" lon="4.77661">
        <ele>169</ele>
        <time>2018-02-06T10:04:37Z</time>
      </trkpt>
      <trkpt lat="45.93614" lon="4.77668">
        <ele>169</ele>
        <time>2018-02-06T10:04:38Z</time>
      </trkpt>
      <trkpt lat="45.93618" lon="4.77674">
        <ele>169</ele>
        <time>2018-02-06T10:04:39Z</time>
      </trkpt>
      <trkpt lat="45.93621" lon="4.7768">
        <ele>169</ele>
        <time>2018-02-06T10:04:40Z</time>
      </trkpt>
      <trkpt lat="45.93624" lon="4.77686">
        <ele>169</ele>
        <time>2018-02-06T10:04:41Z</time>
      </trkpt>
      <trkpt lat="45.93627" lon="4.77692">
        <ele>169</ele>
        <time>2018-02-06T10:04:42Z</time>
      </trkpt>
      <trkpt lat="45.9363" lon="4.77699">
        <ele>169</ele>
        <time>2018-02-06T10:04:43Z</time>
      </trkpt>
      <trkpt lat="45.93633" lon="4.77706">
        <ele>170</ele>
        <time>2018-02-06T10:04:44Z</time>
      </trkpt>
      <trkpt lat="45.93635" lon="4.77712">
        <ele>170</ele>
        <time>2018-02-06T10:04:45Z</time>
      </trkpt>
      <trkpt lat="45.93638" lon="4.77717">
        <ele>170</ele>
        <time>2018-02-06T10:04:46Z</time>
      </trkpt>
      <trkpt lat="45.93642" lon="4.77722">
        <ele>170</ele>
        <time>2018-02-06T10:04:47Z</time>
      </trkpt>
      <trkpt lat="45.93645" lon="4.77727">
        <ele>170</ele>
        <time>2018-02-06T10:04:48Z</time>
      </trkpt>
      <trkpt lat="45.93648" lon="4.77732">
        <ele>170</ele>
        <time>2018-02-06T10:04:49Z</time>
      </trkpt>
      <trkpt lat="45.93652" lon="4.7774">
        <ele>170</ele>
        <time>2018-02-06T10:04:51Z</time>
      </trkpt>
      <trkpt lat="45.93655" lon="4.77743">
        <ele>170</ele>
        <time>2018-02-06T10:04:52Z</time>
      </trkpt>
      <trkpt lat="45.9366" lon="4.77751">
        <ele>171</ele>
        <time>2018-02-06T10:04:54Z</time>
      </trkpt>
      <trkpt lat="45.93662" lon="4.77754">
        <ele>171</ele>
        <time>2018-02-06T10:04:55Z</time>
      </trkpt>
      <trkpt lat="45.93667" lon="4.77762">
        <ele>170</ele>
        <time>2018-02-06T10:04:57Z</time>
      </trkpt>
      <trkpt lat="45.9367" lon="4.77766">
        <ele>170</ele>
        <time>2018-02-06T10:04:58Z</time>
      </trkpt>
      <trkpt lat="45.93675" lon="4.77773">
        <ele>170</ele>
        <time>2018-02-06T10:05:00Z</time>
      </trkpt>
      <trkpt lat="45.93677" lon="4.77776">
        <ele>170</ele>
        <time>2018-02-06T10:05:01Z</time>
      </trkpt>
      <trkpt lat="45.93682" lon="4.77784">
        <ele>170</ele>
        <time>2018-02-06T10:05:03Z</time>
      </trkpt>
      <trkpt lat="45.93685" lon="4.77787">
        <ele>170</ele>
        <time>2018-02-06T10:05:04Z</time>
      </trkpt>
      <trkpt lat="45.9369" lon="4.77796">
        <ele>169</ele>
        <time>2018-02-06T10:05:06Z</time>
      </trkpt>
      <trkpt lat="45.93692" lon="4.778">
        <ele>169</ele>
        <time>2018-02-06T10:05:07Z</time>
      </trkpt>
      <trkpt lat="45.93698" lon="4.77807">
        <ele>169</ele>
        <time>2018-02-06T10:05:09Z</time>
      </trkpt>
      <trkpt lat="45.93701" lon="4.77811">
        <ele>169</ele>
        <time>2018-02-06T10:05:10Z</time>
      </trkpt>
      <trkpt lat="45.93707" lon="4.77819">
        <ele>169</ele>
        <time>2018-02-06T10:05:12Z</time>
      </trkpt>
      <trkpt lat="45.9371" lon="4.77824">
        <ele>169</ele>
        <time>2018-02-06T10:05:13Z</time>
      </trkpt>
      <trkpt lat="45.93716" lon="4.77832">
        <ele>169</ele>
        <time>2018-02-06T10:05:15Z</time>
      </trkpt>
      <trkpt lat="45.93718" lon="4.77836">
        <ele>167</ele>
        <time>2018-02-06T10:05:16Z</time>
      </trkpt>
      <trkpt lat="45.93724" lon="4.77844">
        <ele>167</ele>
        <time>2018-02-06T10:05:18Z</time>
      </trkpt>
      <trkpt lat="45.93727" lon="4.77848">
        <ele>167</ele>
        <time>2018-02-06T10:05:19Z</time>
      </trkpt>
      <trkpt lat="45.93732" lon="4.77855">
        <ele>167</ele>
        <time>2018-02-06T10:05:21Z</time>
      </trkpt>
      <trkpt lat="45.93735" lon="4.77859">
        <ele>167</ele>
        <time>2018-02-06T10:05:22Z</time>
      </trkpt>
      <trkpt lat="45.9374" lon="4.77865">
        <ele>167</ele>
        <time>2018-02-06T10:05:24Z</time>
      </trkpt>
      <trkpt lat="45.93743" lon="4.77869">
        <ele>167</ele>
        <time>2018-02-06T10:05:25Z</time>
      </trkpt>
      <trkpt lat="45.93748" lon="4.77875">
        <ele>167</ele>
        <time>2018-02-06T10:05:27Z</time>
      </trkpt>
      <trkpt lat="45.9375" lon="4.77879">
        <ele>166</ele>
        <time>2018-02-06T10:05:28Z</time>
      </trkpt>
      <trkpt lat="45.93756" lon="4.77886">
        <ele>166</ele>
        <time>2018-02-06T10:05:30Z</time>
      </trkpt>
      <trkpt lat="45.93759" lon="4.7789">
        <ele>166</ele>
        <time>2018-02-06T10:05:31Z</time>
      </trkpt>
      <trkpt lat="45.93764" lon="4.77897">
        <ele>166</ele>
        <time>2018-02-06T10:05:33Z</time>
      </trkpt>
      <trkpt lat="45.93767" lon="4.779">
        <ele>166</ele>
        <time>2018-02-06T10:05:34Z</time>
      </trkpt>
      <trkpt lat="45.93772" lon="4.77908">
        <ele>166</ele>
        <time>2018-02-06T10:05:36Z</time>
      </trkpt>
      <trkpt lat="45.93775" lon="4.77911">
        <ele>166</ele>
        <time>2018-02-06T10:05:37Z</time>
      </trkpt>
      <trkpt lat="45.9378" lon="4.77918">
        <ele>168</ele>
        <time>2018-02-06T10:05:39Z</time>
      </trkpt>
      <trkpt lat="45.93784" lon="4.77922">
        <ele>168</ele>
        <time>2018-02-06T10:05:40Z</time>
      </trkpt>
      <trkpt lat="45.93788" lon="4.77928">
        <ele>168</ele>
        <time>2018-02-06T10:05:41Z</time>
      </trkpt>
      <trkpt lat="45.93791" lon="4.77933">
        <ele>168</ele>
        <time>2018-02-06T10:05:42Z</time>
      </trkpt>
      <trkpt lat="45.93795" lon="4.77938">
        <ele>169</ele>
        <time>2018-02-06T10:05:43Z</time>
      </trkpt>
      <trkpt lat="45.93798" lon="4.77944">
        <ele>169</ele>
        <time>2018-02-06T10:05:44Z</time>
      </trkpt>
      <trkpt lat="45.93802" lon="4.77949">
        <ele>169</ele>
        <time>2018-02-06T10:05:45Z</time>
      </trkpt>
      <trkpt lat="45.93805" lon="4.77954">
        <ele>170</ele>
        <time>2018-02-06T10:05:46Z</time>
      </trkpt>
      <trkpt lat="45.93809" lon="4.77959">
        <ele>170</ele>
        <time>2018-02-06T10:05:47Z</time>
      </trkpt>
      <trkpt lat="45.93812" lon="4.77964">
        <ele>170</ele>
        <time>2018-02-06T10:05:48Z</time>
      </trkpt>
      <trkpt lat="45.93817" lon="4.77969">
        <ele>171</ele>
        <time>2018-02-06T10:05:49Z</time>
      </trkpt>
      <trkpt lat="45.93821" lon="4.77974">
        <ele>172</ele>
        <time>2018-02-06T10:05:50Z</time>
      </trkpt>
      <trkpt lat="45.93825" lon="4.77978">
        <ele>173</ele>
        <time>2018-02-06T10:05:51Z</time>
      </trkpt>
      <trkpt lat="45.93829" lon="4.77983">
        <ele>174</ele>
        <time>2018-02-06T10:05:52Z</time>
      </trkpt>
      <trkpt lat="45.93833" lon="4.7799">
        <ele>179</ele>
        <time>2018-02-06T10:05:54Z</time>
      </trkpt>
      <trkpt lat="45.93836" lon="4.77994">
        <ele>179</ele>
        <time>2018-02-06T10:05:55Z</time>
      </trkpt>
      <trkpt lat="45.93839" lon="4.78002">
        <ele>180</ele>
        <time>2018-02-06T10:05:57Z</time>
      </trkpt>
      <trkpt lat="45.9384" lon="4.78008">
        <ele>181</ele>
        <time>2018-02-06T10:05:58Z</time>
      </trkpt>
      <trkpt lat="45.9384" lon="4.78018">
        <ele>181</ele>
        <time>2018-02-06T10:06:00Z</time>
      </trkpt>
      <trkpt lat="45.93841" lon="4.78025">
        <ele>182</ele>
        <time>2018-02-06T10:06:01Z</time>
      </trkpt>
      <trkpt lat="45.93842" lon="4.78031">
        <ele>182</ele>
        <time>2018-02-06T10:06:02Z</time>
      </trkpt>
      <trkpt lat="45.93845" lon="4.78036">
        <ele>182</ele>
        <time>2018-02-06T10:06:03Z</time>
      </trkpt>
      <trkpt lat="45.93848" lon="4.78047">
        <ele>183</ele>
        <time>2018-02-06T10:06:05Z</time>
      </trkpt>
      <trkpt lat="45.93849" lon="4.78053">
        <ele>183</ele>
        <time>2018-02-06T10:06:06Z</time>
      </trkpt>
      <trkpt lat="45.93847" lon="4.78065">
        <ele>182</ele>
        <time>2018-02-06T10:06:08Z</time>
      </trkpt>
      <trkpt lat="45.93846" lon="4.78071">
        <ele>182</ele>
        <time>2018-02-06T10:06:09Z</time>
      </trkpt>
      <trkpt lat="45.93843" lon="4.78082">
        <ele>181</ele>
        <time>2018-02-06T10:06:11Z</time>
      </trkpt>
      <trkpt lat="45.93841" lon="4.78088">
        <ele>182</ele>
        <time>2018-02-06T10:06:12Z</time>
      </trkpt>
      <trkpt lat="45.93839" lon="4.78099">
        <ele>183</ele>
        <time>2018-02-06T10:06:14Z</time>
      </trkpt>
      <trkpt lat="45.93838" lon="4.78104">
        <ele>183</ele>
        <time>2018-02-06T10:06:15Z</time>
      </trkpt>
      <trkpt lat="45.93836" lon="4.78116">
        <ele>184</ele>
        <time>2018-02-06T10:06:17Z</time>
      </trkpt>
      <trkpt lat="45.93835" lon="4.78121">
        <ele>184</ele>
        <time>2018-02-06T10:06:18Z</time>
      </trkpt>
      <trkpt lat="45.93834" lon="4.78128">
        <ele>184</ele>
        <time>2018-02-06T10:06:19Z</time>
      </trkpt>
      <trkpt lat="45.93832" lon="4.78134">
        <ele>180</ele>
        <time>2018-02-06T10:06:20Z</time>
      </trkpt>
      <trkpt lat="45.93831" lon="4.7814">
        <ele>180</ele>
        <time>2018-02-06T10:06:21Z</time>
      </trkpt>
      <trkpt lat="45.93829" lon="4.78147">
        <ele>180</ele>
        <time>2018-02-06T10:06:22Z</time>
      </trkpt>
      <trkpt lat="45.93826" lon="4.78154">
        <ele>181</ele>
        <time>2018-02-06T10:06:23Z</time>
      </trkpt>
      <trkpt lat="45.93825" lon="4.7816">
        <ele>181</ele>
        <time>2018-02-06T10:06:24Z</time>
      </trkpt>
      <trkpt lat="45.93823" lon="4.78167">
        <ele>182</ele>
        <time>2018-02-06T10:06:25Z</time>
      </trkpt>
      <trkpt lat="45.93821" lon="4.78173">
        <ele>182</ele>
        <time>2018-02-06T10:06:26Z</time>
      </trkpt>
      <trkpt lat="45.9382" lon="4.78179">
        <ele>182</ele>
        <time>2018-02-06T10:06:27Z</time>
      </trkpt>
      <trkpt lat="45.93819" lon="4.78189">
        <ele>182</ele>
        <time>2018-02-06T10:06:28Z</time>
      </trkpt>
      <trkpt lat="45.93815" lon="4.78201">
        <ele>182</ele>
        <time>2018-02-06T10:06:30Z</time>
      </trkpt>
      <trkpt lat="45.93812" lon="4.78206">
        <ele>182</ele>
        <time>2018-02-06T10:06:31Z</time>
      </trkpt>
      <trkpt lat="45.93809" lon="4.78215">
        <ele>182</ele>
        <time>2018-02-06T10:06:33Z</time>
      </trkpt>
      <trkpt lat="45.93807" lon="4.7822">
        <ele>182</ele>
        <time>2018-02-06T10:06:34Z</time>
      </trkpt>
      <trkpt lat="45.93803" lon="4.78231">
        <ele>182</ele>
        <time>2018-02-06T10:06:36Z</time>
      </trkpt>
      <trkpt lat="45.93801" lon="4.78236">
        <ele>182</ele>
        <time>2018-02-06T10:06:37Z</time>
      </trkpt>
      <trkpt lat="45.93796" lon="4.78247">
        <ele>182</ele>
        <time>2018-02-06T10:06:39Z</time>
      </trkpt>
      <trkpt lat="45.93794" lon="4.78253">
        <ele>183</ele>
        <time>2018-02-06T10:06:40Z</time>
      </trkpt>
      <trkpt lat="45.93793" lon="4.78265">
        <ele>183</ele>
        <time>2018-02-06T10:06:42Z</time>
      </trkpt>
      <trkpt lat="45.93792" lon="4.78271">
        <ele>183</ele>
        <time>2018-02-06T10:06:43Z</time>
      </trkpt>
      <trkpt lat="45.9379" lon="4.78283">
        <ele>183</ele>
        <time>2018-02-06T10:06:45Z</time>
      </trkpt>
      <trkpt lat="45.93787" lon="4.7829">
        <ele>183</ele>
        <time>2018-02-06T10:06:46Z</time>
      </trkpt>
      <trkpt lat="45.93785" lon="4.78296">
        <ele>183</ele>
        <time>2018-02-06T10:06:47Z</time>
      </trkpt>
      <trkpt lat="45.93783" lon="4.78303">
        <ele>183</ele>
        <time>2018-02-06T10:06:48Z</time>
      </trkpt>
      <trkpt lat="45.93781" lon="4.78309">
        <ele>183</ele>
        <time>2018-02-06T10:06:49Z</time>
      </trkpt>
      <trkpt lat="45.93779" lon="4.78315">
        <ele>183</ele>
        <time>2018-02-06T10:06:50Z</time>
      </trkpt>
      <trkpt lat="45.93778" lon="4.78323">
        <ele>183</ele>
        <time>2018-02-06T10:06:51Z</time>
      </trkpt>
      <trkpt lat="45.93776" lon="4.7833">
        <ele>183</ele>
        <time>2018-02-06T10:06:52Z</time>
      </trkpt>
      <trkpt lat="45.93774" lon="4.78338">
        <ele>183</ele>
        <time>2018-02-06T10:06:53Z</time>
      </trkpt>
      <trkpt lat="45.93771" lon="4.78345">
        <ele>183</ele>
        <time>2018-02-06T10:06:54Z</time>
      </trkpt>
      <trkpt lat="45.93771" lon="4.78356">
        <ele>183</ele>
        <time>2018-02-06T10:06:55Z</time>
      </trkpt>
      <trkpt lat="45.93768" lon="4.78362">
        <ele>183</ele>
        <time>2018-02-06T10:06:56Z</time>
      </trkpt>
      <trkpt lat="45.93766" lon="4.78369">
        <ele>183</ele>
        <time>2018-02-06T10:06:57Z</time>
      </trkpt>
      <trkpt lat="45.93762" lon="4.78375">
        <ele>183</ele>
        <time>2018-02-06T10:06:58Z</time>
      </trkpt>
      <trkpt lat="45.9376" lon="4.78381">
        <ele>183</ele>
        <time>2018-02-06T10:06:59Z</time>
      </trkpt>
      <trkpt lat="45.93758" lon="4.78387">
        <ele>183</ele>
        <time>2018-02-06T10:07:00Z</time>
      </trkpt>
      <trkpt lat="45.93756" lon="4.78393">
        <ele>183</ele>
        <time>2018-02-06T10:07:01Z</time>
      </trkpt>
      <trkpt lat="45.93752" lon="4.78399">
        <ele>182</ele>
        <time>2018-02-06T10:07:02Z</time>
      </trkpt>
      <trkpt lat="45.93751" lon="4.78405">
        <ele>182</ele>
        <time>2018-02-06T10:07:03Z</time>
      </trkpt>
      <trkpt lat="45.93748" lon="4.78413">
        <ele>181</ele>
        <time>2018-02-06T10:07:04Z</time>
      </trkpt>
      <trkpt lat="45.93746" lon="4.7842">
        <ele>181</ele>
        <time>2018-02-06T10:07:05Z</time>
      </trkpt>
      <trkpt lat="45.93745" lon="4.78427">
        <ele>180</ele>
        <time>2018-02-06T10:07:06Z</time>
      </trkpt>
      <trkpt lat="45.93744" lon="4.78434">
        <ele>180</ele>
        <time>2018-02-06T10:07:07Z</time>
      </trkpt>
      <trkpt lat="45.93743" lon="4.78443">
        <ele>180</ele>
        <time>2018-02-06T10:07:08Z</time>
      </trkpt>
      <trkpt lat="45.93742" lon="4.78452">
        <ele>180</ele>
        <time>2018-02-06T10:07:09Z</time>
      </trkpt>
      <trkpt lat="45.9374" lon="4.7846">
        <ele>180</ele>
        <time>2018-02-06T10:07:10Z</time>
      </trkpt>
      <trkpt lat="45.93738" lon="4.78468">
        <ele>180</ele>
        <time>2018-02-06T10:07:11Z</time>
      </trkpt>
      <trkpt lat="45.93737" lon="4.78475">
        <ele>180</ele>
        <time>2018-02-06T10:07:12Z</time>
      </trkpt>
      <trkpt lat="45.93735" lon="4.78484">
        <ele>180</ele>
        <time>2018-02-06T10:07:13Z</time>
      </trkpt>
      <trkpt lat="45.93733" lon="4.78494">
        <ele>180</ele>
        <time>2018-02-06T10:07:14Z</time>
      </trkpt>
      <trkpt lat="45.93732" lon="4.78502">
        <ele>179</ele>
        <time>2018-02-06T10:07:15Z</time>
      </trkpt>
      <trkpt lat="45.9373" lon="4.78511">
        <ele>179</ele>
        <time>2018-02-06T10:07:16Z</time>
      </trkpt>
      <trkpt lat="45.93728" lon="4.78519">
        <ele>179</ele>
        <time>2018-02-06T10:07:17Z</time>
      </trkpt>
      <trkpt lat="45.93725" lon="4.78527">
        <ele>178</ele>
        <time>2018-02-06T10:07:18Z</time>
      </trkpt>
      <trkpt lat="45.93723" lon="4.78536">
        <ele>178</ele>
        <time>2018-02-06T10:07:19Z</time>
      </trkpt>
      <trkpt lat="45.9372" lon="4.78542">
        <ele>178</ele>
        <time>2018-02-06T10:07:20Z</time>
      </trkpt>
      <trkpt lat="45.93718" lon="4.7855">
        <ele>178</ele>
        <time>2018-02-06T10:07:21Z</time>
      </trkpt>
      <trkpt lat="45.93714" lon="4.78554">
        <ele>178</ele>
        <time>2018-02-06T10:07:22Z</time>
      </trkpt>
      <trkpt lat="45.93712" lon="4.78562">
        <ele>178</ele>
        <time>2018-02-06T10:07:23Z</time>
      </trkpt>
      <trkpt lat="45.9371" lon="4.78572">
        <ele>177</ele>
        <time>2018-02-06T10:07:24Z</time>
      </trkpt>
      <trkpt lat="45.93708" lon="4.78581">
        <ele>177</ele>
        <time>2018-02-06T10:07:25Z</time>
      </trkpt>
      <trkpt lat="45.93707" lon="4.78589">
        <ele>176</ele>
        <time>2018-02-06T10:07:26Z</time>
      </trkpt>
      <trkpt lat="45.93706" lon="4.78598">
        <ele>176</ele>
        <time>2018-02-06T10:07:27Z</time>
      </trkpt>
      <trkpt lat="45.93704" lon="4.78606">
        <ele>176</ele>
        <time>2018-02-06T10:07:28Z</time>
      </trkpt>
      <trkpt lat="45.93703" lon="4.78613">
        <ele>176</ele>
        <time>2018-02-06T10:07:29Z</time>
      </trkpt>
      <trkpt lat="45.93702" lon="4.7862">
        <ele>176</ele>
        <time>2018-02-06T10:07:30Z</time>
      </trkpt>
      <trkpt lat="45.93702" lon="4.78628">
        <ele>176</ele>
        <time>2018-02-06T10:07:31Z</time>
      </trkpt>
      <trkpt lat="45.93706" lon="4.78632">
        <ele>176</ele>
        <time>2018-02-06T10:07:32Z</time>
      </trkpt>
      <trkpt lat="45.93714" lon="4.78635">
        <ele>176</ele>
        <time>2018-02-06T10:07:34Z</time>
      </trkpt>
      <trkpt lat="45.93717" lon="4.78635">
        <ele>176</ele>
        <time>2018-02-06T10:07:35Z</time>
      </trkpt>
      <trkpt lat="45.93725" lon="4.78631">
        <ele>177</ele>
        <time>2018-02-06T10:07:37Z</time>
      </trkpt>
      <trkpt lat="45.93727" lon="4.78629">
        <ele>177</ele>
        <time>2018-02-06T10:07:38Z</time>
      </trkpt>
      <trkpt lat="45.93735" lon="4.78628">
        <ele>177</ele>
        <time>2018-02-06T10:07:41Z</time>
      </trkpt>
      <trkpt lat="45.93738" lon="4.78628">
        <ele>177</ele>
        <time>2018-02-06T10:07:42Z</time>
      </trkpt>
      <trkpt lat="45.93746" lon="4.78626">
        <ele>177</ele>
        <time>2018-02-06T10:07:45Z</time>
      </trkpt>
      <trkpt lat="45.93749" lon="4.78625">
        <ele>177</ele>
        <time>2018-02-06T10:07:46Z</time>
      </trkpt>
      <trkpt lat="45.93757" lon="4.78623">
        <ele>181</ele>
        <time>2018-02-06T10:07:49Z</time>
      </trkpt>
      <trkpt lat="45.9376" lon="4.78623">
        <ele>181</ele>
        <time>2018-02-06T10:07:50Z</time>
      </trkpt>
      <trkpt lat="45.93768" lon="4.78621">
        <ele>181</ele>
        <time>2018-02-06T10:07:53Z</time>
      </trkpt>
      <trkpt lat="45.9377" lon="4.7862">
        <ele>181</ele>
        <time>2018-02-06T10:07:54Z</time>
      </trkpt>
      <trkpt lat="45.93777" lon="4.78618">
        <ele>181</ele>
        <time>2018-02-06T10:07:57Z</time>
      </trkpt>
      <trkpt lat="45.93779" lon="4.78618">
        <ele>181</ele>
        <time>2018-02-06T10:07:58Z</time>
      </trkpt>
      <trkpt lat="45.93785" lon="4.78616">
        <ele>182</ele>
        <time>2018-02-06T10:08:00Z</time>
      </trkpt>
      <trkpt lat="45.93789" lon="4.78615">
        <ele>182</ele>
        <time>2018-02-06T10:08:01Z</time>
      </trkpt>
      <trkpt lat="45.93795" lon="4.78613">
        <ele>182</ele>
        <time>2018-02-06T10:08:03Z</time>
      </trkpt>
      <trkpt lat="45.93798" lon="4.78611">
        <ele>182</ele>
        <time>2018-02-06T10:08:04Z</time>
      </trkpt>
      <trkpt lat="45.93805" lon="4.78609">
        <ele>183</ele>
        <time>2018-02-06T10:08:06Z</time>
      </trkpt>
      <trkpt lat="45.93808" lon="4.78608">
        <ele>183</ele>
        <time>2018-02-06T10:08:07Z</time>
      </trkpt>
      <trkpt lat="45.93814" lon="4.78606">
        <ele>183</ele>
        <time>2018-02-06T10:08:09Z</time>
      </trkpt>
      <trkpt lat="45.93817" lon="4.78605">
        <ele>183</ele>
        <time>2018-02-06T10:08:10Z</time>
      </trkpt>
      <trkpt lat="45.93826" lon="4.78602">
        <ele>184</ele>
        <time>2018-02-06T10:08:13Z</time>
      </trkpt>
      <trkpt lat="45.93829" lon="4.78602">
        <ele>184</ele>
        <time>2018-02-06T10:08:14Z</time>
      </trkpt>
      <trkpt lat="45.93836" lon="4.786">
        <ele>187</ele>
        <time>2018-02-06T10:08:17Z</time>
      </trkpt>
      <trkpt lat="45.93839" lon="4.786">
        <ele>187</ele>
        <time>2018-02-06T10:08:18Z</time>
      </trkpt>
      <trkpt lat="45.93845" lon="4.78599">
        <ele>188</ele>
        <time>2018-02-06T10:08:21Z</time>
      </trkpt>
      <trkpt lat="45.93848" lon="4.78599">
        <ele>188</ele>
        <time>2018-02-06T10:08:22Z</time>
      </trkpt>
      <trkpt lat="45.93856" lon="4.78598">
        <ele>188</ele>
        <time>2018-02-06T10:08:26Z</time>
      </trkpt>
      <trkpt lat="45.93859" lon="4.78598">
        <ele>188</ele>
        <time>2018-02-06T10:08:27Z</time>
      </trkpt>
      <trkpt lat="45.93868" lon="4.78597">
        <ele>188</ele>
        <time>2018-02-06T10:08:30Z</time>
      </trkpt>
      <trkpt lat="45.9387" lon="4.78595">
        <ele>189</ele>
        <time>2018-02-06T10:08:31Z</time>
      </trkpt>
      <trkpt lat="45.93878" lon="4.78592">
        <ele>189</ele>
        <time>2018-02-06T10:08:34Z</time>
      </trkpt>
      <trkpt lat="45.9388" lon="4.78591">
        <ele>189</ele>
        <time>2018-02-06T10:08:35Z</time>
      </trkpt>
      <trkpt lat="45.93887" lon="4.78589">
        <ele>190</ele>
        <time>2018-02-06T10:08:38Z</time>
      </trkpt>
      <trkpt lat="45.93889" lon="4.78587">
        <ele>190</ele>
        <time>2018-02-06T10:08:39Z</time>
      </trkpt>
      <trkpt lat="45.93896" lon="4.78584">
        <ele>190</ele>
        <time>2018-02-06T10:08:42Z</time>
      </trkpt>
      <trkpt lat="45.93898" lon="4.78584">
        <ele>191</ele>
        <time>2018-02-06T10:08:43Z</time>
      </trkpt>
      <trkpt lat="45.93906" lon="4.78582">
        <ele>192</ele>
        <time>2018-02-06T10:08:46Z</time>
      </trkpt>
      <trkpt lat="45.93908" lon="4.78581">
        <ele>192</ele>
        <time>2018-02-06T10:08:47Z</time>
      </trkpt>
      <trkpt lat="45.93915" lon="4.78573">
        <ele>193</ele>
        <time>2018-02-06T10:08:50Z</time>
      </trkpt>
      <trkpt lat="45.93916" lon="4.78571">
        <ele>192</ele>
        <time>2018-02-06T10:08:51Z</time>
      </trkpt>
      <trkpt lat="45.93925" lon="4.7857">
        <ele>196</ele>
        <time>2018-02-06T10:08:56Z</time>
      </trkpt>
      <trkpt lat="45.93927" lon="4.78573">
        <ele>195</ele>
        <time>2018-02-06T10:08:57Z</time>
      </trkpt>
      <trkpt lat="45.93929" lon="4.7858">
        <ele>195</ele>
        <time>2018-02-06T10:08:59Z</time>
      </trkpt>
      <trkpt lat="45.9393" lon="4.78585">
        <ele>195</ele>
        <time>2018-02-06T10:09:00Z</time>
      </trkpt>
      <trkpt lat="45.93931" lon="4.78596">
        <ele>195</ele>
        <time>2018-02-06T10:09:02Z</time>
      </trkpt>
      <trkpt lat="45.93931" lon="4.78601">
        <ele>195</ele>
        <time>2018-02-06T10:09:03Z</time>
      </trkpt>
      <trkpt lat="45.93931" lon="4.78611">
        <ele>195</ele>
        <time>2018-02-06T10:09:05Z</time>
      </trkpt>
      <trkpt lat="45.93932" lon="4.78617">
        <ele>195</ele>
        <time>2018-02-06T10:09:06Z</time>
      </trkpt>
      <trkpt lat="45.93933" lon="4.78627">
        <ele>195</ele>
        <time>2018-02-06T10:09:08Z</time>
      </trkpt>
      <trkpt lat="45.93933" lon="4.78632">
        <ele>195</ele>
        <time>2018-02-06T10:09:09Z</time>
      </trkpt>
      <trkpt lat="45.93933" lon="4.78644">
        <ele>195</ele>
        <time>2018-02-06T10:09:11Z</time>
      </trkpt>
      <trkpt lat="45.93933" lon="4.7865">
        <ele>194</ele>
        <time>2018-02-06T10:09:12Z</time>
      </trkpt>
      <trkpt lat="45.93934" lon="4.78661">
        <ele>194</ele>
        <time>2018-02-06T10:09:14Z</time>
      </trkpt>
      <trkpt lat="45.93934" lon="4.78667">
        <ele>193</ele>
        <time>2018-02-06T10:09:15Z</time>
      </trkpt>
      <trkpt lat="45.93934" lon="4.78678">
        <ele>193</ele>
        <time>2018-02-06T10:09:17Z</time>
      </trkpt>
      <trkpt lat="45.93935" lon="4.78683">
        <ele>193</ele>
        <time>2018-02-06T10:09:18Z</time>
      </trkpt>
      <trkpt lat="45.93935" lon="4.78694">
        <ele>194</ele>
        <time>2018-02-06T10:09:20Z</time>
      </trkpt>
      <trkpt lat="45.93935" lon="4.78699">
        <ele>194</ele>
        <time>2018-02-06T10:09:21Z</time>
      </trkpt>
      <trkpt lat="45.93935" lon="4.78711">
        <ele>194</ele>
        <time>2018-02-06T10:09:23Z</time>
      </trkpt>
      <trkpt lat="45.93935" lon="4.78719">
        <ele>194</ele>
        <time>2018-02-06T10:09:24Z</time>
      </trkpt>
      <trkpt lat="45.93936" lon="4.78725">
        <ele>194</ele>
        <time>2018-02-06T10:09:25Z</time>
      </trkpt>
      <trkpt lat="45.93936" lon="4.78732">
        <ele>193</ele>
        <time>2018-02-06T10:09:26Z</time>
      </trkpt>
      <trkpt lat="45.93936" lon="4.78738">
        <ele>193</ele>
        <time>2018-02-06T10:09:27Z</time>
      </trkpt>
      <trkpt lat="45.93936" lon="4.78745">
        <ele>193</ele>
        <time>2018-02-06T10:09:28Z</time>
      </trkpt>
      <trkpt lat="45.93938" lon="4.78751">
        <ele>193</ele>
        <time>2018-02-06T10:09:29Z</time>
      </trkpt>
      <trkpt lat="45.93938" lon="4.78758">
        <ele>193</ele>
        <time>2018-02-06T10:09:30Z</time>
      </trkpt>
      <trkpt lat="45.93938" lon="4.7877">
        <ele>194</ele>
        <time>2018-02-06T10:09:32Z</time>
      </trkpt>
      <trkpt lat="45.93939" lon="4.78776">
        <ele>194</ele>
        <time>2018-02-06T10:09:33Z</time>
      </trkpt>
      <trkpt lat="45.93938" lon="4.78788">
        <ele>194</ele>
        <time>2018-02-06T10:09:35Z</time>
      </trkpt>
      <trkpt lat="45.93938" lon="4.78794">
        <ele>194</ele>
        <time>2018-02-06T10:09:36Z</time>
      </trkpt>
      <trkpt lat="45.93938" lon="4.788">
        <ele>194</ele>
        <time>2018-02-06T10:09:37Z</time>
      </trkpt>
      <trkpt lat="45.93939" lon="4.78808">
        <ele>194</ele>
        <time>2018-02-06T10:09:38Z</time>
      </trkpt>
      <trkpt lat="45.93937" lon="4.78815">
        <ele>194</ele>
        <time>2018-02-06T10:09:39Z</time>
      </trkpt>
      <trkpt lat="45.93938" lon="4.78821">
        <ele>194</ele>
        <time>2018-02-06T10:09:40Z</time>
      </trkpt>
      <trkpt lat="45.93938" lon="4.78827">
        <ele>193</ele>
        <time>2018-02-06T10:09:41Z</time>
      </trkpt>
      <trkpt lat="45.93938" lon="4.78834">
        <ele>193</ele>
        <time>2018-02-06T10:09:42Z</time>
      </trkpt>
      <trkpt lat="45.93939" lon="4.78842">
        <ele>193</ele>
        <time>2018-02-06T10:09:43Z</time>
      </trkpt>
      <trkpt lat="45.93939" lon="4.7885">
        <ele>193</ele>
        <time>2018-02-06T10:09:44Z</time>
      </trkpt>
      <trkpt lat="45.93939" lon="4.78862">
        <ele>194</ele>
        <time>2018-02-06T10:09:46Z</time>
      </trkpt>
      <trkpt lat="45.93939" lon="4.78869">
        <ele>194</ele>
        <time>2018-02-06T10:09:47Z</time>
      </trkpt>
      <trkpt lat="45.93939" lon="4.7888">
        <ele>194</ele>
        <time>2018-02-06T10:09:49Z</time>
      </trkpt>
      <trkpt lat="45.9394" lon="4.78886">
        <ele>193</ele>
        <time>2018-02-06T10:09:50Z</time>
      </trkpt>
      <trkpt lat="45.9394" lon="4.78898">
        <ele>193</ele>
        <time>2018-02-06T10:09:52Z</time>
      </trkpt>
      <trkpt lat="45.9394" lon="4.78904">
        <ele>193</ele>
        <time>2018-02-06T10:09:53Z</time>
      </trkpt>
      <trkpt lat="45.93941" lon="4.78917">
        <ele>193</ele>
        <time>2018-02-06T10:09:55Z</time>
      </trkpt>
      <trkpt lat="45.93941" lon="4.78922">
        <ele>193</ele>
        <time>2018-02-06T10:09:56Z</time>
      </trkpt>
      <trkpt lat="45.93942" lon="4.78935">
        <ele>193</ele>
        <time>2018-02-06T10:09:58Z</time>
      </trkpt>
      <trkpt lat="45.93941" lon="4.78941">
        <ele>194</ele>
        <time>2018-02-06T10:09:59Z</time>
      </trkpt>
      <trkpt lat="45.93941" lon="4.78948">
        <ele>194</ele>
        <time>2018-02-06T10:10:00Z</time>
      </trkpt>
      <trkpt lat="45.93941" lon="4.78955">
        <ele>194</ele>
        <time>2018-02-06T10:10:01Z</time>
      </trkpt>
      <trkpt lat="45.93941" lon="4.78967">
        <ele>194</ele>
        <time>2018-02-06T10:10:03Z</time>
      </trkpt>
      <trkpt lat="45.93941" lon="4.78974">
        <ele>194</ele>
        <time>2018-02-06T10:10:04Z</time>
      </trkpt>
      <trkpt lat="45.93942" lon="4.78985">
        <ele>194</ele>
        <time>2018-02-06T10:10:06Z</time>
      </trkpt>
      <trkpt lat="45.93942" lon="4.78991">
        <ele>194</ele>
        <time>2018-02-06T10:10:07Z</time>
      </trkpt>
      <trkpt lat="45.93944" lon="4.79002">
        <ele>194</ele>
        <time>2018-02-06T10:10:09Z</time>
      </trkpt>
      <trkpt lat="45.93944" lon="4.79008">
        <ele>195</ele>
        <time>2018-02-06T10:10:10Z</time>
      </trkpt>
      <trkpt lat="45.93945" lon="4.79021">
        <ele>195</ele>
        <time>2018-02-06T10:10:12Z</time>
      </trkpt>
      <trkpt lat="45.93945" lon="4.79027">
        <ele>195</ele>
        <time>2018-02-06T10:10:13Z</time>
      </trkpt>
      <trkpt lat="45.93945" lon="4.79039">
        <ele>195</ele>
        <time>2018-02-06T10:10:15Z</time>
      </trkpt>
      <trkpt lat="45.93946" lon="4.79046">
        <ele>196</ele>
        <time>2018-02-06T10:10:16Z</time>
      </trkpt>
      <trkpt lat="45.93947" lon="4.79058">
        <ele>196</ele>
        <time>2018-02-06T10:10:18Z</time>
      </trkpt>
      <trkpt lat="45.93947" lon="4.79063">
        <ele>196</ele>
        <time>2018-02-06T10:10:19Z</time>
      </trkpt>
      <trkpt lat="45.93948" lon="4.79075">
        <ele>196</ele>
        <time>2018-02-06T10:10:21Z</time>
      </trkpt>
      <trkpt lat="45.93949" lon="4.79081">
        <ele>196</ele>
        <time>2018-02-06T10:10:22Z</time>
      </trkpt>
      <trkpt lat="45.93949" lon="4.79092">
        <ele>196</ele>
        <time>2018-02-06T10:10:24Z</time>
      </trkpt>
      <trkpt lat="45.93948" lon="4.79098">
        <ele>196</ele>
        <time>2018-02-06T10:10:25Z</time>
      </trkpt>
      <trkpt lat="45.93948" lon="4.7911">
        <ele>196</ele>
        <time>2018-02-06T10:10:27Z</time>
      </trkpt>
      <trkpt lat="45.9395" lon="4.79115">
        <ele>197</ele>
        <time>2018-02-06T10:10:28Z</time>
      </trkpt>
      <trkpt lat="45.9395" lon="4.79126">
        <ele>197</ele>
        <time>2018-02-06T10:10:30Z</time>
      </trkpt>
      <trkpt lat="45.93952" lon="4.79131">
        <ele>197</ele>
        <time>2018-02-06T10:10:31Z</time>
      </trkpt>
      <trkpt lat="45.93952" lon="4.79143">
        <ele>197</ele>
        <time>2018-02-06T10:10:33Z</time>
      </trkpt>
      <trkpt lat="45.93952" lon="4.79149">
        <ele>197</ele>
        <time>2018-02-06T10:10:34Z</time>
      </trkpt>
      <trkpt lat="45.93951" lon="4.79161">
        <ele>197</ele>
        <time>2018-02-06T10:10:36Z</time>
      </trkpt>
      <trkpt lat="45.93951" lon="4.79168">
        <ele>197</ele>
        <time>2018-02-06T10:10:37Z</time>
      </trkpt>
      <trkpt lat="45.93951" lon="4.7918">
        <ele>197</ele>
        <time>2018-02-06T10:10:39Z</time>
      </trkpt>
      <trkpt lat="45.93952" lon="4.79186">
        <ele>197</ele>
        <time>2018-02-06T10:10:40Z</time>
      </trkpt>
      <trkpt lat="45.93952" lon="4.79199">
        <ele>197</ele>
        <time>2018-02-06T10:10:42Z</time>
      </trkpt>
      <trkpt lat="45.93952" lon="4.79204">
        <ele>197</ele>
        <time>2018-02-06T10:10:43Z</time>
      </trkpt>
      <trkpt lat="45.93952" lon="4.79216">
        <ele>197</ele>
        <time>2018-02-06T10:10:45Z</time>
      </trkpt>
      <trkpt lat="45.93951" lon="4.79222">
        <ele>197</ele>
        <time>2018-02-06T10:10:46Z</time>
      </trkpt>
      <trkpt lat="45.93951" lon="4.79233">
        <ele>197</ele>
        <time>2018-02-06T10:10:48Z</time>
      </trkpt>
      <trkpt lat="45.93951" lon="4.7924">
        <ele>197</ele>
        <time>2018-02-06T10:10:49Z</time>
      </trkpt>
      <trkpt lat="45.93952" lon="4.79252">
        <ele>198</ele>
        <time>2018-02-06T10:10:51Z</time>
      </trkpt>
      <trkpt lat="45.93952" lon="4.79258">
        <ele>198</ele>
        <time>2018-02-06T10:10:52Z</time>
      </trkpt>
      <trkpt lat="45.93952" lon="4.7927">
        <ele>198</ele>
        <time>2018-02-06T10:10:54Z</time>
      </trkpt>
      <trkpt lat="45.93952" lon="4.79276">
        <ele>198</ele>
        <time>2018-02-06T10:10:55Z</time>
      </trkpt>
      <trkpt lat="45.93953" lon="4.79288">
        <ele>198</ele>
        <time>2018-02-06T10:10:57Z</time>
      </trkpt>
      <trkpt lat="45.93953" lon="4.79295">
        <ele>198</ele>
        <time>2018-02-06T10:10:58Z</time>
      </trkpt>
      <trkpt lat="45.93953" lon="4.79307">
        <ele>199</ele>
        <time>2018-02-06T10:11:00Z</time>
      </trkpt>
      <trkpt lat="45.93954" lon="4.79313">
        <ele>199</ele>
        <time>2018-02-06T10:11:01Z</time>
      </trkpt>
      <trkpt lat="45.93954" lon="4.79325">
        <ele>199</ele>
        <time>2018-02-06T10:11:03Z</time>
      </trkpt>
      <trkpt lat="45.93954" lon="4.7933">
        <ele>199</ele>
        <time>2018-02-06T10:11:04Z</time>
      </trkpt>
      <trkpt lat="45.93954" lon="4.79342">
        <ele>200</ele>
        <time>2018-02-06T10:11:06Z</time>
      </trkpt>
      <trkpt lat="45.93954" lon="4.79348">
        <ele>200</ele>
        <time>2018-02-06T10:11:07Z</time>
      </trkpt>
      <trkpt lat="45.93954" lon="4.7936">
        <ele>201</ele>
        <time>2018-02-06T10:11:09Z</time>
      </trkpt>
      <trkpt lat="45.93953" lon="4.79366">
        <ele>201</ele>
        <time>2018-02-06T10:11:10Z</time>
      </trkpt>
      <trkpt lat="45.93953" lon="4.79377">
        <ele>201</ele>
        <time>2018-02-06T10:11:12Z</time>
      </trkpt>
      <trkpt lat="45.93953" lon="4.79383">
        <ele>201</ele>
        <time>2018-02-06T10:11:13Z</time>
      </trkpt>
      <trkpt lat="45.93953" lon="4.79395">
        <ele>201</ele>
        <time>2018-02-06T10:11:15Z</time>
      </trkpt>
      <trkpt lat="45.93953" lon="4.79401">
        <ele>201</ele>
        <time>2018-02-06T10:11:16Z</time>
      </trkpt>
      <trkpt lat="45.93953" lon="4.79413">
        <ele>201</ele>
        <time>2018-02-06T10:11:18Z</time>
      </trkpt>
      <trkpt lat="45.93953" lon="4.79418">
        <ele>202</ele>
        <time>2018-02-06T10:11:19Z</time>
      </trkpt>
      <trkpt lat="45.93953" lon="4.7943">
        <ele>202</ele>
        <time>2018-02-06T10:11:21Z</time>
      </trkpt>
      <trkpt lat="45.93953" lon="4.79436">
        <ele>202</ele>
        <time>2018-02-06T10:11:22Z</time>
      </trkpt>
      <trkpt lat="45.93955" lon="4.79442">
        <ele>203</ele>
        <time>2018-02-06T10:11:23Z</time>
      </trkpt>
      <trkpt lat="45.93953" lon="4.79449">
        <ele>203</ele>
        <time>2018-02-06T10:11:24Z</time>
      </trkpt>
      <trkpt lat="45.9395" lon="4.79461">
        <ele>202</ele>
        <time>2018-02-06T10:11:26Z</time>
      </trkpt>
      <trkpt lat="45.9395" lon="4.79467">
        <ele>202</ele>
        <time>2018-02-06T10:11:27Z</time>
      </trkpt>
      <trkpt lat="45.9395" lon="4.79478">
        <ele>202</ele>
        <time>2018-02-06T10:11:29Z</time>
      </trkpt>
      <trkpt lat="45.9395" lon="4.79484">
        <ele>202</ele>
        <time>2018-02-06T10:11:30Z</time>
      </trkpt>
      <trkpt lat="45.9395" lon="4.79496">
        <ele>202</ele>
        <time>2018-02-06T10:11:32Z</time>
      </trkpt>
      <trkpt lat="45.9395" lon="4.79502">
        <ele>203</ele>
        <time>2018-02-06T10:11:33Z</time>
      </trkpt>
      <trkpt lat="45.93951" lon="4.79514">
        <ele>204</ele>
        <time>2018-02-06T10:11:35Z</time>
      </trkpt>
      <trkpt lat="45.93951" lon="4.7952">
        <ele>204</ele>
        <time>2018-02-06T10:11:36Z</time>
      </trkpt>
      <trkpt lat="45.93952" lon="4.79531">
        <ele>204</ele>
        <time>2018-02-06T10:11:38Z</time>
      </trkpt>
      <trkpt lat="45.93953" lon="4.79537">
        <ele>204</ele>
        <time>2018-02-06T10:11:39Z</time>
      </trkpt>
      <trkpt lat="45.93953" lon="4.79548">
        <ele>205</ele>
        <time>2018-02-06T10:11:41Z</time>
      </trkpt>
      <trkpt lat="45.93953" lon="4.79553">
        <ele>205</ele>
        <time>2018-02-06T10:11:42Z</time>
      </trkpt>
      <trkpt lat="45.93954" lon="4.79564">
        <ele>205</ele>
        <time>2018-02-06T10:11:44Z</time>
      </trkpt>
      <trkpt lat="45.93955" lon="4.79569">
        <ele>205</ele>
        <time>2018-02-06T10:11:45Z</time>
      </trkpt>
      <trkpt lat="45.93956" lon="4.79579">
        <ele>205</ele>
        <time>2018-02-06T10:11:47Z</time>
      </trkpt>
      <trkpt lat="45.93956" lon="4.79584">
        <ele>206</ele>
        <time>2018-02-06T10:11:48Z</time>
      </trkpt>
      <trkpt lat="45.93957" lon="4.79595">
        <ele>207</ele>
        <time>2018-02-06T10:11:50Z</time>
      </trkpt>
      <trkpt lat="45.93958" lon="4.79599">
        <ele>207</ele>
        <time>2018-02-06T10:11:51Z</time>
      </trkpt>
      <trkpt lat="45.93959" lon="4.79609">
        <ele>207</ele>
        <time>2018-02-06T10:11:53Z</time>
      </trkpt>
      <trkpt lat="45.9396" lon="4.79614">
        <ele>207</ele>
        <time>2018-02-06T10:11:54Z</time>
      </trkpt>
      <trkpt lat="45.9396" lon="4.79625">
        <ele>207</ele>
        <time>2018-02-06T10:11:56Z</time>
      </trkpt>
      <trkpt lat="45.93961" lon="4.7963">
        <ele>207</ele>
        <time>2018-02-06T10:11:57Z</time>
      </trkpt>
      <trkpt lat="45.93961" lon="4.79641">
        <ele>207</ele>
        <time>2018-02-06T10:11:59Z</time>
      </trkpt>
      <trkpt lat="45.93962" lon="4.79646">
        <ele>207</ele>
        <time>2018-02-06T10:12:00Z</time>
      </trkpt>
      <trkpt lat="45.93962" lon="4.79657">
        <ele>207</ele>
        <time>2018-02-06T10:12:02Z</time>
      </trkpt>
      <trkpt lat="45.93962" lon="4.79662">
        <ele>207</ele>
        <time>2018-02-06T10:12:03Z</time>
      </trkpt>
      <trkpt lat="45.93963" lon="4.79672">
        <ele>207</ele>
        <time>2018-02-06T10:12:05Z</time>
      </trkpt>
      <trkpt lat="45.93963" lon="4.79677">
        <ele>207</ele>
        <time>2018-02-06T10:12:06Z</time>
      </trkpt>
      <trkpt lat="45.93964" lon="4.79688">
        <ele>207</ele>
        <time>2018-02-06T10:12:08Z</time>
      </trkpt>
      <trkpt lat="45.93965" lon="4.79693">
        <ele>207</ele>
        <time>2018-02-06T10:12:09Z</time>
      </trkpt>
      <trkpt lat="45.93966" lon="4.79703">
        <ele>207</ele>
        <time>2018-02-06T10:12:11Z</time>
      </trkpt>
      <trkpt lat="45.93966" lon="4.79708">
        <ele>207</ele>
        <time>2018-02-06T10:12:12Z</time>
      </trkpt>
      <trkpt lat="45.93967" lon="4.79718">
        <ele>207</ele>
        <time>2018-02-06T10:12:14Z</time>
      </trkpt>
      <trkpt lat="45.93968" lon="4.79724">
        <ele>207</ele>
        <time>2018-02-06T10:12:15Z</time>
      </trkpt>
      <trkpt lat="45.93969" lon="4.79731">
        <ele>207</ele>
        <time>2018-02-06T10:12:16Z</time>
      </trkpt>
      <trkpt lat="45.93969" lon="4.79738">
        <ele>206</ele>
        <time>2018-02-06T10:12:17Z</time>
      </trkpt>
      <trkpt lat="45.93969" lon="4.79744">
        <ele>206</ele>
        <time>2018-02-06T10:12:18Z</time>
      </trkpt>
      <trkpt lat="45.93969" lon="4.79751">
        <ele>206</ele>
        <time>2018-02-06T10:12:19Z</time>
      </trkpt>
      <trkpt lat="45.9397" lon="4.79759">
        <ele>206</ele>
        <time>2018-02-06T10:12:20Z</time>
      </trkpt>
      <trkpt lat="45.9397" lon="4.79766">
        <ele>206</ele>
        <time>2018-02-06T10:12:21Z</time>
      </trkpt>
      <trkpt lat="45.9397" lon="4.79773">
        <ele>206</ele>
        <time>2018-02-06T10:12:22Z</time>
      </trkpt>
      <trkpt lat="45.9397" lon="4.79781">
        <ele>206</ele>
        <time>2018-02-06T10:12:23Z</time>
      </trkpt>
      <trkpt lat="45.93971" lon="4.79788">
        <ele>206</ele>
        <time>2018-02-06T10:12:24Z</time>
      </trkpt>
      <trkpt lat="45.93971" lon="4.79795">
        <ele>206</ele>
        <time>2018-02-06T10:12:25Z</time>
      </trkpt>
      <trkpt lat="45.9397" lon="4.79803">
        <ele>206</ele>
        <time>2018-02-06T10:12:26Z</time>
      </trkpt>
      <trkpt lat="45.93969" lon="4.79809">
        <ele>206</ele>
        <time>2018-02-06T10:12:27Z</time>
      </trkpt>
      <trkpt lat="45.93967" lon="4.79821">
        <ele>207</ele>
        <time>2018-02-06T10:12:29Z</time>
      </trkpt>
      <trkpt lat="45.93967" lon="4.79826">
        <ele>207</ele>
        <time>2018-02-06T10:12:30Z</time>
      </trkpt>
      <trkpt lat="45.93965" lon="4.79838">
        <ele>206</ele>
        <time>2018-02-06T10:12:32Z</time>
      </trkpt>
      <trkpt lat="45.93963" lon="4.79845">
        <ele>206</ele>
        <time>2018-02-06T10:12:33Z</time>
      </trkpt>
      <trkpt lat="45.93963" lon="4.79851">
        <ele>206</ele>
        <time>2018-02-06T10:12:34Z</time>
      </trkpt>
      <trkpt lat="45.93962" lon="4.79858">
        <ele>206</ele>
        <time>2018-02-06T10:12:35Z</time>
      </trkpt>
      <trkpt lat="45.9396" lon="4.79864">
        <ele>206</ele>
        <time>2018-02-06T10:12:36Z</time>
      </trkpt>
      <trkpt lat="45.93958" lon="4.79872">
        <ele>206</ele>
        <time>2018-02-06T10:12:37Z</time>
      </trkpt>
      <trkpt lat="45.93956" lon="4.79878">
        <ele>206</ele>
        <time>2018-02-06T10:12:38Z</time>
      </trkpt>
      <trkpt lat="45.93955" lon="4.79884">
        <ele>206</ele>
        <time>2018-02-06T10:12:39Z</time>
      </trkpt>
      <trkpt lat="45.93954" lon="4.79892">
        <ele>205</ele>
        <time>2018-02-06T10:12:40Z</time>
      </trkpt>
      <trkpt lat="45.93952" lon="4.79898">
        <ele>205</ele>
        <time>2018-02-06T10:12:41Z</time>
      </trkpt>
      <trkpt lat="45.93952" lon="4.79905">
        <ele>205</ele>
        <time>2018-02-06T10:12:42Z</time>
      </trkpt>
      <trkpt lat="45.93951" lon="4.79911">
        <ele>205</ele>
        <time>2018-02-06T10:12:43Z</time>
      </trkpt>
      <trkpt lat="45.93949" lon="4.79923">
        <ele>205</ele>
        <time>2018-02-06T10:12:45Z</time>
      </trkpt>
      <trkpt lat="45.93948" lon="4.79929">
        <ele>205</ele>
        <time>2018-02-06T10:12:46Z</time>
      </trkpt>
      <trkpt lat="45.93948" lon="4.79936">
        <ele>205</ele>
        <time>2018-02-06T10:12:47Z</time>
      </trkpt>
      <trkpt lat="45.93947" lon="4.79944">
        <ele>205</ele>
        <time>2018-02-06T10:12:48Z</time>
      </trkpt>
      <trkpt lat="45.93946" lon="4.79951">
        <ele>205</ele>
        <time>2018-02-06T10:12:49Z</time>
      </trkpt>
      <trkpt lat="45.93945" lon="4.79959">
        <ele>205</ele>
        <time>2018-02-06T10:12:50Z</time>
      </trkpt>
      <trkpt lat="45.93944" lon="4.79967">
        <ele>205</ele>
        <time>2018-02-06T10:12:51Z</time>
      </trkpt>
      <trkpt lat="45.93943" lon="4.79974">
        <ele>205</ele>
        <time>2018-02-06T10:12:52Z</time>
      </trkpt>
      <trkpt lat="45.93942" lon="4.79982">
        <ele>204</ele>
        <time>2018-02-06T10:12:53Z</time>
      </trkpt>
      <trkpt lat="45.93942" lon="4.79989">
        <ele>204</ele>
        <time>2018-02-06T10:12:54Z</time>
      </trkpt>
      <trkpt lat="45.93941" lon="4.80001">
        <ele>206</ele>
        <time>2018-02-06T10:12:56Z</time>
      </trkpt>
      <trkpt lat="45.93939" lon="4.80007">
        <ele>205</ele>
        <time>2018-02-06T10:12:57Z</time>
      </trkpt>
      <trkpt lat="45.93938" lon="4.80019">
        <ele>206</ele>
        <time>2018-02-06T10:12:59Z</time>
      </trkpt>
      <trkpt lat="45.93937" lon="4.80026">
        <ele>206</ele>
        <time>2018-02-06T10:13:00Z</time>
      </trkpt>
      <trkpt lat="45.93937" lon="4.80038">
        <ele>207</ele>
        <time>2018-02-06T10:13:02Z</time>
      </trkpt>
      <trkpt lat="45.93936" lon="4.80045">
        <ele>207</ele>
        <time>2018-02-06T10:13:03Z</time>
      </trkpt>
      <trkpt lat="45.93936" lon="4.80051">
        <ele>207</ele>
        <time>2018-02-06T10:13:04Z</time>
      </trkpt>
      <trkpt lat="45.93936" lon="4.80058">
        <ele>207</ele>
        <time>2018-02-06T10:13:05Z</time>
      </trkpt>
      <trkpt lat="45.93934" lon="4.80064">
        <ele>207</ele>
        <time>2018-02-06T10:13:06Z</time>
      </trkpt>
      <trkpt lat="45.93934" lon="4.80071">
        <ele>207</ele>
        <time>2018-02-06T10:13:07Z</time>
      </trkpt>
      <trkpt lat="45.93934" lon="4.80077">
        <ele>207</ele>
        <time>2018-02-06T10:13:08Z</time>
      </trkpt>
      <trkpt lat="45.93935" lon="4.80084">
        <ele>208</ele>
        <time>2018-02-06T10:13:09Z</time>
      </trkpt>
      <trkpt lat="45.93936" lon="4.80096">
        <ele>208</ele>
        <time>2018-02-06T10:13:11Z</time>
      </trkpt>
      <trkpt lat="45.93936" lon="4.80103">
        <ele>208</ele>
        <time>2018-02-06T10:13:12Z</time>
      </trkpt>
      <trkpt lat="45.93937" lon="4.8011">
        <ele>208</ele>
        <time>2018-02-06T10:13:13Z</time>
      </trkpt>
      <trkpt lat="45.93938" lon="4.80117">
        <ele>208</ele>
        <time>2018-02-06T10:13:14Z</time>
      </trkpt>
      <trkpt lat="45.9394" lon="4.80129">
        <ele>208</ele>
        <time>2018-02-06T10:13:16Z</time>
      </trkpt>
      <trkpt lat="45.93941" lon="4.80135">
        <ele>208</ele>
        <time>2018-02-06T10:13:17Z</time>
      </trkpt>
      <trkpt lat="45.93942" lon="4.80147">
        <ele>208</ele>
        <time>2018-02-06T10:13:19Z</time>
      </trkpt>
      <trkpt lat="45.93943" lon="4.80153">
        <ele>208</ele>
        <time>2018-02-06T10:13:20Z</time>
      </trkpt>
      <trkpt lat="45.93944" lon="4.80159">
        <ele>208</ele>
        <time>2018-02-06T10:13:21Z</time>
      </trkpt>
      <trkpt lat="45.93945" lon="4.80166">
        <ele>208</ele>
        <time>2018-02-06T10:13:22Z</time>
      </trkpt>
      <trkpt lat="45.93946" lon="4.80172">
        <ele>206</ele>
        <time>2018-02-06T10:13:23Z</time>
      </trkpt>
      <trkpt lat="45.93948" lon="4.80179">
        <ele>206</ele>
        <time>2018-02-06T10:13:24Z</time>
      </trkpt>
      <trkpt lat="45.93949" lon="4.80185">
        <ele>206</ele>
        <time>2018-02-06T10:13:25Z</time>
      </trkpt>
      <trkpt lat="45.9395" lon="4.80192">
        <ele>205</ele>
        <time>2018-02-06T10:13:26Z</time>
      </trkpt>
      <trkpt lat="45.93952" lon="4.80198">
        <ele>205</ele>
        <time>2018-02-06T10:13:27Z</time>
      </trkpt>
      <trkpt lat="45.93954" lon="4.80205">
        <ele>205</ele>
        <time>2018-02-06T10:13:28Z</time>
      </trkpt>
      <trkpt lat="45.93955" lon="4.80212">
        <ele>205</ele>
        <time>2018-02-06T10:13:29Z</time>
      </trkpt>
      <trkpt lat="45.93956" lon="4.80219">
        <ele>205</ele>
        <time>2018-02-06T10:13:30Z</time>
      </trkpt>
      <trkpt lat="45.93958" lon="4.80225">
        <ele>205</ele>
        <time>2018-02-06T10:13:31Z</time>
      </trkpt>
      <trkpt lat="45.93961" lon="4.80232">
        <ele>204</ele>
        <time>2018-02-06T10:13:32Z</time>
      </trkpt>
      <trkpt lat="45.93962" lon="4.80239">
        <ele>204</ele>
        <time>2018-02-06T10:13:33Z</time>
      </trkpt>
      <trkpt lat="45.93964" lon="4.80245">
        <ele>204</ele>
        <time>2018-02-06T10:13:34Z</time>
      </trkpt>
      <trkpt lat="45.93965" lon="4.80251">
        <ele>202</ele>
        <time>2018-02-06T10:13:35Z</time>
      </trkpt>
      <trkpt lat="45.93967" lon="4.80257">
        <ele>202</ele>
        <time>2018-02-06T10:13:36Z</time>
      </trkpt>
      <trkpt lat="45.9397" lon="4.80263">
        <ele>202</ele>
        <time>2018-02-06T10:13:37Z</time>
      </trkpt>
      <trkpt lat="45.93971" lon="4.80269">
        <ele>202</ele>
        <time>2018-02-06T10:13:38Z</time>
      </trkpt>
      <trkpt lat="45.93974" lon="4.80281">
        <ele>202</ele>
        <time>2018-02-06T10:13:40Z</time>
      </trkpt>
      <trkpt lat="45.93975" lon="4.80288">
        <ele>203</ele>
        <time>2018-02-06T10:13:41Z</time>
      </trkpt>
      <trkpt lat="45.93976" lon="4.80295">
        <ele>203</ele>
        <time>2018-02-06T10:13:42Z</time>
      </trkpt>
      <trkpt lat="45.93978" lon="4.80301">
        <ele>203</ele>
        <time>2018-02-06T10:13:43Z</time>
      </trkpt>
      <trkpt lat="45.93981" lon="4.8031">
        <ele>203</ele>
        <time>2018-02-06T10:13:45Z</time>
      </trkpt>
      <trkpt lat="45.93982" lon="4.80315">
        <ele>203</ele>
        <time>2018-02-06T10:13:46Z</time>
      </trkpt>
      <trkpt lat="45.93986" lon="4.80324">
        <ele>204</ele>
        <time>2018-02-06T10:13:48Z</time>
      </trkpt>
      <trkpt lat="45.93987" lon="4.80329">
        <ele>204</ele>
        <time>2018-02-06T10:13:49Z</time>
      </trkpt>
      <trkpt lat="45.9399" lon="4.80339">
        <ele>206</ele>
        <time>2018-02-06T10:13:51Z</time>
      </trkpt>
      <trkpt lat="45.93992" lon="4.80343">
        <ele>206</ele>
        <time>2018-02-06T10:13:52Z</time>
      </trkpt>
      <trkpt lat="45.93994" lon="4.80351">
        <ele>206</ele>
        <time>2018-02-06T10:13:54Z</time>
      </trkpt>
      <trkpt lat="45.93995" lon="4.80355">
        <ele>206</ele>
        <time>2018-02-06T10:13:55Z</time>
      </trkpt>
      <trkpt lat="45.93997" lon="4.80363">
        <ele>207</ele>
        <time>2018-02-06T10:13:57Z</time>
      </trkpt>
      <trkpt lat="45.93999" lon="4.80368">
        <ele>207</ele>
        <time>2018-02-06T10:13:58Z</time>
      </trkpt>
      <trkpt lat="45.94003" lon="4.80378">
        <ele>216</ele>
        <time>2018-02-06T10:14:01Z</time>
      </trkpt>
      <trkpt lat="45.94004" lon="4.8038">
        <ele>216</ele>
        <time>2018-02-06T10:14:02Z</time>
      </trkpt>
      <trkpt lat="45.94007" lon="4.8039">
        <ele>217</ele>
        <time>2018-02-06T10:14:05Z</time>
      </trkpt>
      <trkpt lat="45.94008" lon="4.80393">
        <ele>217</ele>
        <time>2018-02-06T10:14:06Z</time>
      </trkpt>
      <trkpt lat="45.94011" lon="4.80405">
        <ele>217</ele>
        <time>2018-02-06T10:14:09Z</time>
      </trkpt>
      <trkpt lat="45.94012" lon="4.80409">
        <ele>217</ele>
        <time>2018-02-06T10:14:10Z</time>
      </trkpt>
      <trkpt lat="45.94015" lon="4.80421">
        <ele>220</ele>
        <time>2018-02-06T10:14:13Z</time>
      </trkpt>
      <trkpt lat="45.94016" lon="4.80424">
        <ele>221</ele>
        <time>2018-02-06T10:14:14Z</time>
      </trkpt>
      <trkpt lat="45.94017" lon="4.80435">
        <ele>222</ele>
        <time>2018-02-06T10:14:17Z</time>
      </trkpt>
      <trkpt lat="45.94017" lon="4.80439">
        <ele>222</ele>
        <time>2018-02-06T10:14:18Z</time>
      </trkpt>
      <trkpt lat="45.94017" lon="4.80448">
        <ele>223</ele>
        <time>2018-02-06T10:14:20Z</time>
      </trkpt>
      <trkpt lat="45.94017" lon="4.80453">
        <ele>223</ele>
        <time>2018-02-06T10:14:21Z</time>
      </trkpt>
      <trkpt lat="45.94017" lon="4.80461">
        <ele>223</ele>
        <time>2018-02-06T10:14:23Z</time>
      </trkpt>
      <trkpt lat="45.94016" lon="4.80466">
        <ele>223</ele>
        <time>2018-02-06T10:14:24Z</time>
      </trkpt>
      <trkpt lat="45.94014" lon="4.80478">
        <ele>222</ele>
        <time>2018-02-06T10:14:27Z</time>
      </trkpt>
      <trkpt lat="45.94014" lon="4.80483">
        <ele>222</ele>
        <time>2018-02-06T10:14:28Z</time>
      </trkpt>
      <trkpt lat="45.94014" lon="4.80492">
        <ele>222</ele>
        <time>2018-02-06T10:14:30Z</time>
      </trkpt>
      <trkpt lat="45.94014" lon="4.80496">
        <ele>221</ele>
        <time>2018-02-06T10:14:31Z</time>
      </trkpt>
      <trkpt lat="45.94014" lon="4.80506">
        <ele>222</ele>
        <time>2018-02-06T10:14:34Z</time>
      </trkpt>
      <trkpt lat="45.94015" lon="4.80509">
        <ele>222</ele>
        <time>2018-02-06T10:14:35Z</time>
      </trkpt>
      <trkpt lat="45.94015" lon="4.80522">
        <ele>224</ele>
        <time>2018-02-06T10:14:38Z</time>
      </trkpt>
      <trkpt lat="45.94016" lon="4.80525">
        <ele>224</ele>
        <time>2018-02-06T10:14:39Z</time>
      </trkpt>
      <trkpt lat="45.94016" lon="4.80536">
        <ele>224</ele>
        <time>2018-02-06T10:14:42Z</time>
      </trkpt>
      <trkpt lat="45.94016" lon="4.8054">
        <ele>224</ele>
        <time>2018-02-06T10:14:43Z</time>
      </trkpt>
      <trkpt lat="45.94018" lon="4.80552">
        <ele>224</ele>
        <time>2018-02-06T10:14:46Z</time>
      </trkpt>
      <trkpt lat="45.94018" lon="4.80556">
        <ele>224</ele>
        <time>2018-02-06T10:14:47Z</time>
      </trkpt>
      <trkpt lat="45.94019" lon="4.80569">
        <ele>223</ele>
        <time>2018-02-06T10:14:51Z</time>
      </trkpt>
      <trkpt lat="45.94019" lon="4.80572">
        <ele>223</ele>
        <time>2018-02-06T10:14:52Z</time>
      </trkpt>
      <trkpt lat="45.94019" lon="4.80583">
        <ele>223</ele>
        <time>2018-02-06T10:14:55Z</time>
      </trkpt>
      <trkpt lat="45.94019" lon="4.80587">
        <ele>223</ele>
        <time>2018-02-06T10:14:56Z</time>
      </trkpt>
      <trkpt lat="45.9402" lon="4.80597">
        <ele>223</ele>
        <time>2018-02-06T10:14:59Z</time>
      </trkpt>
      <trkpt lat="45.9402" lon="4.806">
        <ele>223</ele>
        <time>2018-02-06T10:15:00Z</time>
      </trkpt>
      <trkpt lat="45.94022" lon="4.80612">
        <ele>224</ele>
        <time>2018-02-06T10:15:04Z</time>
      </trkpt>
      <trkpt lat="45.94023" lon="4.80616">
        <ele>224</ele>
        <time>2018-02-06T10:15:05Z</time>
      </trkpt>
      <trkpt lat="45.94024" lon="4.80625">
        <ele>225</ele>
        <time>2018-02-06T10:15:08Z</time>
      </trkpt>
      <trkpt lat="45.94025" lon="4.80628">
        <ele>225</ele>
        <time>2018-02-06T10:15:09Z</time>
      </trkpt>
      <trkpt lat="45.94028" lon="4.80639">
        <ele>225</ele>
        <time>2018-02-06T10:15:12Z</time>
      </trkpt>
      <trkpt lat="45.94029" lon="4.80643">
        <ele>225</ele>
        <time>2018-02-06T10:15:13Z</time>
      </trkpt>
      <trkpt lat="45.94031" lon="4.80653">
        <ele>225</ele>
        <time>2018-02-06T10:15:16Z</time>
      </trkpt>
      <trkpt lat="45.94032" lon="4.80657">
        <ele>225</ele>
        <time>2018-02-06T10:15:17Z</time>
      </trkpt>
      <trkpt lat="45.94034" lon="4.80669">
        <ele>225</ele>
        <time>2018-02-06T10:15:20Z</time>
      </trkpt>
      <trkpt lat="45.94035" lon="4.80672">
        <ele>225</ele>
        <time>2018-02-06T10:15:21Z</time>
      </trkpt>
      <trkpt lat="45.94035" lon="4.80682">
        <ele>226</ele>
        <time>2018-02-06T10:15:24Z</time>
      </trkpt>
      <trkpt lat="45.94036" lon="4.80686">
        <ele>226</ele>
        <time>2018-02-06T10:15:25Z</time>
      </trkpt>
      <trkpt lat="45.94036" lon="4.80697">
        <ele>226</ele>
        <time>2018-02-06T10:15:28Z</time>
      </trkpt>
      <trkpt lat="45.94036" lon="4.807">
        <ele>226</ele>
        <time>2018-02-06T10:15:29Z</time>
      </trkpt>
      <trkpt lat="45.94037" lon="4.8071">
        <ele>226</ele>
        <time>2018-02-06T10:15:32Z</time>
      </trkpt>
      <trkpt lat="45.94037" lon="4.80714">
        <ele>226</ele>
        <time>2018-02-06T10:15:33Z</time>
      </trkpt>
      <trkpt lat="45.94038" lon="4.80726">
        <ele>226</ele>
        <time>2018-02-06T10:15:36Z</time>
      </trkpt>
      <trkpt lat="45.94038" lon="4.8073">
        <ele>226</ele>
        <time>2018-02-06T10:15:37Z</time>
      </trkpt>
      <trkpt lat="45.9404" lon="4.80742">
        <ele>227</ele>
        <time>2018-02-06T10:15:40Z</time>
      </trkpt>
      <trkpt lat="45.9404" lon="4.80746">
        <ele>227</ele>
        <time>2018-02-06T10:15:41Z</time>
      </trkpt>
      <trkpt lat="45.94042" lon="4.80757">
        <ele>228</ele>
        <time>2018-02-06T10:15:44Z</time>
      </trkpt>
      <trkpt lat="45.94042" lon="4.8076">
        <ele>228</ele>
        <time>2018-02-06T10:15:45Z</time>
      </trkpt>
      <trkpt lat="45.94042" lon="4.80771">
        <ele>228</ele>
        <time>2018-02-06T10:15:48Z</time>
      </trkpt>
      <trkpt lat="45.94043" lon="4.80775">
        <ele>228</ele>
        <time>2018-02-06T10:15:49Z</time>
      </trkpt>
      <trkpt lat="45.94045" lon="4.80787">
        <ele>228</ele>
        <time>2018-02-06T10:15:52Z</time>
      </trkpt>
      <trkpt lat="45.94045" lon="4.80791">
        <ele>228</ele>
        <time>2018-02-06T10:15:53Z</time>
      </trkpt>
      <trkpt lat="45.94047" lon="4.80803">
        <ele>229</ele>
        <time>2018-02-06T10:15:56Z</time>
      </trkpt>
      <trkpt lat="45.94047" lon="4.80807">
        <ele>229</ele>
        <time>2018-02-06T10:15:57Z</time>
      </trkpt>
      <trkpt lat="45.94049" lon="4.80818">
        <ele>229</ele>
        <time>2018-02-06T10:16:00Z</time>
      </trkpt>
      <trkpt lat="45.94049" lon="4.80822">
        <ele>230</ele>
        <time>2018-02-06T10:16:01Z</time>
      </trkpt>
      <trkpt lat="45.94051" lon="4.80833">
        <ele>230</ele>
        <time>2018-02-06T10:16:04Z</time>
      </trkpt>
      <trkpt lat="45.94051" lon="4.80837">
        <ele>230</ele>
        <time>2018-02-06T10:16:05Z</time>
      </trkpt>
      <trkpt lat="45.94052" lon="4.80848">
        <ele>230</ele>
        <time>2018-02-06T10:16:08Z</time>
      </trkpt>
      <trkpt lat="45.94053" lon="4.80852">
        <ele>230</ele>
        <time>2018-02-06T10:16:09Z</time>
      </trkpt>
      <trkpt lat="45.94055" lon="4.80863">
        <ele>230</ele>
        <time>2018-02-06T10:16:12Z</time>
      </trkpt>
      <trkpt lat="45.94055" lon="4.80867">
        <ele>230</ele>
        <time>2018-02-06T10:16:13Z</time>
      </trkpt>
      <trkpt lat="45.94056" lon="4.80878">
        <ele>230</ele>
        <time>2018-02-06T10:16:16Z</time>
      </trkpt>
      <trkpt lat="45.94056" lon="4.80881">
        <ele>230</ele>
        <time>2018-02-06T10:16:17Z</time>
      </trkpt>
      <trkpt lat="45.94057" lon="4.80892">
        <ele>231</ele>
        <time>2018-02-06T10:16:20Z</time>
      </trkpt>
      <trkpt lat="45.94058" lon="4.80895">
        <ele>231</ele>
        <time>2018-02-06T10:16:21Z</time>
      </trkpt>
      <trkpt lat="45.94059" lon="4.80906">
        <ele>232</ele>
        <time>2018-02-06T10:16:24Z</time>
      </trkpt>
      <trkpt lat="45.9406" lon="4.80909">
        <ele>232</ele>
        <time>2018-02-06T10:16:25Z</time>
      </trkpt>
      <trkpt lat="45.94061" lon="4.8092">
        <ele>233</ele>
        <time>2018-02-06T10:16:28Z</time>
      </trkpt>
      <trkpt lat="45.94062" lon="4.80924">
        <ele>233</ele>
        <time>2018-02-06T10:16:29Z</time>
      </trkpt>
      <trkpt lat="45.94063" lon="4.80934">
        <ele>233</ele>
        <time>2018-02-06T10:16:32Z</time>
      </trkpt>
      <trkpt lat="45.94063" lon="4.80938">
        <ele>232</ele>
        <time>2018-02-06T10:16:33Z</time>
      </trkpt>
      <trkpt lat="45.94065" lon="4.80949">
        <ele>232</ele>
        <time>2018-02-06T10:16:36Z</time>
      </trkpt>
      <trkpt lat="45.94065" lon="4.80953">
        <ele>232</ele>
        <time>2018-02-06T10:16:37Z</time>
      </trkpt>
      <trkpt lat="45.94067" lon="4.80964">
        <ele>232</ele>
        <time>2018-02-06T10:16:40Z</time>
      </trkpt>
      <trkpt lat="45.94067" lon="4.80968">
        <ele>233</ele>
        <time>2018-02-06T10:16:41Z</time>
      </trkpt>
      <trkpt lat="45.94069" lon="4.80978">
        <ele>233</ele>
        <time>2018-02-06T10:16:44Z</time>
      </trkpt>
      <trkpt lat="45.94069" lon="4.80982">
        <ele>234</ele>
        <time>2018-02-06T10:16:45Z</time>
      </trkpt>
      <trkpt lat="45.94071" lon="4.80993">
        <ele>235</ele>
        <time>2018-02-06T10:16:48Z</time>
      </trkpt>
      <trkpt lat="45.94071" lon="4.80996">
        <ele>236</ele>
        <time>2018-02-06T10:16:49Z</time>
      </trkpt>
      <trkpt lat="45.94073" lon="4.81007">
        <ele>236</ele>
        <time>2018-02-06T10:16:52Z</time>
      </trkpt>
      <trkpt lat="45.94073" lon="4.81011">
        <ele>236</ele>
        <time>2018-02-06T10:16:53Z</time>
      </trkpt>
      <trkpt lat="45.94075" lon="4.81021">
        <ele>235</ele>
        <time>2018-02-06T10:16:56Z</time>
      </trkpt>
      <trkpt lat="45.94076" lon="4.81024">
        <ele>234</ele>
        <time>2018-02-06T10:16:57Z</time>
      </trkpt>
      <trkpt lat="45.94079" lon="4.81034">
        <ele>234</ele>
        <time>2018-02-06T10:17:00Z</time>
      </trkpt>
      <trkpt lat="45.9408" lon="4.81037">
        <ele>234</ele>
        <time>2018-02-06T10:17:01Z</time>
      </trkpt>
      <trkpt lat="45.94084" lon="4.81047">
        <ele>243</ele>
        <time>2018-02-06T10:17:04Z</time>
      </trkpt>
      <trkpt lat="45.94085" lon="4.8105">
        <ele>243</ele>
        <time>2018-02-06T10:17:05Z</time>
      </trkpt>
      <trkpt lat="45.94088" lon="4.81059">
        <ele>243</ele>
        <time>2018-02-06T10:17:08Z</time>
      </trkpt>
      <trkpt lat="45.94089" lon="4.81062">
        <ele>242</ele>
        <time>2018-02-06T10:17:09Z</time>
      </trkpt>
      <trkpt lat="45.94093" lon="4.8107">
        <ele>242</ele>
        <time>2018-02-06T10:17:12Z</time>
      </trkpt>
      <trkpt lat="45.94094" lon="4.81073">
        <ele>241</ele>
        <time>2018-02-06T10:17:13Z</time>
      </trkpt>
      <trkpt lat="45.94097" lon="4.81082">
        <ele>241</ele>
        <time>2018-02-06T10:17:16Z</time>
      </trkpt>
      <trkpt lat="45.94098" lon="4.81085">
        <ele>240</ele>
        <time>2018-02-06T10:17:17Z</time>
      </trkpt>
      <trkpt lat="45.94104" lon="4.81094">
        <ele>241</ele>
        <time>2018-02-06T10:17:21Z</time>
      </trkpt>
      <trkpt lat="45.94106" lon="4.81097">
        <ele>241</ele>
        <time>2018-02-06T10:17:22Z</time>
      </trkpt>
      <trkpt lat="45.9411" lon="4.81107">
        <ele>242</ele>
        <time>2018-02-06T10:17:25Z</time>
      </trkpt>
      <trkpt lat="45.94112" lon="4.81109">
        <ele>242</ele>
        <time>2018-02-06T10:17:26Z</time>
      </trkpt>
      <trkpt lat="45.94116" lon="4.81117">
        <ele>243</ele>
        <time>2018-02-06T10:17:29Z</time>
      </trkpt>
      <trkpt lat="45.94118" lon="4.8112">
        <ele>243</ele>
        <time>2018-02-06T10:17:30Z</time>
      </trkpt>
      <trkpt lat="45.94123" lon="4.81129">
        <ele>243</ele>
        <time>2018-02-06T10:17:34Z</time>
      </trkpt>
      <trkpt lat="45.94125" lon="4.81131">
        <ele>243</ele>
        <time>2018-02-06T10:17:35Z</time>
      </trkpt>
      <trkpt lat="45.94129" lon="4.81138">
        <ele>243</ele>
        <time>2018-02-06T10:17:38Z</time>
      </trkpt>
      <trkpt lat="45.94131" lon="4.81141">
        <ele>243</ele>
        <time>2018-02-06T10:17:39Z</time>
      </trkpt>
      <trkpt lat="45.94135" lon="4.8115">
        <ele>244</ele>
        <time>2018-02-06T10:17:42Z</time>
      </trkpt>
      <trkpt lat="45.94136" lon="4.81153">
        <ele>244</ele>
        <time>2018-02-06T10:17:43Z</time>
      </trkpt>
      <trkpt lat="45.9414" lon="4.81164">
        <ele>244</ele>
        <time>2018-02-06T10:17:47Z</time>
      </trkpt>
      <trkpt lat="45.94141" lon="4.81166">
        <ele>244</ele>
        <time>2018-02-06T10:17:48Z</time>
      </trkpt>
      <trkpt lat="45.94144" lon="4.81177">
        <ele>244</ele>
        <time>2018-02-06T10:17:52Z</time>
      </trkpt>
      <trkpt lat="45.94145" lon="4.81179">
        <ele>244</ele>
        <time>2018-02-06T10:17:53Z</time>
      </trkpt>
      <trkpt lat="45.94147" lon="4.81191">
        <ele>244</ele>
        <time>2018-02-06T10:17:57Z</time>
      </trkpt>
      <trkpt lat="45.94148" lon="4.81194">
        <ele>244</ele>
        <time>2018-02-06T10:17:58Z</time>
      </trkpt>
      <trkpt lat="45.94151" lon="4.81203">
        <ele>244</ele>
        <time>2018-02-06T10:18:01Z</time>
      </trkpt>
      <trkpt lat="45.94152" lon="4.81207">
        <ele>244</ele>
        <time>2018-02-06T10:18:02Z</time>
      </trkpt>
      <trkpt lat="45.94153" lon="4.81216">
        <ele>245</ele>
        <time>2018-02-06T10:18:04Z</time>
      </trkpt>
      <trkpt lat="45.94154" lon="4.8122">
        <ele>245</ele>
        <time>2018-02-06T10:18:05Z</time>
      </trkpt>
      <trkpt lat="45.94158" lon="4.8123">
        <ele>246</ele>
        <time>2018-02-06T10:18:09Z</time>
      </trkpt>
      <trkpt lat="45.94158" lon="4.81233">
        <ele>246</ele>
        <time>2018-02-06T10:18:10Z</time>
      </trkpt>
      <trkpt lat="45.94159" lon="4.81243">
        <ele>247</ele>
        <time>2018-02-06T10:18:14Z</time>
      </trkpt>
      <trkpt lat="45.94159" lon="4.81246">
        <ele>248</ele>
        <time>2018-02-06T10:18:15Z</time>
      </trkpt>
      <trkpt lat="45.94161" lon="4.81257">
        <ele>249</ele>
        <time>2018-02-06T10:18:18Z</time>
      </trkpt>
      <trkpt lat="45.94162" lon="4.81261">
        <ele>248</ele>
        <time>2018-02-06T10:18:19Z</time>
      </trkpt>
      <trkpt lat="45.94163" lon="4.81271">
        <ele>247</ele>
        <time>2018-02-06T10:18:22Z</time>
      </trkpt>
      <trkpt lat="45.94163" lon="4.81274">
        <ele>247</ele>
        <time>2018-02-06T10:18:23Z</time>
      </trkpt>
      <trkpt lat="45.94163" lon="4.81286">
        <ele>247</ele>
        <time>2018-02-06T10:18:27Z</time>
      </trkpt>
      <trkpt lat="45.94163" lon="4.81288">
        <ele>247</ele>
        <time>2018-02-06T10:18:28Z</time>
      </trkpt>
      <trkpt lat="45.94163" lon="4.81298">
        <ele>247</ele>
        <time>2018-02-06T10:18:32Z</time>
      </trkpt>
      <trkpt lat="45.94164" lon="4.81302">
        <ele>248</ele>
        <time>2018-02-06T10:18:33Z</time>
      </trkpt>
      <trkpt lat="45.94166" lon="4.81314">
        <ele>249</ele>
        <time>2018-02-06T10:18:37Z</time>
      </trkpt>
      <trkpt lat="45.94166" lon="4.81316">
        <ele>249</ele>
        <time>2018-02-06T10:18:38Z</time>
      </trkpt>
      <trkpt lat="45.94166" lon="4.81326">
        <ele>250</ele>
        <time>2018-02-06T10:18:41Z</time>
      </trkpt>
      <trkpt lat="45.94166" lon="4.8133">
        <ele>251</ele>
        <time>2018-02-06T10:18:42Z</time>
      </trkpt>
      <trkpt lat="45.94164" lon="4.81341">
        <ele>251</ele>
        <time>2018-02-06T10:18:45Z</time>
      </trkpt>
      <trkpt lat="45.94163" lon="4.81345">
        <ele>251</ele>
        <time>2018-02-06T10:18:46Z</time>
      </trkpt>
      <trkpt lat="45.94163" lon="4.81358">
        <ele>251</ele>
        <time>2018-02-06T10:18:49Z</time>
      </trkpt>
      <trkpt lat="45.94163" lon="4.81362">
        <ele>251</ele>
        <time>2018-02-06T10:18:50Z</time>
      </trkpt>
      <trkpt lat="45.94163" lon="4.81374">
        <ele>251</ele>
        <time>2018-02-06T10:18:53Z</time>
      </trkpt>
      <trkpt lat="45.94162" lon="4.81378">
        <ele>251</ele>
        <time>2018-02-06T10:18:54Z</time>
      </trkpt>
      <trkpt lat="45.94162" lon="4.8139">
        <ele>252</ele>
        <time>2018-02-06T10:18:57Z</time>
      </trkpt>
      <trkpt lat="45.94162" lon="4.81393">
        <ele>252</ele>
        <time>2018-02-06T10:18:58Z</time>
      </trkpt>
      <trkpt lat="45.94163" lon="4.81404">
        <ele>253</ele>
        <time>2018-02-06T10:19:01Z</time>
      </trkpt>
      <trkpt lat="45.94163" lon="4.81408">
        <ele>254</ele>
        <time>2018-02-06T10:19:02Z</time>
      </trkpt>
      <trkpt lat="45.94162" lon="4.81419">
        <ele>256</ele>
        <time>2018-02-06T10:19:05Z</time>
      </trkpt>
      <trkpt lat="45.94161" lon="4.81421">
        <ele>256</ele>
        <time>2018-02-06T10:19:06Z</time>
      </trkpt>
      <trkpt lat="45.9416" lon="4.81434">
        <ele>256</ele>
        <time>2018-02-06T10:19:11Z</time>
      </trkpt>
      <trkpt lat="45.94159" lon="4.81437">
        <ele>256</ele>
        <time>2018-02-06T10:19:12Z</time>
      </trkpt>
      <trkpt lat="45.94158" lon="4.81448">
        <ele>257</ele>
        <time>2018-02-06T10:19:16Z</time>
      </trkpt>
      <trkpt lat="45.94157" lon="4.81451">
        <ele>257</ele>
        <time>2018-02-06T10:19:17Z</time>
      </trkpt>
      <trkpt lat="45.94153" lon="4.8146">
        <ele>257</ele>
        <time>2018-02-06T10:19:21Z</time>
      </trkpt>
      <trkpt lat="45.94152" lon="4.81463">
        <ele>257</ele>
        <time>2018-02-06T10:19:22Z</time>
      </trkpt>
      <trkpt lat="45.94149" lon="4.81474">
        <ele>258</ele>
        <time>2018-02-06T10:19:25Z</time>
      </trkpt>
      <trkpt lat="45.94149" lon="4.81477">
        <ele>258</ele>
        <time>2018-02-06T10:19:26Z</time>
      </trkpt>
      <trkpt lat="45.94148" lon="4.81486">
        <ele>259</ele>
        <time>2018-02-06T10:19:28Z</time>
      </trkpt>
      <trkpt lat="45.94147" lon="4.8149">
        <ele>259</ele>
        <time>2018-02-06T10:19:29Z</time>
      </trkpt>
      <trkpt lat="45.94147" lon="4.81502">
        <ele>263</ele>
        <time>2018-02-06T10:19:32Z</time>
      </trkpt>
      <trkpt lat="45.94147" lon="4.81505">
        <ele>263</ele>
        <time>2018-02-06T10:19:33Z</time>
      </trkpt>
      <trkpt lat="45.94148" lon="4.81516">
        <ele>263</ele>
        <time>2018-02-06T10:19:36Z</time>
      </trkpt>
      <trkpt lat="45.94148" lon="4.8152">
        <ele>263</ele>
        <time>2018-02-06T10:19:37Z</time>
      </trkpt>
      <trkpt lat="45.94149" lon="4.81529">
        <ele>263</ele>
        <time>2018-02-06T10:19:39Z</time>
      </trkpt>
      <trkpt lat="45.9415" lon="4.81533">
        <ele>264</ele>
        <time>2018-02-06T10:19:40Z</time>
      </trkpt>
      <trkpt lat="45.9415" lon="4.81546">
        <ele>264</ele>
        <time>2018-02-06T10:19:44Z</time>
      </trkpt>
      <trkpt lat="45.9415" lon="4.81549">
        <ele>264</ele>
        <time>2018-02-06T10:19:45Z</time>
      </trkpt>
      <trkpt lat="45.94152" lon="4.81558">
        <ele>265</ele>
        <time>2018-02-06T10:19:48Z</time>
      </trkpt>
      <trkpt lat="45.94152" lon="4.81562">
        <ele>265</ele>
        <time>2018-02-06T10:19:49Z</time>
      </trkpt>
      <trkpt lat="45.94154" lon="4.81573">
        <ele>265</ele>
        <time>2018-02-06T10:19:52Z</time>
      </trkpt>
      <trkpt lat="45.94155" lon="4.81576">
        <ele>266</ele>
        <time>2018-02-06T10:19:53Z</time>
      </trkpt>
      <trkpt lat="45.94158" lon="4.81587">
        <ele>267</ele>
        <time>2018-02-06T10:19:56Z</time>
      </trkpt>
      <trkpt lat="45.94158" lon="4.81591">
        <ele>267</ele>
        <time>2018-02-06T10:19:57Z</time>
      </trkpt>
      <trkpt lat="45.94161" lon="4.81601">
        <ele>267</ele>
        <time>2018-02-06T10:20:00Z</time>
      </trkpt>
      <trkpt lat="45.94162" lon="4.81604">
        <ele>267</ele>
        <time>2018-02-06T10:20:01Z</time>
      </trkpt>
      <trkpt lat="45.94164" lon="4.81616">
        <ele>268</ele>
        <time>2018-02-06T10:20:04Z</time>
      </trkpt>
      <trkpt lat="45.94165" lon="4.8162">
        <ele>268</ele>
        <time>2018-02-06T10:20:05Z</time>
      </trkpt>
      <trkpt lat="45.94167" lon="4.81629">
        <ele>268</ele>
        <time>2018-02-06T10:20:07Z</time>
      </trkpt>
      <trkpt lat="45.94168" lon="4.81633">
        <ele>268</ele>
        <time>2018-02-06T10:20:08Z</time>
      </trkpt>
      <trkpt lat="45.9417" lon="4.81644">
        <ele>268</ele>
        <time>2018-02-06T10:20:11Z</time>
      </trkpt>
      <trkpt lat="45.94171" lon="4.81648">
        <ele>268</ele>
        <time>2018-02-06T10:20:12Z</time>
      </trkpt>
      <trkpt lat="45.94173" lon="4.8166">
        <ele>268</ele>
        <time>2018-02-06T10:20:15Z</time>
      </trkpt>
      <trkpt lat="45.94173" lon="4.81664">
        <ele>268</ele>
        <time>2018-02-06T10:20:16Z</time>
      </trkpt>
      <trkpt lat="45.94174" lon="4.81675">
        <ele>268</ele>
        <time>2018-02-06T10:20:19Z</time>
      </trkpt>
      <trkpt lat="45.94174" lon="4.81679">
        <ele>268</ele>
        <time>2018-02-06T10:20:20Z</time>
      </trkpt>
      <trkpt lat="45.94177" lon="4.81689">
        <ele>267</ele>
        <time>2018-02-06T10:20:23Z</time>
      </trkpt>
      <trkpt lat="45.94178" lon="4.81692">
        <ele>267</ele>
        <time>2018-02-06T10:20:24Z</time>
      </trkpt>
      <trkpt lat="45.94182" lon="4.81703">
        <ele>267</ele>
        <time>2018-02-06T10:20:27Z</time>
      </trkpt>
      <trkpt lat="45.94183" lon="4.81707">
        <ele>267</ele>
        <time>2018-02-06T10:20:28Z</time>
      </trkpt>
      <trkpt lat="45.94184" lon="4.81716">
        <ele>267</ele>
        <time>2018-02-06T10:20:30Z</time>
      </trkpt>
      <trkpt lat="45.94184" lon="4.81721">
        <ele>267</ele>
        <time>2018-02-06T10:20:31Z</time>
      </trkpt>
      <trkpt lat="45.94185" lon="4.81732">
        <ele>267</ele>
        <time>2018-02-06T10:20:33Z</time>
      </trkpt>
      <trkpt lat="45.94186" lon="4.81737">
        <ele>267</ele>
        <time>2018-02-06T10:20:34Z</time>
      </trkpt>
      <trkpt lat="45.94189" lon="4.81745">
        <ele>267</ele>
        <time>2018-02-06T10:20:36Z</time>
      </trkpt>
      <trkpt lat="45.94191" lon="4.8175">
        <ele>267</ele>
        <time>2018-02-06T10:20:37Z</time>
      </trkpt>
      <trkpt lat="45.94195" lon="4.81759">
        <ele>266</ele>
        <time>2018-02-06T10:20:39Z</time>
      </trkpt>
      <trkpt lat="45.94196" lon="4.81764">
        <ele>266</ele>
        <time>2018-02-06T10:20:40Z</time>
      </trkpt>
      <trkpt lat="45.94198" lon="4.81774">
        <ele>266</ele>
        <time>2018-02-06T10:20:42Z</time>
      </trkpt>
      <trkpt lat="45.94199" lon="4.81779">
        <ele>266</ele>
        <time>2018-02-06T10:20:43Z</time>
      </trkpt>
      <trkpt lat="45.94198" lon="4.81789">
        <ele>266</ele>
        <time>2018-02-06T10:20:45Z</time>
      </trkpt>
      <trkpt lat="45.94198" lon="4.81794">
        <ele>266</ele>
        <time>2018-02-06T10:20:46Z</time>
      </trkpt>
      <trkpt lat="45.94198" lon="4.81805">
        <ele>266</ele>
        <time>2018-02-06T10:20:48Z</time>
      </trkpt>
      <trkpt lat="45.94198" lon="4.8181">
        <ele>266</ele>
        <time>2018-02-06T10:20:49Z</time>
      </trkpt>
      <trkpt lat="45.94199" lon="4.8182">
        <ele>266</ele>
        <time>2018-02-06T10:20:51Z</time>
      </trkpt>
      <trkpt lat="45.942" lon="4.81825">
        <ele>266</ele>
        <time>2018-02-06T10:20:52Z</time>
      </trkpt>
      <trkpt lat="45.94202" lon="4.81834">
        <ele>266</ele>
        <time>2018-02-06T10:20:54Z</time>
      </trkpt>
      <trkpt lat="45.94203" lon="4.81839">
        <ele>266</ele>
        <time>2018-02-06T10:20:55Z</time>
      </trkpt>
      <trkpt lat="45.94205" lon="4.81849">
        <ele>266</ele>
        <time>2018-02-06T10:20:57Z</time>
      </trkpt>
      <trkpt lat="45.94206" lon="4.81853">
        <ele>266</ele>
        <time>2018-02-06T10:20:58Z</time>
      </trkpt>
      <trkpt lat="45.94208" lon="4.81864">
        <ele>265</ele>
        <time>2018-02-06T10:21:00Z</time>
      </trkpt>
      <trkpt lat="45.94209" lon="4.81869">
        <ele>265</ele>
        <time>2018-02-06T10:21:01Z</time>
      </trkpt>
      <trkpt lat="45.94212" lon="4.81881">
        <ele>265</ele>
        <time>2018-02-06T10:21:03Z</time>
      </trkpt>
      <trkpt lat="45.94213" lon="4.81886">
        <ele>265</ele>
        <time>2018-02-06T10:21:04Z</time>
      </trkpt>
      <trkpt lat="45.94215" lon="4.81897">
        <ele>265</ele>
        <time>2018-02-06T10:21:06Z</time>
      </trkpt>
      <trkpt lat="45.94217" lon="4.81903">
        <ele>265</ele>
        <time>2018-02-06T10:21:07Z</time>
      </trkpt>
      <trkpt lat="45.94219" lon="4.81913">
        <ele>264</ele>
        <time>2018-02-06T10:21:09Z</time>
      </trkpt>
      <trkpt lat="45.9422" lon="4.81918">
        <ele>264</ele>
        <time>2018-02-06T10:21:10Z</time>
      </trkpt>
      <trkpt lat="45.94222" lon="4.81929">
        <ele>264</ele>
        <time>2018-02-06T10:21:12Z</time>
      </trkpt>
      <trkpt lat="45.94222" lon="4.81935">
        <ele>264</ele>
        <time>2018-02-06T10:21:13Z</time>
      </trkpt>
      <trkpt lat="45.94223" lon="4.81941">
        <ele>264</ele>
        <time>2018-02-06T10:21:14Z</time>
      </trkpt>
      <trkpt lat="45.94224" lon="4.81948">
        <ele>264</ele>
        <time>2018-02-06T10:21:15Z</time>
      </trkpt>
      <trkpt lat="45.94225" lon="4.81954">
        <ele>264</ele>
        <time>2018-02-06T10:21:16Z</time>
      </trkpt>
      <trkpt lat="45.94226" lon="4.81962">
        <ele>264</ele>
        <time>2018-02-06T10:21:17Z</time>
      </trkpt>
      <trkpt lat="45.94227" lon="4.81969">
        <ele>264</ele>
        <time>2018-02-06T10:21:18Z</time>
      </trkpt>
      <trkpt lat="45.94228" lon="4.81976">
        <ele>264</ele>
        <time>2018-02-06T10:21:19Z</time>
      </trkpt>
      <trkpt lat="45.94231" lon="4.81988">
        <ele>263</ele>
        <time>2018-02-06T10:21:21Z</time>
      </trkpt>
      <trkpt lat="45.94232" lon="4.81993">
        <ele>263</ele>
        <time>2018-02-06T10:21:22Z</time>
      </trkpt>
      <trkpt lat="45.94233" lon="4.82">
        <ele>263</ele>
        <time>2018-02-06T10:21:23Z</time>
      </trkpt>
      <trkpt lat="45.94234" lon="4.82006">
        <ele>263</ele>
        <time>2018-02-06T10:21:24Z</time>
      </trkpt>
      <trkpt lat="45.94235" lon="4.82013">
        <ele>263</ele>
        <time>2018-02-06T10:21:25Z</time>
      </trkpt>
      <trkpt lat="45.94237" lon="4.82021">
        <ele>263</ele>
        <time>2018-02-06T10:21:26Z</time>
      </trkpt>
      <trkpt lat="45.94238" lon="4.82031">
        <ele>263</ele>
        <time>2018-02-06T10:21:28Z</time>
      </trkpt>
      <trkpt lat="45.94238" lon="4.82036">
        <ele>263</ele>
        <time>2018-02-06T10:21:29Z</time>
      </trkpt>
      <trkpt lat="45.94241" lon="4.82046">
        <ele>263</ele>
        <time>2018-02-06T10:21:31Z</time>
      </trkpt>
      <trkpt lat="45.94241" lon="4.82051">
        <ele>263</ele>
        <time>2018-02-06T10:21:32Z</time>
      </trkpt>
      <trkpt lat="45.94243" lon="4.82061">
        <ele>263</ele>
        <time>2018-02-06T10:21:34Z</time>
      </trkpt>
      <trkpt lat="45.94244" lon="4.82067">
        <ele>263</ele>
        <time>2018-02-06T10:21:35Z</time>
      </trkpt>
      <trkpt lat="45.94246" lon="4.8208">
        <ele>262</ele>
        <time>2018-02-06T10:21:37Z</time>
      </trkpt>
      <trkpt lat="45.94247" lon="4.82085">
        <ele>262</ele>
        <time>2018-02-06T10:21:38Z</time>
      </trkpt>
      <trkpt lat="45.9425" lon="4.82093">
        <ele>263</ele>
        <time>2018-02-06T10:21:39Z</time>
      </trkpt>
      <trkpt lat="45.94251" lon="4.82102">
        <ele>262</ele>
        <time>2018-02-06T10:21:40Z</time>
      </trkpt>
      <trkpt lat="45.94251" lon="4.82109">
        <ele>262</ele>
        <time>2018-02-06T10:21:41Z</time>
      </trkpt>
      <trkpt lat="45.94253" lon="4.82115">
        <ele>263</ele>
        <time>2018-02-06T10:21:42Z</time>
      </trkpt>
      <trkpt lat="45.94255" lon="4.82123">
        <ele>263</ele>
        <time>2018-02-06T10:21:43Z</time>
      </trkpt>
      <trkpt lat="45.94257" lon="4.82129">
        <ele>263</ele>
        <time>2018-02-06T10:21:44Z</time>
      </trkpt>
      <trkpt lat="45.9426" lon="4.82135">
        <ele>263</ele>
        <time>2018-02-06T10:21:45Z</time>
      </trkpt>
      <trkpt lat="45.94261" lon="4.82141">
        <ele>263</ele>
        <time>2018-02-06T10:21:46Z</time>
      </trkpt>
      <trkpt lat="45.94264" lon="4.82147">
        <ele>263</ele>
        <time>2018-02-06T10:21:47Z</time>
      </trkpt>
      <trkpt lat="45.94265" lon="4.82153">
        <ele>263</ele>
        <time>2018-02-06T10:21:48Z</time>
      </trkpt>
      <trkpt lat="45.94267" lon="4.8216">
        <ele>263</ele>
        <time>2018-02-06T10:21:49Z</time>
      </trkpt>
      <trkpt lat="45.94269" lon="4.82166">
        <ele>263</ele>
        <time>2018-02-06T10:21:50Z</time>
      </trkpt>
      <trkpt lat="45.94271" lon="4.82173">
        <ele>264</ele>
        <time>2018-02-06T10:21:51Z</time>
      </trkpt>
      <trkpt lat="45.94272" lon="4.82178">
        <ele>264</ele>
        <time>2018-02-06T10:21:52Z</time>
      </trkpt>
      <trkpt lat="45.94276" lon="4.82189">
        <ele>264</ele>
        <time>2018-02-06T10:21:54Z</time>
      </trkpt>
      <trkpt lat="45.94278" lon="4.82194">
        <ele>264</ele>
        <time>2018-02-06T10:21:55Z</time>
      </trkpt>
      <trkpt lat="45.9428" lon="4.82197">
        <ele>264</ele>
        <time>2018-02-06T10:21:56Z</time>
      </trkpt>
      <trkpt lat="45.94283" lon="4.82205">
        <ele>264</ele>
        <time>2018-02-06T10:21:57Z</time>
      </trkpt>
      <trkpt lat="45.94282" lon="4.82213">
        <ele>264</ele>
        <time>2018-02-06T10:21:58Z</time>
      </trkpt>
      <trkpt lat="45.94284" lon="4.82218">
        <ele>264</ele>
        <time>2018-02-06T10:21:59Z</time>
      </trkpt>
      <trkpt lat="45.94284" lon="4.82224">
        <ele>264</ele>
        <time>2018-02-06T10:22:00Z</time>
      </trkpt>
      <trkpt lat="45.94284" lon="4.82231">
        <ele>264</ele>
        <time>2018-02-06T10:22:01Z</time>
      </trkpt>
      <trkpt lat="45.94284" lon="4.82239">
        <ele>264</ele>
        <time>2018-02-06T10:22:02Z</time>
      </trkpt>
      <trkpt lat="45.94284" lon="4.82245">
        <ele>264</ele>
        <time>2018-02-06T10:22:03Z</time>
      </trkpt>
      <trkpt lat="45.94284" lon="4.82252">
        <ele>265</ele>
        <time>2018-02-06T10:22:04Z</time>
      </trkpt>
      <trkpt lat="45.94284" lon="4.82259">
        <ele>265</ele>
        <time>2018-02-06T10:22:05Z</time>
      </trkpt>
      <trkpt lat="45.94284" lon="4.82265">
        <ele>265</ele>
        <time>2018-02-06T10:22:06Z</time>
      </trkpt>
      <trkpt lat="45.94284" lon="4.82274">
        <ele>265</ele>
        <time>2018-02-06T10:22:07Z</time>
      </trkpt>
      <trkpt lat="45.94284" lon="4.82286">
        <ele>265</ele>
        <time>2018-02-06T10:22:09Z</time>
      </trkpt>
      <trkpt lat="45.94285" lon="4.82293">
        <ele>265</ele>
        <time>2018-02-06T10:22:10Z</time>
      </trkpt>
      <trkpt lat="45.94285" lon="4.823">
        <ele>265</ele>
        <time>2018-02-06T10:22:11Z</time>
      </trkpt>
      <trkpt lat="45.94286" lon="4.82307">
        <ele>265</ele>
        <time>2018-02-06T10:22:12Z</time>
      </trkpt>
      <trkpt lat="45.94286" lon="4.82314">
        <ele>265</ele>
        <time>2018-02-06T10:22:13Z</time>
      </trkpt>
      <trkpt lat="45.94286" lon="4.82322">
        <ele>265</ele>
        <time>2018-02-06T10:22:14Z</time>
      </trkpt>
      <trkpt lat="45.94287" lon="4.8233">
        <ele>265</ele>
        <time>2018-02-06T10:22:15Z</time>
      </trkpt>
      <trkpt lat="45.94287" lon="4.82337">
        <ele>264</ele>
        <time>2018-02-06T10:22:16Z</time>
      </trkpt>
      <trkpt lat="45.94287" lon="4.82343">
        <ele>264</ele>
        <time>2018-02-06T10:22:17Z</time>
      </trkpt>
      <trkpt lat="45.94286" lon="4.82351">
        <ele>264</ele>
        <time>2018-02-06T10:22:18Z</time>
      </trkpt>
      <trkpt lat="45.94285" lon="4.82358">
        <ele>264</ele>
        <time>2018-02-06T10:22:19Z</time>
      </trkpt>
      <trkpt lat="45.94286" lon="4.82366">
        <ele>264</ele>
        <time>2018-02-06T10:22:20Z</time>
      </trkpt>
      <trkpt lat="45.94287" lon="4.82372">
        <ele>264</ele>
        <time>2018-02-06T10:22:21Z</time>
      </trkpt>
      <trkpt lat="45.94287" lon="4.8238">
        <ele>264</ele>
        <time>2018-02-06T10:22:22Z</time>
      </trkpt>
      <trkpt lat="45.94287" lon="4.82387">
        <ele>264</ele>
        <time>2018-02-06T10:22:23Z</time>
      </trkpt>
      <trkpt lat="45.94288" lon="4.82394">
        <ele>264</ele>
        <time>2018-02-06T10:22:24Z</time>
      </trkpt>
      <trkpt lat="45.94289" lon="4.824">
        <ele>264</ele>
        <time>2018-02-06T10:22:25Z</time>
      </trkpt>
      <trkpt lat="45.94289" lon="4.82406">
        <ele>264</ele>
        <time>2018-02-06T10:22:26Z</time>
      </trkpt>
      <trkpt lat="45.9429" lon="4.82413">
        <ele>264</ele>
        <time>2018-02-06T10:22:27Z</time>
      </trkpt>
      <trkpt lat="45.9429" lon="4.8242">
        <ele>264</ele>
        <time>2018-02-06T10:22:28Z</time>
      </trkpt>
      <trkpt lat="45.9429" lon="4.82431">
        <ele>264</ele>
        <time>2018-02-06T10:22:30Z</time>
      </trkpt>
      <trkpt lat="45.9429" lon="4.82437">
        <ele>264</ele>
        <time>2018-02-06T10:22:31Z</time>
      </trkpt>
      <trkpt lat="45.94291" lon="4.82449">
        <ele>264</ele>
        <time>2018-02-06T10:22:33Z</time>
      </trkpt>
      <trkpt lat="45.94291" lon="4.82456">
        <ele>264</ele>
        <time>2018-02-06T10:22:34Z</time>
      </trkpt>
      <trkpt lat="45.94291" lon="4.82468">
        <ele>264</ele>
        <time>2018-02-06T10:22:36Z</time>
      </trkpt>
      <trkpt lat="45.94291" lon="4.82475">
        <ele>264</ele>
        <time>2018-02-06T10:22:37Z</time>
      </trkpt>
      <trkpt lat="45.94291" lon="4.82488">
        <ele>264</ele>
        <time>2018-02-06T10:22:39Z</time>
      </trkpt>
      <trkpt lat="45.94291" lon="4.82494">
        <ele>264</ele>
        <time>2018-02-06T10:22:40Z</time>
      </trkpt>
      <trkpt lat="45.94291" lon="4.825">
        <ele>264</ele>
        <time>2018-02-06T10:22:41Z</time>
      </trkpt>
      <trkpt lat="45.94292" lon="4.82507">
        <ele>264</ele>
        <time>2018-02-06T10:22:42Z</time>
      </trkpt>
      <trkpt lat="45.94292" lon="4.82519">
        <ele>264</ele>
        <time>2018-02-06T10:22:44Z</time>
      </trkpt>
      <trkpt lat="45.94292" lon="4.82526">
        <ele>264</ele>
        <time>2018-02-06T10:22:45Z</time>
      </trkpt>
      <trkpt lat="45.94292" lon="4.82538">
        <ele>264</ele>
        <time>2018-02-06T10:22:47Z</time>
      </trkpt>
      <trkpt lat="45.94292" lon="4.82544">
        <ele>264</ele>
        <time>2018-02-06T10:22:48Z</time>
      </trkpt>
      <trkpt lat="45.94292" lon="4.82555">
        <ele>264</ele>
        <time>2018-02-06T10:22:50Z</time>
      </trkpt>
      <trkpt lat="45.94292" lon="4.82563">
        <ele>264</ele>
        <time>2018-02-06T10:22:51Z</time>
      </trkpt>
      <trkpt lat="45.94292" lon="4.82569">
        <ele>264</ele>
        <time>2018-02-06T10:22:52Z</time>
      </trkpt>
      <trkpt lat="45.94291" lon="4.82576">
        <ele>265</ele>
        <time>2018-02-06T10:22:53Z</time>
      </trkpt>
      <trkpt lat="45.94291" lon="4.82583">
        <ele>265</ele>
        <time>2018-02-06T10:22:54Z</time>
      </trkpt>
      <trkpt lat="45.94291" lon="4.8259">
        <ele>265</ele>
        <time>2018-02-06T10:22:55Z</time>
      </trkpt>
      <trkpt lat="45.94291" lon="4.82602">
        <ele>265</ele>
        <time>2018-02-06T10:22:57Z</time>
      </trkpt>
      <trkpt lat="45.94291" lon="4.82608">
        <ele>265</ele>
        <time>2018-02-06T10:22:58Z</time>
      </trkpt>
      <trkpt lat="45.94291" lon="4.82619">
        <ele>265</ele>
        <time>2018-02-06T10:23:00Z</time>
      </trkpt>
      <trkpt lat="45.94291" lon="4.82624">
        <ele>265</ele>
        <time>2018-02-06T10:23:01Z</time>
      </trkpt>
      <trkpt lat="45.94291" lon="4.82637">
        <ele>265</ele>
        <time>2018-02-06T10:23:03Z</time>
      </trkpt>
      <trkpt lat="45.94291" lon="4.82643">
        <ele>265</ele>
        <time>2018-02-06T10:23:04Z</time>
      </trkpt>
      <trkpt lat="45.94291" lon="4.82651">
        <ele>265</ele>
        <time>2018-02-06T10:23:05Z</time>
      </trkpt>
      <trkpt lat="45.94291" lon="4.82658">
        <ele>265</ele>
        <time>2018-02-06T10:23:06Z</time>
      </trkpt>
      <trkpt lat="45.94291" lon="4.82666">
        <ele>265</ele>
        <time>2018-02-06T10:23:07Z</time>
      </trkpt>
      <trkpt lat="45.94291" lon="4.82674">
        <ele>265</ele>
        <time>2018-02-06T10:23:08Z</time>
      </trkpt>
      <trkpt lat="45.94292" lon="4.82681">
        <ele>265</ele>
        <time>2018-02-06T10:23:09Z</time>
      </trkpt>
      <trkpt lat="45.94292" lon="4.82688">
        <ele>265</ele>
        <time>2018-02-06T10:23:10Z</time>
      </trkpt>
      <trkpt lat="45.94291" lon="4.82694">
        <ele>265</ele>
        <time>2018-02-06T10:23:11Z</time>
      </trkpt>
      <trkpt lat="45.94291" lon="4.82702">
        <ele>265</ele>
        <time>2018-02-06T10:23:12Z</time>
      </trkpt>
      <trkpt lat="45.94291" lon="4.82709">
        <ele>265</ele>
        <time>2018-02-06T10:23:13Z</time>
      </trkpt>
      <trkpt lat="45.94291" lon="4.82716">
        <ele>265</ele>
        <time>2018-02-06T10:23:14Z</time>
      </trkpt>
      <trkpt lat="45.9429" lon="4.82723">
        <ele>265</ele>
        <time>2018-02-06T10:23:15Z</time>
      </trkpt>
      <trkpt lat="45.9429" lon="4.8273">
        <ele>265</ele>
        <time>2018-02-06T10:23:16Z</time>
      </trkpt>
      <trkpt lat="45.9429" lon="4.82737">
        <ele>265</ele>
        <time>2018-02-06T10:23:17Z</time>
      </trkpt>
      <trkpt lat="45.9429" lon="4.82744">
        <ele>265</ele>
        <time>2018-02-06T10:23:18Z</time>
      </trkpt>
      <trkpt lat="45.9429" lon="4.82751">
        <ele>265</ele>
        <time>2018-02-06T10:23:19Z</time>
      </trkpt>
      <trkpt lat="45.94289" lon="4.82758">
        <ele>265</ele>
        <time>2018-02-06T10:23:20Z</time>
      </trkpt>
      <trkpt lat="45.94289" lon="4.8277">
        <ele>265</ele>
        <time>2018-02-06T10:23:22Z</time>
      </trkpt>
      <trkpt lat="45.94288" lon="4.82776">
        <ele>265</ele>
        <time>2018-02-06T10:23:23Z</time>
      </trkpt>
      <trkpt lat="45.94289" lon="4.82787">
        <ele>265</ele>
        <time>2018-02-06T10:23:25Z</time>
      </trkpt>
      <trkpt lat="45.94289" lon="4.82794">
        <ele>265</ele>
        <time>2018-02-06T10:23:26Z</time>
      </trkpt>
      <trkpt lat="45.94289" lon="4.82806">
        <ele>265</ele>
        <time>2018-02-06T10:23:28Z</time>
      </trkpt>
      <trkpt lat="45.94289" lon="4.82811">
        <ele>265</ele>
        <time>2018-02-06T10:23:29Z</time>
      </trkpt>
      <trkpt lat="45.94288" lon="4.82823">
        <ele>265</ele>
        <time>2018-02-06T10:23:31Z</time>
      </trkpt>
      <trkpt lat="45.94287" lon="4.82829">
        <ele>265</ele>
        <time>2018-02-06T10:23:32Z</time>
      </trkpt>
      <trkpt lat="45.94287" lon="4.82836">
        <ele>265</ele>
        <time>2018-02-06T10:23:33Z</time>
      </trkpt>
      <trkpt lat="45.94288" lon="4.82843">
        <ele>265</ele>
        <time>2018-02-06T10:23:34Z</time>
      </trkpt>
      <trkpt lat="45.94288" lon="4.8285">
        <ele>265</ele>
        <time>2018-02-06T10:23:35Z</time>
      </trkpt>
      <trkpt lat="45.94288" lon="4.82856">
        <ele>265</ele>
        <time>2018-02-06T10:23:36Z</time>
      </trkpt>
      <trkpt lat="45.94289" lon="4.82869">
        <ele>265</ele>
        <time>2018-02-06T10:23:38Z</time>
      </trkpt>
      <trkpt lat="45.94289" lon="4.82876">
        <ele>265</ele>
        <time>2018-02-06T10:23:39Z</time>
      </trkpt>
      <trkpt lat="45.94287" lon="4.82888">
        <ele>265</ele>
        <time>2018-02-06T10:23:41Z</time>
      </trkpt>
      <trkpt lat="45.94287" lon="4.82894">
        <ele>265</ele>
        <time>2018-02-06T10:23:42Z</time>
      </trkpt>
      <trkpt lat="45.94286" lon="4.82901">
        <ele>265</ele>
        <time>2018-02-06T10:23:43Z</time>
      </trkpt>
      <trkpt lat="45.94285" lon="4.82907">
        <ele>265</ele>
        <time>2018-02-06T10:23:44Z</time>
      </trkpt>
      <trkpt lat="45.94283" lon="4.82918">
        <ele>265</ele>
        <time>2018-02-06T10:23:46Z</time>
      </trkpt>
      <trkpt lat="45.94282" lon="4.82924">
        <ele>265</ele>
        <time>2018-02-06T10:23:47Z</time>
      </trkpt>
      <trkpt lat="45.9428" lon="4.82934">
        <ele>265</ele>
        <time>2018-02-06T10:23:49Z</time>
      </trkpt>
      <trkpt lat="45.94278" lon="4.82939">
        <ele>265</ele>
        <time>2018-02-06T10:23:50Z</time>
      </trkpt>
      <trkpt lat="45.94276" lon="4.82949">
        <ele>265</ele>
        <time>2018-02-06T10:23:52Z</time>
      </trkpt>
      <trkpt lat="45.94274" lon="4.82954">
        <ele>265</ele>
        <time>2018-02-06T10:23:53Z</time>
      </trkpt>
      <trkpt lat="45.94274" lon="4.82965">
        <ele>265</ele>
        <time>2018-02-06T10:23:55Z</time>
      </trkpt>
      <trkpt lat="45.94275" lon="4.8297">
        <ele>265</ele>
        <time>2018-02-06T10:23:56Z</time>
      </trkpt>
      <trkpt lat="45.9428" lon="4.82978">
        <ele>265</ele>
        <time>2018-02-06T10:23:58Z</time>
      </trkpt>
      <trkpt lat="45.94285" lon="4.82982">
        <ele>265</ele>
        <time>2018-02-06T10:23:59Z</time>
      </trkpt>
      <trkpt lat="45.94288" lon="4.82988">
        <ele>265</ele>
        <time>2018-02-06T10:24:00Z</time>
      </trkpt>
      <trkpt lat="45.9429" lon="4.82994">
        <ele>265</ele>
        <time>2018-02-06T10:24:01Z</time>
      </trkpt>
      <trkpt lat="45.94291" lon="4.83">
        <ele>266</ele>
        <time>2018-02-06T10:24:02Z</time>
      </trkpt>
      <trkpt lat="45.94293" lon="4.83007">
        <ele>266</ele>
        <time>2018-02-06T10:24:03Z</time>
      </trkpt>
      <trkpt lat="45.94295" lon="4.83014">
        <ele>266</ele>
        <time>2018-02-06T10:24:04Z</time>
      </trkpt>
      <trkpt lat="45.94297" lon="4.83021">
        <ele>266</ele>
        <time>2018-02-06T10:24:05Z</time>
      </trkpt>
      <trkpt lat="45.94298" lon="4.83027">
        <ele>266</ele>
        <time>2018-02-06T10:24:06Z</time>
      </trkpt>
      <trkpt lat="45.943" lon="4.83033">
        <ele>266</ele>
        <time>2018-02-06T10:24:07Z</time>
      </trkpt>
      <trkpt lat="45.943" lon="4.83045">
        <ele>266</ele>
        <time>2018-02-06T10:24:09Z</time>
      </trkpt>
      <trkpt lat="45.94302" lon="4.83051">
        <ele>266</ele>
        <time>2018-02-06T10:24:10Z</time>
      </trkpt>
      <trkpt lat="45.94304" lon="4.83062">
        <ele>266</ele>
        <time>2018-02-06T10:24:12Z</time>
      </trkpt>
      <trkpt lat="45.94306" lon="4.83068">
        <ele>266</ele>
        <time>2018-02-06T10:24:13Z</time>
      </trkpt>
      <trkpt lat="45.94307" lon="4.83074">
        <ele>266</ele>
        <time>2018-02-06T10:24:14Z</time>
      </trkpt>
      <trkpt lat="45.94309" lon="4.83081">
        <ele>266</ele>
        <time>2018-02-06T10:24:15Z</time>
      </trkpt>
      <trkpt lat="45.94312" lon="4.83093">
        <ele>266</ele>
        <time>2018-02-06T10:24:17Z</time>
      </trkpt>
      <trkpt lat="45.94313" lon="4.83098">
        <ele>266</ele>
        <time>2018-02-06T10:24:18Z</time>
      </trkpt>
      <trkpt lat="45.94315" lon="4.83106">
        <ele>266</ele>
        <time>2018-02-06T10:24:19Z</time>
      </trkpt>
      <trkpt lat="45.94317" lon="4.83112">
        <ele>266</ele>
        <time>2018-02-06T10:24:20Z</time>
      </trkpt>
      <trkpt lat="45.94319" lon="4.83118">
        <ele>266</ele>
        <time>2018-02-06T10:24:21Z</time>
      </trkpt>
      <trkpt lat="45.94321" lon="4.83126">
        <ele>266</ele>
        <time>2018-02-06T10:24:22Z</time>
      </trkpt>
      <trkpt lat="45.94323" lon="4.83134">
        <ele>266</ele>
        <time>2018-02-06T10:24:23Z</time>
      </trkpt>
      <trkpt lat="45.94326" lon="4.8314">
        <ele>266</ele>
        <time>2018-02-06T10:24:24Z</time>
      </trkpt>
      <trkpt lat="45.94329" lon="4.83147">
        <ele>266</ele>
        <time>2018-02-06T10:24:25Z</time>
      </trkpt>
      <trkpt lat="45.94331" lon="4.83153">
        <ele>266</ele>
        <time>2018-02-06T10:24:26Z</time>
      </trkpt>
      <trkpt lat="45.94333" lon="4.83159">
        <ele>266</ele>
        <time>2018-02-06T10:24:27Z</time>
      </trkpt>
      <trkpt lat="45.94335" lon="4.83165">
        <ele>266</ele>
        <time>2018-02-06T10:24:28Z</time>
      </trkpt>
      <trkpt lat="45.94338" lon="4.83172">
        <ele>266</ele>
        <time>2018-02-06T10:24:29Z</time>
      </trkpt>
      <trkpt lat="45.9434" lon="4.83177">
        <ele>266</ele>
        <time>2018-02-06T10:24:30Z</time>
      </trkpt>
      <trkpt lat="45.94342" lon="4.83184">
        <ele>266</ele>
        <time>2018-02-06T10:24:31Z</time>
      </trkpt>
      <trkpt lat="45.94344" lon="4.8319">
        <ele>266</ele>
        <time>2018-02-06T10:24:32Z</time>
      </trkpt>
      <trkpt lat="45.94346" lon="4.83196">
        <ele>266</ele>
        <time>2018-02-06T10:24:33Z</time>
      </trkpt>
      <trkpt lat="45.94349" lon="4.83203">
        <ele>266</ele>
        <time>2018-02-06T10:24:34Z</time>
      </trkpt>
      <trkpt lat="45.94353" lon="4.83213">
        <ele>266</ele>
        <time>2018-02-06T10:24:36Z</time>
      </trkpt>
      <trkpt lat="45.94355" lon="4.83219">
        <ele>266</ele>
        <time>2018-02-06T10:24:37Z</time>
      </trkpt>
      <trkpt lat="45.94357" lon="4.83224">
        <ele>266</ele>
        <time>2018-02-06T10:24:38Z</time>
      </trkpt>
      <trkpt lat="45.94359" lon="4.83231">
        <ele>266</ele>
        <time>2018-02-06T10:24:39Z</time>
      </trkpt>
      <trkpt lat="45.9436" lon="4.83238">
        <ele>265</ele>
        <time>2018-02-06T10:24:40Z</time>
      </trkpt>
      <trkpt lat="45.94363" lon="4.83245">
        <ele>265</ele>
        <time>2018-02-06T10:24:41Z</time>
      </trkpt>
      <trkpt lat="45.94365" lon="4.83252">
        <ele>265</ele>
        <time>2018-02-06T10:24:42Z</time>
      </trkpt>
      <trkpt lat="45.94367" lon="4.83259">
        <ele>265</ele>
        <time>2018-02-06T10:24:43Z</time>
      </trkpt>
      <trkpt lat="45.9437" lon="4.83266">
        <ele>264</ele>
        <time>2018-02-06T10:24:44Z</time>
      </trkpt>
      <trkpt lat="45.94372" lon="4.83274">
        <ele>264</ele>
        <time>2018-02-06T10:24:45Z</time>
      </trkpt>
      <trkpt lat="45.94375" lon="4.83283">
        <ele>264</ele>
        <time>2018-02-06T10:24:46Z</time>
      </trkpt>
      <trkpt lat="45.94378" lon="4.83289">
        <ele>264</ele>
        <time>2018-02-06T10:24:47Z</time>
      </trkpt>
      <trkpt lat="45.94381" lon="4.83296">
        <ele>264</ele>
        <time>2018-02-06T10:24:48Z</time>
      </trkpt>
      <trkpt lat="45.94384" lon="4.83302">
        <ele>264</ele>
        <time>2018-02-06T10:24:49Z</time>
      </trkpt>
      <trkpt lat="45.94386" lon="4.83309">
        <ele>264</ele>
        <time>2018-02-06T10:24:50Z</time>
      </trkpt>
      <trkpt lat="45.94388" lon="4.83316">
        <ele>264</ele>
        <time>2018-02-06T10:24:51Z</time>
      </trkpt>
      <trkpt lat="45.9439" lon="4.83322">
        <ele>264</ele>
        <time>2018-02-06T10:24:52Z</time>
      </trkpt>
      <trkpt lat="45.94392" lon="4.83329">
        <ele>264</ele>
        <time>2018-02-06T10:24:53Z</time>
      </trkpt>
      <trkpt lat="45.94395" lon="4.83336">
        <ele>263</ele>
        <time>2018-02-06T10:24:54Z</time>
      </trkpt>
      <trkpt lat="45.94397" lon="4.83342">
        <ele>263</ele>
        <time>2018-02-06T10:24:55Z</time>
      </trkpt>
      <trkpt lat="45.944" lon="4.83349">
        <ele>263</ele>
        <time>2018-02-06T10:24:56Z</time>
      </trkpt>
      <trkpt lat="45.94402" lon="4.83353">
        <ele>263</ele>
        <time>2018-02-06T10:24:57Z</time>
      </trkpt>
      <trkpt lat="45.94405" lon="4.8336">
        <ele>264</ele>
        <time>2018-02-06T10:24:58Z</time>
      </trkpt>
      <trkpt lat="45.94407" lon="4.83366">
        <ele>264</ele>
        <time>2018-02-06T10:24:59Z</time>
      </trkpt>
      <trkpt lat="45.9441" lon="4.83371">
        <ele>264</ele>
        <time>2018-02-06T10:25:00Z</time>
      </trkpt>
      <trkpt lat="45.94412" lon="4.83378">
        <ele>264</ele>
        <time>2018-02-06T10:25:01Z</time>
      </trkpt>
      <trkpt lat="45.94415" lon="4.83384">
        <ele>264</ele>
        <time>2018-02-06T10:25:02Z</time>
      </trkpt>
      <trkpt lat="45.94418" lon="4.83391">
        <ele>264</ele>
        <time>2018-02-06T10:25:03Z</time>
      </trkpt>
      <trkpt lat="45.94421" lon="4.83396">
        <ele>264</ele>
        <time>2018-02-06T10:25:04Z</time>
      </trkpt>
      <trkpt lat="45.94423" lon="4.83402">
        <ele>264</ele>
        <time>2018-02-06T10:25:05Z</time>
      </trkpt>
      <trkpt lat="45.94426" lon="4.83408">
        <ele>264</ele>
        <time>2018-02-06T10:25:06Z</time>
      </trkpt>
      <trkpt lat="45.94429" lon="4.83415">
        <ele>264</ele>
        <time>2018-02-06T10:25:07Z</time>
      </trkpt>
      <trkpt lat="45.94432" lon="4.8342">
        <ele>264</ele>
        <time>2018-02-06T10:25:08Z</time>
      </trkpt>
      <trkpt lat="45.94435" lon="4.83425">
        <ele>264</ele>
        <time>2018-02-06T10:25:09Z</time>
      </trkpt>
      <trkpt lat="45.9444" lon="4.83435">
        <ele>263</ele>
        <time>2018-02-06T10:25:11Z</time>
      </trkpt>
      <trkpt lat="45.94443" lon="4.8344">
        <ele>263</ele>
        <time>2018-02-06T10:25:12Z</time>
      </trkpt>
      <trkpt lat="45.94446" lon="4.83445">
        <ele>263</ele>
        <time>2018-02-06T10:25:13Z</time>
      </trkpt>
      <trkpt lat="45.94449" lon="4.83451">
        <ele>263</ele>
        <time>2018-02-06T10:25:14Z</time>
      </trkpt>
      <trkpt lat="45.94452" lon="4.83458">
        <ele>263</ele>
        <time>2018-02-06T10:25:15Z</time>
      </trkpt>
      <trkpt lat="45.94456" lon="4.83463">
        <ele>263</ele>
        <time>2018-02-06T10:25:16Z</time>
      </trkpt>
      <trkpt lat="45.94459" lon="4.83469">
        <ele>263</ele>
        <time>2018-02-06T10:25:17Z</time>
      </trkpt>
      <trkpt lat="45.94462" lon="4.83476">
        <ele>263</ele>
        <time>2018-02-06T10:25:18Z</time>
      </trkpt>
      <trkpt lat="45.94466" lon="4.83482">
        <ele>263</ele>
        <time>2018-02-06T10:25:19Z</time>
      </trkpt>
      <trkpt lat="45.9447" lon="4.83489">
        <ele>263</ele>
        <time>2018-02-06T10:25:20Z</time>
      </trkpt>
      <trkpt lat="45.94474" lon="4.83495">
        <ele>263</ele>
        <time>2018-02-06T10:25:21Z</time>
      </trkpt>
      <trkpt lat="45.94478" lon="4.83501">
        <ele>262</ele>
        <time>2018-02-06T10:25:22Z</time>
      </trkpt>
      <trkpt lat="45.94481" lon="4.83507">
        <ele>262</ele>
        <time>2018-02-06T10:25:23Z</time>
      </trkpt>
      <trkpt lat="45.94485" lon="4.83512">
        <ele>262</ele>
        <time>2018-02-06T10:25:24Z</time>
      </trkpt>
      <trkpt lat="45.94489" lon="4.83518">
        <ele>262</ele>
        <time>2018-02-06T10:25:25Z</time>
      </trkpt>
      <trkpt lat="45.94492" lon="4.83523">
        <ele>262</ele>
        <time>2018-02-06T10:25:26Z</time>
      </trkpt>
      <trkpt lat="45.94496" lon="4.83528">
        <ele>262</ele>
        <time>2018-02-06T10:25:27Z</time>
      </trkpt>
      <trkpt lat="45.945" lon="4.83533">
        <ele>262</ele>
        <time>2018-02-06T10:25:28Z</time>
      </trkpt>
      <trkpt lat="45.94502" lon="4.83538">
        <ele>262</ele>
        <time>2018-02-06T10:25:29Z</time>
      </trkpt>
      <trkpt lat="45.94505" lon="4.83544">
        <ele>261</ele>
        <time>2018-02-06T10:25:30Z</time>
      </trkpt>
      <trkpt lat="45.94508" lon="4.8355">
        <ele>261</ele>
        <time>2018-02-06T10:25:31Z</time>
      </trkpt>
      <trkpt lat="45.94511" lon="4.83556">
        <ele>261</ele>
        <time>2018-02-06T10:25:32Z</time>
      </trkpt>
      <trkpt lat="45.94515" lon="4.83562">
        <ele>261</ele>
        <time>2018-02-06T10:25:33Z</time>
      </trkpt>
      <trkpt lat="45.94518" lon="4.83567">
        <ele>261</ele>
        <time>2018-02-06T10:25:34Z</time>
      </trkpt>
      <trkpt lat="45.94522" lon="4.83574">
        <ele>261</ele>
        <time>2018-02-06T10:25:35Z</time>
      </trkpt>
      <trkpt lat="45.94527" lon="4.83579">
        <ele>261</ele>
        <time>2018-02-06T10:25:36Z</time>
      </trkpt>
      <trkpt lat="45.94531" lon="4.83584">
        <ele>261</ele>
        <time>2018-02-06T10:25:37Z</time>
      </trkpt>
      <trkpt lat="45.94536" lon="4.83588">
        <ele>261</ele>
        <time>2018-02-06T10:25:38Z</time>
      </trkpt>
      <trkpt lat="45.9454" lon="4.83593">
        <ele>261</ele>
        <time>2018-02-06T10:25:39Z</time>
      </trkpt>
      <trkpt lat="45.94544" lon="4.83598">
        <ele>261</ele>
        <time>2018-02-06T10:25:40Z</time>
      </trkpt>
      <trkpt lat="45.9455" lon="4.83607">
        <ele>261</ele>
        <time>2018-02-06T10:25:42Z</time>
      </trkpt>
      <trkpt lat="45.94554" lon="4.83612">
        <ele>261</ele>
        <time>2018-02-06T10:25:43Z</time>
      </trkpt>
      <trkpt lat="45.94559" lon="4.83616">
        <ele>261</ele>
        <time>2018-02-06T10:25:44Z</time>
      </trkpt>
      <trkpt lat="45.94563" lon="4.83619">
        <ele>261</ele>
        <time>2018-02-06T10:25:45Z</time>
      </trkpt>
      <trkpt lat="45.94568" lon="4.83623">
        <ele>261</ele>
        <time>2018-02-06T10:25:46Z</time>
      </trkpt>
      <trkpt lat="45.94572" lon="4.83627">
        <ele>261</ele>
        <time>2018-02-06T10:25:47Z</time>
      </trkpt>
      <trkpt lat="45.94576" lon="4.83631">
        <ele>261</ele>
        <time>2018-02-06T10:25:48Z</time>
      </trkpt>
      <trkpt lat="45.9458" lon="4.83637">
        <ele>261</ele>
        <time>2018-02-06T10:25:49Z</time>
      </trkpt>
      <trkpt lat="45.94585" lon="4.83641">
        <ele>260</ele>
        <time>2018-02-06T10:25:50Z</time>
      </trkpt>
      <trkpt lat="45.9459" lon="4.83646">
        <ele>260</ele>
        <time>2018-02-06T10:25:51Z</time>
      </trkpt>
      <trkpt lat="45.94595" lon="4.8365">
        <ele>260</ele>
        <time>2018-02-06T10:25:52Z</time>
      </trkpt>
      <trkpt lat="45.946" lon="4.83656">
        <ele>260</ele>
        <time>2018-02-06T10:25:53Z</time>
      </trkpt>
      <trkpt lat="45.94605" lon="4.83661">
        <ele>260</ele>
        <time>2018-02-06T10:25:54Z</time>
      </trkpt>
      <trkpt lat="45.94611" lon="4.83665">
        <ele>260</ele>
        <time>2018-02-06T10:25:55Z</time>
      </trkpt>
      <trkpt lat="45.94616" lon="4.8367">
        <ele>261</ele>
        <time>2018-02-06T10:25:56Z</time>
      </trkpt>
      <trkpt lat="45.9462" lon="4.83675">
        <ele>261</ele>
        <time>2018-02-06T10:25:57Z</time>
      </trkpt>
      <trkpt lat="45.94625" lon="4.83679">
        <ele>261</ele>
        <time>2018-02-06T10:25:58Z</time>
      </trkpt>
      <trkpt lat="45.9463" lon="4.83684">
        <ele>261</ele>
        <time>2018-02-06T10:25:59Z</time>
      </trkpt>
      <trkpt lat="45.94635" lon="4.83688">
        <ele>261</ele>
        <time>2018-02-06T10:26:00Z</time>
      </trkpt>
      <trkpt lat="45.94641" lon="4.83692">
        <ele>261</ele>
        <time>2018-02-06T10:26:01Z</time>
      </trkpt>
      <trkpt lat="45.94646" lon="4.83696">
        <ele>261</ele>
        <time>2018-02-06T10:26:02Z</time>
      </trkpt>
      <trkpt lat="45.94651" lon="4.83702">
        <ele>261</ele>
        <time>2018-02-06T10:26:03Z</time>
      </trkpt>
      <trkpt lat="45.94657" lon="4.83705">
        <ele>261</ele>
        <time>2018-02-06T10:26:04Z</time>
      </trkpt>
      <trkpt lat="45.94661" lon="4.83709">
        <ele>261</ele>
        <time>2018-02-06T10:26:05Z</time>
      </trkpt>
      <trkpt lat="45.94666" lon="4.83714">
        <ele>261</ele>
        <time>2018-02-06T10:26:06Z</time>
      </trkpt>
      <trkpt lat="45.9467" lon="4.83719">
        <ele>261</ele>
        <time>2018-02-06T10:26:07Z</time>
      </trkpt>
      <trkpt lat="45.94675" lon="4.83724">
        <ele>261</ele>
        <time>2018-02-06T10:26:08Z</time>
      </trkpt>
      <trkpt lat="45.94679" lon="4.83728">
        <ele>261</ele>
        <time>2018-02-06T10:26:09Z</time>
      </trkpt>
      <trkpt lat="45.94683" lon="4.83733">
        <ele>262</ele>
        <time>2018-02-06T10:26:10Z</time>
      </trkpt>
      <trkpt lat="45.94687" lon="4.83738">
        <ele>262</ele>
        <time>2018-02-06T10:26:11Z</time>
      </trkpt>
      <trkpt lat="45.9469" lon="4.83743">
        <ele>262</ele>
        <time>2018-02-06T10:26:12Z</time>
      </trkpt>
      <trkpt lat="45.94694" lon="4.83747">
        <ele>262</ele>
        <time>2018-02-06T10:26:13Z</time>
      </trkpt>
      <trkpt lat="45.94698" lon="4.83752">
        <ele>263</ele>
        <time>2018-02-06T10:26:14Z</time>
      </trkpt>
      <trkpt lat="45.94702" lon="4.83756">
        <ele>263</ele>
        <time>2018-02-06T10:26:15Z</time>
      </trkpt>
      <trkpt lat="45.94705" lon="4.8376">
        <ele>263</ele>
        <time>2018-02-06T10:26:16Z</time>
      </trkpt>
      <trkpt lat="45.94709" lon="4.83765">
        <ele>263</ele>
        <time>2018-02-06T10:26:17Z</time>
      </trkpt>
      <trkpt lat="45.94712" lon="4.83771">
        <ele>263</ele>
        <time>2018-02-06T10:26:18Z</time>
      </trkpt>
      <trkpt lat="45.94716" lon="4.83773">
        <ele>263</ele>
        <time>2018-02-06T10:26:19Z</time>
      </trkpt>
      <trkpt lat="45.94722" lon="4.83781">
        <ele>263</ele>
        <time>2018-02-06T10:26:21Z</time>
      </trkpt>
      <trkpt lat="45.94726" lon="4.83786">
        <ele>263</ele>
        <time>2018-02-06T10:26:22Z</time>
      </trkpt>
      <trkpt lat="45.94729" lon="4.8379">
        <ele>263</ele>
        <time>2018-02-06T10:26:23Z</time>
      </trkpt>
      <trkpt lat="45.94732" lon="4.83795">
        <ele>264</ele>
        <time>2018-02-06T10:26:24Z</time>
      </trkpt>
      <trkpt lat="45.94736" lon="4.838">
        <ele>264</ele>
        <time>2018-02-06T10:26:25Z</time>
      </trkpt>
      <trkpt lat="45.94739" lon="4.83805">
        <ele>264</ele>
        <time>2018-02-06T10:26:26Z</time>
      </trkpt>
      <trkpt lat="45.94746" lon="4.83812">
        <ele>264</ele>
        <time>2018-02-06T10:26:28Z</time>
      </trkpt>
      <trkpt lat="45.9475" lon="4.83816">
        <ele>264</ele>
        <time>2018-02-06T10:26:29Z</time>
      </trkpt>
      <trkpt lat="45.94753" lon="4.83821">
        <ele>264</ele>
        <time>2018-02-06T10:26:30Z</time>
      </trkpt>
      <trkpt lat="45.94757" lon="4.83826">
        <ele>265</ele>
        <time>2018-02-06T10:26:31Z</time>
      </trkpt>
      <trkpt lat="45.94764" lon="4.83834">
        <ele>265</ele>
        <time>2018-02-06T10:26:33Z</time>
      </trkpt>
      <trkpt lat="45.94768" lon="4.83839">
        <ele>265</ele>
        <time>2018-02-06T10:26:34Z</time>
      </trkpt>
      <trkpt lat="45.94774" lon="4.83847">
        <ele>265</ele>
        <time>2018-02-06T10:26:36Z</time>
      </trkpt>
      <trkpt lat="45.94776" lon="4.83852">
        <ele>265</ele>
        <time>2018-02-06T10:26:37Z</time>
      </trkpt>
      <trkpt lat="45.94779" lon="4.83856">
        <ele>265</ele>
        <time>2018-02-06T10:26:38Z</time>
      </trkpt>
      <trkpt lat="45.94783" lon="4.83861">
        <ele>265</ele>
        <time>2018-02-06T10:26:39Z</time>
      </trkpt>
      <trkpt lat="45.94786" lon="4.83866">
        <ele>265</ele>
        <time>2018-02-06T10:26:40Z</time>
      </trkpt>
      <trkpt lat="45.94788" lon="4.83873">
        <ele>266</ele>
        <time>2018-02-06T10:26:41Z</time>
      </trkpt>
      <trkpt lat="45.94792" lon="4.83878">
        <ele>266</ele>
        <time>2018-02-06T10:26:42Z</time>
      </trkpt>
      <trkpt lat="45.94795" lon="4.83884">
        <ele>266</ele>
        <time>2018-02-06T10:26:43Z</time>
      </trkpt>
      <trkpt lat="45.94798" lon="4.8389">
        <ele>266</ele>
        <time>2018-02-06T10:26:44Z</time>
      </trkpt>
      <trkpt lat="45.94802" lon="4.83896">
        <ele>266</ele>
        <time>2018-02-06T10:26:45Z</time>
      </trkpt>
      <trkpt lat="45.94805" lon="4.83903">
        <ele>265</ele>
        <time>2018-02-06T10:26:46Z</time>
      </trkpt>
      <trkpt lat="45.94807" lon="4.83908">
        <ele>265</ele>
        <time>2018-02-06T10:26:47Z</time>
      </trkpt>
      <trkpt lat="45.94809" lon="4.83914">
        <ele>265</ele>
        <time>2018-02-06T10:26:48Z</time>
      </trkpt>
      <trkpt lat="45.94812" lon="4.83919">
        <ele>266</ele>
        <time>2018-02-06T10:26:49Z</time>
      </trkpt>
      <trkpt lat="45.94815" lon="4.83924">
        <ele>266</ele>
        <time>2018-02-06T10:26:50Z</time>
      </trkpt>
      <trkpt lat="45.94818" lon="4.8393">
        <ele>266</ele>
        <time>2018-02-06T10:26:51Z</time>
      </trkpt>
      <trkpt lat="45.94821" lon="4.83937">
        <ele>266</ele>
        <time>2018-02-06T10:26:52Z</time>
      </trkpt>
      <trkpt lat="45.94825" lon="4.83942">
        <ele>266</ele>
        <time>2018-02-06T10:26:53Z</time>
      </trkpt>
      <trkpt lat="45.94828" lon="4.83948">
        <ele>266</ele>
        <time>2018-02-06T10:26:54Z</time>
      </trkpt>
      <trkpt lat="45.94831" lon="4.83953">
        <ele>266</ele>
        <time>2018-02-06T10:26:55Z</time>
      </trkpt>
      <trkpt lat="45.94837" lon="4.83963">
        <ele>265</ele>
        <time>2018-02-06T10:26:57Z</time>
      </trkpt>
      <trkpt lat="45.9484" lon="4.83968">
        <ele>265</ele>
        <time>2018-02-06T10:26:58Z</time>
      </trkpt>
      <trkpt lat="45.94843" lon="4.83973">
        <ele>265</ele>
        <time>2018-02-06T10:26:59Z</time>
      </trkpt>
      <trkpt lat="45.94845" lon="4.83979">
        <ele>265</ele>
        <time>2018-02-06T10:27:00Z</time>
      </trkpt>
      <trkpt lat="45.94846" lon="4.83986">
        <ele>265</ele>
        <time>2018-02-06T10:27:01Z</time>
      </trkpt>
      <trkpt lat="45.94848" lon="4.83993">
        <ele>265</ele>
        <time>2018-02-06T10:27:02Z</time>
      </trkpt>
      <trkpt lat="45.9485" lon="4.83999">
        <ele>265</ele>
        <time>2018-02-06T10:27:03Z</time>
      </trkpt>
      <trkpt lat="45.94853" lon="4.84005">
        <ele>266</ele>
        <time>2018-02-06T10:27:04Z</time>
      </trkpt>
      <trkpt lat="45.94854" lon="4.84011">
        <ele>266</ele>
        <time>2018-02-06T10:27:05Z</time>
      </trkpt>
      <trkpt lat="45.94856" lon="4.84017">
        <ele>266</ele>
        <time>2018-02-06T10:27:06Z</time>
      </trkpt>
      <trkpt lat="45.94858" lon="4.84025">
        <ele>266</ele>
        <time>2018-02-06T10:27:07Z</time>
      </trkpt>
      <trkpt lat="45.94861" lon="4.8403">
        <ele>266</ele>
        <time>2018-02-06T10:27:08Z</time>
      </trkpt>
      <trkpt lat="45.94863" lon="4.84036">
        <ele>266</ele>
        <time>2018-02-06T10:27:09Z</time>
      </trkpt>
      <trkpt lat="45.94866" lon="4.84042">
        <ele>266</ele>
        <time>2018-02-06T10:27:10Z</time>
      </trkpt>
      <trkpt lat="45.94869" lon="4.84048">
        <ele>266</ele>
        <time>2018-02-06T10:27:11Z</time>
      </trkpt>
      <trkpt lat="45.94874" lon="4.84053">
        <ele>267</ele>
        <time>2018-02-06T10:27:12Z</time>
      </trkpt>
      <trkpt lat="45.94877" lon="4.84059">
        <ele>267</ele>
        <time>2018-02-06T10:27:13Z</time>
      </trkpt>
      <trkpt lat="45.94879" lon="4.84067">
        <ele>267</ele>
        <time>2018-02-06T10:27:14Z</time>
      </trkpt>
      <trkpt lat="45.94882" lon="4.84074">
        <ele>267</ele>
        <time>2018-02-06T10:27:15Z</time>
      </trkpt>
      <trkpt lat="45.94884" lon="4.8408">
        <ele>267</ele>
        <time>2018-02-06T10:27:16Z</time>
      </trkpt>
      <trkpt lat="45.94887" lon="4.84086">
        <ele>267</ele>
        <time>2018-02-06T10:27:17Z</time>
      </trkpt>
      <trkpt lat="45.94889" lon="4.84092">
        <ele>267</ele>
        <time>2018-02-06T10:27:18Z</time>
      </trkpt>
      <trkpt lat="45.94891" lon="4.84098">
        <ele>267</ele>
        <time>2018-02-06T10:27:19Z</time>
      </trkpt>
      <trkpt lat="45.94893" lon="4.84104">
        <ele>267</ele>
        <time>2018-02-06T10:27:20Z</time>
      </trkpt>
      <trkpt lat="45.94898" lon="4.84114">
        <ele>267</ele>
        <time>2018-02-06T10:27:22Z</time>
      </trkpt>
      <trkpt lat="45.94901" lon="4.84119">
        <ele>267</ele>
        <time>2018-02-06T10:27:23Z</time>
      </trkpt>
      <trkpt lat="45.94905" lon="4.8413">
        <ele>267</ele>
        <time>2018-02-06T10:27:25Z</time>
      </trkpt>
      <trkpt lat="45.94908" lon="4.84135">
        <ele>268</ele>
        <time>2018-02-06T10:27:26Z</time>
      </trkpt>
      <trkpt lat="45.94913" lon="4.84144">
        <ele>268</ele>
        <time>2018-02-06T10:27:28Z</time>
      </trkpt>
      <trkpt lat="45.94916" lon="4.8415">
        <ele>268</ele>
        <time>2018-02-06T10:27:29Z</time>
      </trkpt>
      <trkpt lat="45.94919" lon="4.84155">
        <ele>268</ele>
        <time>2018-02-06T10:27:30Z</time>
      </trkpt>
      <trkpt lat="45.94921" lon="4.84161">
        <ele>268</ele>
        <time>2018-02-06T10:27:31Z</time>
      </trkpt>
      <trkpt lat="45.94925" lon="4.84167">
        <ele>268</ele>
        <time>2018-02-06T10:27:32Z</time>
      </trkpt>
      <trkpt lat="45.94929" lon="4.84172">
        <ele>268</ele>
        <time>2018-02-06T10:27:33Z</time>
      </trkpt>
      <trkpt lat="45.94932" lon="4.84177">
        <ele>267</ele>
        <time>2018-02-06T10:27:34Z</time>
      </trkpt>
      <trkpt lat="45.94936" lon="4.84181">
        <ele>267</ele>
        <time>2018-02-06T10:27:35Z</time>
      </trkpt>
      <trkpt lat="45.94939" lon="4.84186">
        <ele>267</ele>
        <time>2018-02-06T10:27:36Z</time>
      </trkpt>
      <trkpt lat="45.94943" lon="4.84191">
        <ele>267</ele>
        <time>2018-02-06T10:27:37Z</time>
      </trkpt>
      <trkpt lat="45.94948" lon="4.84201">
        <ele>267</ele>
        <time>2018-02-06T10:27:39Z</time>
      </trkpt>
      <trkpt lat="45.94951" lon="4.84206">
        <ele>267</ele>
        <time>2018-02-06T10:27:40Z</time>
      </trkpt>
      <trkpt lat="45.94957" lon="4.84215">
        <ele>267</ele>
        <time>2018-02-06T10:27:42Z</time>
      </trkpt>
      <trkpt lat="45.9496" lon="4.84219">
        <ele>267</ele>
        <time>2018-02-06T10:27:43Z</time>
      </trkpt>
      <trkpt lat="45.94967" lon="4.84227">
        <ele>267</ele>
        <time>2018-02-06T10:27:45Z</time>
      </trkpt>
      <trkpt lat="45.9497" lon="4.84231">
        <ele>267</ele>
        <time>2018-02-06T10:27:46Z</time>
      </trkpt>
      <trkpt lat="45.94976" lon="4.8424">
        <ele>267</ele>
        <time>2018-02-06T10:27:48Z</time>
      </trkpt>
      <trkpt lat="45.94979" lon="4.84245">
        <ele>267</ele>
        <time>2018-02-06T10:27:49Z</time>
      </trkpt>
      <trkpt lat="45.94985" lon="4.84252">
        <ele>267</ele>
        <time>2018-02-06T10:27:51Z</time>
      </trkpt>
      <trkpt lat="45.94987" lon="4.84257">
        <ele>267</ele>
        <time>2018-02-06T10:27:52Z</time>
      </trkpt>
      <trkpt lat="45.94993" lon="4.84266">
        <ele>267</ele>
        <time>2018-02-06T10:27:54Z</time>
      </trkpt>
      <trkpt lat="45.94996" lon="4.8427">
        <ele>267</ele>
        <time>2018-02-06T10:27:55Z</time>
      </trkpt>
      <trkpt lat="45.95001" lon="4.8428">
        <ele>267</ele>
        <time>2018-02-06T10:27:57Z</time>
      </trkpt>
      <trkpt lat="45.95003" lon="4.84285">
        <ele>267</ele>
        <time>2018-02-06T10:27:58Z</time>
      </trkpt>
      <trkpt lat="45.95007" lon="4.84289">
        <ele>267</ele>
        <time>2018-02-06T10:27:59Z</time>
      </trkpt>
      <trkpt lat="45.9501" lon="4.84295">
        <ele>267</ele>
        <time>2018-02-06T10:28:00Z</time>
      </trkpt>
      <trkpt lat="45.95013" lon="4.843">
        <ele>267</ele>
        <time>2018-02-06T10:28:01Z</time>
      </trkpt>
      <trkpt lat="45.95016" lon="4.84306">
        <ele>267</ele>
        <time>2018-02-06T10:28:02Z</time>
      </trkpt>
      <trkpt lat="45.95019" lon="4.84312">
        <ele>267</ele>
        <time>2018-02-06T10:28:03Z</time>
      </trkpt>
      <trkpt lat="45.95021" lon="4.84317">
        <ele>267</ele>
        <time>2018-02-06T10:28:04Z</time>
      </trkpt>
      <trkpt lat="45.95025" lon="4.84321">
        <ele>267</ele>
        <time>2018-02-06T10:28:05Z</time>
      </trkpt>
      <trkpt lat="45.95028" lon="4.84326">
        <ele>267</ele>
        <time>2018-02-06T10:28:06Z</time>
      </trkpt>
      <trkpt lat="45.95033" lon="4.84336">
        <ele>267</ele>
        <time>2018-02-06T10:28:08Z</time>
      </trkpt>
      <trkpt lat="45.95037" lon="4.84342">
        <ele>267</ele>
        <time>2018-02-06T10:28:09Z</time>
      </trkpt>
      <trkpt lat="45.95042" lon="4.8435">
        <ele>267</ele>
        <time>2018-02-06T10:28:11Z</time>
      </trkpt>
      <trkpt lat="45.95045" lon="4.84355">
        <ele>267</ele>
        <time>2018-02-06T10:28:12Z</time>
      </trkpt>
      <trkpt lat="45.95048" lon="4.8436">
        <ele>267</ele>
        <time>2018-02-06T10:28:13Z</time>
      </trkpt>
      <trkpt lat="45.95051" lon="4.84365">
        <ele>267</ele>
        <time>2018-02-06T10:28:14Z</time>
      </trkpt>
      <trkpt lat="45.95055" lon="4.8437">
        <ele>267</ele>
        <time>2018-02-06T10:28:15Z</time>
      </trkpt>
      <trkpt lat="45.95059" lon="4.84376">
        <ele>267</ele>
        <time>2018-02-06T10:28:16Z</time>
      </trkpt>
      <trkpt lat="45.95062" lon="4.84382">
        <ele>267</ele>
        <time>2018-02-06T10:28:17Z</time>
      </trkpt>
      <trkpt lat="45.95066" lon="4.84387">
        <ele>267</ele>
        <time>2018-02-06T10:28:18Z</time>
      </trkpt>
      <trkpt lat="45.9507" lon="4.84393">
        <ele>267</ele>
        <time>2018-02-06T10:28:19Z</time>
      </trkpt>
      <trkpt lat="45.95074" lon="4.84398">
        <ele>267</ele>
        <time>2018-02-06T10:28:20Z</time>
      </trkpt>
      <trkpt lat="45.95079" lon="4.84403">
        <ele>267</ele>
        <time>2018-02-06T10:28:21Z</time>
      </trkpt>
      <trkpt lat="45.95082" lon="4.84407">
        <ele>267</ele>
        <time>2018-02-06T10:28:22Z</time>
      </trkpt>
      <trkpt lat="45.95087" lon="4.84412">
        <ele>267</ele>
        <time>2018-02-06T10:28:23Z</time>
      </trkpt>
      <trkpt lat="45.95091" lon="4.84416">
        <ele>267</ele>
        <time>2018-02-06T10:28:24Z</time>
      </trkpt>
      <trkpt lat="45.95096" lon="4.84421">
        <ele>267</ele>
        <time>2018-02-06T10:28:25Z</time>
      </trkpt>
      <trkpt lat="45.951" lon="4.84424">
        <ele>267</ele>
        <time>2018-02-06T10:28:26Z</time>
      </trkpt>
      <trkpt lat="45.95105" lon="4.84428">
        <ele>267</ele>
        <time>2018-02-06T10:28:27Z</time>
      </trkpt>
      <trkpt lat="45.9511" lon="4.84432">
        <ele>267</ele>
        <time>2018-02-06T10:28:28Z</time>
      </trkpt>
      <trkpt lat="45.95113" lon="4.84435">
        <ele>267</ele>
        <time>2018-02-06T10:28:29Z</time>
      </trkpt>
      <trkpt lat="45.95118" lon="4.8444">
        <ele>267</ele>
        <time>2018-02-06T10:28:30Z</time>
      </trkpt>
      <trkpt lat="45.95122" lon="4.84445">
        <ele>267</ele>
        <time>2018-02-06T10:28:31Z</time>
      </trkpt>
      <trkpt lat="45.95126" lon="4.8445">
        <ele>267</ele>
        <time>2018-02-06T10:28:32Z</time>
      </trkpt>
      <trkpt lat="45.9513" lon="4.84453">
        <ele>267</ele>
        <time>2018-02-06T10:28:33Z</time>
      </trkpt>
      <trkpt lat="45.95133" lon="4.84458">
        <ele>267</ele>
        <time>2018-02-06T10:28:34Z</time>
      </trkpt>
      <trkpt lat="45.95138" lon="4.84462">
        <ele>266</ele>
        <time>2018-02-06T10:28:35Z</time>
      </trkpt>
      <trkpt lat="45.95143" lon="4.84466">
        <ele>266</ele>
        <time>2018-02-06T10:28:36Z</time>
      </trkpt>
      <trkpt lat="45.95147" lon="4.8447">
        <ele>266</ele>
        <time>2018-02-06T10:28:37Z</time>
      </trkpt>
      <trkpt lat="45.95151" lon="4.84476">
        <ele>266</ele>
        <time>2018-02-06T10:28:38Z</time>
      </trkpt>
      <trkpt lat="45.95156" lon="4.84481">
        <ele>266</ele>
        <time>2018-02-06T10:28:39Z</time>
      </trkpt>
      <trkpt lat="45.95161" lon="4.84485">
        <ele>266</ele>
        <time>2018-02-06T10:28:40Z</time>
      </trkpt>
      <trkpt lat="45.95166" lon="4.84491">
        <ele>266</ele>
        <time>2018-02-06T10:28:41Z</time>
      </trkpt>
      <trkpt lat="45.95171" lon="4.84497">
        <ele>266</ele>
        <time>2018-02-06T10:28:42Z</time>
      </trkpt>
      <trkpt lat="45.95176" lon="4.84503">
        <ele>266</ele>
        <time>2018-02-06T10:28:43Z</time>
      </trkpt>
      <trkpt lat="45.95181" lon="4.84509">
        <ele>265</ele>
        <time>2018-02-06T10:28:44Z</time>
      </trkpt>
      <trkpt lat="45.95186" lon="4.84515">
        <ele>265</ele>
        <time>2018-02-06T10:28:45Z</time>
      </trkpt>
      <trkpt lat="45.95191" lon="4.84521">
        <ele>265</ele>
        <time>2018-02-06T10:28:46Z</time>
      </trkpt>
      <trkpt lat="45.95196" lon="4.84527">
        <ele>265</ele>
        <time>2018-02-06T10:28:47Z</time>
      </trkpt>
      <trkpt lat="45.95201" lon="4.84532">
        <ele>265</ele>
        <time>2018-02-06T10:28:48Z</time>
      </trkpt>
      <trkpt lat="45.95207" lon="4.84538">
        <ele>265</ele>
        <time>2018-02-06T10:28:49Z</time>
      </trkpt>
      <trkpt lat="45.95211" lon="4.84543">
        <ele>264</ele>
        <time>2018-02-06T10:28:50Z</time>
      </trkpt>
      <trkpt lat="45.95215" lon="4.84549">
        <ele>264</ele>
        <time>2018-02-06T10:28:51Z</time>
      </trkpt>
      <trkpt lat="45.95219" lon="4.84555">
        <ele>264</ele>
        <time>2018-02-06T10:28:52Z</time>
      </trkpt>
      <trkpt lat="45.95223" lon="4.84561">
        <ele>264</ele>
        <time>2018-02-06T10:28:53Z</time>
      </trkpt>
      <trkpt lat="45.95227" lon="4.84565">
        <ele>264</ele>
        <time>2018-02-06T10:28:54Z</time>
      </trkpt>
      <trkpt lat="45.95231" lon="4.84569">
        <ele>264</ele>
        <time>2018-02-06T10:28:55Z</time>
      </trkpt>
      <trkpt lat="45.95235" lon="4.84574">
        <ele>264</ele>
        <time>2018-02-06T10:28:56Z</time>
      </trkpt>
      <trkpt lat="45.95241" lon="4.84582">
        <ele>264</ele>
        <time>2018-02-06T10:28:58Z</time>
      </trkpt>
      <trkpt lat="45.95245" lon="4.84588">
        <ele>264</ele>
        <time>2018-02-06T10:28:59Z</time>
      </trkpt>
      <trkpt lat="45.95248" lon="4.84592">
        <ele>264</ele>
        <time>2018-02-06T10:29:00Z</time>
      </trkpt>
      <trkpt lat="45.95252" lon="4.84597">
        <ele>264</ele>
        <time>2018-02-06T10:29:01Z</time>
      </trkpt>
      <trkpt lat="45.95257" lon="4.84601">
        <ele>264</ele>
        <time>2018-02-06T10:29:02Z</time>
      </trkpt>
      <trkpt lat="45.9526" lon="4.84607">
        <ele>264</ele>
        <time>2018-02-06T10:29:03Z</time>
      </trkpt>
      <trkpt lat="45.95265" lon="4.84612">
        <ele>264</ele>
        <time>2018-02-06T10:29:04Z</time>
      </trkpt>
      <trkpt lat="45.95269" lon="4.84616">
        <ele>264</ele>
        <time>2018-02-06T10:29:05Z</time>
      </trkpt>
      <trkpt lat="45.95273" lon="4.84621">
        <ele>264</ele>
        <time>2018-02-06T10:29:06Z</time>
      </trkpt>
      <trkpt lat="45.95277" lon="4.84626">
        <ele>264</ele>
        <time>2018-02-06T10:29:07Z</time>
      </trkpt>
      <trkpt lat="45.95281" lon="4.84631">
        <ele>264</ele>
        <time>2018-02-06T10:29:08Z</time>
      </trkpt>
      <trkpt lat="45.95285" lon="4.84637">
        <ele>264</ele>
        <time>2018-02-06T10:29:09Z</time>
      </trkpt>
      <trkpt lat="45.95289" lon="4.84642">
        <ele>264</ele>
        <time>2018-02-06T10:29:10Z</time>
      </trkpt>
      <trkpt lat="45.95293" lon="4.84647">
        <ele>264</ele>
        <time>2018-02-06T10:29:11Z</time>
      </trkpt>
      <trkpt lat="45.95298" lon="4.84651">
        <ele>264</ele>
        <time>2018-02-06T10:29:12Z</time>
      </trkpt>
      <trkpt lat="45.95301" lon="4.84655">
        <ele>264</ele>
        <time>2018-02-06T10:29:13Z</time>
      </trkpt>
      <trkpt lat="45.95306" lon="4.84658">
        <ele>265</ele>
        <time>2018-02-06T10:29:14Z</time>
      </trkpt>
      <trkpt lat="45.9531" lon="4.84662">
        <ele>265</ele>
        <time>2018-02-06T10:29:15Z</time>
      </trkpt>
      <trkpt lat="45.95314" lon="4.84666">
        <ele>265</ele>
        <time>2018-02-06T10:29:16Z</time>
      </trkpt>
      <trkpt lat="45.95318" lon="4.84669">
        <ele>265</ele>
        <time>2018-02-06T10:29:17Z</time>
      </trkpt>
      <trkpt lat="45.95322" lon="4.84672">
        <ele>265</ele>
        <time>2018-02-06T10:29:18Z</time>
      </trkpt>
      <trkpt lat="45.95327" lon="4.84675">
        <ele>265</ele>
        <time>2018-02-06T10:29:19Z</time>
      </trkpt>
      <trkpt lat="45.95335" lon="4.84681">
        <ele>265</ele>
        <time>2018-02-06T10:29:21Z</time>
      </trkpt>
      <trkpt lat="45.95339" lon="4.84684">
        <ele>266</ele>
        <time>2018-02-06T10:29:22Z</time>
      </trkpt>
      <trkpt lat="45.95346" lon="4.84691">
        <ele>266</ele>
        <time>2018-02-06T10:29:24Z</time>
      </trkpt>
      <trkpt lat="45.9535" lon="4.84694">
        <ele>266</ele>
        <time>2018-02-06T10:29:25Z</time>
      </trkpt>
      <trkpt lat="45.95354" lon="4.84698">
        <ele>266</ele>
        <time>2018-02-06T10:29:26Z</time>
      </trkpt>
      <trkpt lat="45.95358" lon="4.84702">
        <ele>266</ele>
        <time>2018-02-06T10:29:27Z</time>
      </trkpt>
      <trkpt lat="45.95362" lon="4.84705">
        <ele>266</ele>
        <time>2018-02-06T10:29:28Z</time>
      </trkpt>
      <trkpt lat="45.95367" lon="4.84709">
        <ele>266</ele>
        <time>2018-02-06T10:29:29Z</time>
      </trkpt>
      <trkpt lat="45.95371" lon="4.84712">
        <ele>266</ele>
        <time>2018-02-06T10:29:30Z</time>
      </trkpt>
      <trkpt lat="45.95376" lon="4.84716">
        <ele>266</ele>
        <time>2018-02-06T10:29:31Z</time>
      </trkpt>
      <trkpt lat="45.9538" lon="4.84719">
        <ele>266</ele>
        <time>2018-02-06T10:29:32Z</time>
      </trkpt>
      <trkpt lat="45.95384" lon="4.84722">
        <ele>266</ele>
        <time>2018-02-06T10:29:33Z</time>
      </trkpt>
      <trkpt lat="45.95388" lon="4.84725">
        <ele>266</ele>
        <time>2018-02-06T10:29:34Z</time>
      </trkpt>
      <trkpt lat="45.95392" lon="4.84729">
        <ele>266</ele>
        <time>2018-02-06T10:29:35Z</time>
      </trkpt>
      <trkpt lat="45.95396" lon="4.84732">
        <ele>266</ele>
        <time>2018-02-06T10:29:36Z</time>
      </trkpt>
      <trkpt lat="45.954" lon="4.84735">
        <ele>266</ele>
        <time>2018-02-06T10:29:37Z</time>
      </trkpt>
      <trkpt lat="45.95406" lon="4.84739">
        <ele>267</ele>
        <time>2018-02-06T10:29:38Z</time>
      </trkpt>
      <trkpt lat="45.95409" lon="4.84743">
        <ele>267</ele>
        <time>2018-02-06T10:29:39Z</time>
      </trkpt>
      <trkpt lat="45.95413" lon="4.84747">
        <ele>267</ele>
        <time>2018-02-06T10:29:40Z</time>
      </trkpt>
      <trkpt lat="45.95417" lon="4.8475">
        <ele>267</ele>
        <time>2018-02-06T10:29:41Z</time>
      </trkpt>
      <trkpt lat="45.95424" lon="4.84756">
        <ele>267</ele>
        <time>2018-02-06T10:29:43Z</time>
      </trkpt>
      <trkpt lat="45.95428" lon="4.84759">
        <ele>267</ele>
        <time>2018-02-06T10:29:44Z</time>
      </trkpt>
      <trkpt lat="45.95434" lon="4.84766">
        <ele>267</ele>
        <time>2018-02-06T10:29:46Z</time>
      </trkpt>
      <trkpt lat="45.95438" lon="4.8477">
        <ele>267</ele>
        <time>2018-02-06T10:29:47Z</time>
      </trkpt>
      <trkpt lat="45.95442" lon="4.84773">
        <ele>267</ele>
        <time>2018-02-06T10:29:48Z</time>
      </trkpt>
      <trkpt lat="45.95445" lon="4.84778">
        <ele>267</ele>
        <time>2018-02-06T10:29:49Z</time>
      </trkpt>
      <trkpt lat="45.95453" lon="4.84784">
        <ele>267</ele>
        <time>2018-02-06T10:29:51Z</time>
      </trkpt>
      <trkpt lat="45.95456" lon="4.84788">
        <ele>267</ele>
        <time>2018-02-06T10:29:52Z</time>
      </trkpt>
      <trkpt lat="45.95462" lon="4.84795">
        <ele>267</ele>
        <time>2018-02-06T10:29:54Z</time>
      </trkpt>
      <trkpt lat="45.95466" lon="4.84799">
        <ele>267</ele>
        <time>2018-02-06T10:29:55Z</time>
      </trkpt>
      <trkpt lat="45.95469" lon="4.84803">
        <ele>267</ele>
        <time>2018-02-06T10:29:56Z</time>
      </trkpt>
      <trkpt lat="45.95474" lon="4.84808">
        <ele>267</ele>
        <time>2018-02-06T10:29:57Z</time>
      </trkpt>
      <trkpt lat="45.9548" lon="4.84816">
        <ele>267</ele>
        <time>2018-02-06T10:29:59Z</time>
      </trkpt>
      <trkpt lat="45.95484" lon="4.84821">
        <ele>267</ele>
        <time>2018-02-06T10:30:00Z</time>
      </trkpt>
      <trkpt lat="45.9549" lon="4.84829">
        <ele>267</ele>
        <time>2018-02-06T10:30:02Z</time>
      </trkpt>
      <trkpt lat="45.95493" lon="4.84833">
        <ele>267</ele>
        <time>2018-02-06T10:30:03Z</time>
      </trkpt>
      <trkpt lat="45.95499" lon="4.8484">
        <ele>267</ele>
        <time>2018-02-06T10:30:05Z</time>
      </trkpt>
      <trkpt lat="45.95502" lon="4.84844">
        <ele>267</ele>
        <time>2018-02-06T10:30:06Z</time>
      </trkpt>
      <trkpt lat="45.95508" lon="4.8485">
        <ele>268</ele>
        <time>2018-02-06T10:30:08Z</time>
      </trkpt>
      <trkpt lat="45.95512" lon="4.84854">
        <ele>268</ele>
        <time>2018-02-06T10:30:09Z</time>
      </trkpt>
      <trkpt lat="45.95519" lon="4.84861">
        <ele>268</ele>
        <time>2018-02-06T10:30:11Z</time>
      </trkpt>
      <trkpt lat="45.95522" lon="4.84865">
        <ele>268</ele>
        <time>2018-02-06T10:30:12Z</time>
      </trkpt>
      <trkpt lat="45.95528" lon="4.84873">
        <ele>268</ele>
        <time>2018-02-06T10:30:14Z</time>
      </trkpt>
      <trkpt lat="45.95531" lon="4.84877">
        <ele>268</ele>
        <time>2018-02-06T10:30:15Z</time>
      </trkpt>
      <trkpt lat="45.95538" lon="4.84884">
        <ele>268</ele>
        <time>2018-02-06T10:30:17Z</time>
      </trkpt>
      <trkpt lat="45.95542" lon="4.84887">
        <ele>268</ele>
        <time>2018-02-06T10:30:18Z</time>
      </trkpt>
      <trkpt lat="45.95549" lon="4.84893">
        <ele>268</ele>
        <time>2018-02-06T10:30:20Z</time>
      </trkpt>
      <trkpt lat="45.95553" lon="4.84896">
        <ele>268</ele>
        <time>2018-02-06T10:30:21Z</time>
      </trkpt>
      <trkpt lat="45.95561" lon="4.84901">
        <ele>268</ele>
        <time>2018-02-06T10:30:23Z</time>
      </trkpt>
      <trkpt lat="45.95565" lon="4.84904">
        <ele>268</ele>
        <time>2018-02-06T10:30:24Z</time>
      </trkpt>
      <trkpt lat="45.95573" lon="4.84909">
        <ele>269</ele>
        <time>2018-02-06T10:30:26Z</time>
      </trkpt>
      <trkpt lat="45.95577" lon="4.84912">
        <ele>269</ele>
        <time>2018-02-06T10:30:27Z</time>
      </trkpt>
      <trkpt lat="45.95585" lon="4.84917">
        <ele>269</ele>
        <time>2018-02-06T10:30:29Z</time>
      </trkpt>
      <trkpt lat="45.95589" lon="4.84919">
        <ele>269</ele>
        <time>2018-02-06T10:30:30Z</time>
      </trkpt>
      <trkpt lat="45.95596" lon="4.84925">
        <ele>270</ele>
        <time>2018-02-06T10:30:32Z</time>
      </trkpt>
      <trkpt lat="45.956" lon="4.84928">
        <ele>270</ele>
        <time>2018-02-06T10:30:33Z</time>
      </trkpt>
      <trkpt lat="45.95607" lon="4.84934">
        <ele>270</ele>
        <time>2018-02-06T10:30:35Z</time>
      </trkpt>
      <trkpt lat="45.95611" lon="4.84937">
        <ele>270</ele>
        <time>2018-02-06T10:30:36Z</time>
      </trkpt>
      <trkpt lat="45.95618" lon="4.84943">
        <ele>270</ele>
        <time>2018-02-06T10:30:38Z</time>
      </trkpt>
      <trkpt lat="45.95621" lon="4.84946">
        <ele>271</ele>
        <time>2018-02-06T10:30:39Z</time>
      </trkpt>
      <trkpt lat="45.95628" lon="4.84951">
        <ele>271</ele>
        <time>2018-02-06T10:30:41Z</time>
      </trkpt>
      <trkpt lat="45.95632" lon="4.84954">
        <ele>271</ele>
        <time>2018-02-06T10:30:42Z</time>
      </trkpt>
      <trkpt lat="45.95639" lon="4.84959">
        <ele>271</ele>
        <time>2018-02-06T10:30:44Z</time>
      </trkpt>
      <trkpt lat="45.95642" lon="4.84962">
        <ele>271</ele>
        <time>2018-02-06T10:30:45Z</time>
      </trkpt>
      <trkpt lat="45.95649" lon="4.84969">
        <ele>271</ele>
        <time>2018-02-06T10:30:47Z</time>
      </trkpt>
      <trkpt lat="45.95652" lon="4.84972">
        <ele>271</ele>
        <time>2018-02-06T10:30:48Z</time>
      </trkpt>
      <trkpt lat="45.9566" lon="4.8498">
        <ele>272</ele>
        <time>2018-02-06T10:30:50Z</time>
      </trkpt>
      <trkpt lat="45.95663" lon="4.84984">
        <ele>272</ele>
        <time>2018-02-06T10:30:51Z</time>
      </trkpt>
      <trkpt lat="45.95669" lon="4.84992">
        <ele>273</ele>
        <time>2018-02-06T10:30:53Z</time>
      </trkpt>
      <trkpt lat="45.95672" lon="4.84996">
        <ele>273</ele>
        <time>2018-02-06T10:30:54Z</time>
      </trkpt>
      <trkpt lat="45.95678" lon="4.85004">
        <ele>274</ele>
        <time>2018-02-06T10:30:56Z</time>
      </trkpt>
      <trkpt lat="45.9568" lon="4.85008">
        <ele>275</ele>
        <time>2018-02-06T10:30:57Z</time>
      </trkpt>
      <trkpt lat="45.95686" lon="4.85016">
        <ele>275</ele>
        <time>2018-02-06T10:30:59Z</time>
      </trkpt>
      <trkpt lat="45.95688" lon="4.8502">
        <ele>275</ele>
        <time>2018-02-06T10:31:00Z</time>
      </trkpt>
      <trkpt lat="45.95692" lon="4.85028">
        <ele>276</ele>
        <time>2018-02-06T10:31:02Z</time>
      </trkpt>
      <trkpt lat="45.95693" lon="4.85033">
        <ele>276</ele>
        <time>2018-02-06T10:31:03Z</time>
      </trkpt>
      <trkpt lat="45.95697" lon="4.85041">
        <ele>276</ele>
        <time>2018-02-06T10:31:05Z</time>
      </trkpt>
      <trkpt lat="45.957" lon="4.85045">
        <ele>276</ele>
        <time>2018-02-06T10:31:06Z</time>
      </trkpt>
      <trkpt lat="45.95704" lon="4.85054">
        <ele>276</ele>
        <time>2018-02-06T10:31:08Z</time>
      </trkpt>
      <trkpt lat="45.95707" lon="4.85059">
        <ele>276</ele>
        <time>2018-02-06T10:31:09Z</time>
      </trkpt>
      <trkpt lat="45.95712" lon="4.85069">
        <ele>277</ele>
        <time>2018-02-06T10:31:11Z</time>
      </trkpt>
      <trkpt lat="45.95715" lon="4.85074">
        <ele>277</ele>
        <time>2018-02-06T10:31:12Z</time>
      </trkpt>
      <trkpt lat="45.95719" lon="4.85079">
        <ele>277</ele>
        <time>2018-02-06T10:31:13Z</time>
      </trkpt>
      <trkpt lat="45.95722" lon="4.85084">
        <ele>279</ele>
        <time>2018-02-06T10:31:14Z</time>
      </trkpt>
      <trkpt lat="45.95725" lon="4.8509">
        <ele>279</ele>
        <time>2018-02-06T10:31:15Z</time>
      </trkpt>
      <trkpt lat="45.95728" lon="4.85095">
        <ele>279</ele>
        <time>2018-02-06T10:31:16Z</time>
      </trkpt>
      <trkpt lat="45.95732" lon="4.85102">
        <ele>279</ele>
        <time>2018-02-06T10:31:17Z</time>
      </trkpt>
      <trkpt lat="45.95735" lon="4.85108">
        <ele>279</ele>
        <time>2018-02-06T10:31:18Z</time>
      </trkpt>
      <trkpt lat="45.95739" lon="4.85114">
        <ele>279</ele>
        <time>2018-02-06T10:31:19Z</time>
      </trkpt>
      <trkpt lat="45.95743" lon="4.85119">
        <ele>279</ele>
        <time>2018-02-06T10:31:20Z</time>
      </trkpt>
      <trkpt lat="45.95747" lon="4.85124">
        <ele>279</ele>
        <time>2018-02-06T10:31:21Z</time>
      </trkpt>
      <trkpt lat="45.9575" lon="4.85128">
        <ele>276</ele>
        <time>2018-02-06T10:31:22Z</time>
      </trkpt>
      <trkpt lat="45.95755" lon="4.85131">
        <ele>276</ele>
        <time>2018-02-06T10:31:23Z</time>
      </trkpt>
      <trkpt lat="45.95758" lon="4.85139">
        <ele>276</ele>
        <time>2018-02-06T10:31:24Z</time>
      </trkpt>
      <trkpt lat="45.95765" lon="4.85146">
        <ele>276</ele>
        <time>2018-02-06T10:31:26Z</time>
      </trkpt>
      <trkpt lat="45.95769" lon="4.85152">
        <ele>276</ele>
        <time>2018-02-06T10:31:27Z</time>
      </trkpt>
      <trkpt lat="45.95773" lon="4.85155">
        <ele>276</ele>
        <time>2018-02-06T10:31:28Z</time>
      </trkpt>
      <trkpt lat="45.95776" lon="4.85159">
        <ele>276</ele>
        <time>2018-02-06T10:31:29Z</time>
      </trkpt>
      <trkpt lat="45.95784" lon="4.85165">
        <ele>275</ele>
        <time>2018-02-06T10:31:31Z</time>
      </trkpt>
      <trkpt lat="45.9579" lon="4.85167">
        <ele>276</ele>
        <time>2018-02-06T10:31:32Z</time>
      </trkpt>
      <trkpt lat="45.95791" lon="4.85175">
        <ele>276</ele>
        <time>2018-02-06T10:31:33Z</time>
      </trkpt>
      <trkpt lat="45.95793" lon="4.85183">
        <ele>276</ele>
        <time>2018-02-06T10:31:34Z</time>
      </trkpt>
      <trkpt lat="45.95798" lon="4.85187">
        <ele>275</ele>
        <time>2018-02-06T10:31:35Z</time>
      </trkpt>
      <trkpt lat="45.95799" lon="4.85192">
        <ele>275</ele>
        <time>2018-02-06T10:31:36Z</time>
      </trkpt>
      <trkpt lat="45.95804" lon="4.85196">
        <ele>275</ele>
        <time>2018-02-06T10:31:37Z</time>
      </trkpt>
      <trkpt lat="45.95808" lon="4.85199">
        <ele>275</ele>
        <time>2018-02-06T10:31:38Z</time>
      </trkpt>
      <trkpt lat="45.95815" lon="4.85207">
        <ele>275</ele>
        <time>2018-02-06T10:31:39Z</time>
      </trkpt>
      <trkpt lat="45.95818" lon="4.85212">
        <ele>275</ele>
        <time>2018-02-06T10:31:40Z</time>
      </trkpt>
      <trkpt lat="45.95824" lon="4.85218">
        <ele>275</ele>
        <time>2018-02-06T10:31:41Z</time>
      </trkpt>
      <trkpt lat="45.95828" lon="4.85222">
        <ele>274</ele>
        <time>2018-02-06T10:31:42Z</time>
      </trkpt>
      <trkpt lat="45.95832" lon="4.85227">
        <ele>274</ele>
        <time>2018-02-06T10:31:43Z</time>
      </trkpt>
      <trkpt lat="45.95836" lon="4.85234">
        <ele>271</ele>
        <time>2018-02-06T10:31:44Z</time>
      </trkpt>
      <trkpt lat="45.95839" lon="4.8524">
        <ele>271</ele>
        <time>2018-02-06T10:31:45Z</time>
      </trkpt>
      <trkpt lat="45.95842" lon="4.85246">
        <ele>271</ele>
        <time>2018-02-06T10:31:46Z</time>
      </trkpt>
      <trkpt lat="45.95846" lon="4.85253">
        <ele>271</ele>
        <time>2018-02-06T10:31:47Z</time>
      </trkpt>
      <trkpt lat="45.95849" lon="4.8526">
        <ele>271</ele>
        <time>2018-02-06T10:31:48Z</time>
      </trkpt>
      <trkpt lat="45.95852" lon="4.85267">
        <ele>270</ele>
        <time>2018-02-06T10:31:49Z</time>
      </trkpt>
      <trkpt lat="45.95856" lon="4.85273">
        <ele>270</ele>
        <time>2018-02-06T10:31:50Z</time>
      </trkpt>
      <trkpt lat="45.9586" lon="4.8528">
        <ele>270</ele>
        <time>2018-02-06T10:31:51Z</time>
      </trkpt>
      <trkpt lat="45.95864" lon="4.85286">
        <ele>270</ele>
        <time>2018-02-06T10:31:52Z</time>
      </trkpt>
      <trkpt lat="45.95868" lon="4.85292">
        <ele>269</ele>
        <time>2018-02-06T10:31:53Z</time>
      </trkpt>
      <trkpt lat="45.95872" lon="4.85298">
        <ele>269</ele>
        <time>2018-02-06T10:31:54Z</time>
      </trkpt>
      <trkpt lat="45.95876" lon="4.85304">
        <ele>269</ele>
        <time>2018-02-06T10:31:55Z</time>
      </trkpt>
      <trkpt lat="45.95881" lon="4.8531">
        <ele>269</ele>
        <time>2018-02-06T10:31:56Z</time>
      </trkpt>
      <trkpt lat="45.95885" lon="4.85315">
        <ele>269</ele>
        <time>2018-02-06T10:31:57Z</time>
      </trkpt>
      <trkpt lat="45.9589" lon="4.8532">
        <ele>269</ele>
        <time>2018-02-06T10:31:58Z</time>
      </trkpt>
      <trkpt lat="45.95895" lon="4.85324">
        <ele>268</ele>
        <time>2018-02-06T10:31:59Z</time>
      </trkpt>
      <trkpt lat="45.95899" lon="4.85329">
        <ele>268</ele>
        <time>2018-02-06T10:32:00Z</time>
      </trkpt>
      <trkpt lat="45.95905" lon="4.85333">
        <ele>268</ele>
        <time>2018-02-06T10:32:01Z</time>
      </trkpt>
      <trkpt lat="45.9591" lon="4.85337">
        <ele>267</ele>
        <time>2018-02-06T10:32:02Z</time>
      </trkpt>
      <trkpt lat="45.95916" lon="4.8534">
        <ele>267</ele>
        <time>2018-02-06T10:32:03Z</time>
      </trkpt>
      <trkpt lat="45.95922" lon="4.85341">
        <ele>266</ele>
        <time>2018-02-06T10:32:04Z</time>
      </trkpt>
      <trkpt lat="45.95928" lon="4.85344">
        <ele>266</ele>
        <time>2018-02-06T10:32:05Z</time>
      </trkpt>
      <trkpt lat="45.95935" lon="4.85345">
        <ele>266</ele>
        <time>2018-02-06T10:32:06Z</time>
      </trkpt>
      <trkpt lat="45.95941" lon="4.85346">
        <ele>266</ele>
        <time>2018-02-06T10:32:07Z</time>
      </trkpt>
      <trkpt lat="45.95948" lon="4.85346">
        <ele>266</ele>
        <time>2018-02-06T10:32:08Z</time>
      </trkpt>
      <trkpt lat="45.95954" lon="4.85346">
        <ele>266</ele>
        <time>2018-02-06T10:32:09Z</time>
      </trkpt>
      <trkpt lat="45.95961" lon="4.85347">
        <ele>265</ele>
        <time>2018-02-06T10:32:10Z</time>
      </trkpt>
      <trkpt lat="45.95969" lon="4.85347">
        <ele>265</ele>
        <time>2018-02-06T10:32:11Z</time>
      </trkpt>
      <trkpt lat="45.95976" lon="4.85348">
        <ele>265</ele>
        <time>2018-02-06T10:32:12Z</time>
      </trkpt>
      <trkpt lat="45.95983" lon="4.85349">
        <ele>265</ele>
        <time>2018-02-06T10:32:13Z</time>
      </trkpt>
      <trkpt lat="45.9599" lon="4.85349">
        <ele>265</ele>
        <time>2018-02-06T10:32:14Z</time>
      </trkpt>
      <trkpt lat="45.95998" lon="4.85348">
        <ele>265</ele>
        <time>2018-02-06T10:32:15Z</time>
      </trkpt>
      <trkpt lat="45.96005" lon="4.85348">
        <ele>264</ele>
        <time>2018-02-06T10:32:16Z</time>
      </trkpt>
      <trkpt lat="45.96013" lon="4.85348">
        <ele>264</ele>
        <time>2018-02-06T10:32:17Z</time>
      </trkpt>
      <trkpt lat="45.96021" lon="4.85348">
        <ele>263</ele>
        <time>2018-02-06T10:32:18Z</time>
      </trkpt>
      <trkpt lat="45.96029" lon="4.85351">
        <ele>263</ele>
        <time>2018-02-06T10:32:19Z</time>
      </trkpt>
      <trkpt lat="45.96037" lon="4.85351">
        <ele>263</ele>
        <time>2018-02-06T10:32:20Z</time>
      </trkpt>
      <trkpt lat="45.96045" lon="4.85351">
        <ele>262</ele>
        <time>2018-02-06T10:32:21Z</time>
      </trkpt>
      <trkpt lat="45.96053" lon="4.8535">
        <ele>262</ele>
        <time>2018-02-06T10:32:22Z</time>
      </trkpt>
      <trkpt lat="45.96063" lon="4.85351">
        <ele>262</ele>
        <time>2018-02-06T10:32:23Z</time>
      </trkpt>
      <trkpt lat="45.96071" lon="4.85352">
        <ele>262</ele>
        <time>2018-02-06T10:32:24Z</time>
      </trkpt>
      <trkpt lat="45.9608" lon="4.85355">
        <ele>262</ele>
        <time>2018-02-06T10:32:25Z</time>
      </trkpt>
      <trkpt lat="45.9609" lon="4.85357">
        <ele>259</ele>
        <time>2018-02-06T10:32:26Z</time>
      </trkpt>
      <trkpt lat="45.96099" lon="4.8536">
        <ele>259</ele>
        <time>2018-02-06T10:32:27Z</time>
      </trkpt>
      <trkpt lat="45.96106" lon="4.85364">
        <ele>259</ele>
        <time>2018-02-06T10:32:28Z</time>
      </trkpt>
      <trkpt lat="45.96115" lon="4.85368">
        <ele>258</ele>
        <time>2018-02-06T10:32:29Z</time>
      </trkpt>
      <trkpt lat="45.96123" lon="4.85372">
        <ele>258</ele>
        <time>2018-02-06T10:32:30Z</time>
      </trkpt>
      <trkpt lat="45.96132" lon="4.85378">
        <ele>258</ele>
        <time>2018-02-06T10:32:31Z</time>
      </trkpt>
      <trkpt lat="45.9614" lon="4.85382">
        <ele>258</ele>
        <time>2018-02-06T10:32:32Z</time>
      </trkpt>
      <trkpt lat="45.96148" lon="4.85387">
        <ele>258</ele>
        <time>2018-02-06T10:32:33Z</time>
      </trkpt>
      <trkpt lat="45.96156" lon="4.85391">
        <ele>258</ele>
        <time>2018-02-06T10:32:34Z</time>
      </trkpt>
      <trkpt lat="45.96162" lon="4.85395">
        <ele>258</ele>
        <time>2018-02-06T10:32:35Z</time>
      </trkpt>
      <trkpt lat="45.9617" lon="4.85399">
        <ele>258</ele>
        <time>2018-02-06T10:32:36Z</time>
      </trkpt>
      <trkpt lat="45.96178" lon="4.85403">
        <ele>258</ele>
        <time>2018-02-06T10:32:37Z</time>
      </trkpt>
      <trkpt lat="45.96184" lon="4.85405">
        <ele>258</ele>
        <time>2018-02-06T10:32:38Z</time>
      </trkpt>
      <trkpt lat="45.96189" lon="4.8541">
        <ele>258</ele>
        <time>2018-02-06T10:32:39Z</time>
      </trkpt>
      <trkpt lat="45.96194" lon="4.85416">
        <ele>258</ele>
        <time>2018-02-06T10:32:40Z</time>
      </trkpt>
      <trkpt lat="45.96198" lon="4.8542">
        <ele>260</ele>
        <time>2018-02-06T10:32:41Z</time>
      </trkpt>
      <trkpt lat="45.96203" lon="4.85425">
        <ele>260</ele>
        <time>2018-02-06T10:32:42Z</time>
      </trkpt>
      <trkpt lat="45.96207" lon="4.85428">
        <ele>260</ele>
        <time>2018-02-06T10:32:43Z</time>
      </trkpt>
      <trkpt lat="45.96211" lon="4.8543">
        <ele>261</ele>
        <time>2018-02-06T10:32:44Z</time>
      </trkpt>
      <trkpt lat="45.96216" lon="4.85432">
        <ele>261</ele>
        <time>2018-02-06T10:32:45Z</time>
      </trkpt>
      <trkpt lat="45.9622" lon="4.85434">
        <ele>261</ele>
        <time>2018-02-06T10:32:46Z</time>
      </trkpt>
      <trkpt lat="45.96225" lon="4.85437">
        <ele>261</ele>
        <time>2018-02-06T10:32:47Z</time>
      </trkpt>
      <trkpt lat="45.96232" lon="4.85441">
        <ele>261</ele>
        <time>2018-02-06T10:32:49Z</time>
      </trkpt>
      <trkpt lat="45.96236" lon="4.85442">
        <ele>261</ele>
        <time>2018-02-06T10:32:50Z</time>
      </trkpt>
      <trkpt lat="45.96243" lon="4.85444">
        <ele>261</ele>
        <time>2018-02-06T10:32:52Z</time>
      </trkpt>
      <trkpt lat="45.96246" lon="4.85445">
        <ele>261</ele>
        <time>2018-02-06T10:32:53Z</time>
      </trkpt>
      <trkpt lat="45.96254" lon="4.85449">
        <ele>264</ele>
        <time>2018-02-06T10:32:56Z</time>
      </trkpt>
      <trkpt lat="45.96257" lon="4.8545">
        <ele>264</ele>
        <time>2018-02-06T10:32:57Z</time>
      </trkpt>
      <trkpt lat="45.96266" lon="4.85454">
        <ele>264</ele>
        <time>2018-02-06T10:33:00Z</time>
      </trkpt>
      <trkpt lat="45.96269" lon="4.85455">
        <ele>264</ele>
        <time>2018-02-06T10:33:01Z</time>
      </trkpt>
      <trkpt lat="45.96275" lon="4.85456">
        <ele>264</ele>
        <time>2018-02-06T10:33:03Z</time>
      </trkpt>
      <trkpt lat="45.96278" lon="4.85456">
        <ele>264</ele>
        <time>2018-02-06T10:33:04Z</time>
      </trkpt>
      <trkpt lat="45.96286" lon="4.85459">
        <ele>265</ele>
        <time>2018-02-06T10:33:07Z</time>
      </trkpt>
      <trkpt lat="45.9629" lon="4.8546">
        <ele>265</ele>
        <time>2018-02-06T10:33:08Z</time>
      </trkpt>
      <trkpt lat="45.96295" lon="4.85461">
        <ele>265</ele>
        <time>2018-02-06T10:33:10Z</time>
      </trkpt>
      <trkpt lat="45.96298" lon="4.85462">
        <ele>265</ele>
        <time>2018-02-06T10:33:11Z</time>
      </trkpt>
      <trkpt lat="45.96307" lon="4.85462">
        <ele>265</ele>
        <time>2018-02-06T10:33:14Z</time>
      </trkpt>
      <trkpt lat="45.9631" lon="4.85463">
        <ele>265</ele>
        <time>2018-02-06T10:33:15Z</time>
      </trkpt>
      <trkpt lat="45.96316" lon="4.85465">
        <ele>265</ele>
        <time>2018-02-06T10:33:17Z</time>
      </trkpt>
      <trkpt lat="45.96319" lon="4.85466">
        <ele>265</ele>
        <time>2018-02-06T10:33:18Z</time>
      </trkpt>
      <trkpt lat="45.96327" lon="4.85466">
        <ele>265</ele>
        <time>2018-02-06T10:33:21Z</time>
      </trkpt>
      <trkpt lat="45.96329" lon="4.85466">
        <ele>265</ele>
        <time>2018-02-06T10:33:22Z</time>
      </trkpt>
      <trkpt lat="45.96338" lon="4.85467">
        <ele>268</ele>
        <time>2018-02-06T10:33:25Z</time>
      </trkpt>
      <trkpt lat="45.96341" lon="4.85468">
        <ele>268</ele>
        <time>2018-02-06T10:33:26Z</time>
      </trkpt>
      <trkpt lat="45.9635" lon="4.85469">
        <ele>268</ele>
        <time>2018-02-06T10:33:29Z</time>
      </trkpt>
      <trkpt lat="45.96353" lon="4.8547">
        <ele>268</ele>
        <time>2018-02-06T10:33:30Z</time>
      </trkpt>
      <trkpt lat="45.96359" lon="4.85471">
        <ele>268</ele>
        <time>2018-02-06T10:33:32Z</time>
      </trkpt>
      <trkpt lat="45.96362" lon="4.85471">
        <ele>268</ele>
        <time>2018-02-06T10:33:33Z</time>
      </trkpt>
      <trkpt lat="45.96368" lon="4.85472">
        <ele>268</ele>
        <time>2018-02-06T10:33:35Z</time>
      </trkpt>
      <trkpt lat="45.96371" lon="4.85472">
        <ele>268</ele>
        <time>2018-02-06T10:33:36Z</time>
      </trkpt>
      <trkpt lat="45.96378" lon="4.85472">
        <ele>268</ele>
        <time>2018-02-06T10:33:38Z</time>
      </trkpt>
      <trkpt lat="45.96382" lon="4.85473">
        <ele>268</ele>
        <time>2018-02-06T10:33:39Z</time>
      </trkpt>
      <trkpt lat="45.96388" lon="4.85475">
        <ele>269</ele>
        <time>2018-02-06T10:33:41Z</time>
      </trkpt>
      <trkpt lat="45.96391" lon="4.85475">
        <ele>269</ele>
        <time>2018-02-06T10:33:42Z</time>
      </trkpt>
      <trkpt lat="45.96398" lon="4.85475">
        <ele>269</ele>
        <time>2018-02-06T10:33:44Z</time>
      </trkpt>
      <trkpt lat="45.96401" lon="4.85475">
        <ele>269</ele>
        <time>2018-02-06T10:33:45Z</time>
      </trkpt>
      <trkpt lat="45.96407" lon="4.85476">
        <ele>269</ele>
        <time>2018-02-06T10:33:48Z</time>
      </trkpt>
      <trkpt lat="45.9641" lon="4.85477">
        <ele>269</ele>
        <time>2018-02-06T10:33:49Z</time>
      </trkpt>
      <trkpt lat="45.96419" lon="4.85479">
        <ele>271</ele>
        <time>2018-02-06T10:33:52Z</time>
      </trkpt>
      <trkpt lat="45.96422" lon="4.85478">
        <ele>271</ele>
        <time>2018-02-06T10:33:53Z</time>
      </trkpt>
      <trkpt lat="45.96429" lon="4.85478">
        <ele>271</ele>
        <time>2018-02-06T10:33:55Z</time>
      </trkpt>
      <trkpt lat="45.96431" lon="4.85478">
        <ele>271</ele>
        <time>2018-02-06T10:33:56Z</time>
      </trkpt>
      <trkpt lat="45.96437" lon="4.85477">
        <ele>271</ele>
        <time>2018-02-06T10:33:58Z</time>
      </trkpt>
      <trkpt lat="45.96441" lon="4.85477">
        <ele>272</ele>
        <time>2018-02-06T10:33:59Z</time>
      </trkpt>
      <trkpt lat="45.96447" lon="4.85477">
        <ele>272</ele>
        <time>2018-02-06T10:34:01Z</time>
      </trkpt>
      <trkpt lat="45.9645" lon="4.85478">
        <ele>272</ele>
        <time>2018-02-06T10:34:02Z</time>
      </trkpt>
      <trkpt lat="45.96458" lon="4.85479">
        <ele>272</ele>
        <time>2018-02-06T10:34:05Z</time>
      </trkpt>
      <trkpt lat="45.9646" lon="4.85479">
        <ele>272</ele>
        <time>2018-02-06T10:34:06Z</time>
      </trkpt>
      <trkpt lat="45.96466" lon="4.8548">
        <ele>272</ele>
        <time>2018-02-06T10:34:08Z</time>
      </trkpt>
      <trkpt lat="45.96469" lon="4.8548">
        <ele>272</ele>
        <time>2018-02-06T10:34:09Z</time>
      </trkpt>
      <trkpt lat="45.96475" lon="4.85478">
        <ele>272</ele>
        <time>2018-02-06T10:34:11Z</time>
      </trkpt>
      <trkpt lat="45.96479" lon="4.85477">
        <ele>273</ele>
        <time>2018-02-06T10:34:12Z</time>
      </trkpt>
      <trkpt lat="45.96485" lon="4.85476">
        <ele>273</ele>
        <time>2018-02-06T10:34:14Z</time>
      </trkpt>
      <trkpt lat="45.96488" lon="4.85475">
        <ele>273</ele>
        <time>2018-02-06T10:34:15Z</time>
      </trkpt>
      <trkpt lat="45.96495" lon="4.85474">
        <ele>273</ele>
        <time>2018-02-06T10:34:17Z</time>
      </trkpt>
      <trkpt lat="45.96498" lon="4.85474">
        <ele>273</ele>
        <time>2018-02-06T10:34:18Z</time>
      </trkpt>
      <trkpt lat="45.96504" lon="4.85472">
        <ele>275</ele>
        <time>2018-02-06T10:34:20Z</time>
      </trkpt>
      <trkpt lat="45.96507" lon="4.85472">
        <ele>275</ele>
        <time>2018-02-06T10:34:21Z</time>
      </trkpt>
      <trkpt lat="45.96515" lon="4.85469">
        <ele>275</ele>
        <time>2018-02-06T10:34:24Z</time>
      </trkpt>
      <trkpt lat="45.96518" lon="4.85468">
        <ele>275</ele>
        <time>2018-02-06T10:34:25Z</time>
      </trkpt>
      <trkpt lat="45.96526" lon="4.85466">
        <ele>275</ele>
        <time>2018-02-06T10:34:28Z</time>
      </trkpt>
      <trkpt lat="45.96529" lon="4.85466">
        <ele>275</ele>
        <time>2018-02-06T10:34:29Z</time>
      </trkpt>
      <trkpt lat="45.96535" lon="4.85464">
        <ele>275</ele>
        <time>2018-02-06T10:34:31Z</time>
      </trkpt>
      <trkpt lat="45.96538" lon="4.85463">
        <ele>275</ele>
        <time>2018-02-06T10:34:32Z</time>
      </trkpt>
      <trkpt lat="45.96544" lon="4.85461">
        <ele>275</ele>
        <time>2018-02-06T10:34:34Z</time>
      </trkpt>
      <trkpt lat="45.96546" lon="4.85459">
        <ele>275</ele>
        <time>2018-02-06T10:34:35Z</time>
      </trkpt>
      <trkpt lat="45.96552" lon="4.85457">
        <ele>275</ele>
        <time>2018-02-06T10:34:37Z</time>
      </trkpt>
      <trkpt lat="45.96555" lon="4.85457">
        <ele>275</ele>
        <time>2018-02-06T10:34:38Z</time>
      </trkpt>
      <trkpt lat="45.96562" lon="4.85456">
        <ele>275</ele>
        <time>2018-02-06T10:34:40Z</time>
      </trkpt>
      <trkpt lat="45.96566" lon="4.85455">
        <ele>275</ele>
        <time>2018-02-06T10:34:41Z</time>
      </trkpt>
      <trkpt lat="45.96573" lon="4.85454">
        <ele>275</ele>
        <time>2018-02-06T10:34:43Z</time>
      </trkpt>
      <trkpt lat="45.96576" lon="4.85454">
        <ele>275</ele>
        <time>2018-02-06T10:34:44Z</time>
      </trkpt>
      <trkpt lat="45.96583" lon="4.85452">
        <ele>275</ele>
        <time>2018-02-06T10:34:46Z</time>
      </trkpt>
      <trkpt lat="45.96587" lon="4.85451">
        <ele>276</ele>
        <time>2018-02-06T10:34:47Z</time>
      </trkpt>
      <trkpt lat="45.96594" lon="4.8545">
        <ele>276</ele>
        <time>2018-02-06T10:34:49Z</time>
      </trkpt>
      <trkpt lat="45.96597" lon="4.85449">
        <ele>276</ele>
        <time>2018-02-06T10:34:50Z</time>
      </trkpt>
      <trkpt lat="45.96604" lon="4.85447">
        <ele>276</ele>
        <time>2018-02-06T10:34:52Z</time>
      </trkpt>
      <trkpt lat="45.96608" lon="4.85446">
        <ele>276</ele>
        <time>2018-02-06T10:34:53Z</time>
      </trkpt>
      <trkpt lat="45.96615" lon="4.85444">
        <ele>276</ele>
        <time>2018-02-06T10:34:55Z</time>
      </trkpt>
      <trkpt lat="45.96619" lon="4.85442">
        <ele>276</ele>
        <time>2018-02-06T10:34:56Z</time>
      </trkpt>
      <trkpt lat="45.96626" lon="4.8544">
        <ele>276</ele>
        <time>2018-02-06T10:34:58Z</time>
      </trkpt>
      <trkpt lat="45.9663" lon="4.85438">
        <ele>276</ele>
        <time>2018-02-06T10:34:59Z</time>
      </trkpt>
      <trkpt lat="45.96634" lon="4.85437">
        <ele>276</ele>
        <time>2018-02-06T10:35:00Z</time>
      </trkpt>
      <trkpt lat="45.96639" lon="4.85436">
        <ele>276</ele>
        <time>2018-02-06T10:35:01Z</time>
      </trkpt>
      <trkpt lat="45.96647" lon="4.85433">
        <ele>276</ele>
        <time>2018-02-06T10:35:03Z</time>
      </trkpt>
      <trkpt lat="45.96651" lon="4.85431">
        <ele>276</ele>
        <time>2018-02-06T10:35:04Z</time>
      </trkpt>
      <trkpt lat="45.96659" lon="4.85428">
        <ele>276</ele>
        <time>2018-02-06T10:35:06Z</time>
      </trkpt>
      <trkpt lat="45.96663" lon="4.85427">
        <ele>276</ele>
        <time>2018-02-06T10:35:07Z</time>
      </trkpt>
      <trkpt lat="45.96671" lon="4.85425">
        <ele>276</ele>
        <time>2018-02-06T10:35:09Z</time>
      </trkpt>
      <trkpt lat="45.96676" lon="4.85424">
        <ele>276</ele>
        <time>2018-02-06T10:35:10Z</time>
      </trkpt>
      <trkpt lat="45.96683" lon="4.85422">
        <ele>276</ele>
        <time>2018-02-06T10:35:12Z</time>
      </trkpt>
      <trkpt lat="45.96687" lon="4.85422">
        <ele>276</ele>
        <time>2018-02-06T10:35:13Z</time>
      </trkpt>
      <trkpt lat="45.96693" lon="4.8542">
        <ele>276</ele>
        <time>2018-02-06T10:35:15Z</time>
      </trkpt>
      <trkpt lat="45.96697" lon="4.85419">
        <ele>276</ele>
        <time>2018-02-06T10:35:16Z</time>
      </trkpt>
      <trkpt lat="45.96703" lon="4.85417">
        <ele>276</ele>
        <time>2018-02-06T10:35:18Z</time>
      </trkpt>
      <trkpt lat="45.96707" lon="4.85414">
        <ele>276</ele>
        <time>2018-02-06T10:35:19Z</time>
      </trkpt>
      <trkpt lat="45.96713" lon="4.85409">
        <ele>276</ele>
        <time>2018-02-06T10:35:21Z</time>
      </trkpt>
      <trkpt lat="45.96716" lon="4.85407">
        <ele>276</ele>
        <time>2018-02-06T10:35:22Z</time>
      </trkpt>
      <trkpt lat="45.96723" lon="4.85403">
        <ele>276</ele>
        <time>2018-02-06T10:35:24Z</time>
      </trkpt>
      <trkpt lat="45.96726" lon="4.85402">
        <ele>276</ele>
        <time>2018-02-06T10:35:25Z</time>
      </trkpt>
      <trkpt lat="45.96731" lon="4.85398">
        <ele>277</ele>
        <time>2018-02-06T10:35:27Z</time>
      </trkpt>
      <trkpt lat="45.96734" lon="4.85396">
        <ele>277</ele>
        <time>2018-02-06T10:35:28Z</time>
      </trkpt>
      <trkpt lat="45.9674" lon="4.8539">
        <ele>277</ele>
        <time>2018-02-06T10:35:30Z</time>
      </trkpt>
      <trkpt lat="45.96743" lon="4.85388">
        <ele>277</ele>
        <time>2018-02-06T10:35:31Z</time>
      </trkpt>
      <trkpt lat="45.9675" lon="4.85382">
        <ele>277</ele>
        <time>2018-02-06T10:35:34Z</time>
      </trkpt>
      <trkpt lat="45.96752" lon="4.85381">
        <ele>278</ele>
        <time>2018-02-06T10:35:35Z</time>
      </trkpt>
      <trkpt lat="45.9676" lon="4.85377">
        <ele>278</ele>
        <time>2018-02-06T10:35:38Z</time>
      </trkpt>
      <trkpt lat="45.96762" lon="4.85375">
        <ele>278</ele>
        <time>2018-02-06T10:35:39Z</time>
      </trkpt>
      <trkpt lat="45.96767" lon="4.85369">
        <ele>278</ele>
        <time>2018-02-06T10:35:41Z</time>
      </trkpt>
      <trkpt lat="45.9677" lon="4.85367">
        <ele>278</ele>
        <time>2018-02-06T10:35:42Z</time>
      </trkpt>
      <trkpt lat="45.96777" lon="4.85361">
        <ele>278</ele>
        <time>2018-02-06T10:35:45Z</time>
      </trkpt>
      <trkpt lat="45.9678" lon="4.8536">
        <ele>278</ele>
        <time>2018-02-06T10:35:46Z</time>
      </trkpt>
      <trkpt lat="45.96785" lon="4.85355">
        <ele>278</ele>
        <time>2018-02-06T10:35:48Z</time>
      </trkpt>
      <trkpt lat="45.96787" lon="4.85352">
        <ele>278</ele>
        <time>2018-02-06T10:35:49Z</time>
      </trkpt>
      <trkpt lat="45.96793" lon="4.85347">
        <ele>279</ele>
        <time>2018-02-06T10:35:51Z</time>
      </trkpt>
      <trkpt lat="45.96796" lon="4.85345">
        <ele>279</ele>
        <time>2018-02-06T10:35:52Z</time>
      </trkpt>
      <trkpt lat="45.96803" lon="4.85342">
        <ele>279</ele>
        <time>2018-02-06T10:35:54Z</time>
      </trkpt>
      <trkpt lat="45.96806" lon="4.8534">
        <ele>279</ele>
        <time>2018-02-06T10:35:55Z</time>
      </trkpt>
      <trkpt lat="45.96811" lon="4.85337">
        <ele>279</ele>
        <time>2018-02-06T10:35:57Z</time>
      </trkpt>
      <trkpt lat="45.96814" lon="4.85335">
        <ele>279</ele>
        <time>2018-02-06T10:35:58Z</time>
      </trkpt>
      <trkpt lat="45.96822" lon="4.85333">
        <ele>279</ele>
        <time>2018-02-06T10:36:01Z</time>
      </trkpt>
      <trkpt lat="45.96825" lon="4.85332">
        <ele>279</ele>
        <time>2018-02-06T10:36:02Z</time>
      </trkpt>
      <trkpt lat="45.96831" lon="4.8533">
        <ele>280</ele>
        <time>2018-02-06T10:36:04Z</time>
      </trkpt>
      <trkpt lat="45.96834" lon="4.85329">
        <ele>280</ele>
        <time>2018-02-06T10:36:05Z</time>
      </trkpt>
      <trkpt lat="45.9684" lon="4.85328">
        <ele>281</ele>
        <time>2018-02-06T10:36:07Z</time>
      </trkpt>
      <trkpt lat="45.96843" lon="4.85327">
        <ele>281</ele>
        <time>2018-02-06T10:36:08Z</time>
      </trkpt>
      <trkpt lat="45.9685" lon="4.85325">
        <ele>281</ele>
        <time>2018-02-06T10:36:10Z</time>
      </trkpt>
      <trkpt lat="45.96853" lon="4.85324">
        <ele>282</ele>
        <time>2018-02-06T10:36:11Z</time>
      </trkpt>
      <trkpt lat="45.96859" lon="4.85322">
        <ele>282</ele>
        <time>2018-02-06T10:36:13Z</time>
      </trkpt>
      <trkpt lat="45.96863" lon="4.85321">
        <ele>282</ele>
        <time>2018-02-06T10:36:14Z</time>
      </trkpt>
      <trkpt lat="45.96869" lon="4.85318">
        <ele>282</ele>
        <time>2018-02-06T10:36:16Z</time>
      </trkpt>
      <trkpt lat="45.96872" lon="4.85317">
        <ele>283</ele>
        <time>2018-02-06T10:36:17Z</time>
      </trkpt>
      <trkpt lat="45.96878" lon="4.85314">
        <ele>283</ele>
        <time>2018-02-06T10:36:19Z</time>
      </trkpt>
      <trkpt lat="45.96882" lon="4.85313">
        <ele>283</ele>
        <time>2018-02-06T10:36:20Z</time>
      </trkpt>
      <trkpt lat="45.96888" lon="4.85312">
        <ele>283</ele>
        <time>2018-02-06T10:36:22Z</time>
      </trkpt>
      <trkpt lat="45.96892" lon="4.85311">
        <ele>283</ele>
        <time>2018-02-06T10:36:23Z</time>
      </trkpt>
      <trkpt lat="45.96898" lon="4.8531">
        <ele>284</ele>
        <time>2018-02-06T10:36:25Z</time>
      </trkpt>
      <trkpt lat="45.96902" lon="4.85309">
        <ele>284</ele>
        <time>2018-02-06T10:36:26Z</time>
      </trkpt>
      <trkpt lat="45.96909" lon="4.85306">
        <ele>284</ele>
        <time>2018-02-06T10:36:28Z</time>
      </trkpt>
      <trkpt lat="45.96912" lon="4.85306">
        <ele>284</ele>
        <time>2018-02-06T10:36:29Z</time>
      </trkpt>
      <trkpt lat="45.96919" lon="4.85304">
        <ele>285</ele>
        <time>2018-02-06T10:36:32Z</time>
      </trkpt>
      <trkpt lat="45.96922" lon="4.85304">
        <ele>284</ele>
        <time>2018-02-06T10:36:33Z</time>
      </trkpt>
      <trkpt lat="45.9693" lon="4.85301">
        <ele>284</ele>
        <time>2018-02-06T10:36:36Z</time>
      </trkpt>
      <trkpt lat="45.96933" lon="4.85301">
        <ele>284</ele>
        <time>2018-02-06T10:36:37Z</time>
      </trkpt>
      <trkpt lat="45.9694" lon="4.853">
        <ele>284</ele>
        <time>2018-02-06T10:36:39Z</time>
      </trkpt>
      <trkpt lat="45.96943" lon="4.85299">
        <ele>284</ele>
        <time>2018-02-06T10:36:40Z</time>
      </trkpt>
      <trkpt lat="45.96951" lon="4.85298">
        <ele>284</ele>
        <time>2018-02-06T10:36:42Z</time>
      </trkpt>
      <trkpt lat="45.96955" lon="4.85298">
        <ele>284</ele>
        <time>2018-02-06T10:36:43Z</time>
      </trkpt>
      <trkpt lat="45.96964" lon="4.85296">
        <ele>284</ele>
        <time>2018-02-06T10:36:45Z</time>
      </trkpt>
      <trkpt lat="45.96969" lon="4.85296">
        <ele>284</ele>
        <time>2018-02-06T10:36:46Z</time>
      </trkpt>
      <trkpt lat="45.96975" lon="4.85294">
        <ele>284</ele>
        <time>2018-02-06T10:36:47Z</time>
      </trkpt>
      <trkpt lat="45.9698" lon="4.85294">
        <ele>284</ele>
        <time>2018-02-06T10:36:48Z</time>
      </trkpt>
      <trkpt lat="45.96984" lon="4.85293">
        <ele>284</ele>
        <time>2018-02-06T10:36:49Z</time>
      </trkpt>
      <trkpt lat="45.96989" lon="4.85292">
        <ele>284</ele>
        <time>2018-02-06T10:36:50Z</time>
      </trkpt>
      <trkpt lat="45.96994" lon="4.85292">
        <ele>283</ele>
        <time>2018-02-06T10:36:51Z</time>
      </trkpt>
      <trkpt lat="45.97" lon="4.85291">
        <ele>282</ele>
        <time>2018-02-06T10:36:52Z</time>
      </trkpt>
      <trkpt lat="45.97005" lon="4.8529">
        <ele>282</ele>
        <time>2018-02-06T10:36:53Z</time>
      </trkpt>
      <trkpt lat="45.97012" lon="4.85288">
        <ele>282</ele>
        <time>2018-02-06T10:36:54Z</time>
      </trkpt>
      <trkpt lat="45.97017" lon="4.85288">
        <ele>282</ele>
        <time>2018-02-06T10:36:55Z</time>
      </trkpt>
      <trkpt lat="45.97024" lon="4.85287">
        <ele>282</ele>
        <time>2018-02-06T10:36:56Z</time>
      </trkpt>
      <trkpt lat="45.9703" lon="4.85286">
        <ele>282</ele>
        <time>2018-02-06T10:36:57Z</time>
      </trkpt>
      <trkpt lat="45.97036" lon="4.85285">
        <ele>282</ele>
        <time>2018-02-06T10:36:58Z</time>
      </trkpt>
      <trkpt lat="45.97042" lon="4.85285">
        <ele>282</ele>
        <time>2018-02-06T10:36:59Z</time>
      </trkpt>
      <trkpt lat="45.97048" lon="4.85285">
        <ele>282</ele>
        <time>2018-02-06T10:37:00Z</time>
      </trkpt>
      <trkpt lat="45.97055" lon="4.85284">
        <ele>282</ele>
        <time>2018-02-06T10:37:01Z</time>
      </trkpt>
      <trkpt lat="45.97061" lon="4.85283">
        <ele>282</ele>
        <time>2018-02-06T10:37:02Z</time>
      </trkpt>
      <trkpt lat="45.97067" lon="4.85283">
        <ele>282</ele>
        <time>2018-02-06T10:37:03Z</time>
      </trkpt>
      <trkpt lat="45.97073" lon="4.85282">
        <ele>281</ele>
        <time>2018-02-06T10:37:04Z</time>
      </trkpt>
      <trkpt lat="45.97081" lon="4.85281">
        <ele>281</ele>
        <time>2018-02-06T10:37:05Z</time>
      </trkpt>
      <trkpt lat="45.97087" lon="4.85279">
        <ele>280</ele>
        <time>2018-02-06T10:37:06Z</time>
      </trkpt>
      <trkpt lat="45.97096" lon="4.85279">
        <ele>280</ele>
        <time>2018-02-06T10:37:07Z</time>
      </trkpt>
      <trkpt lat="45.97101" lon="4.85278">
        <ele>280</ele>
        <time>2018-02-06T10:37:08Z</time>
      </trkpt>
      <trkpt lat="45.97107" lon="4.85276">
        <ele>280</ele>
        <time>2018-02-06T10:37:09Z</time>
      </trkpt>
      <trkpt lat="45.97113" lon="4.85276">
        <ele>280</ele>
        <time>2018-02-06T10:37:10Z</time>
      </trkpt>
      <trkpt lat="45.97119" lon="4.85277">
        <ele>280</ele>
        <time>2018-02-06T10:37:11Z</time>
      </trkpt>
      <trkpt lat="45.97123" lon="4.85278">
        <ele>280</ele>
        <time>2018-02-06T10:37:12Z</time>
      </trkpt>
      <trkpt lat="45.97127" lon="4.85279">
        <ele>279</ele>
        <time>2018-02-06T10:37:13Z</time>
      </trkpt>
      <trkpt lat="45.97133" lon="4.8528">
        <ele>279</ele>
        <time>2018-02-06T10:37:14Z</time>
      </trkpt>
      <trkpt lat="45.97139" lon="4.85281">
        <ele>279</ele>
        <time>2018-02-06T10:37:15Z</time>
      </trkpt>
      <trkpt lat="45.97144" lon="4.85281">
        <ele>279</ele>
        <time>2018-02-06T10:37:16Z</time>
      </trkpt>
      <trkpt lat="45.9715" lon="4.85281">
        <ele>279</ele>
        <time>2018-02-06T10:37:17Z</time>
      </trkpt>
      <trkpt lat="45.97155" lon="4.8528">
        <ele>279</ele>
        <time>2018-02-06T10:37:18Z</time>
      </trkpt>
      <trkpt lat="45.97161" lon="4.8528">
        <ele>279</ele>
        <time>2018-02-06T10:37:19Z</time>
      </trkpt>
      <trkpt lat="45.97166" lon="4.8528">
        <ele>279</ele>
        <time>2018-02-06T10:37:20Z</time>
      </trkpt>
      <trkpt lat="45.97172" lon="4.8528">
        <ele>279</ele>
        <time>2018-02-06T10:37:21Z</time>
      </trkpt>
      <trkpt lat="45.97178" lon="4.8528">
        <ele>279</ele>
        <time>2018-02-06T10:37:22Z</time>
      </trkpt>
      <trkpt lat="45.97184" lon="4.8528">
        <ele>279</ele>
        <time>2018-02-06T10:37:23Z</time>
      </trkpt>
      <trkpt lat="45.9719" lon="4.8528">
        <ele>279</ele>
        <time>2018-02-06T10:37:24Z</time>
      </trkpt>
      <trkpt lat="45.97196" lon="4.8528">
        <ele>279</ele>
        <time>2018-02-06T10:37:25Z</time>
      </trkpt>
      <trkpt lat="45.97201" lon="4.85279">
        <ele>279</ele>
        <time>2018-02-06T10:37:26Z</time>
      </trkpt>
      <trkpt lat="45.97206" lon="4.85278">
        <ele>279</ele>
        <time>2018-02-06T10:37:27Z</time>
      </trkpt>
      <trkpt lat="45.97212" lon="4.85278">
        <ele>279</ele>
        <time>2018-02-06T10:37:28Z</time>
      </trkpt>
      <trkpt lat="45.97218" lon="4.85277">
        <ele>279</ele>
        <time>2018-02-06T10:37:29Z</time>
      </trkpt>
      <trkpt lat="45.97222" lon="4.85277">
        <ele>279</ele>
        <time>2018-02-06T10:37:30Z</time>
      </trkpt>
      <trkpt lat="45.97228" lon="4.85278">
        <ele>279</ele>
        <time>2018-02-06T10:37:31Z</time>
      </trkpt>
      <trkpt lat="45.97234" lon="4.85278">
        <ele>279</ele>
        <time>2018-02-06T10:37:32Z</time>
      </trkpt>
      <trkpt lat="45.97239" lon="4.85278">
        <ele>279</ele>
        <time>2018-02-06T10:37:33Z</time>
      </trkpt>
      <trkpt lat="45.97244" lon="4.85277">
        <ele>279</ele>
        <time>2018-02-06T10:37:34Z</time>
      </trkpt>
      <trkpt lat="45.9725" lon="4.85276">
        <ele>281</ele>
        <time>2018-02-06T10:37:35Z</time>
      </trkpt>
      <trkpt lat="45.97255" lon="4.85275">
        <ele>281</ele>
        <time>2018-02-06T10:37:36Z</time>
      </trkpt>
      <trkpt lat="45.97261" lon="4.85274">
        <ele>281</ele>
        <time>2018-02-06T10:37:37Z</time>
      </trkpt>
      <trkpt lat="45.97267" lon="4.85274">
        <ele>281</ele>
        <time>2018-02-06T10:37:38Z</time>
      </trkpt>
      <trkpt lat="45.97273" lon="4.85275">
        <ele>281</ele>
        <time>2018-02-06T10:37:39Z</time>
      </trkpt>
      <trkpt lat="45.97279" lon="4.85275">
        <ele>281</ele>
        <time>2018-02-06T10:37:40Z</time>
      </trkpt>
      <trkpt lat="45.97285" lon="4.85275">
        <ele>281</ele>
        <time>2018-02-06T10:37:41Z</time>
      </trkpt>
      <trkpt lat="45.9729" lon="4.85275">
        <ele>282</ele>
        <time>2018-02-06T10:37:42Z</time>
      </trkpt>
      <trkpt lat="45.97295" lon="4.85274">
        <ele>282</ele>
        <time>2018-02-06T10:37:43Z</time>
      </trkpt>
      <trkpt lat="45.973" lon="4.85274">
        <ele>282</ele>
        <time>2018-02-06T10:37:44Z</time>
      </trkpt>
      <trkpt lat="45.97305" lon="4.85274">
        <ele>282</ele>
        <time>2018-02-06T10:37:45Z</time>
      </trkpt>
      <trkpt lat="45.97311" lon="4.85273">
        <ele>282</ele>
        <time>2018-02-06T10:37:46Z</time>
      </trkpt>
      <trkpt lat="45.97316" lon="4.85271">
        <ele>282</ele>
        <time>2018-02-06T10:37:47Z</time>
      </trkpt>
      <trkpt lat="45.97321" lon="4.85269">
        <ele>282</ele>
        <time>2018-02-06T10:37:48Z</time>
      </trkpt>
      <trkpt lat="45.97327" lon="4.8527">
        <ele>282</ele>
        <time>2018-02-06T10:37:49Z</time>
      </trkpt>
      <trkpt lat="45.97332" lon="4.85269">
        <ele>282</ele>
        <time>2018-02-06T10:37:50Z</time>
      </trkpt>
      <trkpt lat="45.97337" lon="4.85269">
        <ele>283</ele>
        <time>2018-02-06T10:37:51Z</time>
      </trkpt>
      <trkpt lat="45.97342" lon="4.85269">
        <ele>284</ele>
        <time>2018-02-06T10:37:52Z</time>
      </trkpt>
      <trkpt lat="45.9735" lon="4.85269">
        <ele>284</ele>
        <time>2018-02-06T10:37:54Z</time>
      </trkpt>
      <trkpt lat="45.97355" lon="4.85269">
        <ele>284</ele>
        <time>2018-02-06T10:37:55Z</time>
      </trkpt>
      <trkpt lat="45.9736" lon="4.85269">
        <ele>284</ele>
        <time>2018-02-06T10:37:56Z</time>
      </trkpt>
      <trkpt lat="45.97365" lon="4.85269">
        <ele>285</ele>
        <time>2018-02-06T10:37:57Z</time>
      </trkpt>
      <trkpt lat="45.9737" lon="4.85268">
        <ele>285</ele>
        <time>2018-02-06T10:37:58Z</time>
      </trkpt>
      <trkpt lat="45.97375" lon="4.85267">
        <ele>285</ele>
        <time>2018-02-06T10:37:59Z</time>
      </trkpt>
      <trkpt lat="45.97379" lon="4.85267">
        <ele>285</ele>
        <time>2018-02-06T10:38:00Z</time>
      </trkpt>
      <trkpt lat="45.97384" lon="4.85266">
        <ele>285</ele>
        <time>2018-02-06T10:38:01Z</time>
      </trkpt>
      <trkpt lat="45.97391" lon="4.85268">
        <ele>285</ele>
        <time>2018-02-06T10:38:02Z</time>
      </trkpt>
      <trkpt lat="45.97394" lon="4.85267">
        <ele>286</ele>
        <time>2018-02-06T10:38:03Z</time>
      </trkpt>
      <trkpt lat="45.974" lon="4.85267">
        <ele>286</ele>
        <time>2018-02-06T10:38:04Z</time>
      </trkpt>
      <trkpt lat="45.97406" lon="4.85267">
        <ele>286</ele>
        <time>2018-02-06T10:38:05Z</time>
      </trkpt>
      <trkpt lat="45.97411" lon="4.85268">
        <ele>286</ele>
        <time>2018-02-06T10:38:06Z</time>
      </trkpt>
      <trkpt lat="45.97415" lon="4.85269">
        <ele>286</ele>
        <time>2018-02-06T10:38:07Z</time>
      </trkpt>
      <trkpt lat="45.97422" lon="4.85268">
        <ele>285</ele>
        <time>2018-02-06T10:38:08Z</time>
      </trkpt>
      <trkpt lat="45.97428" lon="4.85268">
        <ele>285</ele>
        <time>2018-02-06T10:38:09Z</time>
      </trkpt>
      <trkpt lat="45.97434" lon="4.8527">
        <ele>285</ele>
        <time>2018-02-06T10:38:10Z</time>
      </trkpt>
      <trkpt lat="45.9744" lon="4.8527">
        <ele>285</ele>
        <time>2018-02-06T10:38:11Z</time>
      </trkpt>
      <trkpt lat="45.97446" lon="4.8527">
        <ele>285</ele>
        <time>2018-02-06T10:38:12Z</time>
      </trkpt>
      <trkpt lat="45.97452" lon="4.85272">
        <ele>285</ele>
        <time>2018-02-06T10:38:13Z</time>
      </trkpt>
      <trkpt lat="45.97459" lon="4.85271">
        <ele>284</ele>
        <time>2018-02-06T10:38:14Z</time>
      </trkpt>
      <trkpt lat="45.97465" lon="4.8527">
        <ele>284</ele>
        <time>2018-02-06T10:38:15Z</time>
      </trkpt>
      <trkpt lat="45.97471" lon="4.85269">
        <ele>284</ele>
        <time>2018-02-06T10:38:16Z</time>
      </trkpt>
      <trkpt lat="45.97478" lon="4.85269">
        <ele>284</ele>
        <time>2018-02-06T10:38:17Z</time>
      </trkpt>
      <trkpt lat="45.97484" lon="4.85268">
        <ele>284</ele>
        <time>2018-02-06T10:38:18Z</time>
      </trkpt>
      <trkpt lat="45.97491" lon="4.85268">
        <ele>283</ele>
        <time>2018-02-06T10:38:19Z</time>
      </trkpt>
      <trkpt lat="45.97496" lon="4.8527">
        <ele>283</ele>
        <time>2018-02-06T10:38:20Z</time>
      </trkpt>
      <trkpt lat="45.97504" lon="4.85268">
        <ele>282</ele>
        <time>2018-02-06T10:38:21Z</time>
      </trkpt>
      <trkpt lat="45.9751" lon="4.85267">
        <ele>282</ele>
        <time>2018-02-06T10:38:22Z</time>
      </trkpt>
      <trkpt lat="45.97516" lon="4.85266">
        <ele>281</ele>
        <time>2018-02-06T10:38:23Z</time>
      </trkpt>
      <trkpt lat="45.97522" lon="4.85266">
        <ele>281</ele>
        <time>2018-02-06T10:38:24Z</time>
      </trkpt>
      <trkpt lat="45.97527" lon="4.85268">
        <ele>281</ele>
        <time>2018-02-06T10:38:25Z</time>
      </trkpt>
      <trkpt lat="45.97533" lon="4.85269">
        <ele>281</ele>
        <time>2018-02-06T10:38:26Z</time>
      </trkpt>
      <trkpt lat="45.97538" lon="4.85269">
        <ele>281</ele>
        <time>2018-02-06T10:38:27Z</time>
      </trkpt>
      <trkpt lat="45.97544" lon="4.85271">
        <ele>281</ele>
        <time>2018-02-06T10:38:28Z</time>
      </trkpt>
      <trkpt lat="45.97549" lon="4.85269">
        <ele>281</ele>
        <time>2018-02-06T10:38:29Z</time>
      </trkpt>
      <trkpt lat="45.97555" lon="4.85268">
        <ele>281</ele>
        <time>2018-02-06T10:38:30Z</time>
      </trkpt>
      <trkpt lat="45.9756" lon="4.85266">
        <ele>281</ele>
        <time>2018-02-06T10:38:31Z</time>
      </trkpt>
      <trkpt lat="45.97566" lon="4.85266">
        <ele>281</ele>
        <time>2018-02-06T10:38:32Z</time>
      </trkpt>
      <trkpt lat="45.97571" lon="4.85266">
        <ele>281</ele>
        <time>2018-02-06T10:38:33Z</time>
      </trkpt>
      <trkpt lat="45.97577" lon="4.85268">
        <ele>281</ele>
        <time>2018-02-06T10:38:34Z</time>
      </trkpt>
      <trkpt lat="45.97585" lon="4.85263">
        <ele>280</ele>
        <time>2018-02-06T10:38:35Z</time>
      </trkpt>
      <trkpt lat="45.97591" lon="4.85261">
        <ele>280</ele>
        <time>2018-02-06T10:38:36Z</time>
      </trkpt>
      <trkpt lat="45.97596" lon="4.8526">
        <ele>280</ele>
        <time>2018-02-06T10:38:37Z</time>
      </trkpt>
      <trkpt lat="45.97602" lon="4.85261">
        <ele>280</ele>
        <time>2018-02-06T10:38:38Z</time>
      </trkpt>
      <trkpt lat="45.97609" lon="4.8526">
        <ele>279</ele>
        <time>2018-02-06T10:38:39Z</time>
      </trkpt>
      <trkpt lat="45.97615" lon="4.8526">
        <ele>279</ele>
        <time>2018-02-06T10:38:40Z</time>
      </trkpt>
      <trkpt lat="45.97621" lon="4.85259">
        <ele>279</ele>
        <time>2018-02-06T10:38:41Z</time>
      </trkpt>
      <trkpt lat="45.97626" lon="4.85259">
        <ele>278</ele>
        <time>2018-02-06T10:38:42Z</time>
      </trkpt>
      <trkpt lat="45.97632" lon="4.85257">
        <ele>278</ele>
        <time>2018-02-06T10:38:43Z</time>
      </trkpt>
      <trkpt lat="45.97639" lon="4.85255">
        <ele>278</ele>
        <time>2018-02-06T10:38:44Z</time>
      </trkpt>
      <trkpt lat="45.97643" lon="4.85251">
        <ele>278</ele>
        <time>2018-02-06T10:38:45Z</time>
      </trkpt>
      <trkpt lat="45.97649" lon="4.85251">
        <ele>277</ele>
        <time>2018-02-06T10:38:46Z</time>
      </trkpt>
      <trkpt lat="45.97656" lon="4.85243">
        <ele>277</ele>
        <time>2018-02-06T10:38:47Z</time>
      </trkpt>
      <trkpt lat="45.97663" lon="4.85241">
        <ele>277</ele>
        <time>2018-02-06T10:38:48Z</time>
      </trkpt>
      <trkpt lat="45.97669" lon="4.8524">
        <ele>276</ele>
        <time>2018-02-06T10:38:49Z</time>
      </trkpt>
      <trkpt lat="45.97675" lon="4.85241">
        <ele>276</ele>
        <time>2018-02-06T10:38:50Z</time>
      </trkpt>
      <trkpt lat="45.97681" lon="4.8524">
        <ele>276</ele>
        <time>2018-02-06T10:38:51Z</time>
      </trkpt>
      <trkpt lat="45.97688" lon="4.85241">
        <ele>276</ele>
        <time>2018-02-06T10:38:52Z</time>
      </trkpt>
      <trkpt lat="45.97693" lon="4.85242">
        <ele>275</ele>
        <time>2018-02-06T10:38:53Z</time>
      </trkpt>
      <trkpt lat="45.97698" lon="4.85241">
        <ele>275</ele>
        <time>2018-02-06T10:38:54Z</time>
      </trkpt>
      <trkpt lat="45.97704" lon="4.85241">
        <ele>275</ele>
        <time>2018-02-06T10:38:55Z</time>
      </trkpt>
      <trkpt lat="45.9771" lon="4.8524">
        <ele>275</ele>
        <time>2018-02-06T10:38:56Z</time>
      </trkpt>
      <trkpt lat="45.97715" lon="4.8524">
        <ele>275</ele>
        <time>2018-02-06T10:38:57Z</time>
      </trkpt>
      <trkpt lat="45.97722" lon="4.8524">
        <ele>275</ele>
        <time>2018-02-06T10:38:58Z</time>
      </trkpt>
      <trkpt lat="45.97728" lon="4.85239">
        <ele>275</ele>
        <time>2018-02-06T10:38:59Z</time>
      </trkpt>
      <trkpt lat="45.97733" lon="4.8524">
        <ele>275</ele>
        <time>2018-02-06T10:39:00Z</time>
      </trkpt>
      <trkpt lat="45.97738" lon="4.85239">
        <ele>275</ele>
        <time>2018-02-06T10:39:01Z</time>
      </trkpt>
      <trkpt lat="45.97744" lon="4.85239">
        <ele>274</ele>
        <time>2018-02-06T10:39:02Z</time>
      </trkpt>
      <trkpt lat="45.9775" lon="4.85239">
        <ele>274</ele>
        <time>2018-02-06T10:39:03Z</time>
      </trkpt>
      <trkpt lat="45.97755" lon="4.85238">
        <ele>274</ele>
        <time>2018-02-06T10:39:04Z</time>
      </trkpt>
      <trkpt lat="45.97762" lon="4.85239">
        <ele>274</ele>
        <time>2018-02-06T10:39:05Z</time>
      </trkpt>
      <trkpt lat="45.97766" lon="4.85239">
        <ele>274</ele>
        <time>2018-02-06T10:39:06Z</time>
      </trkpt>
      <trkpt lat="45.97772" lon="4.85239">
        <ele>274</ele>
        <time>2018-02-06T10:39:07Z</time>
      </trkpt>
      <trkpt lat="45.97776" lon="4.85239">
        <ele>274</ele>
        <time>2018-02-06T10:39:08Z</time>
      </trkpt>
      <trkpt lat="45.97782" lon="4.85238">
        <ele>274</ele>
        <time>2018-02-06T10:39:09Z</time>
      </trkpt>
      <trkpt lat="45.97787" lon="4.85238">
        <ele>274</ele>
        <time>2018-02-06T10:39:10Z</time>
      </trkpt>
      <trkpt lat="45.97792" lon="4.85238">
        <ele>274</ele>
        <time>2018-02-06T10:39:11Z</time>
      </trkpt>
      <trkpt lat="45.97798" lon="4.85237">
        <ele>274</ele>
        <time>2018-02-06T10:39:12Z</time>
      </trkpt>
      <trkpt lat="45.97804" lon="4.85236">
        <ele>274</ele>
        <time>2018-02-06T10:39:13Z</time>
      </trkpt>
      <trkpt lat="45.9781" lon="4.85235">
        <ele>274</ele>
        <time>2018-02-06T10:39:14Z</time>
      </trkpt>
      <trkpt lat="45.97815" lon="4.85234">
        <ele>275</ele>
        <time>2018-02-06T10:39:15Z</time>
      </trkpt>
      <trkpt lat="45.9782" lon="4.85234">
        <ele>275</ele>
        <time>2018-02-06T10:39:16Z</time>
      </trkpt>
      <trkpt lat="45.97825" lon="4.85234">
        <ele>275</ele>
        <time>2018-02-06T10:39:17Z</time>
      </trkpt>
      <trkpt lat="45.9783" lon="4.85233">
        <ele>275</ele>
        <time>2018-02-06T10:39:18Z</time>
      </trkpt>
      <trkpt lat="45.97835" lon="4.85233">
        <ele>275</ele>
        <time>2018-02-06T10:39:19Z</time>
      </trkpt>
      <trkpt lat="45.9784" lon="4.85233">
        <ele>275</ele>
        <time>2018-02-06T10:39:20Z</time>
      </trkpt>
      <trkpt lat="45.97846" lon="4.85232">
        <ele>275</ele>
        <time>2018-02-06T10:39:21Z</time>
      </trkpt>
      <trkpt lat="45.97852" lon="4.85232">
        <ele>275</ele>
        <time>2018-02-06T10:39:22Z</time>
      </trkpt>
      <trkpt lat="45.97859" lon="4.85231">
        <ele>275</ele>
        <time>2018-02-06T10:39:23Z</time>
      </trkpt>
      <trkpt lat="45.97865" lon="4.85231">
        <ele>275</ele>
        <time>2018-02-06T10:39:24Z</time>
      </trkpt>
      <trkpt lat="45.97872" lon="4.8523">
        <ele>275</ele>
        <time>2018-02-06T10:39:25Z</time>
      </trkpt>
      <trkpt lat="45.97878" lon="4.8523">
        <ele>275</ele>
        <time>2018-02-06T10:39:26Z</time>
      </trkpt>
      <trkpt lat="45.97884" lon="4.8523">
        <ele>275</ele>
        <time>2018-02-06T10:39:27Z</time>
      </trkpt>
      <trkpt lat="45.97889" lon="4.8523">
        <ele>275</ele>
        <time>2018-02-06T10:39:28Z</time>
      </trkpt>
      <trkpt lat="45.97895" lon="4.8523">
        <ele>275</ele>
        <time>2018-02-06T10:39:29Z</time>
      </trkpt>
      <trkpt lat="45.979" lon="4.8523">
        <ele>275</ele>
        <time>2018-02-06T10:39:30Z</time>
      </trkpt>
      <trkpt lat="45.97905" lon="4.8523">
        <ele>275</ele>
        <time>2018-02-06T10:39:31Z</time>
      </trkpt>
      <trkpt lat="45.97912" lon="4.8523">
        <ele>275</ele>
        <time>2018-02-06T10:39:32Z</time>
      </trkpt>
      <trkpt lat="45.97916" lon="4.85229">
        <ele>275</ele>
        <time>2018-02-06T10:39:33Z</time>
      </trkpt>
      <trkpt lat="45.97921" lon="4.85228">
        <ele>276</ele>
        <time>2018-02-06T10:39:34Z</time>
      </trkpt>
      <trkpt lat="45.97926" lon="4.85228">
        <ele>276</ele>
        <time>2018-02-06T10:39:35Z</time>
      </trkpt>
      <trkpt lat="45.97931" lon="4.85229">
        <ele>276</ele>
        <time>2018-02-06T10:39:36Z</time>
      </trkpt>
      <trkpt lat="45.97935" lon="4.85229">
        <ele>276</ele>
        <time>2018-02-06T10:39:37Z</time>
      </trkpt>
      <trkpt lat="45.9794" lon="4.85228">
        <ele>276</ele>
        <time>2018-02-06T10:39:38Z</time>
      </trkpt>
      <trkpt lat="45.97946" lon="4.85227">
        <ele>276</ele>
        <time>2018-02-06T10:39:39Z</time>
      </trkpt>
      <trkpt lat="45.97951" lon="4.85227">
        <ele>276</ele>
        <time>2018-02-06T10:39:40Z</time>
      </trkpt>
      <trkpt lat="45.97957" lon="4.85226">
        <ele>276</ele>
        <time>2018-02-06T10:39:41Z</time>
      </trkpt>
      <trkpt lat="45.97962" lon="4.85225">
        <ele>276</ele>
        <time>2018-02-06T10:39:42Z</time>
      </trkpt>
      <trkpt lat="45.97967" lon="4.85224">
        <ele>276</ele>
        <time>2018-02-06T10:39:43Z</time>
      </trkpt>
      <trkpt lat="45.97972" lon="4.85224">
        <ele>276</ele>
        <time>2018-02-06T10:39:44Z</time>
      </trkpt>
      <trkpt lat="45.97978" lon="4.85223">
        <ele>276</ele>
        <time>2018-02-06T10:39:45Z</time>
      </trkpt>
      <trkpt lat="45.97984" lon="4.85222">
        <ele>276</ele>
        <time>2018-02-06T10:39:46Z</time>
      </trkpt>
      <trkpt lat="45.97989" lon="4.85222">
        <ele>276</ele>
        <time>2018-02-06T10:39:47Z</time>
      </trkpt>
      <trkpt lat="45.97994" lon="4.85222">
        <ele>276</ele>
        <time>2018-02-06T10:39:48Z</time>
      </trkpt>
      <trkpt lat="45.97999" lon="4.85222">
        <ele>276</ele>
        <time>2018-02-06T10:39:49Z</time>
      </trkpt>
      <trkpt lat="45.98006" lon="4.85221">
        <ele>276</ele>
        <time>2018-02-06T10:39:50Z</time>
      </trkpt>
      <trkpt lat="45.9801" lon="4.85221">
        <ele>276</ele>
        <time>2018-02-06T10:39:51Z</time>
      </trkpt>
      <trkpt lat="45.98015" lon="4.85222">
        <ele>276</ele>
        <time>2018-02-06T10:39:52Z</time>
      </trkpt>
      <trkpt lat="45.9802" lon="4.85222">
        <ele>276</ele>
        <time>2018-02-06T10:39:53Z</time>
      </trkpt>
      <trkpt lat="45.98025" lon="4.8522">
        <ele>276</ele>
        <time>2018-02-06T10:39:54Z</time>
      </trkpt>
      <trkpt lat="45.9803" lon="4.85218">
        <ele>276</ele>
        <time>2018-02-06T10:39:55Z</time>
      </trkpt>
      <trkpt lat="45.98035" lon="4.85217">
        <ele>276</ele>
        <time>2018-02-06T10:39:56Z</time>
      </trkpt>
      <trkpt lat="45.9804" lon="4.85216">
        <ele>276</ele>
        <time>2018-02-06T10:39:57Z</time>
      </trkpt>
      <trkpt lat="45.98045" lon="4.85215">
        <ele>276</ele>
        <time>2018-02-06T10:39:58Z</time>
      </trkpt>
      <trkpt lat="45.9805" lon="4.85215">
        <ele>276</ele>
        <time>2018-02-06T10:39:59Z</time>
      </trkpt>
      <trkpt lat="45.98056" lon="4.85213">
        <ele>276</ele>
        <time>2018-02-06T10:40:00Z</time>
      </trkpt>
      <trkpt lat="45.9806" lon="4.85214">
        <ele>276</ele>
        <time>2018-02-06T10:40:01Z</time>
      </trkpt>
      <trkpt lat="45.98065" lon="4.85214">
        <ele>276</ele>
        <time>2018-02-06T10:40:02Z</time>
      </trkpt>
      <trkpt lat="45.98071" lon="4.85215">
        <ele>276</ele>
        <time>2018-02-06T10:40:03Z</time>
      </trkpt>
      <trkpt lat="45.98076" lon="4.85215">
        <ele>276</ele>
        <time>2018-02-06T10:40:04Z</time>
      </trkpt>
      <trkpt lat="45.98081" lon="4.85214">
        <ele>276</ele>
        <time>2018-02-06T10:40:05Z</time>
      </trkpt>
      <trkpt lat="45.98087" lon="4.85215">
        <ele>275</ele>
        <time>2018-02-06T10:40:06Z</time>
      </trkpt>
      <trkpt lat="45.98093" lon="4.85215">
        <ele>275</ele>
        <time>2018-02-06T10:40:07Z</time>
      </trkpt>
      <trkpt lat="45.98099" lon="4.85213">
        <ele>275</ele>
        <time>2018-02-06T10:40:08Z</time>
      </trkpt>
      <trkpt lat="45.98105" lon="4.85212">
        <ele>275</ele>
        <time>2018-02-06T10:40:09Z</time>
      </trkpt>
      <trkpt lat="45.98111" lon="4.85212">
        <ele>275</ele>
        <time>2018-02-06T10:40:10Z</time>
      </trkpt>
      <trkpt lat="45.98116" lon="4.85211">
        <ele>275</ele>
        <time>2018-02-06T10:40:11Z</time>
      </trkpt>
      <trkpt lat="45.98122" lon="4.8521">
        <ele>275</ele>
        <time>2018-02-06T10:40:12Z</time>
      </trkpt>
      <trkpt lat="45.98127" lon="4.85209">
        <ele>275</ele>
        <time>2018-02-06T10:40:13Z</time>
      </trkpt>
      <trkpt lat="45.98132" lon="4.85209">
        <ele>275</ele>
        <time>2018-02-06T10:40:14Z</time>
      </trkpt>
      <trkpt lat="45.98138" lon="4.85209">
        <ele>275</ele>
        <time>2018-02-06T10:40:15Z</time>
      </trkpt>
      <trkpt lat="45.98144" lon="4.85206">
        <ele>275</ele>
        <time>2018-02-06T10:40:16Z</time>
      </trkpt>
      <trkpt lat="45.9815" lon="4.85206">
        <ele>275</ele>
        <time>2018-02-06T10:40:17Z</time>
      </trkpt>
      <trkpt lat="45.98156" lon="4.85206">
        <ele>275</ele>
        <time>2018-02-06T10:40:18Z</time>
      </trkpt>
      <trkpt lat="45.98162" lon="4.85205">
        <ele>274</ele>
        <time>2018-02-06T10:40:19Z</time>
      </trkpt>
      <trkpt lat="45.98168" lon="4.85205">
        <ele>274</ele>
        <time>2018-02-06T10:40:20Z</time>
      </trkpt>
      <trkpt lat="45.98173" lon="4.85205">
        <ele>274</ele>
        <time>2018-02-06T10:40:21Z</time>
      </trkpt>
      <trkpt lat="45.98179" lon="4.85205">
        <ele>274</ele>
        <time>2018-02-06T10:40:22Z</time>
      </trkpt>
      <trkpt lat="45.98185" lon="4.85205">
        <ele>274</ele>
        <time>2018-02-06T10:40:23Z</time>
      </trkpt>
      <trkpt lat="45.98192" lon="4.85204">
        <ele>274</ele>
        <time>2018-02-06T10:40:24Z</time>
      </trkpt>
      <trkpt lat="45.982" lon="4.85202">
        <ele>274</ele>
        <time>2018-02-06T10:40:25Z</time>
      </trkpt>
      <trkpt lat="45.98208" lon="4.85201">
        <ele>274</ele>
        <time>2018-02-06T10:40:26Z</time>
      </trkpt>
      <trkpt lat="45.98215" lon="4.85199">
        <ele>274</ele>
        <time>2018-02-06T10:40:27Z</time>
      </trkpt>
      <trkpt lat="45.98221" lon="4.85199">
        <ele>274</ele>
        <time>2018-02-06T10:40:28Z</time>
      </trkpt>
      <trkpt lat="45.9823" lon="4.85198">
        <ele>274</ele>
        <time>2018-02-06T10:40:29Z</time>
      </trkpt>
      <trkpt lat="45.98236" lon="4.85197">
        <ele>274</ele>
        <time>2018-02-06T10:40:30Z</time>
      </trkpt>
      <trkpt lat="45.98243" lon="4.85197">
        <ele>274</ele>
        <time>2018-02-06T10:40:31Z</time>
      </trkpt>
      <trkpt lat="45.98249" lon="4.85196">
        <ele>274</ele>
        <time>2018-02-06T10:40:32Z</time>
      </trkpt>
      <trkpt lat="45.98256" lon="4.85196">
        <ele>274</ele>
        <time>2018-02-06T10:40:33Z</time>
      </trkpt>
      <trkpt lat="45.98262" lon="4.85196">
        <ele>274</ele>
        <time>2018-02-06T10:40:34Z</time>
      </trkpt>
      <trkpt lat="45.98267" lon="4.85196">
        <ele>274</ele>
        <time>2018-02-06T10:40:35Z</time>
      </trkpt>
      <trkpt lat="45.98275" lon="4.85195">
        <ele>274</ele>
        <time>2018-02-06T10:40:36Z</time>
      </trkpt>
      <trkpt lat="45.98281" lon="4.85194">
        <ele>274</ele>
        <time>2018-02-06T10:40:37Z</time>
      </trkpt>
      <trkpt lat="45.98286" lon="4.85194">
        <ele>274</ele>
        <time>2018-02-06T10:40:38Z</time>
      </trkpt>
      <trkpt lat="45.98292" lon="4.85193">
        <ele>274</ele>
        <time>2018-02-06T10:40:39Z</time>
      </trkpt>
      <trkpt lat="45.98298" lon="4.85194">
        <ele>274</ele>
        <time>2018-02-06T10:40:40Z</time>
      </trkpt>
      <trkpt lat="45.98304" lon="4.85193">
        <ele>274</ele>
        <time>2018-02-06T10:40:41Z</time>
      </trkpt>
      <trkpt lat="45.9831" lon="4.85193">
        <ele>274</ele>
        <time>2018-02-06T10:40:42Z</time>
      </trkpt>
      <trkpt lat="45.98317" lon="4.85193">
        <ele>274</ele>
        <time>2018-02-06T10:40:43Z</time>
      </trkpt>
      <trkpt lat="45.98323" lon="4.85192">
        <ele>274</ele>
        <time>2018-02-06T10:40:44Z</time>
      </trkpt>
      <trkpt lat="45.9833" lon="4.85193">
        <ele>274</ele>
        <time>2018-02-06T10:40:45Z</time>
      </trkpt>
      <trkpt lat="45.98335" lon="4.85194">
        <ele>275</ele>
        <time>2018-02-06T10:40:46Z</time>
      </trkpt>
      <trkpt lat="45.98341" lon="4.85193">
        <ele>275</ele>
        <time>2018-02-06T10:40:47Z</time>
      </trkpt>
      <trkpt lat="45.98347" lon="4.85193">
        <ele>275</ele>
        <time>2018-02-06T10:40:48Z</time>
      </trkpt>
      <trkpt lat="45.98354" lon="4.85192">
        <ele>275</ele>
        <time>2018-02-06T10:40:49Z</time>
      </trkpt>
      <trkpt lat="45.98362" lon="4.85192">
        <ele>275</ele>
        <time>2018-02-06T10:40:50Z</time>
      </trkpt>
      <trkpt lat="45.98368" lon="4.85192">
        <ele>275</ele>
        <time>2018-02-06T10:40:51Z</time>
      </trkpt>
      <trkpt lat="45.98374" lon="4.85191">
        <ele>275</ele>
        <time>2018-02-06T10:40:52Z</time>
      </trkpt>
      <trkpt lat="45.98381" lon="4.85191">
        <ele>275</ele>
        <time>2018-02-06T10:40:53Z</time>
      </trkpt>
      <trkpt lat="45.98386" lon="4.8519">
        <ele>275</ele>
        <time>2018-02-06T10:40:54Z</time>
      </trkpt>
      <trkpt lat="45.98392" lon="4.85189">
        <ele>275</ele>
        <time>2018-02-06T10:40:55Z</time>
      </trkpt>
      <trkpt lat="45.98398" lon="4.85187">
        <ele>275</ele>
        <time>2018-02-06T10:40:56Z</time>
      </trkpt>
      <trkpt lat="45.98404" lon="4.85186">
        <ele>275</ele>
        <time>2018-02-06T10:40:57Z</time>
      </trkpt>
      <trkpt lat="45.98408" lon="4.85186">
        <ele>275</ele>
        <time>2018-02-06T10:40:58Z</time>
      </trkpt>
      <trkpt lat="45.98414" lon="4.85185">
        <ele>275</ele>
        <time>2018-02-06T10:40:59Z</time>
      </trkpt>
      <trkpt lat="45.9842" lon="4.85184">
        <ele>275</ele>
        <time>2018-02-06T10:41:00Z</time>
      </trkpt>
      <trkpt lat="45.98426" lon="4.85183">
        <ele>275</ele>
        <time>2018-02-06T10:41:01Z</time>
      </trkpt>
      <trkpt lat="45.98435" lon="4.85183">
        <ele>275</ele>
        <time>2018-02-06T10:41:03Z</time>
      </trkpt>
      <trkpt lat="45.9844" lon="4.85182">
        <ele>275</ele>
        <time>2018-02-06T10:41:04Z</time>
      </trkpt>
      <trkpt lat="45.98445" lon="4.85181">
        <ele>275</ele>
        <time>2018-02-06T10:41:05Z</time>
      </trkpt>
      <trkpt lat="45.9845" lon="4.85181">
        <ele>275</ele>
        <time>2018-02-06T10:41:06Z</time>
      </trkpt>
      <trkpt lat="45.98455" lon="4.8518">
        <ele>275</ele>
        <time>2018-02-06T10:41:07Z</time>
      </trkpt>
      <trkpt lat="45.98459" lon="4.85179">
        <ele>275</ele>
        <time>2018-02-06T10:41:08Z</time>
      </trkpt>
      <trkpt lat="45.98464" lon="4.85179">
        <ele>275</ele>
        <time>2018-02-06T10:41:09Z</time>
      </trkpt>
      <trkpt lat="45.98469" lon="4.85178">
        <ele>275</ele>
        <time>2018-02-06T10:41:10Z</time>
      </trkpt>
      <trkpt lat="45.98475" lon="4.85178">
        <ele>275</ele>
        <time>2018-02-06T10:41:11Z</time>
      </trkpt>
      <trkpt lat="45.9848" lon="4.85177">
        <ele>275</ele>
        <time>2018-02-06T10:41:12Z</time>
      </trkpt>
      <trkpt lat="45.98486" lon="4.85175">
        <ele>275</ele>
        <time>2018-02-06T10:41:13Z</time>
      </trkpt>
      <trkpt lat="45.98493" lon="4.85174">
        <ele>275</ele>
        <time>2018-02-06T10:41:14Z</time>
      </trkpt>
      <trkpt lat="45.98499" lon="4.85173">
        <ele>275</ele>
        <time>2018-02-06T10:41:15Z</time>
      </trkpt>
      <trkpt lat="45.98504" lon="4.85172">
        <ele>274</ele>
        <time>2018-02-06T10:41:16Z</time>
      </trkpt>
      <trkpt lat="45.98509" lon="4.85172">
        <ele>274</ele>
        <time>2018-02-06T10:41:17Z</time>
      </trkpt>
      <trkpt lat="45.98514" lon="4.85171">
        <ele>274</ele>
        <time>2018-02-06T10:41:18Z</time>
      </trkpt>
      <trkpt lat="45.9852" lon="4.8517">
        <ele>274</ele>
        <time>2018-02-06T10:41:19Z</time>
      </trkpt>
      <trkpt lat="45.98525" lon="4.85168">
        <ele>273</ele>
        <time>2018-02-06T10:41:20Z</time>
      </trkpt>
      <trkpt lat="45.98531" lon="4.85167">
        <ele>274</ele>
        <time>2018-02-06T10:41:21Z</time>
      </trkpt>
      <trkpt lat="45.98535" lon="4.85166">
        <ele>274</ele>
        <time>2018-02-06T10:41:22Z</time>
      </trkpt>
      <trkpt lat="45.9854" lon="4.85164">
        <ele>274</ele>
        <time>2018-02-06T10:41:23Z</time>
      </trkpt>
      <trkpt lat="45.98546" lon="4.85162">
        <ele>274</ele>
        <time>2018-02-06T10:41:24Z</time>
      </trkpt>
      <trkpt lat="45.9855" lon="4.8516">
        <ele>274</ele>
        <time>2018-02-06T10:41:25Z</time>
      </trkpt>
      <trkpt lat="45.98555" lon="4.85157">
        <ele>274</ele>
        <time>2018-02-06T10:41:26Z</time>
      </trkpt>
      <trkpt lat="45.9856" lon="4.85154">
        <ele>274</ele>
        <time>2018-02-06T10:41:27Z</time>
      </trkpt>
      <trkpt lat="45.98565" lon="4.85152">
        <ele>274</ele>
        <time>2018-02-06T10:41:28Z</time>
      </trkpt>
      <trkpt lat="45.9857" lon="4.85149">
        <ele>273</ele>
        <time>2018-02-06T10:41:29Z</time>
      </trkpt>
      <trkpt lat="45.98574" lon="4.85147">
        <ele>273</ele>
        <time>2018-02-06T10:41:30Z</time>
      </trkpt>
      <trkpt lat="45.98579" lon="4.85145">
        <ele>273</ele>
        <time>2018-02-06T10:41:31Z</time>
      </trkpt>
      <trkpt lat="45.98584" lon="4.85141">
        <ele>272</ele>
        <time>2018-02-06T10:41:32Z</time>
      </trkpt>
      <trkpt lat="45.9859" lon="4.85138">
        <ele>272</ele>
        <time>2018-02-06T10:41:33Z</time>
      </trkpt>
      <trkpt lat="45.98595" lon="4.85136">
        <ele>272</ele>
        <time>2018-02-06T10:41:34Z</time>
      </trkpt>
      <trkpt lat="45.98599" lon="4.85133">
        <ele>272</ele>
        <time>2018-02-06T10:41:35Z</time>
      </trkpt>
      <trkpt lat="45.98605" lon="4.8513">
        <ele>272</ele>
        <time>2018-02-06T10:41:36Z</time>
      </trkpt>
      <trkpt lat="45.9861" lon="4.85127">
        <ele>272</ele>
        <time>2018-02-06T10:41:37Z</time>
      </trkpt>
      <trkpt lat="45.98615" lon="4.85125">
        <ele>272</ele>
        <time>2018-02-06T10:41:38Z</time>
      </trkpt>
      <trkpt lat="45.98621" lon="4.85122">
        <ele>272</ele>
        <time>2018-02-06T10:41:39Z</time>
      </trkpt>
      <trkpt lat="45.98627" lon="4.8512">
        <ele>272</ele>
        <time>2018-02-06T10:41:40Z</time>
      </trkpt>
      <trkpt lat="45.98633" lon="4.85118">
        <ele>272</ele>
        <time>2018-02-06T10:41:41Z</time>
      </trkpt>
      <trkpt lat="45.98639" lon="4.85115">
        <ele>272</ele>
        <time>2018-02-06T10:41:42Z</time>
      </trkpt>
      <trkpt lat="45.98645" lon="4.85111">
        <ele>272</ele>
        <time>2018-02-06T10:41:43Z</time>
      </trkpt>
      <trkpt lat="45.98651" lon="4.85108">
        <ele>271</ele>
        <time>2018-02-06T10:41:44Z</time>
      </trkpt>
      <trkpt lat="45.98657" lon="4.85106">
        <ele>271</ele>
        <time>2018-02-06T10:41:45Z</time>
      </trkpt>
      <trkpt lat="45.98663" lon="4.85103">
        <ele>271</ele>
        <time>2018-02-06T10:41:46Z</time>
      </trkpt>
      <trkpt lat="45.98669" lon="4.851">
        <ele>270</ele>
        <time>2018-02-06T10:41:47Z</time>
      </trkpt>
      <trkpt lat="45.98675" lon="4.85097">
        <ele>270</ele>
        <time>2018-02-06T10:41:48Z</time>
      </trkpt>
      <trkpt lat="45.98681" lon="4.85094">
        <ele>270</ele>
        <time>2018-02-06T10:41:49Z</time>
      </trkpt>
      <trkpt lat="45.98687" lon="4.85091">
        <ele>270</ele>
        <time>2018-02-06T10:41:50Z</time>
      </trkpt>
      <trkpt lat="45.98693" lon="4.85088">
        <ele>270</ele>
        <time>2018-02-06T10:41:51Z</time>
      </trkpt>
      <trkpt lat="45.98699" lon="4.85085">
        <ele>270</ele>
        <time>2018-02-06T10:41:52Z</time>
      </trkpt>
      <trkpt lat="45.98704" lon="4.85081">
        <ele>270</ele>
        <time>2018-02-06T10:41:53Z</time>
      </trkpt>
      <trkpt lat="45.9871" lon="4.85077">
        <ele>270</ele>
        <time>2018-02-06T10:41:54Z</time>
      </trkpt>
      <trkpt lat="45.98715" lon="4.85076">
        <ele>270</ele>
        <time>2018-02-06T10:41:55Z</time>
      </trkpt>
      <trkpt lat="45.98722" lon="4.85072">
        <ele>270</ele>
        <time>2018-02-06T10:41:56Z</time>
      </trkpt>
      <trkpt lat="45.98728" lon="4.85069">
        <ele>270</ele>
        <time>2018-02-06T10:41:57Z</time>
      </trkpt>
      <trkpt lat="45.98734" lon="4.85066">
        <ele>269</ele>
        <time>2018-02-06T10:41:58Z</time>
      </trkpt>
      <trkpt lat="45.9874" lon="4.85063">
        <ele>269</ele>
        <time>2018-02-06T10:41:59Z</time>
      </trkpt>
      <trkpt lat="45.98747" lon="4.8506">
        <ele>269</ele>
        <time>2018-02-06T10:42:00Z</time>
      </trkpt>
      <trkpt lat="45.98753" lon="4.85056">
        <ele>268</ele>
        <time>2018-02-06T10:42:01Z</time>
      </trkpt>
      <trkpt lat="45.98759" lon="4.85052">
        <ele>268</ele>
        <time>2018-02-06T10:42:02Z</time>
      </trkpt>
      <trkpt lat="45.98765" lon="4.85049">
        <ele>268</ele>
        <time>2018-02-06T10:42:03Z</time>
      </trkpt>
      <trkpt lat="45.98771" lon="4.85048">
        <ele>268</ele>
        <time>2018-02-06T10:42:04Z</time>
      </trkpt>
      <trkpt lat="45.98777" lon="4.85045">
        <ele>267</ele>
        <time>2018-02-06T10:42:05Z</time>
      </trkpt>
      <trkpt lat="45.98784" lon="4.85042">
        <ele>267</ele>
        <time>2018-02-06T10:42:06Z</time>
      </trkpt>
      <trkpt lat="45.9879" lon="4.85039">
        <ele>267</ele>
        <time>2018-02-06T10:42:07Z</time>
      </trkpt>
      <trkpt lat="45.98797" lon="4.85036">
        <ele>267</ele>
        <time>2018-02-06T10:42:08Z</time>
      </trkpt>
      <trkpt lat="45.98802" lon="4.85033">
        <ele>267</ele>
        <time>2018-02-06T10:42:09Z</time>
      </trkpt>
      <trkpt lat="45.98807" lon="4.8503">
        <ele>267</ele>
        <time>2018-02-06T10:42:10Z</time>
      </trkpt>
      <trkpt lat="45.98813" lon="4.85028">
        <ele>267</ele>
        <time>2018-02-06T10:42:11Z</time>
      </trkpt>
      <trkpt lat="45.98819" lon="4.85024">
        <ele>267</ele>
        <time>2018-02-06T10:42:12Z</time>
      </trkpt>
      <trkpt lat="45.98825" lon="4.85022">
        <ele>267</ele>
        <time>2018-02-06T10:42:13Z</time>
      </trkpt>
      <trkpt lat="45.98831" lon="4.85018">
        <ele>267</ele>
        <time>2018-02-06T10:42:14Z</time>
      </trkpt>
      <trkpt lat="45.98836" lon="4.85016">
        <ele>267</ele>
        <time>2018-02-06T10:42:15Z</time>
      </trkpt>
      <trkpt lat="45.98842" lon="4.85012">
        <ele>267</ele>
        <time>2018-02-06T10:42:16Z</time>
      </trkpt>
      <trkpt lat="45.98848" lon="4.85009">
        <ele>267</ele>
        <time>2018-02-06T10:42:17Z</time>
      </trkpt>
      <trkpt lat="45.98854" lon="4.85006">
        <ele>267</ele>
        <time>2018-02-06T10:42:18Z</time>
      </trkpt>
      <trkpt lat="45.9886" lon="4.85003">
        <ele>267</ele>
        <time>2018-02-06T10:42:19Z</time>
      </trkpt>
      <trkpt lat="45.98866" lon="4.85">
        <ele>267</ele>
        <time>2018-02-06T10:42:20Z</time>
      </trkpt>
      <trkpt lat="45.98872" lon="4.84998">
        <ele>267</ele>
        <time>2018-02-06T10:42:21Z</time>
      </trkpt>
      <trkpt lat="45.98879" lon="4.84996">
        <ele>267</ele>
        <time>2018-02-06T10:42:22Z</time>
      </trkpt>
      <trkpt lat="45.98885" lon="4.84991">
        <ele>267</ele>
        <time>2018-02-06T10:42:23Z</time>
      </trkpt>
      <trkpt lat="45.9889" lon="4.84988">
        <ele>267</ele>
        <time>2018-02-06T10:42:24Z</time>
      </trkpt>
      <trkpt lat="45.98895" lon="4.84984">
        <ele>267</ele>
        <time>2018-02-06T10:42:25Z</time>
      </trkpt>
      <trkpt lat="45.98901" lon="4.84982">
        <ele>267</ele>
        <time>2018-02-06T10:42:26Z</time>
      </trkpt>
      <trkpt lat="45.98906" lon="4.84978">
        <ele>267</ele>
        <time>2018-02-06T10:42:27Z</time>
      </trkpt>
      <trkpt lat="45.98912" lon="4.84974">
        <ele>267</ele>
        <time>2018-02-06T10:42:28Z</time>
      </trkpt>
      <trkpt lat="45.98918" lon="4.84971">
        <ele>267</ele>
        <time>2018-02-06T10:42:29Z</time>
      </trkpt>
      <trkpt lat="45.98924" lon="4.84968">
        <ele>267</ele>
        <time>2018-02-06T10:42:30Z</time>
      </trkpt>
      <trkpt lat="45.9893" lon="4.84965">
        <ele>266</ele>
        <time>2018-02-06T10:42:31Z</time>
      </trkpt>
      <trkpt lat="45.98935" lon="4.84961">
        <ele>266</ele>
        <time>2018-02-06T10:42:32Z</time>
      </trkpt>
      <trkpt lat="45.98942" lon="4.8496">
        <ele>266</ele>
        <time>2018-02-06T10:42:33Z</time>
      </trkpt>
      <trkpt lat="45.98948" lon="4.84956">
        <ele>266</ele>
        <time>2018-02-06T10:42:34Z</time>
      </trkpt>
      <trkpt lat="45.98954" lon="4.84953">
        <ele>266</ele>
        <time>2018-02-06T10:42:35Z</time>
      </trkpt>
      <trkpt lat="45.98961" lon="4.8495">
        <ele>266</ele>
        <time>2018-02-06T10:42:36Z</time>
      </trkpt>
      <trkpt lat="45.98967" lon="4.84947">
        <ele>266</ele>
        <time>2018-02-06T10:42:37Z</time>
      </trkpt>
      <trkpt lat="45.98974" lon="4.84945">
        <ele>266</ele>
        <time>2018-02-06T10:42:38Z</time>
      </trkpt>
      <trkpt lat="45.98982" lon="4.84941">
        <ele>266</ele>
        <time>2018-02-06T10:42:39Z</time>
      </trkpt>
      <trkpt lat="45.98988" lon="4.84939">
        <ele>266</ele>
        <time>2018-02-06T10:42:40Z</time>
      </trkpt>
      <trkpt lat="45.98995" lon="4.84935">
        <ele>266</ele>
        <time>2018-02-06T10:42:41Z</time>
      </trkpt>
      <trkpt lat="45.99002" lon="4.84932">
        <ele>265</ele>
        <time>2018-02-06T10:42:42Z</time>
      </trkpt>
      <trkpt lat="45.99008" lon="4.84928">
        <ele>265</ele>
        <time>2018-02-06T10:42:43Z</time>
      </trkpt>
      <trkpt lat="45.99016" lon="4.84924">
        <ele>265</ele>
        <time>2018-02-06T10:42:44Z</time>
      </trkpt>
      <trkpt lat="45.99023" lon="4.8492">
        <ele>264</ele>
        <time>2018-02-06T10:42:45Z</time>
      </trkpt>
      <trkpt lat="45.9903" lon="4.84918">
        <ele>264</ele>
        <time>2018-02-06T10:42:46Z</time>
      </trkpt>
      <trkpt lat="45.99037" lon="4.84914">
        <ele>264</ele>
        <time>2018-02-06T10:42:47Z</time>
      </trkpt>
      <trkpt lat="45.99044" lon="4.84911">
        <ele>264</ele>
        <time>2018-02-06T10:42:48Z</time>
      </trkpt>
      <trkpt lat="45.99051" lon="4.84908">
        <ele>264</ele>
        <time>2018-02-06T10:42:49Z</time>
      </trkpt>
      <trkpt lat="45.99058" lon="4.84904">
        <ele>263</ele>
        <time>2018-02-06T10:42:50Z</time>
      </trkpt>
      <trkpt lat="45.99064" lon="4.849">
        <ele>263</ele>
        <time>2018-02-06T10:42:51Z</time>
      </trkpt>
      <trkpt lat="45.99071" lon="4.84895">
        <ele>263</ele>
        <time>2018-02-06T10:42:52Z</time>
      </trkpt>
      <trkpt lat="45.99079" lon="4.84891">
        <ele>263</ele>
        <time>2018-02-06T10:42:53Z</time>
      </trkpt>
      <trkpt lat="45.99086" lon="4.84887">
        <ele>261</ele>
        <time>2018-02-06T10:42:54Z</time>
      </trkpt>
      <trkpt lat="45.99093" lon="4.84884">
        <ele>261</ele>
        <time>2018-02-06T10:42:55Z</time>
      </trkpt>
      <trkpt lat="45.991" lon="4.8488">
        <ele>261</ele>
        <time>2018-02-06T10:42:56Z</time>
      </trkpt>
      <trkpt lat="45.99107" lon="4.84875">
        <ele>261</ele>
        <time>2018-02-06T10:42:57Z</time>
      </trkpt>
      <trkpt lat="45.99114" lon="4.84871">
        <ele>260</ele>
        <time>2018-02-06T10:42:58Z</time>
      </trkpt>
      <trkpt lat="45.99122" lon="4.84867">
        <ele>260</ele>
        <time>2018-02-06T10:42:59Z</time>
      </trkpt>
      <trkpt lat="45.9913" lon="4.84862">
        <ele>260</ele>
        <time>2018-02-06T10:43:00Z</time>
      </trkpt>
      <trkpt lat="45.99138" lon="4.84858">
        <ele>260</ele>
        <time>2018-02-06T10:43:01Z</time>
      </trkpt>
      <trkpt lat="45.99146" lon="4.84853">
        <ele>260</ele>
        <time>2018-02-06T10:43:02Z</time>
      </trkpt>
      <trkpt lat="45.99154" lon="4.84849">
        <ele>259</ele>
        <time>2018-02-06T10:43:03Z</time>
      </trkpt>
      <trkpt lat="45.99163" lon="4.84844">
        <ele>259</ele>
        <time>2018-02-06T10:43:04Z</time>
      </trkpt>
      <trkpt lat="45.99172" lon="4.8484">
        <ele>258</ele>
        <time>2018-02-06T10:43:05Z</time>
      </trkpt>
      <trkpt lat="45.99181" lon="4.84836">
        <ele>258</ele>
        <time>2018-02-06T10:43:06Z</time>
      </trkpt>
      <trkpt lat="45.9919" lon="4.84831">
        <ele>258</ele>
        <time>2018-02-06T10:43:07Z</time>
      </trkpt>
      <trkpt lat="45.99197" lon="4.84826">
        <ele>258</ele>
        <time>2018-02-06T10:43:08Z</time>
      </trkpt>
      <trkpt lat="45.99205" lon="4.84822">
        <ele>257</ele>
        <time>2018-02-06T10:43:09Z</time>
      </trkpt>
      <trkpt lat="45.99214" lon="4.84817">
        <ele>257</ele>
        <time>2018-02-06T10:43:10Z</time>
      </trkpt>
      <trkpt lat="45.99222" lon="4.84812">
        <ele>257</ele>
        <time>2018-02-06T10:43:11Z</time>
      </trkpt>
      <trkpt lat="45.9923" lon="4.84808">
        <ele>256</ele>
        <time>2018-02-06T10:43:12Z</time>
      </trkpt>
      <trkpt lat="45.99238" lon="4.84805">
        <ele>256</ele>
        <time>2018-02-06T10:43:13Z</time>
      </trkpt>
      <trkpt lat="45.99247" lon="4.84801">
        <ele>256</ele>
        <time>2018-02-06T10:43:14Z</time>
      </trkpt>
      <trkpt lat="45.99255" lon="4.84798">
        <ele>254</ele>
        <time>2018-02-06T10:43:15Z</time>
      </trkpt>
      <trkpt lat="45.99263" lon="4.84793">
        <ele>253</ele>
        <time>2018-02-06T10:43:16Z</time>
      </trkpt>
      <trkpt lat="45.99272" lon="4.84788">
        <ele>253</ele>
        <time>2018-02-06T10:43:17Z</time>
      </trkpt>
      <trkpt lat="45.99279" lon="4.84785">
        <ele>253</ele>
        <time>2018-02-06T10:43:18Z</time>
      </trkpt>
      <trkpt lat="45.99287" lon="4.84781">
        <ele>253</ele>
        <time>2018-02-06T10:43:19Z</time>
      </trkpt>
      <trkpt lat="45.99295" lon="4.84779">
        <ele>253</ele>
        <time>2018-02-06T10:43:20Z</time>
      </trkpt>
      <trkpt lat="45.99302" lon="4.84774">
        <ele>253</ele>
        <time>2018-02-06T10:43:21Z</time>
      </trkpt>
      <trkpt lat="45.9931" lon="4.84769">
        <ele>252</ele>
        <time>2018-02-06T10:43:22Z</time>
      </trkpt>
      <trkpt lat="45.99317" lon="4.84765">
        <ele>252</ele>
        <time>2018-02-06T10:43:23Z</time>
      </trkpt>
      <trkpt lat="45.99325" lon="4.84761">
        <ele>252</ele>
        <time>2018-02-06T10:43:24Z</time>
      </trkpt>
      <trkpt lat="45.99332" lon="4.84758">
        <ele>252</ele>
        <time>2018-02-06T10:43:25Z</time>
      </trkpt>
      <trkpt lat="45.9934" lon="4.84754">
        <ele>251</ele>
        <time>2018-02-06T10:43:26Z</time>
      </trkpt>
      <trkpt lat="45.99349" lon="4.8475">
        <ele>250</ele>
        <time>2018-02-06T10:43:27Z</time>
      </trkpt>
      <trkpt lat="45.99357" lon="4.84746">
        <ele>250</ele>
        <time>2018-02-06T10:43:28Z</time>
      </trkpt>
      <trkpt lat="45.99366" lon="4.84741">
        <ele>250</ele>
        <time>2018-02-06T10:43:29Z</time>
      </trkpt>
      <trkpt lat="45.99374" lon="4.84736">
        <ele>250</ele>
        <time>2018-02-06T10:43:30Z</time>
      </trkpt>
      <trkpt lat="45.99382" lon="4.84731">
        <ele>250</ele>
        <time>2018-02-06T10:43:31Z</time>
      </trkpt>
      <trkpt lat="45.9939" lon="4.84726">
        <ele>249</ele>
        <time>2018-02-06T10:43:32Z</time>
      </trkpt>
      <trkpt lat="45.99399" lon="4.84722">
        <ele>249</ele>
        <time>2018-02-06T10:43:33Z</time>
      </trkpt>
      <trkpt lat="45.99408" lon="4.84717">
        <ele>249</ele>
        <time>2018-02-06T10:43:34Z</time>
      </trkpt>
      <trkpt lat="45.99416" lon="4.84714">
        <ele>249</ele>
        <time>2018-02-06T10:43:35Z</time>
      </trkpt>
      <trkpt lat="45.99424" lon="4.84709">
        <ele>249</ele>
        <time>2018-02-06T10:43:36Z</time>
      </trkpt>
      <trkpt lat="45.99431" lon="4.84705">
        <ele>249</ele>
        <time>2018-02-06T10:43:37Z</time>
      </trkpt>
      <trkpt lat="45.99439" lon="4.847">
        <ele>249</ele>
        <time>2018-02-06T10:43:38Z</time>
      </trkpt>
      <trkpt lat="45.99447" lon="4.84698">
        <ele>250</ele>
        <time>2018-02-06T10:43:39Z</time>
      </trkpt>
      <trkpt lat="45.99455" lon="4.84694">
        <ele>250</ele>
        <time>2018-02-06T10:43:40Z</time>
      </trkpt>
      <trkpt lat="45.99466" lon="4.84688">
        <ele>250</ele>
        <time>2018-02-06T10:43:41Z</time>
      </trkpt>
      <trkpt lat="45.99471" lon="4.84686">
        <ele>250</ele>
        <time>2018-02-06T10:43:42Z</time>
      </trkpt>
      <trkpt lat="45.99478" lon="4.84684">
        <ele>250</ele>
        <time>2018-02-06T10:43:43Z</time>
      </trkpt>
      <trkpt lat="45.99484" lon="4.84682">
        <ele>250</ele>
        <time>2018-02-06T10:43:44Z</time>
      </trkpt>
      <trkpt lat="45.9949" lon="4.8468">
        <ele>250</ele>
        <time>2018-02-06T10:43:45Z</time>
      </trkpt>
      <trkpt lat="45.99497" lon="4.84678">
        <ele>251</ele>
        <time>2018-02-06T10:43:46Z</time>
      </trkpt>
      <trkpt lat="45.99504" lon="4.84675">
        <ele>251</ele>
        <time>2018-02-06T10:43:47Z</time>
      </trkpt>
      <trkpt lat="45.99512" lon="4.84673">
        <ele>251</ele>
        <time>2018-02-06T10:43:48Z</time>
      </trkpt>
      <trkpt lat="45.99519" lon="4.84672">
        <ele>251</ele>
        <time>2018-02-06T10:43:49Z</time>
      </trkpt>
      <trkpt lat="45.99525" lon="4.84671">
        <ele>251</ele>
        <time>2018-02-06T10:43:50Z</time>
      </trkpt>
      <trkpt lat="45.99532" lon="4.84668">
        <ele>251</ele>
        <time>2018-02-06T10:43:51Z</time>
      </trkpt>
      <trkpt lat="45.99537" lon="4.84667">
        <ele>251</ele>
        <time>2018-02-06T10:43:52Z</time>
      </trkpt>
      <trkpt lat="45.99543" lon="4.84667">
        <ele>251</ele>
        <time>2018-02-06T10:43:53Z</time>
      </trkpt>
      <trkpt lat="45.99549" lon="4.84665">
        <ele>250</ele>
        <time>2018-02-06T10:43:54Z</time>
      </trkpt>
      <trkpt lat="45.99554" lon="4.84664">
        <ele>250</ele>
        <time>2018-02-06T10:43:55Z</time>
      </trkpt>
      <trkpt lat="45.99559" lon="4.84662">
        <ele>250</ele>
        <time>2018-02-06T10:43:56Z</time>
      </trkpt>
      <trkpt lat="45.99564" lon="4.84661">
        <ele>250</ele>
        <time>2018-02-06T10:43:57Z</time>
      </trkpt>
      <trkpt lat="45.9957" lon="4.8466">
        <ele>250</ele>
        <time>2018-02-06T10:43:58Z</time>
      </trkpt>
      <trkpt lat="45.99577" lon="4.84659">
        <ele>250</ele>
        <time>2018-02-06T10:43:59Z</time>
      </trkpt>
      <trkpt lat="45.99583" lon="4.84658">
        <ele>250</ele>
        <time>2018-02-06T10:44:00Z</time>
      </trkpt>
      <trkpt lat="45.99588" lon="4.84656">
        <ele>250</ele>
        <time>2018-02-06T10:44:01Z</time>
      </trkpt>
      <trkpt lat="45.99594" lon="4.84655">
        <ele>250</ele>
        <time>2018-02-06T10:44:02Z</time>
      </trkpt>
      <trkpt lat="45.996" lon="4.84655">
        <ele>250</ele>
        <time>2018-02-06T10:44:03Z</time>
      </trkpt>
      <trkpt lat="45.99607" lon="4.84654">
        <ele>250</ele>
        <time>2018-02-06T10:44:04Z</time>
      </trkpt>
      <trkpt lat="45.99613" lon="4.84653">
        <ele>250</ele>
        <time>2018-02-06T10:44:05Z</time>
      </trkpt>
      <trkpt lat="45.9962" lon="4.84651">
        <ele>250</ele>
        <time>2018-02-06T10:44:06Z</time>
      </trkpt>
      <trkpt lat="45.99626" lon="4.84649">
        <ele>250</ele>
        <time>2018-02-06T10:44:07Z</time>
      </trkpt>
      <trkpt lat="45.99632" lon="4.84646">
        <ele>250</ele>
        <time>2018-02-06T10:44:08Z</time>
      </trkpt>
      <trkpt lat="45.99638" lon="4.84643">
        <ele>250</ele>
        <time>2018-02-06T10:44:09Z</time>
      </trkpt>
      <trkpt lat="45.99643" lon="4.84643">
        <ele>250</ele>
        <time>2018-02-06T10:44:10Z</time>
      </trkpt>
      <trkpt lat="45.99649" lon="4.84642">
        <ele>250</ele>
        <time>2018-02-06T10:44:11Z</time>
      </trkpt>
      <trkpt lat="45.99654" lon="4.84642">
        <ele>250</ele>
        <time>2018-02-06T10:44:12Z</time>
      </trkpt>
      <trkpt lat="45.99659" lon="4.84641">
        <ele>250</ele>
        <time>2018-02-06T10:44:13Z</time>
      </trkpt>
      <trkpt lat="45.99664" lon="4.8464">
        <ele>250</ele>
        <time>2018-02-06T10:44:14Z</time>
      </trkpt>
      <trkpt lat="45.9967" lon="4.84639">
        <ele>251</ele>
        <time>2018-02-06T10:44:15Z</time>
      </trkpt>
      <trkpt lat="45.99679" lon="4.84638">
        <ele>252</ele>
        <time>2018-02-06T10:44:17Z</time>
      </trkpt>
      <trkpt lat="45.99683" lon="4.84637">
        <ele>252</ele>
        <time>2018-02-06T10:44:18Z</time>
      </trkpt>
      <trkpt lat="45.99687" lon="4.84635">
        <ele>252</ele>
        <time>2018-02-06T10:44:19Z</time>
      </trkpt>
      <trkpt lat="45.99692" lon="4.84635">
        <ele>252</ele>
        <time>2018-02-06T10:44:20Z</time>
      </trkpt>
      <trkpt lat="45.997" lon="4.84634">
        <ele>252</ele>
        <time>2018-02-06T10:44:22Z</time>
      </trkpt>
      <trkpt lat="45.99706" lon="4.84633">
        <ele>252</ele>
        <time>2018-02-06T10:44:23Z</time>
      </trkpt>
      <trkpt lat="45.99711" lon="4.8463">
        <ele>252</ele>
        <time>2018-02-06T10:44:24Z</time>
      </trkpt>
      <trkpt lat="45.99716" lon="4.84629">
        <ele>252</ele>
        <time>2018-02-06T10:44:25Z</time>
      </trkpt>
      <trkpt lat="45.99721" lon="4.84627">
        <ele>252</ele>
        <time>2018-02-06T10:44:26Z</time>
      </trkpt>
      <trkpt lat="45.99725" lon="4.84627">
        <ele>252</ele>
        <time>2018-02-06T10:44:27Z</time>
      </trkpt>
      <trkpt lat="45.99734" lon="4.84625">
        <ele>252</ele>
        <time>2018-02-06T10:44:29Z</time>
      </trkpt>
      <trkpt lat="45.99738" lon="4.84625">
        <ele>252</ele>
        <time>2018-02-06T10:44:30Z</time>
      </trkpt>
      <trkpt lat="45.99746" lon="4.84626">
        <ele>253</ele>
        <time>2018-02-06T10:44:32Z</time>
      </trkpt>
      <trkpt lat="45.99751" lon="4.84626">
        <ele>254</ele>
        <time>2018-02-06T10:44:33Z</time>
      </trkpt>
      <trkpt lat="45.99755" lon="4.84626">
        <ele>254</ele>
        <time>2018-02-06T10:44:34Z</time>
      </trkpt>
      <trkpt lat="45.9976" lon="4.84625">
        <ele>254</ele>
        <time>2018-02-06T10:44:35Z</time>
      </trkpt>
      <trkpt lat="45.99765" lon="4.84625">
        <ele>254</ele>
        <time>2018-02-06T10:44:36Z</time>
      </trkpt>
      <trkpt lat="45.99769" lon="4.84625">
        <ele>254</ele>
        <time>2018-02-06T10:44:37Z</time>
      </trkpt>
      <trkpt lat="45.99773" lon="4.84627">
        <ele>254</ele>
        <time>2018-02-06T10:44:38Z</time>
      </trkpt>
      <trkpt lat="45.99779" lon="4.84628">
        <ele>254</ele>
        <time>2018-02-06T10:44:39Z</time>
      </trkpt>
      <trkpt lat="45.99787" lon="4.8463">
        <ele>254</ele>
        <time>2018-02-06T10:44:41Z</time>
      </trkpt>
      <trkpt lat="45.99792" lon="4.8463">
        <ele>254</ele>
        <time>2018-02-06T10:44:42Z</time>
      </trkpt>
      <trkpt lat="45.99796" lon="4.84631">
        <ele>254</ele>
        <time>2018-02-06T10:44:43Z</time>
      </trkpt>
      <trkpt lat="45.998" lon="4.84633">
        <ele>254</ele>
        <time>2018-02-06T10:44:44Z</time>
      </trkpt>
      <trkpt lat="45.99809" lon="4.84637">
        <ele>254</ele>
        <time>2018-02-06T10:44:46Z</time>
      </trkpt>
      <trkpt lat="45.99814" lon="4.84637">
        <ele>254</ele>
        <time>2018-02-06T10:44:47Z</time>
      </trkpt>
      <trkpt lat="45.99819" lon="4.84638">
        <ele>254</ele>
        <time>2018-02-06T10:44:48Z</time>
      </trkpt>
      <trkpt lat="45.99823" lon="4.84638">
        <ele>254</ele>
        <time>2018-02-06T10:44:49Z</time>
      </trkpt>
      <trkpt lat="45.99828" lon="4.8464">
        <ele>254</ele>
        <time>2018-02-06T10:44:50Z</time>
      </trkpt>
      <trkpt lat="45.99833" lon="4.84641">
        <ele>254</ele>
        <time>2018-02-06T10:44:51Z</time>
      </trkpt>
      <trkpt lat="45.99841" lon="4.84644">
        <ele>254</ele>
        <time>2018-02-06T10:44:53Z</time>
      </trkpt>
      <trkpt lat="45.99845" lon="4.84645">
        <ele>254</ele>
        <time>2018-02-06T10:44:54Z</time>
      </trkpt>
      <trkpt lat="45.99854" lon="4.84648">
        <ele>254</ele>
        <time>2018-02-06T10:44:56Z</time>
      </trkpt>
      <trkpt lat="45.99859" lon="4.8465">
        <ele>254</ele>
        <time>2018-02-06T10:44:57Z</time>
      </trkpt>
      <trkpt lat="45.99863" lon="4.84651">
        <ele>254</ele>
        <time>2018-02-06T10:44:58Z</time>
      </trkpt>
      <trkpt lat="45.99869" lon="4.84651">
        <ele>254</ele>
        <time>2018-02-06T10:44:59Z</time>
      </trkpt>
      <trkpt lat="45.99873" lon="4.84651">
        <ele>254</ele>
        <time>2018-02-06T10:45:00Z</time>
      </trkpt>
      <trkpt lat="45.99878" lon="4.84653">
        <ele>254</ele>
        <time>2018-02-06T10:45:01Z</time>
      </trkpt>
      <trkpt lat="45.99887" lon="4.84654">
        <ele>254</ele>
        <time>2018-02-06T10:45:03Z</time>
      </trkpt>
      <trkpt lat="45.99891" lon="4.84655">
        <ele>254</ele>
        <time>2018-02-06T10:45:04Z</time>
      </trkpt>
      <trkpt lat="45.99896" lon="4.84657">
        <ele>254</ele>
        <time>2018-02-06T10:45:05Z</time>
      </trkpt>
      <trkpt lat="45.999" lon="4.84659">
        <ele>254</ele>
        <time>2018-02-06T10:45:06Z</time>
      </trkpt>
      <trkpt lat="45.99904" lon="4.84661">
        <ele>254</ele>
        <time>2018-02-06T10:45:07Z</time>
      </trkpt>
      <trkpt lat="45.99909" lon="4.84662">
        <ele>254</ele>
        <time>2018-02-06T10:45:08Z</time>
      </trkpt>
      <trkpt lat="45.99913" lon="4.84663">
        <ele>254</ele>
        <time>2018-02-06T10:45:09Z</time>
      </trkpt>
      <trkpt lat="45.99918" lon="4.84664">
        <ele>254</ele>
        <time>2018-02-06T10:45:10Z</time>
      </trkpt>
      <trkpt lat="45.99926" lon="4.84666">
        <ele>254</ele>
        <time>2018-02-06T10:45:12Z</time>
      </trkpt>
      <trkpt lat="45.9993" lon="4.84668">
        <ele>255</ele>
        <time>2018-02-06T10:45:13Z</time>
      </trkpt>
      <trkpt lat="45.99939" lon="4.8467">
        <ele>255</ele>
        <time>2018-02-06T10:45:15Z</time>
      </trkpt>
      <trkpt lat="45.99944" lon="4.84672">
        <ele>255</ele>
        <time>2018-02-06T10:45:16Z</time>
      </trkpt>
      <trkpt lat="45.99949" lon="4.84673">
        <ele>255</ele>
        <time>2018-02-06T10:45:17Z</time>
      </trkpt>
      <trkpt lat="45.99954" lon="4.84673">
        <ele>255</ele>
        <time>2018-02-06T10:45:18Z</time>
      </trkpt>
      <trkpt lat="45.99959" lon="4.84675">
        <ele>255</ele>
        <time>2018-02-06T10:45:19Z</time>
      </trkpt>
      <trkpt lat="45.99964" lon="4.84676">
        <ele>255</ele>
        <time>2018-02-06T10:45:20Z</time>
      </trkpt>
      <trkpt lat="45.99968" lon="4.84677">
        <ele>255</ele>
        <time>2018-02-06T10:45:21Z</time>
      </trkpt>
      <trkpt lat="45.99972" lon="4.84679">
        <ele>255</ele>
        <time>2018-02-06T10:45:22Z</time>
      </trkpt>
      <trkpt lat="45.99977" lon="4.84681">
        <ele>255</ele>
        <time>2018-02-06T10:45:23Z</time>
      </trkpt>
      <trkpt lat="45.99981" lon="4.84682">
        <ele>255</ele>
        <time>2018-02-06T10:45:24Z</time>
      </trkpt>
      <trkpt lat="45.99989" lon="4.84684">
        <ele>255</ele>
        <time>2018-02-06T10:45:26Z</time>
      </trkpt>
      <trkpt lat="45.99994" lon="4.84684">
        <ele>255</ele>
        <time>2018-02-06T10:45:27Z</time>
      </trkpt>
      <trkpt lat="46" lon="4.84684">
        <ele>255</ele>
        <time>2018-02-06T10:45:28Z</time>
      </trkpt>
      <trkpt lat="46.00005" lon="4.84685">
        <ele>256</ele>
        <time>2018-02-06T10:45:29Z</time>
      </trkpt>
      <trkpt lat="46.0001" lon="4.84685">
        <ele>256</ele>
        <time>2018-02-06T10:45:30Z</time>
      </trkpt>
      <trkpt lat="46.00015" lon="4.84687">
        <ele>256</ele>
        <time>2018-02-06T10:45:31Z</time>
      </trkpt>
      <trkpt lat="46.00019" lon="4.84688">
        <ele>256</ele>
        <time>2018-02-06T10:45:32Z</time>
      </trkpt>
      <trkpt lat="46.00024" lon="4.84689">
        <ele>256</ele>
        <time>2018-02-06T10:45:33Z</time>
      </trkpt>
      <trkpt lat="46.00033" lon="4.8469">
        <ele>256</ele>
        <time>2018-02-06T10:45:35Z</time>
      </trkpt>
      <trkpt lat="46.00037" lon="4.84691">
        <ele>256</ele>
        <time>2018-02-06T10:45:36Z</time>
      </trkpt>
      <trkpt lat="46.00045" lon="4.84692">
        <ele>256</ele>
        <time>2018-02-06T10:45:38Z</time>
      </trkpt>
      <trkpt lat="46.00049" lon="4.84692">
        <ele>256</ele>
        <time>2018-02-06T10:45:39Z</time>
      </trkpt>
      <trkpt lat="46.00058" lon="4.84691">
        <ele>256</ele>
        <time>2018-02-06T10:45:41Z</time>
      </trkpt>
      <trkpt lat="46.00062" lon="4.84692">
        <ele>256</ele>
        <time>2018-02-06T10:45:42Z</time>
      </trkpt>
      <trkpt lat="46.0007" lon="4.84694">
        <ele>256</ele>
        <time>2018-02-06T10:45:44Z</time>
      </trkpt>
      <trkpt lat="46.00073" lon="4.84695">
        <ele>256</ele>
        <time>2018-02-06T10:45:45Z</time>
      </trkpt>
      <trkpt lat="46.00081" lon="4.84695">
        <ele>256</ele>
        <time>2018-02-06T10:45:54Z</time>
      </trkpt>
      <trkpt lat="46.00083" lon="4.84692">
        <ele>256</ele>
        <time>2018-02-06T10:45:55Z</time>
      </trkpt>
      <trkpt lat="46.00084" lon="4.84681">
        <ele>257</ele>
        <time>2018-02-06T10:45:58Z</time>
      </trkpt>
      <trkpt lat="46.00084" lon="4.84677">
        <ele>257</ele>
        <time>2018-02-06T10:45:59Z</time>
      </trkpt>
      <trkpt lat="46.00083" lon="4.84666">
        <ele>256</ele>
        <time>2018-02-06T10:46:01Z</time>
      </trkpt>
      <trkpt lat="46.00083" lon="4.84661">
        <ele>256</ele>
        <time>2018-02-06T10:46:02Z</time>
      </trkpt>
      <trkpt lat="46.00083" lon="4.8465">
        <ele>256</ele>
        <time>2018-02-06T10:46:04Z</time>
      </trkpt>
      <trkpt lat="46.00083" lon="4.84645">
        <ele>256</ele>
        <time>2018-02-06T10:46:05Z</time>
      </trkpt>
      <trkpt lat="46.00083" lon="4.84637">
        <ele>256</ele>
        <time>2018-02-06T10:46:06Z</time>
      </trkpt>
      <trkpt lat="46.00083" lon="4.84631">
        <ele>256</ele>
        <time>2018-02-06T10:46:07Z</time>
      </trkpt>
      <trkpt lat="46.00081" lon="4.84618">
        <ele>256</ele>
        <time>2018-02-06T10:46:09Z</time>
      </trkpt>
      <trkpt lat="46.0008" lon="4.84612">
        <ele>256</ele>
        <time>2018-02-06T10:46:10Z</time>
      </trkpt>
      <trkpt lat="46.00079" lon="4.846">
        <ele>256</ele>
        <time>2018-02-06T10:46:12Z</time>
      </trkpt>
      <trkpt lat="46.00079" lon="4.84593">
        <ele>257</ele>
        <time>2018-02-06T10:46:13Z</time>
      </trkpt>
      <trkpt lat="46.00079" lon="4.84587">
        <ele>257</ele>
        <time>2018-02-06T10:46:14Z</time>
      </trkpt>
      <trkpt lat="46.00079" lon="4.8458">
        <ele>257</ele>
        <time>2018-02-06T10:46:15Z</time>
      </trkpt>
      <trkpt lat="46.00078" lon="4.84573">
        <ele>257</ele>
        <time>2018-02-06T10:46:16Z</time>
      </trkpt>
      <trkpt lat="46.00078" lon="4.84565">
        <ele>257</ele>
        <time>2018-02-06T10:46:17Z</time>
      </trkpt>
      <trkpt lat="46.00076" lon="4.84553">
        <ele>257</ele>
        <time>2018-02-06T10:46:19Z</time>
      </trkpt>
      <trkpt lat="46.00076" lon="4.84547">
        <ele>257</ele>
        <time>2018-02-06T10:46:20Z</time>
      </trkpt>
      <trkpt lat="46.00077" lon="4.84537">
        <ele>257</ele>
        <time>2018-02-06T10:46:22Z</time>
      </trkpt>
      <trkpt lat="46.00077" lon="4.84532">
        <ele>257</ele>
        <time>2018-02-06T10:46:23Z</time>
      </trkpt>
      <trkpt lat="46.0008" lon="4.84522">
        <ele>258</ele>
        <time>2018-02-06T10:46:25Z</time>
      </trkpt>
      <trkpt lat="46.00081" lon="4.84518">
        <ele>258</ele>
        <time>2018-02-06T10:46:26Z</time>
      </trkpt>
      <trkpt lat="46.00083" lon="4.84508">
        <ele>258</ele>
        <time>2018-02-06T10:46:28Z</time>
      </trkpt>
      <trkpt lat="46.00084" lon="4.84501">
        <ele>259</ele>
        <time>2018-02-06T10:46:29Z</time>
      </trkpt>
      <trkpt lat="46.00086" lon="4.8449">
        <ele>259</ele>
        <time>2018-02-06T10:46:31Z</time>
      </trkpt>
      <trkpt lat="46.00087" lon="4.84483">
        <ele>259</ele>
        <time>2018-02-06T10:46:32Z</time>
      </trkpt>
      <trkpt lat="46.00089" lon="4.84472">
        <ele>260</ele>
        <time>2018-02-06T10:46:34Z</time>
      </trkpt>
      <trkpt lat="46.0009" lon="4.84467">
        <ele>260</ele>
        <time>2018-02-06T10:46:35Z</time>
      </trkpt>
      <trkpt lat="46.00091" lon="4.84456">
        <ele>260</ele>
        <time>2018-02-06T10:46:37Z</time>
      </trkpt>
      <trkpt lat="46.00092" lon="4.84451">
        <ele>260</ele>
        <time>2018-02-06T10:46:38Z</time>
      </trkpt>
      <trkpt lat="46.00086" lon="4.84443">
        <ele>260</ele>
        <time>2018-02-06T10:46:43Z</time>
      </trkpt>
      <trkpt lat="46.00084" lon="4.84444">
        <ele>260</ele>
        <time>2018-02-06T10:46:44Z</time>
      </trkpt>
      <trkpt lat="46.00079" lon="4.84454">
        <ele>258</ele>
        <time>2018-02-06T10:47:28Z</time>
      </trkpt>
      <trkpt lat="46.00079" lon="4.84454">
        <ele>258</ele>
        <time>2018-02-06T10:47:29Z</time>
      </trkpt>
      <trkpt lat="46.00078" lon="4.84457">
        <ele>258</ele>
        <time>2018-02-06T10:58:51Z</time>
      </trkpt>
      <trkpt lat="46.00078" lon="4.84457">
        <ele>258</ele>
        <time>2018-02-06T10:58:52Z</time>
      </trkpt>
      <trkpt lat="46.00086" lon="4.84462">
        <ele>260</ele>
        <time>2018-02-06T11:00:32Z</time>
      </trkpt>
      <trkpt lat="46.00087" lon="4.84463">
        <ele>260</ele>
        <time>2018-02-06T11:00:33Z</time>
      </trkpt>
      <trkpt lat="46.00091" lon="4.84474">
        <ele>260</ele>
        <time>2018-02-06T11:00:38Z</time>
      </trkpt>
      <trkpt lat="46.0009" lon="4.84477">
        <ele>260</ele>
        <time>2018-02-06T11:00:39Z</time>
      </trkpt>
      <trkpt lat="46.00089" lon="4.8449">
        <ele>259</ele>
        <time>2018-02-06T11:00:42Z</time>
      </trkpt>
      <trkpt lat="46.00088" lon="4.84494">
        <ele>259</ele>
        <time>2018-02-06T11:00:43Z</time>
      </trkpt>
      <trkpt lat="46.00085" lon="4.84502">
        <ele>259</ele>
        <time>2018-02-06T11:00:45Z</time>
      </trkpt>
      <trkpt lat="46.00083" lon="4.84507">
        <ele>259</ele>
        <time>2018-02-06T11:00:46Z</time>
      </trkpt>
      <trkpt lat="46.00077" lon="4.84511">
        <ele>258</ele>
        <time>2018-02-06T11:00:48Z</time>
      </trkpt>
      <trkpt lat="46.00074" lon="4.84509">
        <ele>258</ele>
        <time>2018-02-06T11:00:49Z</time>
      </trkpt>
      <trkpt lat="46.00071" lon="4.84499">
        <ele>259</ele>
        <time>2018-02-06T11:00:51Z</time>
      </trkpt>
      <trkpt lat="46.0007" lon="4.84493">
        <ele>258</ele>
        <time>2018-02-06T11:00:52Z</time>
      </trkpt>
      <trkpt lat="46.00069" lon="4.84481">
        <ele>258</ele>
        <time>2018-02-06T11:00:54Z</time>
      </trkpt>
      <trkpt lat="46.00068" lon="4.84475">
        <ele>258</ele>
        <time>2018-02-06T11:00:55Z</time>
      </trkpt>
      <trkpt lat="46.00066" lon="4.84464">
        <ele>258</ele>
        <time>2018-02-06T11:00:57Z</time>
      </trkpt>
      <trkpt lat="46.00065" lon="4.84458">
        <ele>258</ele>
        <time>2018-02-06T11:00:58Z</time>
      </trkpt>
      <trkpt lat="46.00064" lon="4.84447">
        <ele>258</ele>
        <time>2018-02-06T11:01:00Z</time>
      </trkpt>
      <trkpt lat="46.00063" lon="4.84441">
        <ele>258</ele>
        <time>2018-02-06T11:01:01Z</time>
      </trkpt>
      <trkpt lat="46.00061" lon="4.84431">
        <ele>258</ele>
        <time>2018-02-06T11:01:03Z</time>
      </trkpt>
      <trkpt lat="46.0006" lon="4.84425">
        <ele>258</ele>
        <time>2018-02-06T11:01:04Z</time>
      </trkpt>
      <trkpt lat="46.00058" lon="4.84415">
        <ele>259</ele>
        <time>2018-02-06T11:01:06Z</time>
      </trkpt>
      <trkpt lat="46.00057" lon="4.8441">
        <ele>259</ele>
        <time>2018-02-06T11:01:07Z</time>
      </trkpt>
      <trkpt lat="46.00055" lon="4.84398">
        <ele>259</ele>
        <time>2018-02-06T11:01:09Z</time>
      </trkpt>
      <trkpt lat="46.00054" lon="4.84392">
        <ele>259</ele>
        <time>2018-02-06T11:01:10Z</time>
      </trkpt>
      <trkpt lat="46.00052" lon="4.84381">
        <ele>259</ele>
        <time>2018-02-06T11:01:12Z</time>
      </trkpt>
      <trkpt lat="46.00051" lon="4.84375">
        <ele>259</ele>
        <time>2018-02-06T11:01:13Z</time>
      </trkpt>
      <trkpt lat="46.00048" lon="4.84364">
        <ele>259</ele>
        <time>2018-02-06T11:01:15Z</time>
      </trkpt>
      <trkpt lat="46.00047" lon="4.84359">
        <ele>259</ele>
        <time>2018-02-06T11:01:16Z</time>
      </trkpt>
      <trkpt lat="46.00044" lon="4.84347">
        <ele>259</ele>
        <time>2018-02-06T11:01:18Z</time>
      </trkpt>
      <trkpt lat="46.00043" lon="4.84341">
        <ele>259</ele>
        <time>2018-02-06T11:01:19Z</time>
      </trkpt>
      <trkpt lat="46.0004" lon="4.8433">
        <ele>259</ele>
        <time>2018-02-06T11:01:21Z</time>
      </trkpt>
      <trkpt lat="46.00038" lon="4.84325">
        <ele>259</ele>
        <time>2018-02-06T11:01:22Z</time>
      </trkpt>
      <trkpt lat="46.00035" lon="4.84314">
        <ele>259</ele>
        <time>2018-02-06T11:01:24Z</time>
      </trkpt>
      <trkpt lat="46.00034" lon="4.84307">
        <ele>259</ele>
        <time>2018-02-06T11:01:25Z</time>
      </trkpt>
      <trkpt lat="46.00031" lon="4.84295">
        <ele>259</ele>
        <time>2018-02-06T11:01:27Z</time>
      </trkpt>
      <trkpt lat="46.0003" lon="4.84289">
        <ele>260</ele>
        <time>2018-02-06T11:01:28Z</time>
      </trkpt>
      <trkpt lat="46.00028" lon="4.84283">
        <ele>260</ele>
        <time>2018-02-06T11:01:29Z</time>
      </trkpt>
      <trkpt lat="46.00026" lon="4.84277">
        <ele>260</ele>
        <time>2018-02-06T11:01:30Z</time>
      </trkpt>
      <trkpt lat="46.00023" lon="4.84265">
        <ele>260</ele>
        <time>2018-02-06T11:01:32Z</time>
      </trkpt>
      <trkpt lat="46.00021" lon="4.84259">
        <ele>260</ele>
        <time>2018-02-06T11:01:33Z</time>
      </trkpt>
      <trkpt lat="46.00019" lon="4.84253">
        <ele>260</ele>
        <time>2018-02-06T11:01:34Z</time>
      </trkpt>
      <trkpt lat="46.00017" lon="4.84247">
        <ele>259</ele>
        <time>2018-02-06T11:01:35Z</time>
      </trkpt>
      <trkpt lat="46.00015" lon="4.8424">
        <ele>259</ele>
        <time>2018-02-06T11:01:36Z</time>
      </trkpt>
      <trkpt lat="46.00013" lon="4.84234">
        <ele>259</ele>
        <time>2018-02-06T11:01:37Z</time>
      </trkpt>
      <trkpt lat="46.00012" lon="4.84228">
        <ele>259</ele>
        <time>2018-02-06T11:01:38Z</time>
      </trkpt>
      <trkpt lat="46.0001" lon="4.84221">
        <ele>259</ele>
        <time>2018-02-06T11:01:39Z</time>
      </trkpt>
      <trkpt lat="46.00008" lon="4.84215">
        <ele>259</ele>
        <time>2018-02-06T11:01:40Z</time>
      </trkpt>
      <trkpt lat="46.00006" lon="4.84208">
        <ele>259</ele>
        <time>2018-02-06T11:01:41Z</time>
      </trkpt>
      <trkpt lat="46.00004" lon="4.84201">
        <ele>258</ele>
        <time>2018-02-06T11:01:42Z</time>
      </trkpt>
      <trkpt lat="46.00003" lon="4.84194">
        <ele>258</ele>
        <time>2018-02-06T11:01:43Z</time>
      </trkpt>
      <trkpt lat="46.00001" lon="4.84187">
        <ele>258</ele>
        <time>2018-02-06T11:01:44Z</time>
      </trkpt>
      <trkpt lat="45.99999" lon="4.84181">
        <ele>257</ele>
        <time>2018-02-06T11:01:45Z</time>
      </trkpt>
      <trkpt lat="45.99997" lon="4.84173">
        <ele>257</ele>
        <time>2018-02-06T11:01:46Z</time>
      </trkpt>
      <trkpt lat="45.99996" lon="4.84167">
        <ele>257</ele>
        <time>2018-02-06T11:01:47Z</time>
      </trkpt>
      <trkpt lat="45.99995" lon="4.8416">
        <ele>257</ele>
        <time>2018-02-06T11:01:48Z</time>
      </trkpt>
      <trkpt lat="45.99993" lon="4.84153">
        <ele>257</ele>
        <time>2018-02-06T11:01:49Z</time>
      </trkpt>
      <trkpt lat="45.99991" lon="4.84146">
        <ele>257</ele>
        <time>2018-02-06T11:01:50Z</time>
      </trkpt>
      <trkpt lat="45.99989" lon="4.84139">
        <ele>257</ele>
        <time>2018-02-06T11:01:51Z</time>
      </trkpt>
      <trkpt lat="45.99987" lon="4.84133">
        <ele>257</ele>
        <time>2018-02-06T11:01:52Z</time>
      </trkpt>
      <trkpt lat="45.99985" lon="4.84125">
        <ele>257</ele>
        <time>2018-02-06T11:01:53Z</time>
      </trkpt>
      <trkpt lat="45.99983" lon="4.84118">
        <ele>258</ele>
        <time>2018-02-06T11:01:54Z</time>
      </trkpt>
      <trkpt lat="45.99982" lon="4.84112">
        <ele>258</ele>
        <time>2018-02-06T11:01:55Z</time>
      </trkpt>
      <trkpt lat="45.99978" lon="4.841">
        <ele>258</ele>
        <time>2018-02-06T11:01:57Z</time>
      </trkpt>
      <trkpt lat="45.99977" lon="4.84093">
        <ele>258</ele>
        <time>2018-02-06T11:01:58Z</time>
      </trkpt>
      <trkpt lat="45.99975" lon="4.84087">
        <ele>258</ele>
        <time>2018-02-06T11:01:59Z</time>
      </trkpt>
      <trkpt lat="45.99973" lon="4.84081">
        <ele>259</ele>
        <time>2018-02-06T11:02:00Z</time>
      </trkpt>
      <trkpt lat="45.99971" lon="4.84075">
        <ele>259</ele>
        <time>2018-02-06T11:02:01Z</time>
      </trkpt>
      <trkpt lat="45.9997" lon="4.84068">
        <ele>259</ele>
        <time>2018-02-06T11:02:02Z</time>
      </trkpt>
      <trkpt lat="45.99969" lon="4.84062">
        <ele>259</ele>
        <time>2018-02-06T11:02:03Z</time>
      </trkpt>
      <trkpt lat="45.99967" lon="4.84056">
        <ele>259</ele>
        <time>2018-02-06T11:02:04Z</time>
      </trkpt>
      <trkpt lat="45.99965" lon="4.84049">
        <ele>259</ele>
        <time>2018-02-06T11:02:05Z</time>
      </trkpt>
      <trkpt lat="45.99963" lon="4.84042">
        <ele>259</ele>
        <time>2018-02-06T11:02:06Z</time>
      </trkpt>
      <trkpt lat="45.99961" lon="4.84037">
        <ele>259</ele>
        <time>2018-02-06T11:02:07Z</time>
      </trkpt>
      <trkpt lat="45.99959" lon="4.8403">
        <ele>259</ele>
        <time>2018-02-06T11:02:08Z</time>
      </trkpt>
      <trkpt lat="45.99957" lon="4.84024">
        <ele>259</ele>
        <time>2018-02-06T11:02:09Z</time>
      </trkpt>
      <trkpt lat="45.99955" lon="4.84018">
        <ele>259</ele>
        <time>2018-02-06T11:02:10Z</time>
      </trkpt>
      <trkpt lat="45.99954" lon="4.84011">
        <ele>259</ele>
        <time>2018-02-06T11:02:11Z</time>
      </trkpt>
      <trkpt lat="45.99951" lon="4.84005">
        <ele>259</ele>
        <time>2018-02-06T11:02:12Z</time>
      </trkpt>
      <trkpt lat="45.99948" lon="4.83993">
        <ele>259</ele>
        <time>2018-02-06T11:02:14Z</time>
      </trkpt>
      <trkpt lat="45.99946" lon="4.83987">
        <ele>259</ele>
        <time>2018-02-06T11:02:15Z</time>
      </trkpt>
      <trkpt lat="45.99944" lon="4.83981">
        <ele>259</ele>
        <time>2018-02-06T11:02:16Z</time>
      </trkpt>
      <trkpt lat="45.99942" lon="4.83974">
        <ele>259</ele>
        <time>2018-02-06T11:02:17Z</time>
      </trkpt>
      <trkpt lat="45.99941" lon="4.83968">
        <ele>259</ele>
        <time>2018-02-06T11:02:18Z</time>
      </trkpt>
      <trkpt lat="45.99939" lon="4.83961">
        <ele>259</ele>
        <time>2018-02-06T11:02:19Z</time>
      </trkpt>
      <trkpt lat="45.99938" lon="4.83954">
        <ele>259</ele>
        <time>2018-02-06T11:02:20Z</time>
      </trkpt>
      <trkpt lat="45.99935" lon="4.83947">
        <ele>259</ele>
        <time>2018-02-06T11:02:21Z</time>
      </trkpt>
      <trkpt lat="45.99932" lon="4.8394">
        <ele>259</ele>
        <time>2018-02-06T11:02:22Z</time>
      </trkpt>
      <trkpt lat="45.9993" lon="4.83934">
        <ele>259</ele>
        <time>2018-02-06T11:02:23Z</time>
      </trkpt>
      <trkpt lat="45.99929" lon="4.83923">
        <ele>259</ele>
        <time>2018-02-06T11:02:24Z</time>
      </trkpt>
      <trkpt lat="45.99927" lon="4.83916">
        <ele>259</ele>
        <time>2018-02-06T11:02:25Z</time>
      </trkpt>
      <trkpt lat="45.99925" lon="4.83909">
        <ele>259</ele>
        <time>2018-02-06T11:02:26Z</time>
      </trkpt>
      <trkpt lat="45.99922" lon="4.83902">
        <ele>259</ele>
        <time>2018-02-06T11:02:27Z</time>
      </trkpt>
      <trkpt lat="45.9992" lon="4.83896">
        <ele>259</ele>
        <time>2018-02-06T11:02:28Z</time>
      </trkpt>
      <trkpt lat="45.99917" lon="4.83888">
        <ele>259</ele>
        <time>2018-02-06T11:02:29Z</time>
      </trkpt>
      <trkpt lat="45.99915" lon="4.83881">
        <ele>258</ele>
        <time>2018-02-06T11:02:30Z</time>
      </trkpt>
      <trkpt lat="45.99912" lon="4.83874">
        <ele>258</ele>
        <time>2018-02-06T11:02:31Z</time>
      </trkpt>
      <trkpt lat="45.9991" lon="4.83866">
        <ele>258</ele>
        <time>2018-02-06T11:02:32Z</time>
      </trkpt>
      <trkpt lat="45.99908" lon="4.83859">
        <ele>258</ele>
        <time>2018-02-06T11:02:33Z</time>
      </trkpt>
      <trkpt lat="45.99907" lon="4.83853">
        <ele>258</ele>
        <time>2018-02-06T11:02:34Z</time>
      </trkpt>
      <trkpt lat="45.99904" lon="4.83847">
        <ele>258</ele>
        <time>2018-02-06T11:02:35Z</time>
      </trkpt>
      <trkpt lat="45.99902" lon="4.83839">
        <ele>258</ele>
        <time>2018-02-06T11:02:36Z</time>
      </trkpt>
      <trkpt lat="45.99901" lon="4.83833">
        <ele>257</ele>
        <time>2018-02-06T11:02:37Z</time>
      </trkpt>
      <trkpt lat="45.99899" lon="4.83825">
        <ele>257</ele>
        <time>2018-02-06T11:02:38Z</time>
      </trkpt>
      <trkpt lat="45.99896" lon="4.83818">
        <ele>257</ele>
        <time>2018-02-06T11:02:39Z</time>
      </trkpt>
      <trkpt lat="45.99895" lon="4.83811">
        <ele>257</ele>
        <time>2018-02-06T11:02:40Z</time>
      </trkpt>
      <trkpt lat="45.99893" lon="4.83804">
        <ele>257</ele>
        <time>2018-02-06T11:02:41Z</time>
      </trkpt>
      <trkpt lat="45.99891" lon="4.83797">
        <ele>257</ele>
        <time>2018-02-06T11:02:42Z</time>
      </trkpt>
      <trkpt lat="45.99888" lon="4.83791">
        <ele>257</ele>
        <time>2018-02-06T11:02:43Z</time>
      </trkpt>
      <trkpt lat="45.99886" lon="4.83784">
        <ele>257</ele>
        <time>2018-02-06T11:02:44Z</time>
      </trkpt>
      <trkpt lat="45.99884" lon="4.83777">
        <ele>257</ele>
        <time>2018-02-06T11:02:45Z</time>
      </trkpt>
      <trkpt lat="45.99883" lon="4.8377">
        <ele>256</ele>
        <time>2018-02-06T11:02:46Z</time>
      </trkpt>
      <trkpt lat="45.99881" lon="4.83763">
        <ele>256</ele>
        <time>2018-02-06T11:02:47Z</time>
      </trkpt>
      <trkpt lat="45.99878" lon="4.83756">
        <ele>256</ele>
        <time>2018-02-06T11:02:48Z</time>
      </trkpt>
      <trkpt lat="45.99876" lon="4.83749">
        <ele>256</ele>
        <time>2018-02-06T11:02:49Z</time>
      </trkpt>
      <trkpt lat="45.99874" lon="4.83742">
        <ele>256</ele>
        <time>2018-02-06T11:02:50Z</time>
      </trkpt>
      <trkpt lat="45.99872" lon="4.83735">
        <ele>256</ele>
        <time>2018-02-06T11:02:51Z</time>
      </trkpt>
      <trkpt lat="45.99868" lon="4.83728">
        <ele>256</ele>
        <time>2018-02-06T11:02:52Z</time>
      </trkpt>
      <trkpt lat="45.99867" lon="4.83721">
        <ele>256</ele>
        <time>2018-02-06T11:02:53Z</time>
      </trkpt>
      <trkpt lat="45.99864" lon="4.83714">
        <ele>256</ele>
        <time>2018-02-06T11:02:54Z</time>
      </trkpt>
      <trkpt lat="45.99864" lon="4.83707">
        <ele>256</ele>
        <time>2018-02-06T11:02:55Z</time>
      </trkpt>
      <trkpt lat="45.99863" lon="4.83699">
        <ele>256</ele>
        <time>2018-02-06T11:02:56Z</time>
      </trkpt>
      <trkpt lat="45.9986" lon="4.83692">
        <ele>256</ele>
        <time>2018-02-06T11:02:57Z</time>
      </trkpt>
      <trkpt lat="45.99858" lon="4.83686">
        <ele>256</ele>
        <time>2018-02-06T11:02:58Z</time>
      </trkpt>
      <trkpt lat="45.99857" lon="4.83678">
        <ele>256</ele>
        <time>2018-02-06T11:02:59Z</time>
      </trkpt>
      <trkpt lat="45.99855" lon="4.8367">
        <ele>256</ele>
        <time>2018-02-06T11:03:00Z</time>
      </trkpt>
      <trkpt lat="45.99854" lon="4.83662">
        <ele>257</ele>
        <time>2018-02-06T11:03:01Z</time>
      </trkpt>
      <trkpt lat="45.99852" lon="4.83654">
        <ele>257</ele>
        <time>2018-02-06T11:03:02Z</time>
      </trkpt>
      <trkpt lat="45.9985" lon="4.83646">
        <ele>257</ele>
        <time>2018-02-06T11:03:03Z</time>
      </trkpt>
      <trkpt lat="45.99848" lon="4.83639">
        <ele>257</ele>
        <time>2018-02-06T11:03:04Z</time>
      </trkpt>
      <trkpt lat="45.99846" lon="4.83631">
        <ele>257</ele>
        <time>2018-02-06T11:03:05Z</time>
      </trkpt>
      <trkpt lat="45.99844" lon="4.83624">
        <ele>257</ele>
        <time>2018-02-06T11:03:06Z</time>
      </trkpt>
      <trkpt lat="45.99843" lon="4.83616">
        <ele>257</ele>
        <time>2018-02-06T11:03:07Z</time>
      </trkpt>
      <trkpt lat="45.9984" lon="4.83608">
        <ele>257</ele>
        <time>2018-02-06T11:03:08Z</time>
      </trkpt>
      <trkpt lat="45.99839" lon="4.83601">
        <ele>257</ele>
        <time>2018-02-06T11:03:09Z</time>
      </trkpt>
      <trkpt lat="45.99837" lon="4.83593">
        <ele>257</ele>
        <time>2018-02-06T11:03:10Z</time>
      </trkpt>
      <trkpt lat="45.99835" lon="4.83585">
        <ele>257</ele>
        <time>2018-02-06T11:03:11Z</time>
      </trkpt>
      <trkpt lat="45.99834" lon="4.83577">
        <ele>257</ele>
        <time>2018-02-06T11:03:12Z</time>
      </trkpt>
      <trkpt lat="45.99832" lon="4.83569">
        <ele>258</ele>
        <time>2018-02-06T11:03:13Z</time>
      </trkpt>
      <trkpt lat="45.99829" lon="4.83562">
        <ele>258</ele>
        <time>2018-02-06T11:03:14Z</time>
      </trkpt>
      <trkpt lat="45.99828" lon="4.83555">
        <ele>258</ele>
        <time>2018-02-06T11:03:15Z</time>
      </trkpt>
      <trkpt lat="45.99826" lon="4.83548">
        <ele>259</ele>
        <time>2018-02-06T11:03:16Z</time>
      </trkpt>
      <trkpt lat="45.99824" lon="4.83541">
        <ele>259</ele>
        <time>2018-02-06T11:03:17Z</time>
      </trkpt>
      <trkpt lat="45.99823" lon="4.83533">
        <ele>259</ele>
        <time>2018-02-06T11:03:18Z</time>
      </trkpt>
      <trkpt lat="45.99822" lon="4.83526">
        <ele>259</ele>
        <time>2018-02-06T11:03:19Z</time>
      </trkpt>
      <trkpt lat="45.9982" lon="4.83518">
        <ele>259</ele>
        <time>2018-02-06T11:03:20Z</time>
      </trkpt>
      <trkpt lat="45.99819" lon="4.8351">
        <ele>259</ele>
        <time>2018-02-06T11:03:21Z</time>
      </trkpt>
      <trkpt lat="45.99817" lon="4.83502">
        <ele>259</ele>
        <time>2018-02-06T11:03:22Z</time>
      </trkpt>
      <trkpt lat="45.99815" lon="4.83495">
        <ele>260</ele>
        <time>2018-02-06T11:03:23Z</time>
      </trkpt>
      <trkpt lat="45.99813" lon="4.83488">
        <ele>260</ele>
        <time>2018-02-06T11:03:24Z</time>
      </trkpt>
      <trkpt lat="45.99812" lon="4.83479">
        <ele>260</ele>
        <time>2018-02-06T11:03:25Z</time>
      </trkpt>
      <trkpt lat="45.9981" lon="4.83472">
        <ele>260</ele>
        <time>2018-02-06T11:03:26Z</time>
      </trkpt>
      <trkpt lat="45.99808" lon="4.83466">
        <ele>261</ele>
        <time>2018-02-06T11:03:27Z</time>
      </trkpt>
      <trkpt lat="45.99807" lon="4.83458">
        <ele>261</ele>
        <time>2018-02-06T11:03:28Z</time>
      </trkpt>
      <trkpt lat="45.99805" lon="4.8345">
        <ele>261</ele>
        <time>2018-02-06T11:03:29Z</time>
      </trkpt>
      <trkpt lat="45.99804" lon="4.83443">
        <ele>261</ele>
        <time>2018-02-06T11:03:30Z</time>
      </trkpt>
      <trkpt lat="45.99802" lon="4.83437">
        <ele>261</ele>
        <time>2018-02-06T11:03:31Z</time>
      </trkpt>
      <trkpt lat="45.998" lon="4.8343">
        <ele>261</ele>
        <time>2018-02-06T11:03:32Z</time>
      </trkpt>
      <trkpt lat="45.99799" lon="4.83423">
        <ele>261</ele>
        <time>2018-02-06T11:03:33Z</time>
      </trkpt>
      <trkpt lat="45.99798" lon="4.83417">
        <ele>261</ele>
        <time>2018-02-06T11:03:34Z</time>
      </trkpt>
      <trkpt lat="45.99796" lon="4.83411">
        <ele>262</ele>
        <time>2018-02-06T11:03:35Z</time>
      </trkpt>
      <trkpt lat="45.99794" lon="4.83405">
        <ele>262</ele>
        <time>2018-02-06T11:03:36Z</time>
      </trkpt>
      <trkpt lat="45.99793" lon="4.83398">
        <ele>262</ele>
        <time>2018-02-06T11:03:37Z</time>
      </trkpt>
      <trkpt lat="45.99791" lon="4.83391">
        <ele>262</ele>
        <time>2018-02-06T11:03:38Z</time>
      </trkpt>
      <trkpt lat="45.9979" lon="4.83384">
        <ele>262</ele>
        <time>2018-02-06T11:03:39Z</time>
      </trkpt>
      <trkpt lat="45.99788" lon="4.83377">
        <ele>262</ele>
        <time>2018-02-06T11:03:40Z</time>
      </trkpt>
      <trkpt lat="45.99786" lon="4.83371">
        <ele>262</ele>
        <time>2018-02-06T11:03:41Z</time>
      </trkpt>
      <trkpt lat="45.99784" lon="4.83358">
        <ele>262</ele>
        <time>2018-02-06T11:03:43Z</time>
      </trkpt>
      <trkpt lat="45.99783" lon="4.83352">
        <ele>262</ele>
        <time>2018-02-06T11:03:44Z</time>
      </trkpt>
      <trkpt lat="45.99782" lon="4.83339">
        <ele>263</ele>
        <time>2018-02-06T11:03:46Z</time>
      </trkpt>
      <trkpt lat="45.99781" lon="4.83332">
        <ele>264</ele>
        <time>2018-02-06T11:03:47Z</time>
      </trkpt>
      <trkpt lat="45.99779" lon="4.8332">
        <ele>264</ele>
        <time>2018-02-06T11:03:49Z</time>
      </trkpt>
      <trkpt lat="45.99777" lon="4.83314">
        <ele>264</ele>
        <time>2018-02-06T11:03:50Z</time>
      </trkpt>
      <trkpt lat="45.99776" lon="4.83304">
        <ele>264</ele>
        <time>2018-02-06T11:03:52Z</time>
      </trkpt>
      <trkpt lat="45.99775" lon="4.83298">
        <ele>264</ele>
        <time>2018-02-06T11:03:53Z</time>
      </trkpt>
      <trkpt lat="45.99773" lon="4.83287">
        <ele>264</ele>
        <time>2018-02-06T11:03:55Z</time>
      </trkpt>
      <trkpt lat="45.99771" lon="4.83281">
        <ele>265</ele>
        <time>2018-02-06T11:03:56Z</time>
      </trkpt>
      <trkpt lat="45.9977" lon="4.8327">
        <ele>265</ele>
        <time>2018-02-06T11:03:58Z</time>
      </trkpt>
      <trkpt lat="45.9977" lon="4.83264">
        <ele>265</ele>
        <time>2018-02-06T11:03:59Z</time>
      </trkpt>
      <trkpt lat="45.99769" lon="4.83253">
        <ele>265</ele>
        <time>2018-02-06T11:04:01Z</time>
      </trkpt>
      <trkpt lat="45.99769" lon="4.83248">
        <ele>267</ele>
        <time>2018-02-06T11:04:02Z</time>
      </trkpt>
      <trkpt lat="45.99768" lon="4.83238">
        <ele>267</ele>
        <time>2018-02-06T11:04:04Z</time>
      </trkpt>
      <trkpt lat="45.99767" lon="4.83233">
        <ele>267</ele>
        <time>2018-02-06T11:04:05Z</time>
      </trkpt>
      <trkpt lat="45.99766" lon="4.83223">
        <ele>267</ele>
        <time>2018-02-06T11:04:07Z</time>
      </trkpt>
      <trkpt lat="45.99765" lon="4.83218">
        <ele>268</ele>
        <time>2018-02-06T11:04:08Z</time>
      </trkpt>
      <trkpt lat="45.99763" lon="4.83208">
        <ele>268</ele>
        <time>2018-02-06T11:04:10Z</time>
      </trkpt>
      <trkpt lat="45.99763" lon="4.83204">
        <ele>268</ele>
        <time>2018-02-06T11:04:11Z</time>
      </trkpt>
      <trkpt lat="45.99763" lon="4.83194">
        <ele>269</ele>
        <time>2018-02-06T11:04:13Z</time>
      </trkpt>
      <trkpt lat="45.99762" lon="4.83189">
        <ele>269</ele>
        <time>2018-02-06T11:04:14Z</time>
      </trkpt>
      <trkpt lat="45.99761" lon="4.8318">
        <ele>269</ele>
        <time>2018-02-06T11:04:16Z</time>
      </trkpt>
      <trkpt lat="45.9976" lon="4.83175">
        <ele>269</ele>
        <time>2018-02-06T11:04:17Z</time>
      </trkpt>
      <trkpt lat="45.99759" lon="4.83162">
        <ele>270</ele>
        <time>2018-02-06T11:04:20Z</time>
      </trkpt>
      <trkpt lat="45.99759" lon="4.83158">
        <ele>271</ele>
        <time>2018-02-06T11:04:21Z</time>
      </trkpt>
      <trkpt lat="45.99759" lon="4.83149">
        <ele>271</ele>
        <time>2018-02-06T11:04:23Z</time>
      </trkpt>
      <trkpt lat="45.99759" lon="4.83145">
        <ele>271</ele>
        <time>2018-02-06T11:04:24Z</time>
      </trkpt>
      <trkpt lat="45.99759" lon="4.83136">
        <ele>271</ele>
        <time>2018-02-06T11:04:26Z</time>
      </trkpt>
      <trkpt lat="45.99759" lon="4.83131">
        <ele>271</ele>
        <time>2018-02-06T11:04:27Z</time>
      </trkpt>
      <trkpt lat="45.99758" lon="4.83122">
        <ele>271</ele>
        <time>2018-02-06T11:04:29Z</time>
      </trkpt>
      <trkpt lat="45.99758" lon="4.83118">
        <ele>271</ele>
        <time>2018-02-06T11:04:30Z</time>
      </trkpt>
      <trkpt lat="45.99757" lon="4.83109">
        <ele>271</ele>
        <time>2018-02-06T11:04:32Z</time>
      </trkpt>
      <trkpt lat="45.99756" lon="4.83105">
        <ele>271</ele>
        <time>2018-02-06T11:04:33Z</time>
      </trkpt>
      <trkpt lat="45.99755" lon="4.83096">
        <ele>272</ele>
        <time>2018-02-06T11:04:35Z</time>
      </trkpt>
      <trkpt lat="45.99754" lon="4.83092">
        <ele>272</ele>
        <time>2018-02-06T11:04:36Z</time>
      </trkpt>
      <trkpt lat="45.99753" lon="4.83083">
        <ele>272</ele>
        <time>2018-02-06T11:04:38Z</time>
      </trkpt>
      <trkpt lat="45.99752" lon="4.83078">
        <ele>272</ele>
        <time>2018-02-06T11:04:39Z</time>
      </trkpt>
      <trkpt lat="45.99751" lon="4.8307">
        <ele>272</ele>
        <time>2018-02-06T11:04:41Z</time>
      </trkpt>
      <trkpt lat="45.9975" lon="4.83065">
        <ele>272</ele>
        <time>2018-02-06T11:04:42Z</time>
      </trkpt>
      <trkpt lat="45.99749" lon="4.83057">
        <ele>271</ele>
        <time>2018-02-06T11:04:44Z</time>
      </trkpt>
      <trkpt lat="45.99748" lon="4.83053">
        <ele>271</ele>
        <time>2018-02-06T11:04:45Z</time>
      </trkpt>
      <trkpt lat="45.99746" lon="4.83043">
        <ele>271</ele>
        <time>2018-02-06T11:04:47Z</time>
      </trkpt>
      <trkpt lat="45.99746" lon="4.83039">
        <ele>271</ele>
        <time>2018-02-06T11:04:48Z</time>
      </trkpt>
      <trkpt lat="45.99744" lon="4.83029">
        <ele>271</ele>
        <time>2018-02-06T11:04:50Z</time>
      </trkpt>
      <trkpt lat="45.99744" lon="4.83024">
        <ele>271</ele>
        <time>2018-02-06T11:04:51Z</time>
      </trkpt>
      <trkpt lat="45.99741" lon="4.83015">
        <ele>271</ele>
        <time>2018-02-06T11:04:53Z</time>
      </trkpt>
      <trkpt lat="45.99739" lon="4.83011">
        <ele>271</ele>
        <time>2018-02-06T11:04:54Z</time>
      </trkpt>
      <trkpt lat="45.99736" lon="4.83001">
        <ele>271</ele>
        <time>2018-02-06T11:04:56Z</time>
      </trkpt>
      <trkpt lat="45.99735" lon="4.82996">
        <ele>271</ele>
        <time>2018-02-06T11:04:57Z</time>
      </trkpt>
      <trkpt lat="45.99732" lon="4.82986">
        <ele>271</ele>
        <time>2018-02-06T11:04:59Z</time>
      </trkpt>
      <trkpt lat="45.99731" lon="4.82981">
        <ele>271</ele>
        <time>2018-02-06T11:05:00Z</time>
      </trkpt>
      <trkpt lat="45.99727" lon="4.82971">
        <ele>271</ele>
        <time>2018-02-06T11:05:02Z</time>
      </trkpt>
      <trkpt lat="45.99725" lon="4.82965">
        <ele>271</ele>
        <time>2018-02-06T11:05:03Z</time>
      </trkpt>
      <trkpt lat="45.99721" lon="4.82955">
        <ele>271</ele>
        <time>2018-02-06T11:05:05Z</time>
      </trkpt>
      <trkpt lat="45.9972" lon="4.8295">
        <ele>271</ele>
        <time>2018-02-06T11:05:06Z</time>
      </trkpt>
      <trkpt lat="45.99716" lon="4.8294">
        <ele>271</ele>
        <time>2018-02-06T11:05:08Z</time>
      </trkpt>
      <trkpt lat="45.99715" lon="4.82935">
        <ele>271</ele>
        <time>2018-02-06T11:05:09Z</time>
      </trkpt>
      <trkpt lat="45.99711" lon="4.82924">
        <ele>271</ele>
        <time>2018-02-06T11:05:11Z</time>
      </trkpt>
      <trkpt lat="45.99708" lon="4.82918">
        <ele>271</ele>
        <time>2018-02-06T11:05:12Z</time>
      </trkpt>
      <trkpt lat="45.99705" lon="4.82913">
        <ele>271</ele>
        <time>2018-02-06T11:05:13Z</time>
      </trkpt>
      <trkpt lat="45.99702" lon="4.82906">
        <ele>271</ele>
        <time>2018-02-06T11:05:14Z</time>
      </trkpt>
      <trkpt lat="45.99699" lon="4.82899">
        <ele>271</ele>
        <time>2018-02-06T11:05:15Z</time>
      </trkpt>
      <trkpt lat="45.99697" lon="4.82892">
        <ele>271</ele>
        <time>2018-02-06T11:05:16Z</time>
      </trkpt>
      <trkpt lat="45.99695" lon="4.82885">
        <ele>271</ele>
        <time>2018-02-06T11:05:17Z</time>
      </trkpt>
      <trkpt lat="45.99694" lon="4.82878">
        <ele>271</ele>
        <time>2018-02-06T11:05:18Z</time>
      </trkpt>
      <trkpt lat="45.99692" lon="4.82872">
        <ele>270</ele>
        <time>2018-02-06T11:05:19Z</time>
      </trkpt>
      <trkpt lat="45.9969" lon="4.82865">
        <ele>270</ele>
        <time>2018-02-06T11:05:20Z</time>
      </trkpt>
      <trkpt lat="45.99688" lon="4.82858">
        <ele>270</ele>
        <time>2018-02-06T11:05:21Z</time>
      </trkpt>
      <trkpt lat="45.99687" lon="4.82853">
        <ele>270</ele>
        <time>2018-02-06T11:05:22Z</time>
      </trkpt>
      <trkpt lat="45.99685" lon="4.82847">
        <ele>270</ele>
        <time>2018-02-06T11:05:23Z</time>
      </trkpt>
      <trkpt lat="45.99683" lon="4.8284">
        <ele>270</ele>
        <time>2018-02-06T11:05:24Z</time>
      </trkpt>
      <trkpt lat="45.99681" lon="4.82834">
        <ele>270</ele>
        <time>2018-02-06T11:05:25Z</time>
      </trkpt>
      <trkpt lat="45.99679" lon="4.82827">
        <ele>270</ele>
        <time>2018-02-06T11:05:26Z</time>
      </trkpt>
      <trkpt lat="45.99677" lon="4.82821">
        <ele>270</ele>
        <time>2018-02-06T11:05:27Z</time>
      </trkpt>
      <trkpt lat="45.99674" lon="4.82814">
        <ele>270</ele>
        <time>2018-02-06T11:05:28Z</time>
      </trkpt>
      <trkpt lat="45.99672" lon="4.82805">
        <ele>270</ele>
        <time>2018-02-06T11:05:29Z</time>
      </trkpt>
      <trkpt lat="45.99669" lon="4.82798">
        <ele>270</ele>
        <time>2018-02-06T11:05:30Z</time>
      </trkpt>
      <trkpt lat="45.99667" lon="4.82791">
        <ele>269</ele>
        <time>2018-02-06T11:05:31Z</time>
      </trkpt>
      <trkpt lat="45.99667" lon="4.82783">
        <ele>269</ele>
        <time>2018-02-06T11:05:32Z</time>
      </trkpt>
      <trkpt lat="45.99665" lon="4.82775">
        <ele>269</ele>
        <time>2018-02-06T11:05:33Z</time>
      </trkpt>
      <trkpt lat="45.99664" lon="4.82767">
        <ele>269</ele>
        <time>2018-02-06T11:05:34Z</time>
      </trkpt>
      <trkpt lat="45.99662" lon="4.8276">
        <ele>269</ele>
        <time>2018-02-06T11:05:35Z</time>
      </trkpt>
      <trkpt lat="45.99662" lon="4.82751">
        <ele>269</ele>
        <time>2018-02-06T11:05:36Z</time>
      </trkpt>
      <trkpt lat="45.99661" lon="4.82742">
        <ele>268</ele>
        <time>2018-02-06T11:05:37Z</time>
      </trkpt>
      <trkpt lat="45.99659" lon="4.82733">
        <ele>268</ele>
        <time>2018-02-06T11:05:38Z</time>
      </trkpt>
      <trkpt lat="45.99658" lon="4.82725">
        <ele>268</ele>
        <time>2018-02-06T11:05:39Z</time>
      </trkpt>
      <trkpt lat="45.99657" lon="4.82716">
        <ele>268</ele>
        <time>2018-02-06T11:05:40Z</time>
      </trkpt>
      <trkpt lat="45.99656" lon="4.82707">
        <ele>268</ele>
        <time>2018-02-06T11:05:41Z</time>
      </trkpt>
      <trkpt lat="45.99655" lon="4.82699">
        <ele>268</ele>
        <time>2018-02-06T11:05:42Z</time>
      </trkpt>
      <trkpt lat="45.99654" lon="4.82689">
        <ele>268</ele>
        <time>2018-02-06T11:05:43Z</time>
      </trkpt>
      <trkpt lat="45.99653" lon="4.82681">
        <ele>268</ele>
        <time>2018-02-06T11:05:44Z</time>
      </trkpt>
      <trkpt lat="45.99651" lon="4.82672">
        <ele>268</ele>
        <time>2018-02-06T11:05:45Z</time>
      </trkpt>
      <trkpt lat="45.9965" lon="4.82664">
        <ele>268</ele>
        <time>2018-02-06T11:05:46Z</time>
      </trkpt>
      <trkpt lat="45.99649" lon="4.82656">
        <ele>267</ele>
        <time>2018-02-06T11:05:47Z</time>
      </trkpt>
      <trkpt lat="45.99648" lon="4.82648">
        <ele>267</ele>
        <time>2018-02-06T11:05:48Z</time>
      </trkpt>
      <trkpt lat="45.99649" lon="4.8264">
        <ele>267</ele>
        <time>2018-02-06T11:05:49Z</time>
      </trkpt>
      <trkpt lat="45.99648" lon="4.82633">
        <ele>267</ele>
        <time>2018-02-06T11:05:50Z</time>
      </trkpt>
      <trkpt lat="45.99646" lon="4.82625">
        <ele>267</ele>
        <time>2018-02-06T11:05:51Z</time>
      </trkpt>
      <trkpt lat="45.99644" lon="4.82616">
        <ele>267</ele>
        <time>2018-02-06T11:05:52Z</time>
      </trkpt>
      <trkpt lat="45.99643" lon="4.82607">
        <ele>267</ele>
        <time>2018-02-06T11:05:53Z</time>
      </trkpt>
      <trkpt lat="45.99643" lon="4.82598">
        <ele>266</ele>
        <time>2018-02-06T11:05:54Z</time>
      </trkpt>
      <trkpt lat="45.9964" lon="4.8259">
        <ele>266</ele>
        <time>2018-02-06T11:05:55Z</time>
      </trkpt>
      <trkpt lat="45.99639" lon="4.82582">
        <ele>266</ele>
        <time>2018-02-06T11:05:56Z</time>
      </trkpt>
      <trkpt lat="45.99637" lon="4.82573">
        <ele>266</ele>
        <time>2018-02-06T11:05:57Z</time>
      </trkpt>
      <trkpt lat="45.99635" lon="4.82564">
        <ele>266</ele>
        <time>2018-02-06T11:05:58Z</time>
      </trkpt>
      <trkpt lat="45.99633" lon="4.82555">
        <ele>266</ele>
        <time>2018-02-06T11:05:59Z</time>
      </trkpt>
      <trkpt lat="45.99631" lon="4.82546">
        <ele>266</ele>
        <time>2018-02-06T11:06:00Z</time>
      </trkpt>
      <trkpt lat="45.9963" lon="4.82538">
        <ele>266</ele>
        <time>2018-02-06T11:06:01Z</time>
      </trkpt>
      <trkpt lat="45.99627" lon="4.82527">
        <ele>265</ele>
        <time>2018-02-06T11:06:02Z</time>
      </trkpt>
      <trkpt lat="45.99626" lon="4.82519">
        <ele>265</ele>
        <time>2018-02-06T11:06:03Z</time>
      </trkpt>
      <trkpt lat="45.99623" lon="4.82511">
        <ele>265</ele>
        <time>2018-02-06T11:06:04Z</time>
      </trkpt>
      <trkpt lat="45.99621" lon="4.82501">
        <ele>265</ele>
        <time>2018-02-06T11:06:05Z</time>
      </trkpt>
      <trkpt lat="45.99618" lon="4.82493">
        <ele>265</ele>
        <time>2018-02-06T11:06:06Z</time>
      </trkpt>
      <trkpt lat="45.99616" lon="4.82485">
        <ele>265</ele>
        <time>2018-02-06T11:06:07Z</time>
      </trkpt>
      <trkpt lat="45.99613" lon="4.82477">
        <ele>265</ele>
        <time>2018-02-06T11:06:08Z</time>
      </trkpt>
      <trkpt lat="45.99609" lon="4.82468">
        <ele>265</ele>
        <time>2018-02-06T11:06:09Z</time>
      </trkpt>
      <trkpt lat="45.99606" lon="4.8246">
        <ele>264</ele>
        <time>2018-02-06T11:06:10Z</time>
      </trkpt>
      <trkpt lat="45.99602" lon="4.82452">
        <ele>264</ele>
        <time>2018-02-06T11:06:11Z</time>
      </trkpt>
      <trkpt lat="45.99599" lon="4.82444">
        <ele>264</ele>
        <time>2018-02-06T11:06:12Z</time>
      </trkpt>
      <trkpt lat="45.99597" lon="4.82435">
        <ele>264</ele>
        <time>2018-02-06T11:06:13Z</time>
      </trkpt>
      <trkpt lat="45.99594" lon="4.82427">
        <ele>263</ele>
        <time>2018-02-06T11:06:14Z</time>
      </trkpt>
      <trkpt lat="45.99589" lon="4.82418">
        <ele>263</ele>
        <time>2018-02-06T11:06:15Z</time>
      </trkpt>
      <trkpt lat="45.99585" lon="4.82409">
        <ele>263</ele>
        <time>2018-02-06T11:06:16Z</time>
      </trkpt>
      <trkpt lat="45.99583" lon="4.82399">
        <ele>261</ele>
        <time>2018-02-06T11:06:17Z</time>
      </trkpt>
      <trkpt lat="45.99581" lon="4.82388">
        <ele>261</ele>
        <time>2018-02-06T11:06:18Z</time>
      </trkpt>
      <trkpt lat="45.9958" lon="4.82377">
        <ele>261</ele>
        <time>2018-02-06T11:06:19Z</time>
      </trkpt>
      <trkpt lat="45.99579" lon="4.82366">
        <ele>261</ele>
        <time>2018-02-06T11:06:20Z</time>
      </trkpt>
      <trkpt lat="45.99578" lon="4.82355">
        <ele>261</ele>
        <time>2018-02-06T11:06:21Z</time>
      </trkpt>
      <trkpt lat="45.99576" lon="4.82344">
        <ele>262</ele>
        <time>2018-02-06T11:06:22Z</time>
      </trkpt>
      <trkpt lat="45.99574" lon="4.82333">
        <ele>262</ele>
        <time>2018-02-06T11:06:23Z</time>
      </trkpt>
      <trkpt lat="45.99572" lon="4.82322">
        <ele>262</ele>
        <time>2018-02-06T11:06:24Z</time>
      </trkpt>
      <trkpt lat="45.99569" lon="4.82312">
        <ele>262</ele>
        <time>2018-02-06T11:06:25Z</time>
      </trkpt>
      <trkpt lat="45.99566" lon="4.82301">
        <ele>262</ele>
        <time>2018-02-06T11:06:26Z</time>
      </trkpt>
      <trkpt lat="45.99563" lon="4.82293">
        <ele>261</ele>
        <time>2018-02-06T11:06:27Z</time>
      </trkpt>
      <trkpt lat="45.99561" lon="4.82284">
        <ele>261</ele>
        <time>2018-02-06T11:06:28Z</time>
      </trkpt>
      <trkpt lat="45.99559" lon="4.82274">
        <ele>262</ele>
        <time>2018-02-06T11:06:29Z</time>
      </trkpt>
      <trkpt lat="45.99555" lon="4.82266">
        <ele>262</ele>
        <time>2018-02-06T11:06:30Z</time>
      </trkpt>
      <trkpt lat="45.99554" lon="4.82256">
        <ele>262</ele>
        <time>2018-02-06T11:06:31Z</time>
      </trkpt>
      <trkpt lat="45.99553" lon="4.82248">
        <ele>262</ele>
        <time>2018-02-06T11:06:32Z</time>
      </trkpt>
      <trkpt lat="45.99549" lon="4.8224">
        <ele>262</ele>
        <time>2018-02-06T11:06:33Z</time>
      </trkpt>
      <trkpt lat="45.99547" lon="4.82233">
        <ele>262</ele>
        <time>2018-02-06T11:06:34Z</time>
      </trkpt>
      <trkpt lat="45.99547" lon="4.82226">
        <ele>262</ele>
        <time>2018-02-06T11:06:35Z</time>
      </trkpt>
      <trkpt lat="45.99545" lon="4.82219">
        <ele>262</ele>
        <time>2018-02-06T11:06:36Z</time>
      </trkpt>
      <trkpt lat="45.99544" lon="4.82212">
        <ele>262</ele>
        <time>2018-02-06T11:06:37Z</time>
      </trkpt>
      <trkpt lat="45.99543" lon="4.82204">
        <ele>262</ele>
        <time>2018-02-06T11:06:38Z</time>
      </trkpt>
      <trkpt lat="45.99542" lon="4.82197">
        <ele>262</ele>
        <time>2018-02-06T11:06:39Z</time>
      </trkpt>
      <trkpt lat="45.9954" lon="4.8219">
        <ele>262</ele>
        <time>2018-02-06T11:06:40Z</time>
      </trkpt>
      <trkpt lat="45.99539" lon="4.82182">
        <ele>262</ele>
        <time>2018-02-06T11:06:41Z</time>
      </trkpt>
      <trkpt lat="45.99537" lon="4.82174">
        <ele>262</ele>
        <time>2018-02-06T11:06:42Z</time>
      </trkpt>
      <trkpt lat="45.99536" lon="4.82167">
        <ele>262</ele>
        <time>2018-02-06T11:06:43Z</time>
      </trkpt>
      <trkpt lat="45.99535" lon="4.82159">
        <ele>263</ele>
        <time>2018-02-06T11:06:44Z</time>
      </trkpt>
      <trkpt lat="45.99533" lon="4.82151">
        <ele>263</ele>
        <time>2018-02-06T11:06:45Z</time>
      </trkpt>
      <trkpt lat="45.99532" lon="4.82143">
        <ele>263</ele>
        <time>2018-02-06T11:06:46Z</time>
      </trkpt>
      <trkpt lat="45.99528" lon="4.82136">
        <ele>263</ele>
        <time>2018-02-06T11:06:47Z</time>
      </trkpt>
      <trkpt lat="45.99527" lon="4.82128">
        <ele>263</ele>
        <time>2018-02-06T11:06:48Z</time>
      </trkpt>
      <trkpt lat="45.99526" lon="4.82121">
        <ele>263</ele>
        <time>2018-02-06T11:06:49Z</time>
      </trkpt>
      <trkpt lat="45.99525" lon="4.82113">
        <ele>262</ele>
        <time>2018-02-06T11:06:50Z</time>
      </trkpt>
      <trkpt lat="45.99525" lon="4.82105">
        <ele>262</ele>
        <time>2018-02-06T11:06:51Z</time>
      </trkpt>
      <trkpt lat="45.99523" lon="4.82096">
        <ele>262</ele>
        <time>2018-02-06T11:06:52Z</time>
      </trkpt>
      <trkpt lat="45.99522" lon="4.82089">
        <ele>262</ele>
        <time>2018-02-06T11:06:53Z</time>
      </trkpt>
      <trkpt lat="45.99522" lon="4.82081">
        <ele>261</ele>
        <time>2018-02-06T11:06:54Z</time>
      </trkpt>
      <trkpt lat="45.99521" lon="4.82073">
        <ele>261</ele>
        <time>2018-02-06T11:06:55Z</time>
      </trkpt>
      <trkpt lat="45.9952" lon="4.82064">
        <ele>262</ele>
        <time>2018-02-06T11:06:56Z</time>
      </trkpt>
      <trkpt lat="45.99518" lon="4.82055">
        <ele>262</ele>
        <time>2018-02-06T11:06:57Z</time>
      </trkpt>
      <trkpt lat="45.99518" lon="4.82047">
        <ele>262</ele>
        <time>2018-02-06T11:06:58Z</time>
      </trkpt>
      <trkpt lat="45.99516" lon="4.82039">
        <ele>261</ele>
        <time>2018-02-06T11:06:59Z</time>
      </trkpt>
      <trkpt lat="45.99514" lon="4.82032">
        <ele>261</ele>
        <time>2018-02-06T11:07:00Z</time>
      </trkpt>
      <trkpt lat="45.99513" lon="4.82024">
        <ele>261</ele>
        <time>2018-02-06T11:07:01Z</time>
      </trkpt>
      <trkpt lat="45.99512" lon="4.82017">
        <ele>261</ele>
        <time>2018-02-06T11:07:02Z</time>
      </trkpt>
      <trkpt lat="45.99512" lon="4.82009">
        <ele>260</ele>
        <time>2018-02-06T11:07:03Z</time>
      </trkpt>
      <trkpt lat="45.99513" lon="4.82001">
        <ele>260</ele>
        <time>2018-02-06T11:07:04Z</time>
      </trkpt>
      <trkpt lat="45.99513" lon="4.81994">
        <ele>260</ele>
        <time>2018-02-06T11:07:05Z</time>
      </trkpt>
      <trkpt lat="45.99512" lon="4.81987">
        <ele>260</ele>
        <time>2018-02-06T11:07:06Z</time>
      </trkpt>
      <trkpt lat="45.99511" lon="4.8198">
        <ele>260</ele>
        <time>2018-02-06T11:07:07Z</time>
      </trkpt>
      <trkpt lat="45.99508" lon="4.81973">
        <ele>261</ele>
        <time>2018-02-06T11:07:08Z</time>
      </trkpt>
      <trkpt lat="45.99507" lon="4.81965">
        <ele>261</ele>
        <time>2018-02-06T11:07:09Z</time>
      </trkpt>
      <trkpt lat="45.99505" lon="4.81958">
        <ele>261</ele>
        <time>2018-02-06T11:07:10Z</time>
      </trkpt>
      <trkpt lat="45.99504" lon="4.8195">
        <ele>261</ele>
        <time>2018-02-06T11:07:11Z</time>
      </trkpt>
      <trkpt lat="45.99504" lon="4.8194">
        <ele>260</ele>
        <time>2018-02-06T11:07:12Z</time>
      </trkpt>
      <trkpt lat="45.99502" lon="4.81931">
        <ele>260</ele>
        <time>2018-02-06T11:07:13Z</time>
      </trkpt>
      <trkpt lat="45.99502" lon="4.81924">
        <ele>260</ele>
        <time>2018-02-06T11:07:14Z</time>
      </trkpt>
      <trkpt lat="45.995" lon="4.81916">
        <ele>259</ele>
        <time>2018-02-06T11:07:15Z</time>
      </trkpt>
      <trkpt lat="45.99499" lon="4.81908">
        <ele>259</ele>
        <time>2018-02-06T11:07:16Z</time>
      </trkpt>
      <trkpt lat="45.99498" lon="4.81898">
        <ele>259</ele>
        <time>2018-02-06T11:07:17Z</time>
      </trkpt>
      <trkpt lat="45.99497" lon="4.8189">
        <ele>259</ele>
        <time>2018-02-06T11:07:18Z</time>
      </trkpt>
      <trkpt lat="45.99496" lon="4.81881">
        <ele>260</ele>
        <time>2018-02-06T11:07:19Z</time>
      </trkpt>
      <trkpt lat="45.99494" lon="4.81873">
        <ele>260</ele>
        <time>2018-02-06T11:07:20Z</time>
      </trkpt>
      <trkpt lat="45.99493" lon="4.81865">
        <ele>260</ele>
        <time>2018-02-06T11:07:21Z</time>
      </trkpt>
      <trkpt lat="45.99492" lon="4.81857">
        <ele>260</ele>
        <time>2018-02-06T11:07:22Z</time>
      </trkpt>
      <trkpt lat="45.99492" lon="4.81849">
        <ele>261</ele>
        <time>2018-02-06T11:07:23Z</time>
      </trkpt>
      <trkpt lat="45.9949" lon="4.8184">
        <ele>261</ele>
        <time>2018-02-06T11:07:24Z</time>
      </trkpt>
      <trkpt lat="45.9949" lon="4.81831">
        <ele>262</ele>
        <time>2018-02-06T11:07:25Z</time>
      </trkpt>
      <trkpt lat="45.99488" lon="4.81823">
        <ele>262</ele>
        <time>2018-02-06T11:07:26Z</time>
      </trkpt>
      <trkpt lat="45.99486" lon="4.81816">
        <ele>262</ele>
        <time>2018-02-06T11:07:27Z</time>
      </trkpt>
      <trkpt lat="45.99484" lon="4.81805">
        <ele>262</ele>
        <time>2018-02-06T11:07:28Z</time>
      </trkpt>
      <trkpt lat="45.99482" lon="4.81798">
        <ele>262</ele>
        <time>2018-02-06T11:07:29Z</time>
      </trkpt>
      <trkpt lat="45.99481" lon="4.8179">
        <ele>262</ele>
        <time>2018-02-06T11:07:30Z</time>
      </trkpt>
      <trkpt lat="45.9948" lon="4.81781">
        <ele>262</ele>
        <time>2018-02-06T11:07:31Z</time>
      </trkpt>
      <trkpt lat="45.9948" lon="4.81773">
        <ele>262</ele>
        <time>2018-02-06T11:07:32Z</time>
      </trkpt>
      <trkpt lat="45.9948" lon="4.81764">
        <ele>262</ele>
        <time>2018-02-06T11:07:33Z</time>
      </trkpt>
      <trkpt lat="45.99479" lon="4.81755">
        <ele>262</ele>
        <time>2018-02-06T11:07:34Z</time>
      </trkpt>
      <trkpt lat="45.99479" lon="4.81746">
        <ele>261</ele>
        <time>2018-02-06T11:07:35Z</time>
      </trkpt>
      <trkpt lat="45.99479" lon="4.81738">
        <ele>261</ele>
        <time>2018-02-06T11:07:36Z</time>
      </trkpt>
      <trkpt lat="45.99479" lon="4.81729">
        <ele>261</ele>
        <time>2018-02-06T11:07:37Z</time>
      </trkpt>
      <trkpt lat="45.99477" lon="4.8172">
        <ele>261</ele>
        <time>2018-02-06T11:07:38Z</time>
      </trkpt>
      <trkpt lat="45.99476" lon="4.81712">
        <ele>261</ele>
        <time>2018-02-06T11:07:39Z</time>
      </trkpt>
      <trkpt lat="45.99476" lon="4.81702">
        <ele>261</ele>
        <time>2018-02-06T11:07:40Z</time>
      </trkpt>
      <trkpt lat="45.99474" lon="4.81693">
        <ele>261</ele>
        <time>2018-02-06T11:07:41Z</time>
      </trkpt>
      <trkpt lat="45.99473" lon="4.81683">
        <ele>261</ele>
        <time>2018-02-06T11:07:42Z</time>
      </trkpt>
      <trkpt lat="45.99472" lon="4.81672">
        <ele>261</ele>
        <time>2018-02-06T11:07:43Z</time>
      </trkpt>
      <trkpt lat="45.99472" lon="4.81664">
        <ele>259</ele>
        <time>2018-02-06T11:07:44Z</time>
      </trkpt>
      <trkpt lat="45.99471" lon="4.81655">
        <ele>259</ele>
        <time>2018-02-06T11:07:45Z</time>
      </trkpt>
      <trkpt lat="45.99469" lon="4.81647">
        <ele>259</ele>
        <time>2018-02-06T11:07:46Z</time>
      </trkpt>
      <trkpt lat="45.99468" lon="4.81638">
        <ele>258</ele>
        <time>2018-02-06T11:07:47Z</time>
      </trkpt>
      <trkpt lat="45.99466" lon="4.8163">
        <ele>258</ele>
        <time>2018-02-06T11:07:48Z</time>
      </trkpt>
      <trkpt lat="45.99465" lon="4.81621">
        <ele>258</ele>
        <time>2018-02-06T11:07:49Z</time>
      </trkpt>
      <trkpt lat="45.99463" lon="4.81611">
        <ele>258</ele>
        <time>2018-02-06T11:07:50Z</time>
      </trkpt>
      <trkpt lat="45.99462" lon="4.81602">
        <ele>257</ele>
        <time>2018-02-06T11:07:51Z</time>
      </trkpt>
      <trkpt lat="45.9946" lon="4.81592">
        <ele>257</ele>
        <time>2018-02-06T11:07:52Z</time>
      </trkpt>
      <trkpt lat="45.99459" lon="4.81582">
        <ele>255</ele>
        <time>2018-02-06T11:07:53Z</time>
      </trkpt>
      <trkpt lat="45.99458" lon="4.8157">
        <ele>255</ele>
        <time>2018-02-06T11:07:54Z</time>
      </trkpt>
      <trkpt lat="45.99456" lon="4.81559">
        <ele>255</ele>
        <time>2018-02-06T11:07:55Z</time>
      </trkpt>
      <trkpt lat="45.99455" lon="4.81549">
        <ele>255</ele>
        <time>2018-02-06T11:07:56Z</time>
      </trkpt>
      <trkpt lat="45.99453" lon="4.8154">
        <ele>255</ele>
        <time>2018-02-06T11:07:57Z</time>
      </trkpt>
      <trkpt lat="45.99452" lon="4.8153">
        <ele>255</ele>
        <time>2018-02-06T11:07:58Z</time>
      </trkpt>
      <trkpt lat="45.9945" lon="4.8152">
        <ele>255</ele>
        <time>2018-02-06T11:07:59Z</time>
      </trkpt>
      <trkpt lat="45.99448" lon="4.81509">
        <ele>255</ele>
        <time>2018-02-06T11:08:00Z</time>
      </trkpt>
      <trkpt lat="45.99446" lon="4.81499">
        <ele>254</ele>
        <time>2018-02-06T11:08:01Z</time>
      </trkpt>
      <trkpt lat="45.99445" lon="4.81489">
        <ele>254</ele>
        <time>2018-02-06T11:08:02Z</time>
      </trkpt>
      <trkpt lat="45.99444" lon="4.81478">
        <ele>254</ele>
        <time>2018-02-06T11:08:03Z</time>
      </trkpt>
      <trkpt lat="45.99443" lon="4.81468">
        <ele>254</ele>
        <time>2018-02-06T11:08:04Z</time>
      </trkpt>
      <trkpt lat="45.99442" lon="4.81458">
        <ele>254</ele>
        <time>2018-02-06T11:08:05Z</time>
      </trkpt>
      <trkpt lat="45.9944" lon="4.81448">
        <ele>254</ele>
        <time>2018-02-06T11:08:06Z</time>
      </trkpt>
      <trkpt lat="45.99438" lon="4.81438">
        <ele>254</ele>
        <time>2018-02-06T11:08:07Z</time>
      </trkpt>
      <trkpt lat="45.99437" lon="4.81428">
        <ele>254</ele>
        <time>2018-02-06T11:08:08Z</time>
      </trkpt>
      <trkpt lat="45.99436" lon="4.81417">
        <ele>254</ele>
        <time>2018-02-06T11:08:09Z</time>
      </trkpt>
      <trkpt lat="45.99435" lon="4.81408">
        <ele>254</ele>
        <time>2018-02-06T11:08:10Z</time>
      </trkpt>
      <trkpt lat="45.99434" lon="4.81398">
        <ele>254</ele>
        <time>2018-02-06T11:08:11Z</time>
      </trkpt>
      <trkpt lat="45.99432" lon="4.81388">
        <ele>254</ele>
        <time>2018-02-06T11:08:12Z</time>
      </trkpt>
      <trkpt lat="45.99431" lon="4.81378">
        <ele>254</ele>
        <time>2018-02-06T11:08:13Z</time>
      </trkpt>
      <trkpt lat="45.99431" lon="4.81368">
        <ele>254</ele>
        <time>2018-02-06T11:08:14Z</time>
      </trkpt>
      <trkpt lat="45.99429" lon="4.81359">
        <ele>254</ele>
        <time>2018-02-06T11:08:15Z</time>
      </trkpt>
      <trkpt lat="45.9943" lon="4.81349">
        <ele>254</ele>
        <time>2018-02-06T11:08:16Z</time>
      </trkpt>
      <trkpt lat="45.99428" lon="4.8134">
        <ele>254</ele>
        <time>2018-02-06T11:08:17Z</time>
      </trkpt>
      <trkpt lat="45.99426" lon="4.8133">
        <ele>254</ele>
        <time>2018-02-06T11:08:18Z</time>
      </trkpt>
      <trkpt lat="45.99424" lon="4.8132">
        <ele>254</ele>
        <time>2018-02-06T11:08:19Z</time>
      </trkpt>
      <trkpt lat="45.99422" lon="4.81311">
        <ele>254</ele>
        <time>2018-02-06T11:08:20Z</time>
      </trkpt>
      <trkpt lat="45.99421" lon="4.81302">
        <ele>253</ele>
        <time>2018-02-06T11:08:21Z</time>
      </trkpt>
      <trkpt lat="45.99419" lon="4.81293">
        <ele>253</ele>
        <time>2018-02-06T11:08:22Z</time>
      </trkpt>
      <trkpt lat="45.99417" lon="4.81284">
        <ele>253</ele>
        <time>2018-02-06T11:08:23Z</time>
      </trkpt>
      <trkpt lat="45.99416" lon="4.81274">
        <ele>253</ele>
        <time>2018-02-06T11:08:24Z</time>
      </trkpt>
      <trkpt lat="45.99416" lon="4.81265">
        <ele>253</ele>
        <time>2018-02-06T11:08:25Z</time>
      </trkpt>
      <trkpt lat="45.99414" lon="4.81255">
        <ele>252</ele>
        <time>2018-02-06T11:08:26Z</time>
      </trkpt>
      <trkpt lat="45.99413" lon="4.81246">
        <ele>252</ele>
        <time>2018-02-06T11:08:27Z</time>
      </trkpt>
      <trkpt lat="45.99412" lon="4.81236">
        <ele>252</ele>
        <time>2018-02-06T11:08:28Z</time>
      </trkpt>
      <trkpt lat="45.9941" lon="4.81227">
        <ele>252</ele>
        <time>2018-02-06T11:08:29Z</time>
      </trkpt>
      <trkpt lat="45.99409" lon="4.81218">
        <ele>252</ele>
        <time>2018-02-06T11:08:30Z</time>
      </trkpt>
      <trkpt lat="45.99409" lon="4.81209">
        <ele>252</ele>
        <time>2018-02-06T11:08:31Z</time>
      </trkpt>
      <trkpt lat="45.99407" lon="4.812">
        <ele>252</ele>
        <time>2018-02-06T11:08:32Z</time>
      </trkpt>
      <trkpt lat="45.99405" lon="4.8119">
        <ele>252</ele>
        <time>2018-02-06T11:08:33Z</time>
      </trkpt>
      <trkpt lat="45.99404" lon="4.81181">
        <ele>251</ele>
        <time>2018-02-06T11:08:34Z</time>
      </trkpt>
      <trkpt lat="45.99403" lon="4.81171">
        <ele>251</ele>
        <time>2018-02-06T11:08:35Z</time>
      </trkpt>
      <trkpt lat="45.99402" lon="4.81161">
        <ele>251</ele>
        <time>2018-02-06T11:08:36Z</time>
      </trkpt>
      <trkpt lat="45.994" lon="4.81151">
        <ele>251</ele>
        <time>2018-02-06T11:08:37Z</time>
      </trkpt>
      <trkpt lat="45.99399" lon="4.8114">
        <ele>251</ele>
        <time>2018-02-06T11:08:38Z</time>
      </trkpt>
      <trkpt lat="45.99397" lon="4.81131">
        <ele>251</ele>
        <time>2018-02-06T11:08:39Z</time>
      </trkpt>
      <trkpt lat="45.99396" lon="4.81121">
        <ele>251</ele>
        <time>2018-02-06T11:08:40Z</time>
      </trkpt>
      <trkpt lat="45.99395" lon="4.81112">
        <ele>251</ele>
        <time>2018-02-06T11:08:41Z</time>
      </trkpt>
      <trkpt lat="45.99394" lon="4.81103">
        <ele>251</ele>
        <time>2018-02-06T11:08:42Z</time>
      </trkpt>
      <trkpt lat="45.99393" lon="4.81094">
        <ele>251</ele>
        <time>2018-02-06T11:08:43Z</time>
      </trkpt>
      <trkpt lat="45.99391" lon="4.81085">
        <ele>251</ele>
        <time>2018-02-06T11:08:44Z</time>
      </trkpt>
      <trkpt lat="45.99391" lon="4.81076">
        <ele>251</ele>
        <time>2018-02-06T11:08:45Z</time>
      </trkpt>
      <trkpt lat="45.99389" lon="4.81067">
        <ele>251</ele>
        <time>2018-02-06T11:08:46Z</time>
      </trkpt>
      <trkpt lat="45.99388" lon="4.81058">
        <ele>251</ele>
        <time>2018-02-06T11:08:47Z</time>
      </trkpt>
      <trkpt lat="45.99386" lon="4.81049">
        <ele>251</ele>
        <time>2018-02-06T11:08:48Z</time>
      </trkpt>
      <trkpt lat="45.99385" lon="4.81041">
        <ele>251</ele>
        <time>2018-02-06T11:08:49Z</time>
      </trkpt>
      <trkpt lat="45.99383" lon="4.81032">
        <ele>251</ele>
        <time>2018-02-06T11:08:50Z</time>
      </trkpt>
      <trkpt lat="45.99382" lon="4.81024">
        <ele>251</ele>
        <time>2018-02-06T11:08:51Z</time>
      </trkpt>
      <trkpt lat="45.99381" lon="4.81015">
        <ele>251</ele>
        <time>2018-02-06T11:08:52Z</time>
      </trkpt>
      <trkpt lat="45.9938" lon="4.81006">
        <ele>251</ele>
        <time>2018-02-06T11:08:53Z</time>
      </trkpt>
      <trkpt lat="45.99379" lon="4.80998">
        <ele>250</ele>
        <time>2018-02-06T11:08:54Z</time>
      </trkpt>
      <trkpt lat="45.99378" lon="4.8099">
        <ele>250</ele>
        <time>2018-02-06T11:08:55Z</time>
      </trkpt>
      <trkpt lat="45.99376" lon="4.80981">
        <ele>250</ele>
        <time>2018-02-06T11:08:56Z</time>
      </trkpt>
      <trkpt lat="45.99375" lon="4.80972">
        <ele>250</ele>
        <time>2018-02-06T11:08:57Z</time>
      </trkpt>
      <trkpt lat="45.99374" lon="4.80963">
        <ele>250</ele>
        <time>2018-02-06T11:08:58Z</time>
      </trkpt>
      <trkpt lat="45.99372" lon="4.80954">
        <ele>250</ele>
        <time>2018-02-06T11:08:59Z</time>
      </trkpt>
      <trkpt lat="45.9937" lon="4.80945">
        <ele>250</ele>
        <time>2018-02-06T11:09:00Z</time>
      </trkpt>
      <trkpt lat="45.99369" lon="4.80935">
        <ele>250</ele>
        <time>2018-02-06T11:09:01Z</time>
      </trkpt>
      <trkpt lat="45.99368" lon="4.80925">
        <ele>250</ele>
        <time>2018-02-06T11:09:02Z</time>
      </trkpt>
      <trkpt lat="45.99367" lon="4.80915">
        <ele>249</ele>
        <time>2018-02-06T11:09:03Z</time>
      </trkpt>
      <trkpt lat="45.99365" lon="4.80904">
        <ele>248</ele>
        <time>2018-02-06T11:09:04Z</time>
      </trkpt>
      <trkpt lat="45.99363" lon="4.80893">
        <ele>248</ele>
        <time>2018-02-06T11:09:05Z</time>
      </trkpt>
      <trkpt lat="45.9936" lon="4.80881">
        <ele>248</ele>
        <time>2018-02-06T11:09:06Z</time>
      </trkpt>
      <trkpt lat="45.99359" lon="4.8087">
        <ele>248</ele>
        <time>2018-02-06T11:09:07Z</time>
      </trkpt>
      <trkpt lat="45.99358" lon="4.80859">
        <ele>248</ele>
        <time>2018-02-06T11:09:08Z</time>
      </trkpt>
      <trkpt lat="45.99356" lon="4.80848">
        <ele>248</ele>
        <time>2018-02-06T11:09:09Z</time>
      </trkpt>
      <trkpt lat="45.99355" lon="4.80837">
        <ele>247</ele>
        <time>2018-02-06T11:09:10Z</time>
      </trkpt>
      <trkpt lat="45.99354" lon="4.80826">
        <ele>246</ele>
        <time>2018-02-06T11:09:11Z</time>
      </trkpt>
      <trkpt lat="45.99352" lon="4.80816">
        <ele>246</ele>
        <time>2018-02-06T11:09:12Z</time>
      </trkpt>
      <trkpt lat="45.99351" lon="4.80804">
        <ele>246</ele>
        <time>2018-02-06T11:09:13Z</time>
      </trkpt>
      <trkpt lat="45.9935" lon="4.80793">
        <ele>246</ele>
        <time>2018-02-06T11:09:14Z</time>
      </trkpt>
      <trkpt lat="45.99349" lon="4.80782">
        <ele>245</ele>
        <time>2018-02-06T11:09:15Z</time>
      </trkpt>
      <trkpt lat="45.99346" lon="4.8077">
        <ele>245</ele>
        <time>2018-02-06T11:09:16Z</time>
      </trkpt>
      <trkpt lat="45.99345" lon="4.80759">
        <ele>245</ele>
        <time>2018-02-06T11:09:17Z</time>
      </trkpt>
      <trkpt lat="45.99344" lon="4.80747">
        <ele>245</ele>
        <time>2018-02-06T11:09:18Z</time>
      </trkpt>
      <trkpt lat="45.99342" lon="4.80735">
        <ele>245</ele>
        <time>2018-02-06T11:09:19Z</time>
      </trkpt>
      <trkpt lat="45.9934" lon="4.80724">
        <ele>244</ele>
        <time>2018-02-06T11:09:20Z</time>
      </trkpt>
      <trkpt lat="45.99338" lon="4.80713">
        <ele>244</ele>
        <time>2018-02-06T11:09:21Z</time>
      </trkpt>
      <trkpt lat="45.99336" lon="4.80703">
        <ele>244</ele>
        <time>2018-02-06T11:09:22Z</time>
      </trkpt>
      <trkpt lat="45.99335" lon="4.80692">
        <ele>244</ele>
        <time>2018-02-06T11:09:23Z</time>
      </trkpt>
      <trkpt lat="45.99333" lon="4.8068">
        <ele>244</ele>
        <time>2018-02-06T11:09:24Z</time>
      </trkpt>
      <trkpt lat="45.99331" lon="4.80668">
        <ele>244</ele>
        <time>2018-02-06T11:09:25Z</time>
      </trkpt>
      <trkpt lat="45.99329" lon="4.80658">
        <ele>244</ele>
        <time>2018-02-06T11:09:26Z</time>
      </trkpt>
      <trkpt lat="45.99329" lon="4.80647">
        <ele>243</ele>
        <time>2018-02-06T11:09:27Z</time>
      </trkpt>
      <trkpt lat="45.99328" lon="4.80636">
        <ele>243</ele>
        <time>2018-02-06T11:09:28Z</time>
      </trkpt>
      <trkpt lat="45.99327" lon="4.80626">
        <ele>243</ele>
        <time>2018-02-06T11:09:29Z</time>
      </trkpt>
      <trkpt lat="45.99327" lon="4.80615">
        <ele>243</ele>
        <time>2018-02-06T11:09:30Z</time>
      </trkpt>
      <trkpt lat="45.99325" lon="4.80605">
        <ele>243</ele>
        <time>2018-02-06T11:09:31Z</time>
      </trkpt>
      <trkpt lat="45.99324" lon="4.80594">
        <ele>242</ele>
        <time>2018-02-06T11:09:32Z</time>
      </trkpt>
      <trkpt lat="45.99323" lon="4.80583">
        <ele>242</ele>
        <time>2018-02-06T11:09:33Z</time>
      </trkpt>
      <trkpt lat="45.99322" lon="4.80573">
        <ele>242</ele>
        <time>2018-02-06T11:09:34Z</time>
      </trkpt>
      <trkpt lat="45.99321" lon="4.80562">
        <ele>242</ele>
        <time>2018-02-06T11:09:35Z</time>
      </trkpt>
      <trkpt lat="45.99321" lon="4.80552">
        <ele>241</ele>
        <time>2018-02-06T11:09:36Z</time>
      </trkpt>
      <trkpt lat="45.9932" lon="4.80541">
        <ele>241</ele>
        <time>2018-02-06T11:09:37Z</time>
      </trkpt>
      <trkpt lat="45.99319" lon="4.80531">
        <ele>241</ele>
        <time>2018-02-06T11:09:38Z</time>
      </trkpt>
      <trkpt lat="45.99317" lon="4.80521">
        <ele>241</ele>
        <time>2018-02-06T11:09:39Z</time>
      </trkpt>
      <trkpt lat="45.99314" lon="4.8051">
        <ele>241</ele>
        <time>2018-02-06T11:09:40Z</time>
      </trkpt>
      <trkpt lat="45.99313" lon="4.805">
        <ele>241</ele>
        <time>2018-02-06T11:09:41Z</time>
      </trkpt>
      <trkpt lat="45.99311" lon="4.8049">
        <ele>241</ele>
        <time>2018-02-06T11:09:42Z</time>
      </trkpt>
      <trkpt lat="45.9931" lon="4.8048">
        <ele>241</ele>
        <time>2018-02-06T11:09:43Z</time>
      </trkpt>
      <trkpt lat="45.99309" lon="4.8047">
        <ele>241</ele>
        <time>2018-02-06T11:09:44Z</time>
      </trkpt>
      <trkpt lat="45.99307" lon="4.80461">
        <ele>241</ele>
        <time>2018-02-06T11:09:45Z</time>
      </trkpt>
      <trkpt lat="45.99307" lon="4.80452">
        <ele>241</ele>
        <time>2018-02-06T11:09:46Z</time>
      </trkpt>
      <trkpt lat="45.99307" lon="4.80445">
        <ele>241</ele>
        <time>2018-02-06T11:09:47Z</time>
      </trkpt>
      <trkpt lat="45.99308" lon="4.80437">
        <ele>241</ele>
        <time>2018-02-06T11:09:48Z</time>
      </trkpt>
      <trkpt lat="45.99309" lon="4.8043">
        <ele>241</ele>
        <time>2018-02-06T11:09:49Z</time>
      </trkpt>
      <trkpt lat="45.99312" lon="4.80423">
        <ele>241</ele>
        <time>2018-02-06T11:09:50Z</time>
      </trkpt>
      <trkpt lat="45.99315" lon="4.80417">
        <ele>241</ele>
        <time>2018-02-06T11:09:51Z</time>
      </trkpt>
      <trkpt lat="45.99316" lon="4.80409">
        <ele>242</ele>
        <time>2018-02-06T11:09:52Z</time>
      </trkpt>
      <trkpt lat="45.99317" lon="4.80401">
        <ele>242</ele>
        <time>2018-02-06T11:09:53Z</time>
      </trkpt>
      <trkpt lat="45.99315" lon="4.80391">
        <ele>242</ele>
        <time>2018-02-06T11:09:54Z</time>
      </trkpt>
      <trkpt lat="45.99311" lon="4.80384">
        <ele>242</ele>
        <time>2018-02-06T11:09:55Z</time>
      </trkpt>
      <trkpt lat="45.99305" lon="4.8038">
        <ele>242</ele>
        <time>2018-02-06T11:09:56Z</time>
      </trkpt>
      <trkpt lat="45.993" lon="4.80378">
        <ele>242</ele>
        <time>2018-02-06T11:09:57Z</time>
      </trkpt>
      <trkpt lat="45.99294" lon="4.80378">
        <ele>242</ele>
        <time>2018-02-06T11:09:58Z</time>
      </trkpt>
      <trkpt lat="45.99288" lon="4.80378">
        <ele>242</ele>
        <time>2018-02-06T11:09:59Z</time>
      </trkpt>
      <trkpt lat="45.99283" lon="4.80378">
        <ele>242</ele>
        <time>2018-02-06T11:10:00Z</time>
      </trkpt>
      <trkpt lat="45.99277" lon="4.80377">
        <ele>242</ele>
        <time>2018-02-06T11:10:01Z</time>
      </trkpt>
      <trkpt lat="45.99271" lon="4.80373">
        <ele>243</ele>
        <time>2018-02-06T11:10:02Z</time>
      </trkpt>
      <trkpt lat="45.99265" lon="4.80369">
        <ele>243</ele>
        <time>2018-02-06T11:10:03Z</time>
      </trkpt>
      <trkpt lat="45.99259" lon="4.80363">
        <ele>243</ele>
        <time>2018-02-06T11:10:04Z</time>
      </trkpt>
      <trkpt lat="45.99254" lon="4.80357">
        <ele>243</ele>
        <time>2018-02-06T11:10:05Z</time>
      </trkpt>
      <trkpt lat="45.9925" lon="4.8035">
        <ele>243</ele>
        <time>2018-02-06T11:10:06Z</time>
      </trkpt>
      <trkpt lat="45.99246" lon="4.80342">
        <ele>243</ele>
        <time>2018-02-06T11:10:07Z</time>
      </trkpt>
      <trkpt lat="45.99242" lon="4.80334">
        <ele>243</ele>
        <time>2018-02-06T11:10:08Z</time>
      </trkpt>
      <trkpt lat="45.99238" lon="4.80327">
        <ele>243</ele>
        <time>2018-02-06T11:10:09Z</time>
      </trkpt>
      <trkpt lat="45.99234" lon="4.80321">
        <ele>243</ele>
        <time>2018-02-06T11:10:10Z</time>
      </trkpt>
      <trkpt lat="45.99229" lon="4.80314">
        <ele>243</ele>
        <time>2018-02-06T11:10:11Z</time>
      </trkpt>
      <trkpt lat="45.99226" lon="4.80308">
        <ele>242</ele>
        <time>2018-02-06T11:10:12Z</time>
      </trkpt>
      <trkpt lat="45.99222" lon="4.80301">
        <ele>242</ele>
        <time>2018-02-06T11:10:13Z</time>
      </trkpt>
      <trkpt lat="45.99217" lon="4.80294">
        <ele>242</ele>
        <time>2018-02-06T11:10:14Z</time>
      </trkpt>
      <trkpt lat="45.99211" lon="4.80288">
        <ele>242</ele>
        <time>2018-02-06T11:10:15Z</time>
      </trkpt>
      <trkpt lat="45.99207" lon="4.80281">
        <ele>242</ele>
        <time>2018-02-06T11:10:16Z</time>
      </trkpt>
      <trkpt lat="45.99202" lon="4.80275">
        <ele>242</ele>
        <time>2018-02-06T11:10:17Z</time>
      </trkpt>
      <trkpt lat="45.99197" lon="4.80269">
        <ele>242</ele>
        <time>2018-02-06T11:10:18Z</time>
      </trkpt>
      <trkpt lat="45.99192" lon="4.80262">
        <ele>242</ele>
        <time>2018-02-06T11:10:19Z</time>
      </trkpt>
      <trkpt lat="45.99188" lon="4.80255">
        <ele>242</ele>
        <time>2018-02-06T11:10:20Z</time>
      </trkpt>
      <trkpt lat="45.99182" lon="4.80249">
        <ele>242</ele>
        <time>2018-02-06T11:10:21Z</time>
      </trkpt>
      <trkpt lat="45.99176" lon="4.80243">
        <ele>242</ele>
        <time>2018-02-06T11:10:22Z</time>
      </trkpt>
      <trkpt lat="45.9917" lon="4.80237">
        <ele>242</ele>
        <time>2018-02-06T11:10:23Z</time>
      </trkpt>
      <trkpt lat="45.99165" lon="4.80231">
        <ele>241</ele>
        <time>2018-02-06T11:10:24Z</time>
      </trkpt>
      <trkpt lat="45.99159" lon="4.80225">
        <ele>241</ele>
        <time>2018-02-06T11:10:25Z</time>
      </trkpt>
      <trkpt lat="45.99154" lon="4.80219">
        <ele>241</ele>
        <time>2018-02-06T11:10:26Z</time>
      </trkpt>
      <trkpt lat="45.99149" lon="4.80213">
        <ele>242</ele>
        <time>2018-02-06T11:10:27Z</time>
      </trkpt>
      <trkpt lat="45.99144" lon="4.80207">
        <ele>242</ele>
        <time>2018-02-06T11:10:28Z</time>
      </trkpt>
      <trkpt lat="45.99139" lon="4.80201">
        <ele>242</ele>
        <time>2018-02-06T11:10:29Z</time>
      </trkpt>
      <trkpt lat="45.99134" lon="4.80195">
        <ele>242</ele>
        <time>2018-02-06T11:10:30Z</time>
      </trkpt>
      <trkpt lat="45.99128" lon="4.80189">
        <ele>242</ele>
        <time>2018-02-06T11:10:31Z</time>
      </trkpt>
      <trkpt lat="45.99122" lon="4.80183">
        <ele>242</ele>
        <time>2018-02-06T11:10:32Z</time>
      </trkpt>
      <trkpt lat="45.99117" lon="4.80178">
        <ele>242</ele>
        <time>2018-02-06T11:10:33Z</time>
      </trkpt>
      <trkpt lat="45.99112" lon="4.80171">
        <ele>242</ele>
        <time>2018-02-06T11:10:34Z</time>
      </trkpt>
      <trkpt lat="45.99107" lon="4.80166">
        <ele>243</ele>
        <time>2018-02-06T11:10:35Z</time>
      </trkpt>
      <trkpt lat="45.99102" lon="4.8016">
        <ele>243</ele>
        <time>2018-02-06T11:10:36Z</time>
      </trkpt>
      <trkpt lat="45.99097" lon="4.80155">
        <ele>243</ele>
        <time>2018-02-06T11:10:37Z</time>
      </trkpt>
      <trkpt lat="45.99092" lon="4.8015">
        <ele>243</ele>
        <time>2018-02-06T11:10:38Z</time>
      </trkpt>
      <trkpt lat="45.99087" lon="4.80144">
        <ele>243</ele>
        <time>2018-02-06T11:10:39Z</time>
      </trkpt>
      <trkpt lat="45.99082" lon="4.80139">
        <ele>242</ele>
        <time>2018-02-06T11:10:40Z</time>
      </trkpt>
      <trkpt lat="45.99078" lon="4.80133">
        <ele>242</ele>
        <time>2018-02-06T11:10:41Z</time>
      </trkpt>
      <trkpt lat="45.99073" lon="4.80129">
        <ele>242</ele>
        <time>2018-02-06T11:10:42Z</time>
      </trkpt>
      <trkpt lat="45.99069" lon="4.80123">
        <ele>242</ele>
        <time>2018-02-06T11:10:43Z</time>
      </trkpt>
      <trkpt lat="45.99064" lon="4.80118">
        <ele>242</ele>
        <time>2018-02-06T11:10:44Z</time>
      </trkpt>
      <trkpt lat="45.9906" lon="4.80113">
        <ele>242</ele>
        <time>2018-02-06T11:10:45Z</time>
      </trkpt>
      <trkpt lat="45.99056" lon="4.80107">
        <ele>242</ele>
        <time>2018-02-06T11:10:46Z</time>
      </trkpt>
      <trkpt lat="45.99051" lon="4.80103">
        <ele>242</ele>
        <time>2018-02-06T11:10:47Z</time>
      </trkpt>
      <trkpt lat="45.99047" lon="4.80098">
        <ele>242</ele>
        <time>2018-02-06T11:10:48Z</time>
      </trkpt>
      <trkpt lat="45.99043" lon="4.80092">
        <ele>242</ele>
        <time>2018-02-06T11:10:49Z</time>
      </trkpt>
      <trkpt lat="45.99039" lon="4.80087">
        <ele>242</ele>
        <time>2018-02-06T11:10:50Z</time>
      </trkpt>
      <trkpt lat="45.99034" lon="4.80083">
        <ele>243</ele>
        <time>2018-02-06T11:10:51Z</time>
      </trkpt>
      <trkpt lat="45.99029" lon="4.80078">
        <ele>243</ele>
        <time>2018-02-06T11:10:52Z</time>
      </trkpt>
      <trkpt lat="45.99026" lon="4.80073">
        <ele>243</ele>
        <time>2018-02-06T11:10:53Z</time>
      </trkpt>
      <trkpt lat="45.99022" lon="4.80068">
        <ele>243</ele>
        <time>2018-02-06T11:10:54Z</time>
      </trkpt>
      <trkpt lat="45.99018" lon="4.80063">
        <ele>243</ele>
        <time>2018-02-06T11:10:55Z</time>
      </trkpt>
      <trkpt lat="45.99014" lon="4.80058">
        <ele>243</ele>
        <time>2018-02-06T11:10:56Z</time>
      </trkpt>
      <trkpt lat="45.9901" lon="4.80053">
        <ele>243</ele>
        <time>2018-02-06T11:10:57Z</time>
      </trkpt>
      <trkpt lat="45.99005" lon="4.80048">
        <ele>244</ele>
        <time>2018-02-06T11:10:58Z</time>
      </trkpt>
      <trkpt lat="45.99" lon="4.80043">
        <ele>242</ele>
        <time>2018-02-06T11:10:59Z</time>
      </trkpt>
      <trkpt lat="45.98995" lon="4.80038">
        <ele>242</ele>
        <time>2018-02-06T11:11:00Z</time>
      </trkpt>
      <trkpt lat="45.98991" lon="4.80033">
        <ele>242</ele>
        <time>2018-02-06T11:11:01Z</time>
      </trkpt>
      <trkpt lat="45.98986" lon="4.80028">
        <ele>242</ele>
        <time>2018-02-06T11:11:02Z</time>
      </trkpt>
      <trkpt lat="45.98982" lon="4.80023">
        <ele>243</ele>
        <time>2018-02-06T11:11:03Z</time>
      </trkpt>
      <trkpt lat="45.98977" lon="4.80018">
        <ele>243</ele>
        <time>2018-02-06T11:11:04Z</time>
      </trkpt>
      <trkpt lat="45.98973" lon="4.80013">
        <ele>243</ele>
        <time>2018-02-06T11:11:05Z</time>
      </trkpt>
      <trkpt lat="45.98968" lon="4.80008">
        <ele>242</ele>
        <time>2018-02-06T11:11:06Z</time>
      </trkpt>
      <trkpt lat="45.98964" lon="4.80004">
        <ele>242</ele>
        <time>2018-02-06T11:11:07Z</time>
      </trkpt>
      <trkpt lat="45.98959" lon="4.79999">
        <ele>245</ele>
        <time>2018-02-06T11:11:08Z</time>
      </trkpt>
      <trkpt lat="45.98955" lon="4.79994">
        <ele>245</ele>
        <time>2018-02-06T11:11:09Z</time>
      </trkpt>
      <trkpt lat="45.98951" lon="4.79989">
        <ele>244</ele>
        <time>2018-02-06T11:11:10Z</time>
      </trkpt>
      <trkpt lat="45.98947" lon="4.79984">
        <ele>244</ele>
        <time>2018-02-06T11:11:11Z</time>
      </trkpt>
      <trkpt lat="45.98943" lon="4.79979">
        <ele>244</ele>
        <time>2018-02-06T11:11:12Z</time>
      </trkpt>
      <trkpt lat="45.98938" lon="4.79974">
        <ele>244</ele>
        <time>2018-02-06T11:11:13Z</time>
      </trkpt>
      <trkpt lat="45.98934" lon="4.7997">
        <ele>244</ele>
        <time>2018-02-06T11:11:14Z</time>
      </trkpt>
      <trkpt lat="45.9893" lon="4.79965">
        <ele>245</ele>
        <time>2018-02-06T11:11:15Z</time>
      </trkpt>
      <trkpt lat="45.98925" lon="4.7996">
        <ele>245</ele>
        <time>2018-02-06T11:11:16Z</time>
      </trkpt>
      <trkpt lat="45.9892" lon="4.79955">
        <ele>245</ele>
        <time>2018-02-06T11:11:17Z</time>
      </trkpt>
      <trkpt lat="45.98915" lon="4.7995">
        <ele>243</ele>
        <time>2018-02-06T11:11:18Z</time>
      </trkpt>
      <trkpt lat="45.98911" lon="4.79946">
        <ele>243</ele>
        <time>2018-02-06T11:11:19Z</time>
      </trkpt>
      <trkpt lat="45.98907" lon="4.79941">
        <ele>243</ele>
        <time>2018-02-06T11:11:20Z</time>
      </trkpt>
      <trkpt lat="45.98902" lon="4.79936">
        <ele>243</ele>
        <time>2018-02-06T11:11:21Z</time>
      </trkpt>
      <trkpt lat="45.98897" lon="4.79931">
        <ele>243</ele>
        <time>2018-02-06T11:11:22Z</time>
      </trkpt>
      <trkpt lat="45.98893" lon="4.79925">
        <ele>243</ele>
        <time>2018-02-06T11:11:23Z</time>
      </trkpt>
      <trkpt lat="45.98889" lon="4.7992">
        <ele>243</ele>
        <time>2018-02-06T11:11:24Z</time>
      </trkpt>
      <trkpt lat="45.98883" lon="4.79914">
        <ele>244</ele>
        <time>2018-02-06T11:11:25Z</time>
      </trkpt>
      <trkpt lat="45.98878" lon="4.79909">
        <ele>244</ele>
        <time>2018-02-06T11:11:26Z</time>
      </trkpt>
      <trkpt lat="45.98876" lon="4.79894">
        <ele>244</ele>
        <time>2018-02-06T11:11:27Z</time>
      </trkpt>
      <trkpt lat="45.98869" lon="4.7989">
        <ele>243</ele>
        <time>2018-02-06T11:11:28Z</time>
      </trkpt>
      <trkpt lat="45.98865" lon="4.79882">
        <ele>243</ele>
        <time>2018-02-06T11:11:29Z</time>
      </trkpt>
      <trkpt lat="45.9886" lon="4.79878">
        <ele>243</ele>
        <time>2018-02-06T11:11:30Z</time>
      </trkpt>
      <trkpt lat="45.98856" lon="4.79873">
        <ele>244</ele>
        <time>2018-02-06T11:11:31Z</time>
      </trkpt>
      <trkpt lat="45.98851" lon="4.79867">
        <ele>244</ele>
        <time>2018-02-06T11:11:32Z</time>
      </trkpt>
      <trkpt lat="45.98846" lon="4.79861">
        <ele>244</ele>
        <time>2018-02-06T11:11:33Z</time>
      </trkpt>
      <trkpt lat="45.98842" lon="4.79855">
        <ele>244</ele>
        <time>2018-02-06T11:11:34Z</time>
      </trkpt>
      <trkpt lat="45.98838" lon="4.79848">
        <ele>244</ele>
        <time>2018-02-06T11:11:35Z</time>
      </trkpt>
      <trkpt lat="45.98833" lon="4.79843">
        <ele>244</ele>
        <time>2018-02-06T11:11:36Z</time>
      </trkpt>
      <trkpt lat="45.98827" lon="4.79837">
        <ele>244</ele>
        <time>2018-02-06T11:11:37Z</time>
      </trkpt>
      <trkpt lat="45.98824" lon="4.79831">
        <ele>244</ele>
        <time>2018-02-06T11:11:38Z</time>
      </trkpt>
      <trkpt lat="45.98818" lon="4.79825">
        <ele>245</ele>
        <time>2018-02-06T11:11:39Z</time>
      </trkpt>
      <trkpt lat="45.98813" lon="4.79819">
        <ele>245</ele>
        <time>2018-02-06T11:11:40Z</time>
      </trkpt>
      <trkpt lat="45.98809" lon="4.79815">
        <ele>245</ele>
        <time>2018-02-06T11:11:41Z</time>
      </trkpt>
      <trkpt lat="45.98804" lon="4.7981">
        <ele>245</ele>
        <time>2018-02-06T11:11:42Z</time>
      </trkpt>
      <trkpt lat="45.98799" lon="4.79805">
        <ele>245</ele>
        <time>2018-02-06T11:11:43Z</time>
      </trkpt>
      <trkpt lat="45.98793" lon="4.798">
        <ele>245</ele>
        <time>2018-02-06T11:11:44Z</time>
      </trkpt>
      <trkpt lat="45.98789" lon="4.79794">
        <ele>245</ele>
        <time>2018-02-06T11:11:45Z</time>
      </trkpt>
      <trkpt lat="45.98785" lon="4.79788">
        <ele>245</ele>
        <time>2018-02-06T11:11:46Z</time>
      </trkpt>
      <trkpt lat="45.98781" lon="4.79783">
        <ele>245</ele>
        <time>2018-02-06T11:11:47Z</time>
      </trkpt>
      <trkpt lat="45.98777" lon="4.79778">
        <ele>245</ele>
        <time>2018-02-06T11:11:48Z</time>
      </trkpt>
      <trkpt lat="45.98773" lon="4.79773">
        <ele>245</ele>
        <time>2018-02-06T11:11:49Z</time>
      </trkpt>
      <trkpt lat="45.98769" lon="4.79768">
        <ele>245</ele>
        <time>2018-02-06T11:11:50Z</time>
      </trkpt>
      <trkpt lat="45.98764" lon="4.79764">
        <ele>245</ele>
        <time>2018-02-06T11:11:51Z</time>
      </trkpt>
      <trkpt lat="45.98759" lon="4.7976">
        <ele>245</ele>
        <time>2018-02-06T11:11:52Z</time>
      </trkpt>
      <trkpt lat="45.98754" lon="4.79756">
        <ele>245</ele>
        <time>2018-02-06T11:11:53Z</time>
      </trkpt>
      <trkpt lat="45.98748" lon="4.79751">
        <ele>245</ele>
        <time>2018-02-06T11:11:54Z</time>
      </trkpt>
      <trkpt lat="45.98744" lon="4.79748">
        <ele>245</ele>
        <time>2018-02-06T11:11:55Z</time>
      </trkpt>
      <trkpt lat="45.98739" lon="4.79744">
        <ele>245</ele>
        <time>2018-02-06T11:11:56Z</time>
      </trkpt>
      <trkpt lat="45.98734" lon="4.79741">
        <ele>245</ele>
        <time>2018-02-06T11:11:57Z</time>
      </trkpt>
      <trkpt lat="45.9873" lon="4.79737">
        <ele>245</ele>
        <time>2018-02-06T11:11:58Z</time>
      </trkpt>
      <trkpt lat="45.98726" lon="4.79732">
        <ele>245</ele>
        <time>2018-02-06T11:11:59Z</time>
      </trkpt>
      <trkpt lat="45.9872" lon="4.79729">
        <ele>245</ele>
        <time>2018-02-06T11:12:00Z</time>
      </trkpt>
      <trkpt lat="45.98715" lon="4.79726">
        <ele>245</ele>
        <time>2018-02-06T11:12:01Z</time>
      </trkpt>
      <trkpt lat="45.9871" lon="4.79723">
        <ele>245</ele>
        <time>2018-02-06T11:12:02Z</time>
      </trkpt>
      <trkpt lat="45.98706" lon="4.7972">
        <ele>245</ele>
        <time>2018-02-06T11:12:03Z</time>
      </trkpt>
      <trkpt lat="45.987" lon="4.79718">
        <ele>245</ele>
        <time>2018-02-06T11:12:04Z</time>
      </trkpt>
      <trkpt lat="45.98696" lon="4.79715">
        <ele>245</ele>
        <time>2018-02-06T11:12:05Z</time>
      </trkpt>
      <trkpt lat="45.98689" lon="4.79715">
        <ele>245</ele>
        <time>2018-02-06T11:12:06Z</time>
      </trkpt>
      <trkpt lat="45.98684" lon="4.79712">
        <ele>245</ele>
        <time>2018-02-06T11:12:07Z</time>
      </trkpt>
      <trkpt lat="45.9868" lon="4.7971">
        <ele>245</ele>
        <time>2018-02-06T11:12:08Z</time>
      </trkpt>
      <trkpt lat="45.98674" lon="4.79708">
        <ele>245</ele>
        <time>2018-02-06T11:12:09Z</time>
      </trkpt>
      <trkpt lat="45.98669" lon="4.79705">
        <ele>245</ele>
        <time>2018-02-06T11:12:10Z</time>
      </trkpt>
      <trkpt lat="45.98664" lon="4.79701">
        <ele>245</ele>
        <time>2018-02-06T11:12:11Z</time>
      </trkpt>
      <trkpt lat="45.98659" lon="4.79697">
        <ele>245</ele>
        <time>2018-02-06T11:12:12Z</time>
      </trkpt>
      <trkpt lat="45.98654" lon="4.79691">
        <ele>245</ele>
        <time>2018-02-06T11:12:13Z</time>
      </trkpt>
      <trkpt lat="45.98649" lon="4.79686">
        <ele>245</ele>
        <time>2018-02-06T11:12:14Z</time>
      </trkpt>
      <trkpt lat="45.98645" lon="4.79681">
        <ele>245</ele>
        <time>2018-02-06T11:12:15Z</time>
      </trkpt>
      <trkpt lat="45.98641" lon="4.79675">
        <ele>245</ele>
        <time>2018-02-06T11:12:16Z</time>
      </trkpt>
      <trkpt lat="45.98639" lon="4.7967">
        <ele>245</ele>
        <time>2018-02-06T11:12:17Z</time>
      </trkpt>
      <trkpt lat="45.98636" lon="4.79664">
        <ele>245</ele>
        <time>2018-02-06T11:12:18Z</time>
      </trkpt>
      <trkpt lat="45.98634" lon="4.79656">
        <ele>245</ele>
        <time>2018-02-06T11:12:19Z</time>
      </trkpt>
      <trkpt lat="45.98632" lon="4.79651">
        <ele>245</ele>
        <time>2018-02-06T11:12:20Z</time>
      </trkpt>
      <trkpt lat="45.9863" lon="4.79644">
        <ele>245</ele>
        <time>2018-02-06T11:12:21Z</time>
      </trkpt>
      <trkpt lat="45.98628" lon="4.79639">
        <ele>245</ele>
        <time>2018-02-06T11:12:22Z</time>
      </trkpt>
      <trkpt lat="45.98626" lon="4.79632">
        <ele>245</ele>
        <time>2018-02-06T11:12:23Z</time>
      </trkpt>
      <trkpt lat="45.98624" lon="4.79625">
        <ele>245</ele>
        <time>2018-02-06T11:12:24Z</time>
      </trkpt>
      <trkpt lat="45.98624" lon="4.79617">
        <ele>245</ele>
        <time>2018-02-06T11:12:25Z</time>
      </trkpt>
      <trkpt lat="45.98624" lon="4.7961">
        <ele>245</ele>
        <time>2018-02-06T11:12:26Z</time>
      </trkpt>
      <trkpt lat="45.98623" lon="4.79603">
        <ele>245</ele>
        <time>2018-02-06T11:12:27Z</time>
      </trkpt>
      <trkpt lat="45.98622" lon="4.79596">
        <ele>245</ele>
        <time>2018-02-06T11:12:28Z</time>
      </trkpt>
      <trkpt lat="45.98619" lon="4.7959">
        <ele>245</ele>
        <time>2018-02-06T11:12:29Z</time>
      </trkpt>
      <trkpt lat="45.98615" lon="4.79584">
        <ele>245</ele>
        <time>2018-02-06T11:12:30Z</time>
      </trkpt>
      <trkpt lat="45.98611" lon="4.79579">
        <ele>245</ele>
        <time>2018-02-06T11:12:31Z</time>
      </trkpt>
      <trkpt lat="45.98605" lon="4.79577">
        <ele>245</ele>
        <time>2018-02-06T11:12:32Z</time>
      </trkpt>
      <trkpt lat="45.986" lon="4.79578">
        <ele>245</ele>
        <time>2018-02-06T11:12:33Z</time>
      </trkpt>
      <trkpt lat="45.98594" lon="4.79579">
        <ele>245</ele>
        <time>2018-02-06T11:12:34Z</time>
      </trkpt>
      <trkpt lat="45.98588" lon="4.7958">
        <ele>245</ele>
        <time>2018-02-06T11:12:35Z</time>
      </trkpt>
      <trkpt lat="45.98583" lon="4.79581">
        <ele>245</ele>
        <time>2018-02-06T11:12:36Z</time>
      </trkpt>
      <trkpt lat="45.98577" lon="4.79579">
        <ele>245</ele>
        <time>2018-02-06T11:12:37Z</time>
      </trkpt>
      <trkpt lat="45.98571" lon="4.79576">
        <ele>245</ele>
        <time>2018-02-06T11:12:38Z</time>
      </trkpt>
      <trkpt lat="45.98565" lon="4.79573">
        <ele>244</ele>
        <time>2018-02-06T11:12:39Z</time>
      </trkpt>
      <trkpt lat="45.9856" lon="4.79568">
        <ele>244</ele>
        <time>2018-02-06T11:12:40Z</time>
      </trkpt>
      <trkpt lat="45.98555" lon="4.79563">
        <ele>244</ele>
        <time>2018-02-06T11:12:41Z</time>
      </trkpt>
      <trkpt lat="45.98549" lon="4.79558">
        <ele>244</ele>
        <time>2018-02-06T11:12:42Z</time>
      </trkpt>
      <trkpt lat="45.98544" lon="4.79552">
        <ele>244</ele>
        <time>2018-02-06T11:12:43Z</time>
      </trkpt>
      <trkpt lat="45.9854" lon="4.79545">
        <ele>244</ele>
        <time>2018-02-06T11:12:44Z</time>
      </trkpt>
      <trkpt lat="45.98537" lon="4.79538">
        <ele>244</ele>
        <time>2018-02-06T11:12:45Z</time>
      </trkpt>
      <trkpt lat="45.98534" lon="4.79529">
        <ele>244</ele>
        <time>2018-02-06T11:12:46Z</time>
      </trkpt>
      <trkpt lat="45.98531" lon="4.79521">
        <ele>244</ele>
        <time>2018-02-06T11:12:47Z</time>
      </trkpt>
      <trkpt lat="45.9853" lon="4.79512">
        <ele>244</ele>
        <time>2018-02-06T11:12:48Z</time>
      </trkpt>
      <trkpt lat="45.98528" lon="4.79504">
        <ele>244</ele>
        <time>2018-02-06T11:12:49Z</time>
      </trkpt>
      <trkpt lat="45.98526" lon="4.79496">
        <ele>244</ele>
        <time>2018-02-06T11:12:50Z</time>
      </trkpt>
      <trkpt lat="45.98525" lon="4.79488">
        <ele>244</ele>
        <time>2018-02-06T11:12:51Z</time>
      </trkpt>
      <trkpt lat="45.98523" lon="4.7948">
        <ele>244</ele>
        <time>2018-02-06T11:12:52Z</time>
      </trkpt>
      <trkpt lat="45.98522" lon="4.79471">
        <ele>244</ele>
        <time>2018-02-06T11:12:53Z</time>
      </trkpt>
      <trkpt lat="45.98522" lon="4.79461">
        <ele>244</ele>
        <time>2018-02-06T11:12:54Z</time>
      </trkpt>
      <trkpt lat="45.98522" lon="4.79452">
        <ele>244</ele>
        <time>2018-02-06T11:12:55Z</time>
      </trkpt>
      <trkpt lat="45.98522" lon="4.79444">
        <ele>244</ele>
        <time>2018-02-06T11:12:56Z</time>
      </trkpt>
      <trkpt lat="45.98522" lon="4.79436">
        <ele>244</ele>
        <time>2018-02-06T11:12:57Z</time>
      </trkpt>
      <trkpt lat="45.98524" lon="4.79428">
        <ele>244</ele>
        <time>2018-02-06T11:12:58Z</time>
      </trkpt>
      <trkpt lat="45.98523" lon="4.79419">
        <ele>244</ele>
        <time>2018-02-06T11:12:59Z</time>
      </trkpt>
      <trkpt lat="45.98521" lon="4.79409">
        <ele>244</ele>
        <time>2018-02-06T11:13:00Z</time>
      </trkpt>
      <trkpt lat="45.9852" lon="4.794">
        <ele>244</ele>
        <time>2018-02-06T11:13:01Z</time>
      </trkpt>
      <trkpt lat="45.98519" lon="4.79392">
        <ele>244</ele>
        <time>2018-02-06T11:13:02Z</time>
      </trkpt>
      <trkpt lat="45.98517" lon="4.79383">
        <ele>244</ele>
        <time>2018-02-06T11:13:03Z</time>
      </trkpt>
      <trkpt lat="45.98515" lon="4.79374">
        <ele>243</ele>
        <time>2018-02-06T11:13:04Z</time>
      </trkpt>
      <trkpt lat="45.98513" lon="4.79363">
        <ele>243</ele>
        <time>2018-02-06T11:13:05Z</time>
      </trkpt>
      <trkpt lat="45.98512" lon="4.79354">
        <ele>243</ele>
        <time>2018-02-06T11:13:06Z</time>
      </trkpt>
      <trkpt lat="45.98509" lon="4.79345">
        <ele>243</ele>
        <time>2018-02-06T11:13:07Z</time>
      </trkpt>
      <trkpt lat="45.98507" lon="4.79336">
        <ele>243</ele>
        <time>2018-02-06T11:13:08Z</time>
      </trkpt>
      <trkpt lat="45.98504" lon="4.79326">
        <ele>243</ele>
        <time>2018-02-06T11:13:09Z</time>
      </trkpt>
      <trkpt lat="45.98502" lon="4.79317">
        <ele>243</ele>
        <time>2018-02-06T11:13:10Z</time>
      </trkpt>
      <trkpt lat="45.98499" lon="4.79307">
        <ele>243</ele>
        <time>2018-02-06T11:13:11Z</time>
      </trkpt>
      <trkpt lat="45.98495" lon="4.79298">
        <ele>243</ele>
        <time>2018-02-06T11:13:12Z</time>
      </trkpt>
      <trkpt lat="45.98491" lon="4.79289">
        <ele>243</ele>
        <time>2018-02-06T11:13:13Z</time>
      </trkpt>
      <trkpt lat="45.98487" lon="4.79281">
        <ele>243</ele>
        <time>2018-02-06T11:13:14Z</time>
      </trkpt>
      <trkpt lat="45.98484" lon="4.79273">
        <ele>243</ele>
        <time>2018-02-06T11:13:15Z</time>
      </trkpt>
      <trkpt lat="45.9848" lon="4.79265">
        <ele>243</ele>
        <time>2018-02-06T11:13:16Z</time>
      </trkpt>
      <trkpt lat="45.98476" lon="4.79257">
        <ele>243</ele>
        <time>2018-02-06T11:13:17Z</time>
      </trkpt>
      <trkpt lat="45.98473" lon="4.79249">
        <ele>243</ele>
        <time>2018-02-06T11:13:18Z</time>
      </trkpt>
      <trkpt lat="45.98468" lon="4.79242">
        <ele>243</ele>
        <time>2018-02-06T11:13:19Z</time>
      </trkpt>
      <trkpt lat="45.98464" lon="4.79235">
        <ele>243</ele>
        <time>2018-02-06T11:13:20Z</time>
      </trkpt>
      <trkpt lat="45.9846" lon="4.79228">
        <ele>243</ele>
        <time>2018-02-06T11:13:21Z</time>
      </trkpt>
      <trkpt lat="45.98456" lon="4.79221">
        <ele>243</ele>
        <time>2018-02-06T11:13:22Z</time>
      </trkpt>
      <trkpt lat="45.98452" lon="4.79213">
        <ele>242</ele>
        <time>2018-02-06T11:13:23Z</time>
      </trkpt>
      <trkpt lat="45.98447" lon="4.79207">
        <ele>242</ele>
        <time>2018-02-06T11:13:24Z</time>
      </trkpt>
      <trkpt lat="45.98443" lon="4.79201">
        <ele>242</ele>
        <time>2018-02-06T11:13:25Z</time>
      </trkpt>
      <trkpt lat="45.98439" lon="4.79194">
        <ele>242</ele>
        <time>2018-02-06T11:13:26Z</time>
      </trkpt>
      <trkpt lat="45.98436" lon="4.79185">
        <ele>242</ele>
        <time>2018-02-06T11:13:27Z</time>
      </trkpt>
      <trkpt lat="45.98431" lon="4.79179">
        <ele>242</ele>
        <time>2018-02-06T11:13:28Z</time>
      </trkpt>
      <trkpt lat="45.98428" lon="4.79173">
        <ele>242</ele>
        <time>2018-02-06T11:13:29Z</time>
      </trkpt>
      <trkpt lat="45.98424" lon="4.79166">
        <ele>242</ele>
        <time>2018-02-06T11:13:30Z</time>
      </trkpt>
      <trkpt lat="45.98421" lon="4.7916">
        <ele>242</ele>
        <time>2018-02-06T11:13:31Z</time>
      </trkpt>
      <trkpt lat="45.98417" lon="4.79154">
        <ele>242</ele>
        <time>2018-02-06T11:13:32Z</time>
      </trkpt>
      <trkpt lat="45.98414" lon="4.79148">
        <ele>242</ele>
        <time>2018-02-06T11:13:33Z</time>
      </trkpt>
      <trkpt lat="45.9841" lon="4.79139">
        <ele>242</ele>
        <time>2018-02-06T11:13:34Z</time>
      </trkpt>
      <trkpt lat="45.98407" lon="4.79133">
        <ele>242</ele>
        <time>2018-02-06T11:13:35Z</time>
      </trkpt>
      <trkpt lat="45.98403" lon="4.79126">
        <ele>242</ele>
        <time>2018-02-06T11:13:36Z</time>
      </trkpt>
      <trkpt lat="45.98399" lon="4.79121">
        <ele>242</ele>
        <time>2018-02-06T11:13:37Z</time>
      </trkpt>
      <trkpt lat="45.98396" lon="4.79114">
        <ele>242</ele>
        <time>2018-02-06T11:13:38Z</time>
      </trkpt>
      <trkpt lat="45.98392" lon="4.79108">
        <ele>242</ele>
        <time>2018-02-06T11:13:39Z</time>
      </trkpt>
      <trkpt lat="45.98388" lon="4.79102">
        <ele>242</ele>
        <time>2018-02-06T11:13:40Z</time>
      </trkpt>
      <trkpt lat="45.98385" lon="4.79096">
        <ele>242</ele>
        <time>2018-02-06T11:13:41Z</time>
      </trkpt>
      <trkpt lat="45.98381" lon="4.79089">
        <ele>242</ele>
        <time>2018-02-06T11:13:42Z</time>
      </trkpt>
      <trkpt lat="45.98378" lon="4.79084">
        <ele>242</ele>
        <time>2018-02-06T11:13:43Z</time>
      </trkpt>
      <trkpt lat="45.98374" lon="4.79077">
        <ele>242</ele>
        <time>2018-02-06T11:13:44Z</time>
      </trkpt>
      <trkpt lat="45.98371" lon="4.7907">
        <ele>242</ele>
        <time>2018-02-06T11:13:45Z</time>
      </trkpt>
      <trkpt lat="45.98368" lon="4.79063">
        <ele>242</ele>
        <time>2018-02-06T11:13:46Z</time>
      </trkpt>
      <trkpt lat="45.98364" lon="4.79057">
        <ele>242</ele>
        <time>2018-02-06T11:13:47Z</time>
      </trkpt>
      <trkpt lat="45.98361" lon="4.79049">
        <ele>242</ele>
        <time>2018-02-06T11:13:48Z</time>
      </trkpt>
      <trkpt lat="45.98357" lon="4.79043">
        <ele>242</ele>
        <time>2018-02-06T11:13:49Z</time>
      </trkpt>
      <trkpt lat="45.98353" lon="4.79037">
        <ele>242</ele>
        <time>2018-02-06T11:13:50Z</time>
      </trkpt>
      <trkpt lat="45.98348" lon="4.79031">
        <ele>242</ele>
        <time>2018-02-06T11:13:51Z</time>
      </trkpt>
      <trkpt lat="45.98344" lon="4.79026">
        <ele>242</ele>
        <time>2018-02-06T11:13:52Z</time>
      </trkpt>
      <trkpt lat="45.98338" lon="4.79021">
        <ele>242</ele>
        <time>2018-02-06T11:13:53Z</time>
      </trkpt>
      <trkpt lat="45.98333" lon="4.79017">
        <ele>242</ele>
        <time>2018-02-06T11:13:54Z</time>
      </trkpt>
      <trkpt lat="45.98327" lon="4.79013">
        <ele>242</ele>
        <time>2018-02-06T11:13:55Z</time>
      </trkpt>
      <trkpt lat="45.98321" lon="4.79008">
        <ele>242</ele>
        <time>2018-02-06T11:13:56Z</time>
      </trkpt>
      <trkpt lat="45.98313" lon="4.79006">
        <ele>242</ele>
        <time>2018-02-06T11:13:57Z</time>
      </trkpt>
      <trkpt lat="45.98309" lon="4.79001">
        <ele>242</ele>
        <time>2018-02-06T11:13:58Z</time>
      </trkpt>
      <trkpt lat="45.98304" lon="4.78997">
        <ele>241</ele>
        <time>2018-02-06T11:13:59Z</time>
      </trkpt>
      <trkpt lat="45.98298" lon="4.78993">
        <ele>241</ele>
        <time>2018-02-06T11:14:00Z</time>
      </trkpt>
      <trkpt lat="45.98291" lon="4.78989">
        <ele>241</ele>
        <time>2018-02-06T11:14:01Z</time>
      </trkpt>
      <trkpt lat="45.98286" lon="4.78986">
        <ele>241</ele>
        <time>2018-02-06T11:14:02Z</time>
      </trkpt>
      <trkpt lat="45.98279" lon="4.78983">
        <ele>241</ele>
        <time>2018-02-06T11:14:03Z</time>
      </trkpt>
      <trkpt lat="45.98273" lon="4.78981">
        <ele>241</ele>
        <time>2018-02-06T11:14:04Z</time>
      </trkpt>
      <trkpt lat="45.98268" lon="4.78978">
        <ele>241</ele>
        <time>2018-02-06T11:14:05Z</time>
      </trkpt>
      <trkpt lat="45.98262" lon="4.78974">
        <ele>241</ele>
        <time>2018-02-06T11:14:06Z</time>
      </trkpt>
      <trkpt lat="45.98256" lon="4.78971">
        <ele>241</ele>
        <time>2018-02-06T11:14:07Z</time>
      </trkpt>
      <trkpt lat="45.9825" lon="4.78968">
        <ele>241</ele>
        <time>2018-02-06T11:14:08Z</time>
      </trkpt>
      <trkpt lat="45.98244" lon="4.78965">
        <ele>241</ele>
        <time>2018-02-06T11:14:09Z</time>
      </trkpt>
      <trkpt lat="45.98239" lon="4.78962">
        <ele>241</ele>
        <time>2018-02-06T11:14:10Z</time>
      </trkpt>
      <trkpt lat="45.98235" lon="4.78958">
        <ele>241</ele>
        <time>2018-02-06T11:14:11Z</time>
      </trkpt>
      <trkpt lat="45.98229" lon="4.78954">
        <ele>241</ele>
        <time>2018-02-06T11:14:12Z</time>
      </trkpt>
      <trkpt lat="45.98223" lon="4.7895">
        <ele>241</ele>
        <time>2018-02-06T11:14:13Z</time>
      </trkpt>
      <trkpt lat="45.98218" lon="4.78947">
        <ele>241</ele>
        <time>2018-02-06T11:14:14Z</time>
      </trkpt>
      <trkpt lat="45.98213" lon="4.78944">
        <ele>241</ele>
        <time>2018-02-06T11:14:15Z</time>
      </trkpt>
      <trkpt lat="45.98207" lon="4.78941">
        <ele>241</ele>
        <time>2018-02-06T11:14:16Z</time>
      </trkpt>
      <trkpt lat="45.98202" lon="4.78938">
        <ele>241</ele>
        <time>2018-02-06T11:14:17Z</time>
      </trkpt>
      <trkpt lat="45.98196" lon="4.78935">
        <ele>241</ele>
        <time>2018-02-06T11:14:18Z</time>
      </trkpt>
      <trkpt lat="45.98191" lon="4.78932">
        <ele>241</ele>
        <time>2018-02-06T11:14:19Z</time>
      </trkpt>
      <trkpt lat="45.98185" lon="4.78929">
        <ele>241</ele>
        <time>2018-02-06T11:14:20Z</time>
      </trkpt>
      <trkpt lat="45.9818" lon="4.78925">
        <ele>240</ele>
        <time>2018-02-06T11:14:21Z</time>
      </trkpt>
      <trkpt lat="45.98175" lon="4.78921">
        <ele>240</ele>
        <time>2018-02-06T11:14:22Z</time>
      </trkpt>
      <trkpt lat="45.98169" lon="4.78918">
        <ele>240</ele>
        <time>2018-02-06T11:14:23Z</time>
      </trkpt>
      <trkpt lat="45.98163" lon="4.78915">
        <ele>240</ele>
        <time>2018-02-06T11:14:24Z</time>
      </trkpt>
      <trkpt lat="45.98157" lon="4.78912">
        <ele>240</ele>
        <time>2018-02-06T11:14:25Z</time>
      </trkpt>
      <trkpt lat="45.98151" lon="4.78909">
        <ele>240</ele>
        <time>2018-02-06T11:14:26Z</time>
      </trkpt>
      <trkpt lat="45.98145" lon="4.78905">
        <ele>240</ele>
        <time>2018-02-06T11:14:27Z</time>
      </trkpt>
      <trkpt lat="45.98142" lon="4.78901">
        <ele>240</ele>
        <time>2018-02-06T11:14:28Z</time>
      </trkpt>
      <trkpt lat="45.98137" lon="4.78898">
        <ele>240</ele>
        <time>2018-02-06T11:14:29Z</time>
      </trkpt>
      <trkpt lat="45.98131" lon="4.78895">
        <ele>240</ele>
        <time>2018-02-06T11:14:30Z</time>
      </trkpt>
      <trkpt lat="45.98127" lon="4.78891">
        <ele>240</ele>
        <time>2018-02-06T11:14:31Z</time>
      </trkpt>
      <trkpt lat="45.9812" lon="4.78889">
        <ele>240</ele>
        <time>2018-02-06T11:14:32Z</time>
      </trkpt>
      <trkpt lat="45.98113" lon="4.78886">
        <ele>240</ele>
        <time>2018-02-06T11:14:33Z</time>
      </trkpt>
      <trkpt lat="45.98108" lon="4.78882">
        <ele>240</ele>
        <time>2018-02-06T11:14:34Z</time>
      </trkpt>
      <trkpt lat="45.98101" lon="4.7888">
        <ele>240</ele>
        <time>2018-02-06T11:14:35Z</time>
      </trkpt>
      <trkpt lat="45.98095" lon="4.78877">
        <ele>240</ele>
        <time>2018-02-06T11:14:36Z</time>
      </trkpt>
      <trkpt lat="45.98088" lon="4.78873">
        <ele>239</ele>
        <time>2018-02-06T11:14:37Z</time>
      </trkpt>
      <trkpt lat="45.98083" lon="4.78869">
        <ele>239</ele>
        <time>2018-02-06T11:14:38Z</time>
      </trkpt>
      <trkpt lat="45.98077" lon="4.78865">
        <ele>239</ele>
        <time>2018-02-06T11:14:39Z</time>
      </trkpt>
      <trkpt lat="45.98072" lon="4.78862">
        <ele>239</ele>
        <time>2018-02-06T11:14:40Z</time>
      </trkpt>
      <trkpt lat="45.98066" lon="4.78858">
        <ele>239</ele>
        <time>2018-02-06T11:14:41Z</time>
      </trkpt>
      <trkpt lat="45.98062" lon="4.78854">
        <ele>239</ele>
        <time>2018-02-06T11:14:42Z</time>
      </trkpt>
      <trkpt lat="45.98056" lon="4.7885">
        <ele>239</ele>
        <time>2018-02-06T11:14:43Z</time>
      </trkpt>
      <trkpt lat="45.98052" lon="4.78846">
        <ele>239</ele>
        <time>2018-02-06T11:14:44Z</time>
      </trkpt>
      <trkpt lat="45.98047" lon="4.78842">
        <ele>239</ele>
        <time>2018-02-06T11:14:45Z</time>
      </trkpt>
      <trkpt lat="45.98042" lon="4.78838">
        <ele>238</ele>
        <time>2018-02-06T11:14:46Z</time>
      </trkpt>
      <trkpt lat="45.98036" lon="4.78834">
        <ele>238</ele>
        <time>2018-02-06T11:14:47Z</time>
      </trkpt>
      <trkpt lat="45.98031" lon="4.7883">
        <ele>238</ele>
        <time>2018-02-06T11:14:48Z</time>
      </trkpt>
      <trkpt lat="45.98027" lon="4.78826">
        <ele>238</ele>
        <time>2018-02-06T11:14:49Z</time>
      </trkpt>
      <trkpt lat="45.98021" lon="4.78822">
        <ele>238</ele>
        <time>2018-02-06T11:14:50Z</time>
      </trkpt>
      <trkpt lat="45.98016" lon="4.78819">
        <ele>238</ele>
        <time>2018-02-06T11:14:51Z</time>
      </trkpt>
      <trkpt lat="45.98011" lon="4.78815">
        <ele>238</ele>
        <time>2018-02-06T11:14:52Z</time>
      </trkpt>
      <trkpt lat="45.98007" lon="4.78811">
        <ele>238</ele>
        <time>2018-02-06T11:14:53Z</time>
      </trkpt>
      <trkpt lat="45.98002" lon="4.78807">
        <ele>238</ele>
        <time>2018-02-06T11:14:54Z</time>
      </trkpt>
      <trkpt lat="45.97996" lon="4.78804">
        <ele>238</ele>
        <time>2018-02-06T11:14:55Z</time>
      </trkpt>
      <trkpt lat="45.97991" lon="4.788">
        <ele>238</ele>
        <time>2018-02-06T11:14:56Z</time>
      </trkpt>
      <trkpt lat="45.97985" lon="4.78796">
        <ele>238</ele>
        <time>2018-02-06T11:14:57Z</time>
      </trkpt>
      <trkpt lat="45.97981" lon="4.78792">
        <ele>238</ele>
        <time>2018-02-06T11:14:58Z</time>
      </trkpt>
      <trkpt lat="45.97976" lon="4.78789">
        <ele>238</ele>
        <time>2018-02-06T11:14:59Z</time>
      </trkpt>
      <trkpt lat="45.9797" lon="4.78785">
        <ele>238</ele>
        <time>2018-02-06T11:15:00Z</time>
      </trkpt>
      <trkpt lat="45.97965" lon="4.78781">
        <ele>238</ele>
        <time>2018-02-06T11:15:01Z</time>
      </trkpt>
      <trkpt lat="45.9796" lon="4.78778">
        <ele>238</ele>
        <time>2018-02-06T11:15:02Z</time>
      </trkpt>
      <trkpt lat="45.97955" lon="4.78774">
        <ele>238</ele>
        <time>2018-02-06T11:15:03Z</time>
      </trkpt>
      <trkpt lat="45.97951" lon="4.78769">
        <ele>238</ele>
        <time>2018-02-06T11:15:04Z</time>
      </trkpt>
      <trkpt lat="45.97945" lon="4.78765">
        <ele>238</ele>
        <time>2018-02-06T11:15:05Z</time>
      </trkpt>
      <trkpt lat="45.9794" lon="4.78761">
        <ele>238</ele>
        <time>2018-02-06T11:15:06Z</time>
      </trkpt>
      <trkpt lat="45.97935" lon="4.78756">
        <ele>238</ele>
        <time>2018-02-06T11:15:07Z</time>
      </trkpt>
      <trkpt lat="45.97929" lon="4.78752">
        <ele>237</ele>
        <time>2018-02-06T11:15:08Z</time>
      </trkpt>
      <trkpt lat="45.97923" lon="4.78748">
        <ele>237</ele>
        <time>2018-02-06T11:15:09Z</time>
      </trkpt>
      <trkpt lat="45.97917" lon="4.78745">
        <ele>237</ele>
        <time>2018-02-06T11:15:10Z</time>
      </trkpt>
      <trkpt lat="45.97911" lon="4.7874">
        <ele>237</ele>
        <time>2018-02-06T11:15:11Z</time>
      </trkpt>
      <trkpt lat="45.97904" lon="4.78736">
        <ele>237</ele>
        <time>2018-02-06T11:15:12Z</time>
      </trkpt>
      <trkpt lat="45.97897" lon="4.78731">
        <ele>237</ele>
        <time>2018-02-06T11:15:13Z</time>
      </trkpt>
      <trkpt lat="45.97891" lon="4.78726">
        <ele>236</ele>
        <time>2018-02-06T11:15:14Z</time>
      </trkpt>
      <trkpt lat="45.97885" lon="4.78722">
        <ele>236</ele>
        <time>2018-02-06T11:15:15Z</time>
      </trkpt>
      <trkpt lat="45.97879" lon="4.78716">
        <ele>236</ele>
        <time>2018-02-06T11:15:16Z</time>
      </trkpt>
      <trkpt lat="45.97872" lon="4.78713">
        <ele>236</ele>
        <time>2018-02-06T11:15:17Z</time>
      </trkpt>
      <trkpt lat="45.97865" lon="4.78708">
        <ele>236</ele>
        <time>2018-02-06T11:15:18Z</time>
      </trkpt>
      <trkpt lat="45.9786" lon="4.78704">
        <ele>236</ele>
        <time>2018-02-06T11:15:19Z</time>
      </trkpt>
      <trkpt lat="45.97854" lon="4.78701">
        <ele>236</ele>
        <time>2018-02-06T11:15:20Z</time>
      </trkpt>
      <trkpt lat="45.97847" lon="4.78697">
        <ele>236</ele>
        <time>2018-02-06T11:15:21Z</time>
      </trkpt>
      <trkpt lat="45.97842" lon="4.78692">
        <ele>236</ele>
        <time>2018-02-06T11:15:22Z</time>
      </trkpt>
      <trkpt lat="45.97836" lon="4.78689">
        <ele>236</ele>
        <time>2018-02-06T11:15:23Z</time>
      </trkpt>
      <trkpt lat="45.97831" lon="4.78686">
        <ele>235</ele>
        <time>2018-02-06T11:15:24Z</time>
      </trkpt>
      <trkpt lat="45.97825" lon="4.78683">
        <ele>235</ele>
        <time>2018-02-06T11:15:25Z</time>
      </trkpt>
      <trkpt lat="45.9782" lon="4.78678">
        <ele>235</ele>
        <time>2018-02-06T11:15:26Z</time>
      </trkpt>
      <trkpt lat="45.97814" lon="4.78675">
        <ele>235</ele>
        <time>2018-02-06T11:15:27Z</time>
      </trkpt>
      <trkpt lat="45.97809" lon="4.78671">
        <ele>235</ele>
        <time>2018-02-06T11:15:28Z</time>
      </trkpt>
      <trkpt lat="45.97803" lon="4.7867">
        <ele>235</ele>
        <time>2018-02-06T11:15:29Z</time>
      </trkpt>
      <trkpt lat="45.97798" lon="4.78668">
        <ele>235</ele>
        <time>2018-02-06T11:15:30Z</time>
      </trkpt>
      <trkpt lat="45.97793" lon="4.78665">
        <ele>235</ele>
        <time>2018-02-06T11:15:31Z</time>
      </trkpt>
      <trkpt lat="45.97785" lon="4.78664">
        <ele>235</ele>
        <time>2018-02-06T11:15:32Z</time>
      </trkpt>
      <trkpt lat="45.9778" lon="4.78662">
        <ele>235</ele>
        <time>2018-02-06T11:15:33Z</time>
      </trkpt>
      <trkpt lat="45.97774" lon="4.7866">
        <ele>235</ele>
        <time>2018-02-06T11:15:34Z</time>
      </trkpt>
      <trkpt lat="45.97767" lon="4.78656">
        <ele>235</ele>
        <time>2018-02-06T11:15:35Z</time>
      </trkpt>
      <trkpt lat="45.97761" lon="4.78654">
        <ele>235</ele>
        <time>2018-02-06T11:15:36Z</time>
      </trkpt>
      <trkpt lat="45.97755" lon="4.78652">
        <ele>235</ele>
        <time>2018-02-06T11:15:37Z</time>
      </trkpt>
      <trkpt lat="45.9775" lon="4.7865">
        <ele>234</ele>
        <time>2018-02-06T11:15:38Z</time>
      </trkpt>
      <trkpt lat="45.97744" lon="4.78648">
        <ele>234</ele>
        <time>2018-02-06T11:15:39Z</time>
      </trkpt>
      <trkpt lat="45.97739" lon="4.78645">
        <ele>234</ele>
        <time>2018-02-06T11:15:40Z</time>
      </trkpt>
      <trkpt lat="45.97734" lon="4.78643">
        <ele>234</ele>
        <time>2018-02-06T11:15:41Z</time>
      </trkpt>
      <trkpt lat="45.97728" lon="4.78641">
        <ele>234</ele>
        <time>2018-02-06T11:15:42Z</time>
      </trkpt>
      <trkpt lat="45.97722" lon="4.78639">
        <ele>234</ele>
        <time>2018-02-06T11:15:43Z</time>
      </trkpt>
      <trkpt lat="45.97716" lon="4.78636">
        <ele>234</ele>
        <time>2018-02-06T11:15:44Z</time>
      </trkpt>
      <trkpt lat="45.9771" lon="4.78634">
        <ele>234</ele>
        <time>2018-02-06T11:15:45Z</time>
      </trkpt>
      <trkpt lat="45.97704" lon="4.78631">
        <ele>234</ele>
        <time>2018-02-06T11:15:46Z</time>
      </trkpt>
      <trkpt lat="45.97697" lon="4.78629">
        <ele>234</ele>
        <time>2018-02-06T11:15:47Z</time>
      </trkpt>
      <trkpt lat="45.97691" lon="4.78626">
        <ele>234</ele>
        <time>2018-02-06T11:15:48Z</time>
      </trkpt>
      <trkpt lat="45.97686" lon="4.78623">
        <ele>234</ele>
        <time>2018-02-06T11:15:49Z</time>
      </trkpt>
      <trkpt lat="45.9768" lon="4.78619">
        <ele>234</ele>
        <time>2018-02-06T11:15:50Z</time>
      </trkpt>
      <trkpt lat="45.97674" lon="4.78617">
        <ele>234</ele>
        <time>2018-02-06T11:15:51Z</time>
      </trkpt>
      <trkpt lat="45.97667" lon="4.78615">
        <ele>234</ele>
        <time>2018-02-06T11:15:52Z</time>
      </trkpt>
      <trkpt lat="45.97661" lon="4.78611">
        <ele>233</ele>
        <time>2018-02-06T11:15:53Z</time>
      </trkpt>
      <trkpt lat="45.97655" lon="4.78608">
        <ele>233</ele>
        <time>2018-02-06T11:15:54Z</time>
      </trkpt>
      <trkpt lat="45.97649" lon="4.78606">
        <ele>233</ele>
        <time>2018-02-06T11:15:55Z</time>
      </trkpt>
      <trkpt lat="45.97644" lon="4.78602">
        <ele>233</ele>
        <time>2018-02-06T11:15:56Z</time>
      </trkpt>
      <trkpt lat="45.97636" lon="4.78601">
        <ele>233</ele>
        <time>2018-02-06T11:15:57Z</time>
      </trkpt>
      <trkpt lat="45.97631" lon="4.78598">
        <ele>233</ele>
        <time>2018-02-06T11:15:58Z</time>
      </trkpt>
      <trkpt lat="45.97625" lon="4.78596">
        <ele>233</ele>
        <time>2018-02-06T11:15:59Z</time>
      </trkpt>
      <trkpt lat="45.97619" lon="4.78594">
        <ele>233</ele>
        <time>2018-02-06T11:16:00Z</time>
      </trkpt>
      <trkpt lat="45.97613" lon="4.78591">
        <ele>233</ele>
        <time>2018-02-06T11:16:01Z</time>
      </trkpt>
      <trkpt lat="45.97606" lon="4.78591">
        <ele>233</ele>
        <time>2018-02-06T11:16:02Z</time>
      </trkpt>
      <trkpt lat="45.97602" lon="4.78589">
        <ele>233</ele>
        <time>2018-02-06T11:16:03Z</time>
      </trkpt>
      <trkpt lat="45.97595" lon="4.78587">
        <ele>233</ele>
        <time>2018-02-06T11:16:04Z</time>
      </trkpt>
      <trkpt lat="45.97592" lon="4.78586">
        <ele>233</ele>
        <time>2018-02-06T11:16:05Z</time>
      </trkpt>
      <trkpt lat="45.97586" lon="4.78584">
        <ele>233</ele>
        <time>2018-02-06T11:16:06Z</time>
      </trkpt>
      <trkpt lat="45.97581" lon="4.78582">
        <ele>233</ele>
        <time>2018-02-06T11:16:07Z</time>
      </trkpt>
      <trkpt lat="45.97575" lon="4.7858">
        <ele>233</ele>
        <time>2018-02-06T11:16:08Z</time>
      </trkpt>
      <trkpt lat="45.9757" lon="4.78578">
        <ele>233</ele>
        <time>2018-02-06T11:16:09Z</time>
      </trkpt>
      <trkpt lat="45.97564" lon="4.78576">
        <ele>233</ele>
        <time>2018-02-06T11:16:10Z</time>
      </trkpt>
      <trkpt lat="45.97559" lon="4.78574">
        <ele>233</ele>
        <time>2018-02-06T11:16:11Z</time>
      </trkpt>
      <trkpt lat="45.97554" lon="4.78571">
        <ele>234</ele>
        <time>2018-02-06T11:16:12Z</time>
      </trkpt>
      <trkpt lat="45.97548" lon="4.78569">
        <ele>234</ele>
        <time>2018-02-06T11:16:13Z</time>
      </trkpt>
      <trkpt lat="45.97543" lon="4.78566">
        <ele>234</ele>
        <time>2018-02-06T11:16:14Z</time>
      </trkpt>
      <trkpt lat="45.97537" lon="4.78563">
        <ele>234</ele>
        <time>2018-02-06T11:16:15Z</time>
      </trkpt>
      <trkpt lat="45.9753" lon="4.7856">
        <ele>234</ele>
        <time>2018-02-06T11:16:16Z</time>
      </trkpt>
      <trkpt lat="45.97524" lon="4.78558">
        <ele>234</ele>
        <time>2018-02-06T11:16:17Z</time>
      </trkpt>
      <trkpt lat="45.97518" lon="4.78555">
        <ele>234</ele>
        <time>2018-02-06T11:16:18Z</time>
      </trkpt>
      <trkpt lat="45.97512" lon="4.78552">
        <ele>234</ele>
        <time>2018-02-06T11:16:19Z</time>
      </trkpt>
      <trkpt lat="45.97507" lon="4.78549">
        <ele>234</ele>
        <time>2018-02-06T11:16:20Z</time>
      </trkpt>
      <trkpt lat="45.97502" lon="4.78546">
        <ele>234</ele>
        <time>2018-02-06T11:16:21Z</time>
      </trkpt>
      <trkpt lat="45.97497" lon="4.78542">
        <ele>233</ele>
        <time>2018-02-06T11:16:22Z</time>
      </trkpt>
      <trkpt lat="45.97492" lon="4.78539">
        <ele>233</ele>
        <time>2018-02-06T11:16:23Z</time>
      </trkpt>
      <trkpt lat="45.97488" lon="4.78536">
        <ele>233</ele>
        <time>2018-02-06T11:16:24Z</time>
      </trkpt>
      <trkpt lat="45.97483" lon="4.78533">
        <ele>233</ele>
        <time>2018-02-06T11:16:25Z</time>
      </trkpt>
      <trkpt lat="45.97479" lon="4.7853">
        <ele>233</ele>
        <time>2018-02-06T11:16:26Z</time>
      </trkpt>
      <trkpt lat="45.97475" lon="4.78526">
        <ele>233</ele>
        <time>2018-02-06T11:16:27Z</time>
      </trkpt>
      <trkpt lat="45.97471" lon="4.78522">
        <ele>233</ele>
        <time>2018-02-06T11:16:28Z</time>
      </trkpt>
      <trkpt lat="45.97466" lon="4.78519">
        <ele>233</ele>
        <time>2018-02-06T11:16:29Z</time>
      </trkpt>
      <trkpt lat="45.97462" lon="4.78515">
        <ele>233</ele>
        <time>2018-02-06T11:16:30Z</time>
      </trkpt>
      <trkpt lat="45.97458" lon="4.78511">
        <ele>233</ele>
        <time>2018-02-06T11:16:31Z</time>
      </trkpt>
      <trkpt lat="45.97453" lon="4.78507">
        <ele>234</ele>
        <time>2018-02-06T11:16:32Z</time>
      </trkpt>
      <trkpt lat="45.97448" lon="4.78504">
        <ele>234</ele>
        <time>2018-02-06T11:16:33Z</time>
      </trkpt>
      <trkpt lat="45.97444" lon="4.78501">
        <ele>234</ele>
        <time>2018-02-06T11:16:34Z</time>
      </trkpt>
      <trkpt lat="45.9744" lon="4.78496">
        <ele>234</ele>
        <time>2018-02-06T11:16:35Z</time>
      </trkpt>
      <trkpt lat="45.97436" lon="4.78492">
        <ele>234</ele>
        <time>2018-02-06T11:16:36Z</time>
      </trkpt>
      <trkpt lat="45.97431" lon="4.78488">
        <ele>234</ele>
        <time>2018-02-06T11:16:37Z</time>
      </trkpt>
      <trkpt lat="45.97427" lon="4.78484">
        <ele>234</ele>
        <time>2018-02-06T11:16:38Z</time>
      </trkpt>
      <trkpt lat="45.97421" lon="4.7848">
        <ele>234</ele>
        <time>2018-02-06T11:16:39Z</time>
      </trkpt>
      <trkpt lat="45.97417" lon="4.78476">
        <ele>234</ele>
        <time>2018-02-06T11:16:40Z</time>
      </trkpt>
      <trkpt lat="45.97412" lon="4.78472">
        <ele>233</ele>
        <time>2018-02-06T11:16:41Z</time>
      </trkpt>
      <trkpt lat="45.97408" lon="4.78468">
        <ele>233</ele>
        <time>2018-02-06T11:16:42Z</time>
      </trkpt>
      <trkpt lat="45.97403" lon="4.78463">
        <ele>233</ele>
        <time>2018-02-06T11:16:43Z</time>
      </trkpt>
      <trkpt lat="45.97398" lon="4.78458">
        <ele>233</ele>
        <time>2018-02-06T11:16:44Z</time>
      </trkpt>
      <trkpt lat="45.97392" lon="4.78453">
        <ele>233</ele>
        <time>2018-02-06T11:16:45Z</time>
      </trkpt>
      <trkpt lat="45.97387" lon="4.78448">
        <ele>233</ele>
        <time>2018-02-06T11:16:46Z</time>
      </trkpt>
      <trkpt lat="45.97382" lon="4.78443">
        <ele>233</ele>
        <time>2018-02-06T11:16:47Z</time>
      </trkpt>
      <trkpt lat="45.97377" lon="4.78438">
        <ele>233</ele>
        <time>2018-02-06T11:16:48Z</time>
      </trkpt>
      <trkpt lat="45.97373" lon="4.78433">
        <ele>233</ele>
        <time>2018-02-06T11:16:49Z</time>
      </trkpt>
      <trkpt lat="45.97368" lon="4.78428">
        <ele>233</ele>
        <time>2018-02-06T11:16:50Z</time>
      </trkpt>
      <trkpt lat="45.97364" lon="4.78423">
        <ele>233</ele>
        <time>2018-02-06T11:16:51Z</time>
      </trkpt>
      <trkpt lat="45.97359" lon="4.78417">
        <ele>233</ele>
        <time>2018-02-06T11:16:52Z</time>
      </trkpt>
      <trkpt lat="45.97355" lon="4.78412">
        <ele>232</ele>
        <time>2018-02-06T11:16:53Z</time>
      </trkpt>
      <trkpt lat="45.97351" lon="4.78407">
        <ele>232</ele>
        <time>2018-02-06T11:16:54Z</time>
      </trkpt>
      <trkpt lat="45.97346" lon="4.78403">
        <ele>232</ele>
        <time>2018-02-06T11:16:55Z</time>
      </trkpt>
      <trkpt lat="45.97342" lon="4.78398">
        <ele>232</ele>
        <time>2018-02-06T11:16:56Z</time>
      </trkpt>
      <trkpt lat="45.97337" lon="4.78395">
        <ele>232</ele>
        <time>2018-02-06T11:16:57Z</time>
      </trkpt>
      <trkpt lat="45.97333" lon="4.78389">
        <ele>232</ele>
        <time>2018-02-06T11:16:58Z</time>
      </trkpt>
      <trkpt lat="45.97329" lon="4.78384">
        <ele>232</ele>
        <time>2018-02-06T11:16:59Z</time>
      </trkpt>
      <trkpt lat="45.97324" lon="4.78379">
        <ele>232</ele>
        <time>2018-02-06T11:17:00Z</time>
      </trkpt>
      <trkpt lat="45.97319" lon="4.78373">
        <ele>232</ele>
        <time>2018-02-06T11:17:01Z</time>
      </trkpt>
      <trkpt lat="45.97315" lon="4.78369">
        <ele>232</ele>
        <time>2018-02-06T11:17:02Z</time>
      </trkpt>
      <trkpt lat="45.97311" lon="4.78364">
        <ele>232</ele>
        <time>2018-02-06T11:17:03Z</time>
      </trkpt>
      <trkpt lat="45.97307" lon="4.78359">
        <ele>232</ele>
        <time>2018-02-06T11:17:04Z</time>
      </trkpt>
      <trkpt lat="45.97303" lon="4.78354">
        <ele>232</ele>
        <time>2018-02-06T11:17:05Z</time>
      </trkpt>
      <trkpt lat="45.97299" lon="4.78349">
        <ele>232</ele>
        <time>2018-02-06T11:17:06Z</time>
      </trkpt>
      <trkpt lat="45.97294" lon="4.78343">
        <ele>232</ele>
        <time>2018-02-06T11:17:07Z</time>
      </trkpt>
      <trkpt lat="45.97291" lon="4.78336">
        <ele>232</ele>
        <time>2018-02-06T11:17:08Z</time>
      </trkpt>
      <trkpt lat="45.97287" lon="4.78331">
        <ele>232</ele>
        <time>2018-02-06T11:17:09Z</time>
      </trkpt>
      <trkpt lat="45.97282" lon="4.78324">
        <ele>232</ele>
        <time>2018-02-06T11:17:10Z</time>
      </trkpt>
      <trkpt lat="45.97278" lon="4.78318">
        <ele>232</ele>
        <time>2018-02-06T11:17:11Z</time>
      </trkpt>
      <trkpt lat="45.97274" lon="4.78313">
        <ele>232</ele>
        <time>2018-02-06T11:17:12Z</time>
      </trkpt>
      <trkpt lat="45.9727" lon="4.78306">
        <ele>232</ele>
        <time>2018-02-06T11:17:13Z</time>
      </trkpt>
      <trkpt lat="45.97266" lon="4.783">
        <ele>232</ele>
        <time>2018-02-06T11:17:14Z</time>
      </trkpt>
      <trkpt lat="45.97262" lon="4.78294">
        <ele>232</ele>
        <time>2018-02-06T11:17:15Z</time>
      </trkpt>
      <trkpt lat="45.97258" lon="4.78288">
        <ele>232</ele>
        <time>2018-02-06T11:17:16Z</time>
      </trkpt>
      <trkpt lat="45.97254" lon="4.78281">
        <ele>232</ele>
        <time>2018-02-06T11:17:17Z</time>
      </trkpt>
      <trkpt lat="45.9725" lon="4.78274">
        <ele>232</ele>
        <time>2018-02-06T11:17:18Z</time>
      </trkpt>
      <trkpt lat="45.97246" lon="4.78268">
        <ele>231</ele>
        <time>2018-02-06T11:17:19Z</time>
      </trkpt>
      <trkpt lat="45.97241" lon="4.78262">
        <ele>231</ele>
        <time>2018-02-06T11:17:20Z</time>
      </trkpt>
      <trkpt lat="45.97238" lon="4.78256">
        <ele>231</ele>
        <time>2018-02-06T11:17:21Z</time>
      </trkpt>
      <trkpt lat="45.97234" lon="4.7825">
        <ele>231</ele>
        <time>2018-02-06T11:17:22Z</time>
      </trkpt>
      <trkpt lat="45.9723" lon="4.78244">
        <ele>231</ele>
        <time>2018-02-06T11:17:23Z</time>
      </trkpt>
      <trkpt lat="45.97226" lon="4.78237">
        <ele>231</ele>
        <time>2018-02-06T11:17:24Z</time>
      </trkpt>
      <trkpt lat="45.97222" lon="4.78231">
        <ele>231</ele>
        <time>2018-02-06T11:17:25Z</time>
      </trkpt>
      <trkpt lat="45.9722" lon="4.78226">
        <ele>231</ele>
        <time>2018-02-06T11:17:26Z</time>
      </trkpt>
      <trkpt lat="45.97216" lon="4.7822">
        <ele>231</ele>
        <time>2018-02-06T11:17:27Z</time>
      </trkpt>
      <trkpt lat="45.97213" lon="4.78215">
        <ele>231</ele>
        <time>2018-02-06T11:17:28Z</time>
      </trkpt>
      <trkpt lat="45.9721" lon="4.78209">
        <ele>231</ele>
        <time>2018-02-06T11:17:29Z</time>
      </trkpt>
      <trkpt lat="45.97207" lon="4.78204">
        <ele>231</ele>
        <time>2018-02-06T11:17:30Z</time>
      </trkpt>
      <trkpt lat="45.97203" lon="4.78198">
        <ele>231</ele>
        <time>2018-02-06T11:17:31Z</time>
      </trkpt>
      <trkpt lat="45.972" lon="4.78192">
        <ele>231</ele>
        <time>2018-02-06T11:17:32Z</time>
      </trkpt>
      <trkpt lat="45.97196" lon="4.78187">
        <ele>231</ele>
        <time>2018-02-06T11:17:33Z</time>
      </trkpt>
      <trkpt lat="45.97192" lon="4.78181">
        <ele>231</ele>
        <time>2018-02-06T11:17:34Z</time>
      </trkpt>
      <trkpt lat="45.97189" lon="4.78175">
        <ele>231</ele>
        <time>2018-02-06T11:17:35Z</time>
      </trkpt>
      <trkpt lat="45.97185" lon="4.78169">
        <ele>231</ele>
        <time>2018-02-06T11:17:36Z</time>
      </trkpt>
      <trkpt lat="45.97182" lon="4.78163">
        <ele>231</ele>
        <time>2018-02-06T11:17:37Z</time>
      </trkpt>
      <trkpt lat="45.9718" lon="4.78157">
        <ele>231</ele>
        <time>2018-02-06T11:17:38Z</time>
      </trkpt>
      <trkpt lat="45.97176" lon="4.78151">
        <ele>231</ele>
        <time>2018-02-06T11:17:39Z</time>
      </trkpt>
      <trkpt lat="45.97173" lon="4.78144">
        <ele>231</ele>
        <time>2018-02-06T11:17:40Z</time>
      </trkpt>
      <trkpt lat="45.9717" lon="4.78138">
        <ele>231</ele>
        <time>2018-02-06T11:17:41Z</time>
      </trkpt>
      <trkpt lat="45.97167" lon="4.78131">
        <ele>231</ele>
        <time>2018-02-06T11:17:42Z</time>
      </trkpt>
      <trkpt lat="45.97163" lon="4.78125">
        <ele>230</ele>
        <time>2018-02-06T11:17:43Z</time>
      </trkpt>
      <trkpt lat="45.97159" lon="4.78118">
        <ele>230</ele>
        <time>2018-02-06T11:17:44Z</time>
      </trkpt>
      <trkpt lat="45.97155" lon="4.78112">
        <ele>230</ele>
        <time>2018-02-06T11:17:45Z</time>
      </trkpt>
      <trkpt lat="45.97151" lon="4.78105">
        <ele>230</ele>
        <time>2018-02-06T11:17:46Z</time>
      </trkpt>
      <trkpt lat="45.97147" lon="4.78098">
        <ele>230</ele>
        <time>2018-02-06T11:17:47Z</time>
      </trkpt>
      <trkpt lat="45.97143" lon="4.7809">
        <ele>230</ele>
        <time>2018-02-06T11:17:48Z</time>
      </trkpt>
      <trkpt lat="45.97139" lon="4.78083">
        <ele>230</ele>
        <time>2018-02-06T11:17:49Z</time>
      </trkpt>
      <trkpt lat="45.97135" lon="4.78077">
        <ele>230</ele>
        <time>2018-02-06T11:17:50Z</time>
      </trkpt>
      <trkpt lat="45.9713" lon="4.78069">
        <ele>230</ele>
        <time>2018-02-06T11:17:51Z</time>
      </trkpt>
      <trkpt lat="45.97125" lon="4.78062">
        <ele>229</ele>
        <time>2018-02-06T11:17:52Z</time>
      </trkpt>
      <trkpt lat="45.9712" lon="4.78057">
        <ele>229</ele>
        <time>2018-02-06T11:17:53Z</time>
      </trkpt>
      <trkpt lat="45.97114" lon="4.7805">
        <ele>229</ele>
        <time>2018-02-06T11:17:54Z</time>
      </trkpt>
      <trkpt lat="45.97108" lon="4.78045">
        <ele>229</ele>
        <time>2018-02-06T11:17:55Z</time>
      </trkpt>
      <trkpt lat="45.97102" lon="4.78039">
        <ele>229</ele>
        <time>2018-02-06T11:17:56Z</time>
      </trkpt>
      <trkpt lat="45.97097" lon="4.78032">
        <ele>229</ele>
        <time>2018-02-06T11:17:57Z</time>
      </trkpt>
      <trkpt lat="45.97092" lon="4.78027">
        <ele>229</ele>
        <time>2018-02-06T11:17:58Z</time>
      </trkpt>
      <trkpt lat="45.97086" lon="4.78021">
        <ele>229</ele>
        <time>2018-02-06T11:17:59Z</time>
      </trkpt>
      <trkpt lat="45.9708" lon="4.78016">
        <ele>229</ele>
        <time>2018-02-06T11:18:00Z</time>
      </trkpt>
      <trkpt lat="45.97074" lon="4.78011">
        <ele>229</ele>
        <time>2018-02-06T11:18:01Z</time>
      </trkpt>
      <trkpt lat="45.97069" lon="4.78006">
        <ele>229</ele>
        <time>2018-02-06T11:18:02Z</time>
      </trkpt>
      <trkpt lat="45.97063" lon="4.78">
        <ele>229</ele>
        <time>2018-02-06T11:18:03Z</time>
      </trkpt>
      <trkpt lat="45.97058" lon="4.77994">
        <ele>229</ele>
        <time>2018-02-06T11:18:04Z</time>
      </trkpt>
      <trkpt lat="45.97053" lon="4.77989">
        <ele>229</ele>
        <time>2018-02-06T11:18:05Z</time>
      </trkpt>
      <trkpt lat="45.97047" lon="4.77983">
        <ele>229</ele>
        <time>2018-02-06T11:18:06Z</time>
      </trkpt>
      <trkpt lat="45.97042" lon="4.77978">
        <ele>229</ele>
        <time>2018-02-06T11:18:07Z</time>
      </trkpt>
      <trkpt lat="45.97037" lon="4.77972">
        <ele>229</ele>
        <time>2018-02-06T11:18:08Z</time>
      </trkpt>
      <trkpt lat="45.97033" lon="4.77967">
        <ele>229</ele>
        <time>2018-02-06T11:18:09Z</time>
      </trkpt>
      <trkpt lat="45.97028" lon="4.77962">
        <ele>228</ele>
        <time>2018-02-06T11:18:10Z</time>
      </trkpt>
      <trkpt lat="45.97023" lon="4.77956">
        <ele>228</ele>
        <time>2018-02-06T11:18:11Z</time>
      </trkpt>
      <trkpt lat="45.97017" lon="4.7795">
        <ele>228</ele>
        <time>2018-02-06T11:18:12Z</time>
      </trkpt>
      <trkpt lat="45.97013" lon="4.77945">
        <ele>228</ele>
        <time>2018-02-06T11:18:13Z</time>
      </trkpt>
      <trkpt lat="45.97008" lon="4.7794">
        <ele>228</ele>
        <time>2018-02-06T11:18:14Z</time>
      </trkpt>
      <trkpt lat="45.97003" lon="4.77934">
        <ele>228</ele>
        <time>2018-02-06T11:18:15Z</time>
      </trkpt>
      <trkpt lat="45.96999" lon="4.77929">
        <ele>227</ele>
        <time>2018-02-06T11:18:16Z</time>
      </trkpt>
      <trkpt lat="45.96995" lon="4.77923">
        <ele>227</ele>
        <time>2018-02-06T11:18:17Z</time>
      </trkpt>
      <trkpt lat="45.9699" lon="4.77918">
        <ele>227</ele>
        <time>2018-02-06T11:18:18Z</time>
      </trkpt>
      <trkpt lat="45.96986" lon="4.77913">
        <ele>227</ele>
        <time>2018-02-06T11:18:19Z</time>
      </trkpt>
      <trkpt lat="45.96982" lon="4.77907">
        <ele>227</ele>
        <time>2018-02-06T11:18:20Z</time>
      </trkpt>
      <trkpt lat="45.96978" lon="4.77902">
        <ele>227</ele>
        <time>2018-02-06T11:18:21Z</time>
      </trkpt>
      <trkpt lat="45.96973" lon="4.77896">
        <ele>228</ele>
        <time>2018-02-06T11:18:22Z</time>
      </trkpt>
      <trkpt lat="45.96968" lon="4.77891">
        <ele>228</ele>
        <time>2018-02-06T11:18:23Z</time>
      </trkpt>
      <trkpt lat="45.96963" lon="4.77886">
        <ele>228</ele>
        <time>2018-02-06T11:18:24Z</time>
      </trkpt>
      <trkpt lat="45.96958" lon="4.77881">
        <ele>228</ele>
        <time>2018-02-06T11:18:25Z</time>
      </trkpt>
      <trkpt lat="45.96952" lon="4.77875">
        <ele>228</ele>
        <time>2018-02-06T11:18:26Z</time>
      </trkpt>
      <trkpt lat="45.96947" lon="4.77869">
        <ele>228</ele>
        <time>2018-02-06T11:18:27Z</time>
      </trkpt>
      <trkpt lat="45.96942" lon="4.77861">
        <ele>228</ele>
        <time>2018-02-06T11:18:28Z</time>
      </trkpt>
      <trkpt lat="45.96937" lon="4.77854">
        <ele>228</ele>
        <time>2018-02-06T11:18:29Z</time>
      </trkpt>
      <trkpt lat="45.96932" lon="4.77849">
        <ele>228</ele>
        <time>2018-02-06T11:18:30Z</time>
      </trkpt>
      <trkpt lat="45.96926" lon="4.77843">
        <ele>228</ele>
        <time>2018-02-06T11:18:31Z</time>
      </trkpt>
      <trkpt lat="45.96921" lon="4.77838">
        <ele>228</ele>
        <time>2018-02-06T11:18:32Z</time>
      </trkpt>
      <trkpt lat="45.96916" lon="4.77832">
        <ele>228</ele>
        <time>2018-02-06T11:18:33Z</time>
      </trkpt>
      <trkpt lat="45.9691" lon="4.77827">
        <ele>228</ele>
        <time>2018-02-06T11:18:34Z</time>
      </trkpt>
      <trkpt lat="45.96905" lon="4.77822">
        <ele>228</ele>
        <time>2018-02-06T11:18:35Z</time>
      </trkpt>
      <trkpt lat="45.96899" lon="4.77815">
        <ele>228</ele>
        <time>2018-02-06T11:18:36Z</time>
      </trkpt>
      <trkpt lat="45.96895" lon="4.77809">
        <ele>228</ele>
        <time>2018-02-06T11:18:37Z</time>
      </trkpt>
      <trkpt lat="45.9689" lon="4.77804">
        <ele>228</ele>
        <time>2018-02-06T11:18:38Z</time>
      </trkpt>
      <trkpt lat="45.96885" lon="4.778">
        <ele>228</ele>
        <time>2018-02-06T11:18:39Z</time>
      </trkpt>
      <trkpt lat="45.96881" lon="4.77795">
        <ele>228</ele>
        <time>2018-02-06T11:18:40Z</time>
      </trkpt>
      <trkpt lat="45.96876" lon="4.7779">
        <ele>228</ele>
        <time>2018-02-06T11:18:41Z</time>
      </trkpt>
      <trkpt lat="45.96871" lon="4.77785">
        <ele>228</ele>
        <time>2018-02-06T11:18:42Z</time>
      </trkpt>
      <trkpt lat="45.96866" lon="4.7778">
        <ele>228</ele>
        <time>2018-02-06T11:18:43Z</time>
      </trkpt>
      <trkpt lat="45.96861" lon="4.77776">
        <ele>228</ele>
        <time>2018-02-06T11:18:44Z</time>
      </trkpt>
      <trkpt lat="45.96857" lon="4.7777">
        <ele>228</ele>
        <time>2018-02-06T11:18:45Z</time>
      </trkpt>
      <trkpt lat="45.96851" lon="4.77765">
        <ele>228</ele>
        <time>2018-02-06T11:18:46Z</time>
      </trkpt>
      <trkpt lat="45.96847" lon="4.7776">
        <ele>228</ele>
        <time>2018-02-06T11:18:47Z</time>
      </trkpt>
      <trkpt lat="45.96842" lon="4.77755">
        <ele>228</ele>
        <time>2018-02-06T11:18:48Z</time>
      </trkpt>
      <trkpt lat="45.96836" lon="4.7775">
        <ele>228</ele>
        <time>2018-02-06T11:18:49Z</time>
      </trkpt>
      <trkpt lat="45.96831" lon="4.77745">
        <ele>228</ele>
        <time>2018-02-06T11:18:50Z</time>
      </trkpt>
      <trkpt lat="45.96826" lon="4.7774">
        <ele>228</ele>
        <time>2018-02-06T11:18:51Z</time>
      </trkpt>
      <trkpt lat="45.96822" lon="4.77735">
        <ele>228</ele>
        <time>2018-02-06T11:18:52Z</time>
      </trkpt>
      <trkpt lat="45.96817" lon="4.77729">
        <ele>228</ele>
        <time>2018-02-06T11:18:53Z</time>
      </trkpt>
      <trkpt lat="45.96812" lon="4.77725">
        <ele>228</ele>
        <time>2018-02-06T11:18:54Z</time>
      </trkpt>
      <trkpt lat="45.96807" lon="4.77719">
        <ele>228</ele>
        <time>2018-02-06T11:18:55Z</time>
      </trkpt>
      <trkpt lat="45.96803" lon="4.77713">
        <ele>228</ele>
        <time>2018-02-06T11:18:56Z</time>
      </trkpt>
      <trkpt lat="45.96799" lon="4.77708">
        <ele>228</ele>
        <time>2018-02-06T11:18:57Z</time>
      </trkpt>
      <trkpt lat="45.96795" lon="4.77703">
        <ele>228</ele>
        <time>2018-02-06T11:18:58Z</time>
      </trkpt>
      <trkpt lat="45.96789" lon="4.77698">
        <ele>227</ele>
        <time>2018-02-06T11:18:59Z</time>
      </trkpt>
      <trkpt lat="45.96784" lon="4.77693">
        <ele>227</ele>
        <time>2018-02-06T11:19:00Z</time>
      </trkpt>
      <trkpt lat="45.96779" lon="4.77688">
        <ele>227</ele>
        <time>2018-02-06T11:19:01Z</time>
      </trkpt>
      <trkpt lat="45.96774" lon="4.77684">
        <ele>227</ele>
        <time>2018-02-06T11:19:02Z</time>
      </trkpt>
      <trkpt lat="45.9677" lon="4.77678">
        <ele>227</ele>
        <time>2018-02-06T11:19:03Z</time>
      </trkpt>
      <trkpt lat="45.96765" lon="4.77672">
        <ele>227</ele>
        <time>2018-02-06T11:19:04Z</time>
      </trkpt>
      <trkpt lat="45.96761" lon="4.77666">
        <ele>227</ele>
        <time>2018-02-06T11:19:05Z</time>
      </trkpt>
      <trkpt lat="45.96756" lon="4.7766">
        <ele>227</ele>
        <time>2018-02-06T11:19:06Z</time>
      </trkpt>
      <trkpt lat="45.96751" lon="4.77655">
        <ele>227</ele>
        <time>2018-02-06T11:19:07Z</time>
      </trkpt>
      <trkpt lat="45.96746" lon="4.77649">
        <ele>227</ele>
        <time>2018-02-06T11:19:08Z</time>
      </trkpt>
      <trkpt lat="45.96742" lon="4.77644">
        <ele>227</ele>
        <time>2018-02-06T11:19:09Z</time>
      </trkpt>
      <trkpt lat="45.96737" lon="4.77639">
        <ele>227</ele>
        <time>2018-02-06T11:19:10Z</time>
      </trkpt>
      <trkpt lat="45.96733" lon="4.77635">
        <ele>226</ele>
        <time>2018-02-06T11:19:11Z</time>
      </trkpt>
      <trkpt lat="45.96729" lon="4.77629">
        <ele>226</ele>
        <time>2018-02-06T11:19:12Z</time>
      </trkpt>
      <trkpt lat="45.96726" lon="4.77623">
        <ele>226</ele>
        <time>2018-02-06T11:19:13Z</time>
      </trkpt>
      <trkpt lat="45.96722" lon="4.77618">
        <ele>226</ele>
        <time>2018-02-06T11:19:14Z</time>
      </trkpt>
      <trkpt lat="45.96719" lon="4.77612">
        <ele>226</ele>
        <time>2018-02-06T11:19:15Z</time>
      </trkpt>
      <trkpt lat="45.96714" lon="4.77607">
        <ele>226</ele>
        <time>2018-02-06T11:19:16Z</time>
      </trkpt>
      <trkpt lat="45.9671" lon="4.77602">
        <ele>226</ele>
        <time>2018-02-06T11:19:17Z</time>
      </trkpt>
      <trkpt lat="45.96706" lon="4.77596">
        <ele>226</ele>
        <time>2018-02-06T11:19:18Z</time>
      </trkpt>
      <trkpt lat="45.96701" lon="4.7759">
        <ele>226</ele>
        <time>2018-02-06T11:19:19Z</time>
      </trkpt>
      <trkpt lat="45.96696" lon="4.77585">
        <ele>226</ele>
        <time>2018-02-06T11:19:20Z</time>
      </trkpt>
      <trkpt lat="45.96691" lon="4.77579">
        <ele>225</ele>
        <time>2018-02-06T11:19:21Z</time>
      </trkpt>
      <trkpt lat="45.96686" lon="4.77574">
        <ele>225</ele>
        <time>2018-02-06T11:19:22Z</time>
      </trkpt>
      <trkpt lat="45.9668" lon="4.77569">
        <ele>225</ele>
        <time>2018-02-06T11:19:23Z</time>
      </trkpt>
      <trkpt lat="45.96674" lon="4.77565">
        <ele>225</ele>
        <time>2018-02-06T11:19:24Z</time>
      </trkpt>
      <trkpt lat="45.96668" lon="4.77561">
        <ele>225</ele>
        <time>2018-02-06T11:19:25Z</time>
      </trkpt>
      <trkpt lat="45.96662" lon="4.77557">
        <ele>224</ele>
        <time>2018-02-06T11:19:26Z</time>
      </trkpt>
      <trkpt lat="45.96657" lon="4.77553">
        <ele>224</ele>
        <time>2018-02-06T11:19:27Z</time>
      </trkpt>
      <trkpt lat="45.96651" lon="4.77548">
        <ele>224</ele>
        <time>2018-02-06T11:19:28Z</time>
      </trkpt>
      <trkpt lat="45.96646" lon="4.77544">
        <ele>224</ele>
        <time>2018-02-06T11:19:29Z</time>
      </trkpt>
      <trkpt lat="45.96641" lon="4.77541">
        <ele>224</ele>
        <time>2018-02-06T11:19:30Z</time>
      </trkpt>
      <trkpt lat="45.96634" lon="4.77537">
        <ele>224</ele>
        <time>2018-02-06T11:19:31Z</time>
      </trkpt>
      <trkpt lat="45.96628" lon="4.77533">
        <ele>224</ele>
        <time>2018-02-06T11:19:32Z</time>
      </trkpt>
      <trkpt lat="45.96621" lon="4.7753">
        <ele>224</ele>
        <time>2018-02-06T11:19:33Z</time>
      </trkpt>
      <trkpt lat="45.96616" lon="4.77526">
        <ele>224</ele>
        <time>2018-02-06T11:19:34Z</time>
      </trkpt>
      <trkpt lat="45.9661" lon="4.77521">
        <ele>224</ele>
        <time>2018-02-06T11:19:35Z</time>
      </trkpt>
      <trkpt lat="45.96605" lon="4.77518">
        <ele>224</ele>
        <time>2018-02-06T11:19:36Z</time>
      </trkpt>
      <trkpt lat="45.966" lon="4.77514">
        <ele>224</ele>
        <time>2018-02-06T11:19:37Z</time>
      </trkpt>
      <trkpt lat="45.96594" lon="4.77511">
        <ele>224</ele>
        <time>2018-02-06T11:19:38Z</time>
      </trkpt>
      <trkpt lat="45.96588" lon="4.77507">
        <ele>224</ele>
        <time>2018-02-06T11:19:39Z</time>
      </trkpt>
      <trkpt lat="45.96582" lon="4.77504">
        <ele>224</ele>
        <time>2018-02-06T11:19:40Z</time>
      </trkpt>
      <trkpt lat="45.96577" lon="4.77501">
        <ele>224</ele>
        <time>2018-02-06T11:19:41Z</time>
      </trkpt>
      <trkpt lat="45.96572" lon="4.77497">
        <ele>224</ele>
        <time>2018-02-06T11:19:42Z</time>
      </trkpt>
      <trkpt lat="45.96567" lon="4.77494">
        <ele>224</ele>
        <time>2018-02-06T11:19:43Z</time>
      </trkpt>
      <trkpt lat="45.96561" lon="4.77491">
        <ele>224</ele>
        <time>2018-02-06T11:19:44Z</time>
      </trkpt>
      <trkpt lat="45.96556" lon="4.77487">
        <ele>224</ele>
        <time>2018-02-06T11:19:45Z</time>
      </trkpt>
      <trkpt lat="45.96551" lon="4.77484">
        <ele>223</ele>
        <time>2018-02-06T11:19:46Z</time>
      </trkpt>
      <trkpt lat="45.96546" lon="4.7748">
        <ele>223</ele>
        <time>2018-02-06T11:19:47Z</time>
      </trkpt>
      <trkpt lat="45.96538" lon="4.77479">
        <ele>223</ele>
        <time>2018-02-06T11:19:48Z</time>
      </trkpt>
      <trkpt lat="45.96532" lon="4.77474">
        <ele>223</ele>
        <time>2018-02-06T11:19:49Z</time>
      </trkpt>
      <trkpt lat="45.96526" lon="4.7747">
        <ele>223</ele>
        <time>2018-02-06T11:19:50Z</time>
      </trkpt>
      <trkpt lat="45.96519" lon="4.77466">
        <ele>223</ele>
        <time>2018-02-06T11:19:51Z</time>
      </trkpt>
      <trkpt lat="45.96513" lon="4.77462">
        <ele>223</ele>
        <time>2018-02-06T11:19:52Z</time>
      </trkpt>
      <trkpt lat="45.96507" lon="4.77457">
        <ele>223</ele>
        <time>2018-02-06T11:19:53Z</time>
      </trkpt>
      <trkpt lat="45.965" lon="4.77453">
        <ele>223</ele>
        <time>2018-02-06T11:19:54Z</time>
      </trkpt>
      <trkpt lat="45.96495" lon="4.77448">
        <ele>221</ele>
        <time>2018-02-06T11:19:55Z</time>
      </trkpt>
      <trkpt lat="45.96488" lon="4.77444">
        <ele>221</ele>
        <time>2018-02-06T11:19:56Z</time>
      </trkpt>
      <trkpt lat="45.96482" lon="4.77439">
        <ele>221</ele>
        <time>2018-02-06T11:19:57Z</time>
      </trkpt>
      <trkpt lat="45.96476" lon="4.77435">
        <ele>221</ele>
        <time>2018-02-06T11:19:58Z</time>
      </trkpt>
      <trkpt lat="45.9647" lon="4.77431">
        <ele>221</ele>
        <time>2018-02-06T11:19:59Z</time>
      </trkpt>
      <trkpt lat="45.96464" lon="4.77427">
        <ele>221</ele>
        <time>2018-02-06T11:20:00Z</time>
      </trkpt>
      <trkpt lat="45.96458" lon="4.77422">
        <ele>221</ele>
        <time>2018-02-06T11:20:01Z</time>
      </trkpt>
      <trkpt lat="45.96452" lon="4.77418">
        <ele>221</ele>
        <time>2018-02-06T11:20:02Z</time>
      </trkpt>
      <trkpt lat="45.96446" lon="4.77415">
        <ele>222</ele>
        <time>2018-02-06T11:20:03Z</time>
      </trkpt>
      <trkpt lat="45.96441" lon="4.77411">
        <ele>222</ele>
        <time>2018-02-06T11:20:04Z</time>
      </trkpt>
      <trkpt lat="45.96435" lon="4.77408">
        <ele>222</ele>
        <time>2018-02-06T11:20:05Z</time>
      </trkpt>
      <trkpt lat="45.96428" lon="4.77405">
        <ele>222</ele>
        <time>2018-02-06T11:20:06Z</time>
      </trkpt>
      <trkpt lat="45.96421" lon="4.77401">
        <ele>222</ele>
        <time>2018-02-06T11:20:07Z</time>
      </trkpt>
      <trkpt lat="45.96415" lon="4.77398">
        <ele>220</ele>
        <time>2018-02-06T11:20:08Z</time>
      </trkpt>
      <trkpt lat="45.96409" lon="4.77395">
        <ele>220</ele>
        <time>2018-02-06T11:20:09Z</time>
      </trkpt>
      <trkpt lat="45.96403" lon="4.77392">
        <ele>220</ele>
        <time>2018-02-06T11:20:10Z</time>
      </trkpt>
      <trkpt lat="45.96398" lon="4.77388">
        <ele>220</ele>
        <time>2018-02-06T11:20:11Z</time>
      </trkpt>
      <trkpt lat="45.96392" lon="4.77385">
        <ele>220</ele>
        <time>2018-02-06T11:20:12Z</time>
      </trkpt>
      <trkpt lat="45.96386" lon="4.77381">
        <ele>220</ele>
        <time>2018-02-06T11:20:13Z</time>
      </trkpt>
      <trkpt lat="45.96379" lon="4.77377">
        <ele>220</ele>
        <time>2018-02-06T11:20:14Z</time>
      </trkpt>
      <trkpt lat="45.96373" lon="4.77375">
        <ele>219</ele>
        <time>2018-02-06T11:20:15Z</time>
      </trkpt>
      <trkpt lat="45.96366" lon="4.77371">
        <ele>219</ele>
        <time>2018-02-06T11:20:16Z</time>
      </trkpt>
      <trkpt lat="45.96359" lon="4.77368">
        <ele>219</ele>
        <time>2018-02-06T11:20:17Z</time>
      </trkpt>
      <trkpt lat="45.96352" lon="4.77364">
        <ele>219</ele>
        <time>2018-02-06T11:20:18Z</time>
      </trkpt>
      <trkpt lat="45.96345" lon="4.7736">
        <ele>219</ele>
        <time>2018-02-06T11:20:19Z</time>
      </trkpt>
      <trkpt lat="45.96338" lon="4.77357">
        <ele>219</ele>
        <time>2018-02-06T11:20:20Z</time>
      </trkpt>
      <trkpt lat="45.96333" lon="4.77353">
        <ele>219</ele>
        <time>2018-02-06T11:20:21Z</time>
      </trkpt>
      <trkpt lat="45.96327" lon="4.77349">
        <ele>218</ele>
        <time>2018-02-06T11:20:22Z</time>
      </trkpt>
      <trkpt lat="45.9632" lon="4.77346">
        <ele>218</ele>
        <time>2018-02-06T11:20:23Z</time>
      </trkpt>
      <trkpt lat="45.96314" lon="4.77343">
        <ele>218</ele>
        <time>2018-02-06T11:20:24Z</time>
      </trkpt>
      <trkpt lat="45.96307" lon="4.7734">
        <ele>217</ele>
        <time>2018-02-06T11:20:25Z</time>
      </trkpt>
      <trkpt lat="45.96301" lon="4.77337">
        <ele>217</ele>
        <time>2018-02-06T11:20:26Z</time>
      </trkpt>
      <trkpt lat="45.96295" lon="4.77334">
        <ele>217</ele>
        <time>2018-02-06T11:20:27Z</time>
      </trkpt>
      <trkpt lat="45.96289" lon="4.77331">
        <ele>219</ele>
        <time>2018-02-06T11:20:28Z</time>
      </trkpt>
      <trkpt lat="45.96284" lon="4.77323">
        <ele>219</ele>
        <time>2018-02-06T11:20:29Z</time>
      </trkpt>
      <trkpt lat="45.96277" lon="4.7732">
        <ele>219</ele>
        <time>2018-02-06T11:20:30Z</time>
      </trkpt>
      <trkpt lat="45.96271" lon="4.77316">
        <ele>218</ele>
        <time>2018-02-06T11:20:31Z</time>
      </trkpt>
      <trkpt lat="45.96263" lon="4.77313">
        <ele>218</ele>
        <time>2018-02-06T11:20:32Z</time>
      </trkpt>
      <trkpt lat="45.96257" lon="4.7731">
        <ele>218</ele>
        <time>2018-02-06T11:20:33Z</time>
      </trkpt>
      <trkpt lat="45.96252" lon="4.77307">
        <ele>218</ele>
        <time>2018-02-06T11:20:34Z</time>
      </trkpt>
      <trkpt lat="45.96246" lon="4.77304">
        <ele>217</ele>
        <time>2018-02-06T11:20:35Z</time>
      </trkpt>
      <trkpt lat="45.96239" lon="4.77301">
        <ele>217</ele>
        <time>2018-02-06T11:20:36Z</time>
      </trkpt>
      <trkpt lat="45.96233" lon="4.77299">
        <ele>217</ele>
        <time>2018-02-06T11:20:37Z</time>
      </trkpt>
      <trkpt lat="45.96226" lon="4.77297">
        <ele>217</ele>
        <time>2018-02-06T11:20:38Z</time>
      </trkpt>
      <trkpt lat="45.9622" lon="4.77292">
        <ele>217</ele>
        <time>2018-02-06T11:20:39Z</time>
      </trkpt>
      <trkpt lat="45.96212" lon="4.77289">
        <ele>216</ele>
        <time>2018-02-06T11:20:40Z</time>
      </trkpt>
      <trkpt lat="45.96206" lon="4.77285">
        <ele>216</ele>
        <time>2018-02-06T11:20:41Z</time>
      </trkpt>
      <trkpt lat="45.96199" lon="4.77283">
        <ele>216</ele>
        <time>2018-02-06T11:20:42Z</time>
      </trkpt>
      <trkpt lat="45.96194" lon="4.77279">
        <ele>216</ele>
        <time>2018-02-06T11:20:43Z</time>
      </trkpt>
      <trkpt lat="45.96188" lon="4.77275">
        <ele>216</ele>
        <time>2018-02-06T11:20:44Z</time>
      </trkpt>
      <trkpt lat="45.96182" lon="4.77271">
        <ele>216</ele>
        <time>2018-02-06T11:20:45Z</time>
      </trkpt>
      <trkpt lat="45.96178" lon="4.77267">
        <ele>216</ele>
        <time>2018-02-06T11:20:46Z</time>
      </trkpt>
      <trkpt lat="45.96172" lon="4.77263">
        <ele>216</ele>
        <time>2018-02-06T11:20:47Z</time>
      </trkpt>
      <trkpt lat="45.96166" lon="4.7726">
        <ele>214</ele>
        <time>2018-02-06T11:20:48Z</time>
      </trkpt>
      <trkpt lat="45.9616" lon="4.77257">
        <ele>214</ele>
        <time>2018-02-06T11:20:49Z</time>
      </trkpt>
      <trkpt lat="45.96154" lon="4.77255">
        <ele>214</ele>
        <time>2018-02-06T11:20:50Z</time>
      </trkpt>
      <trkpt lat="45.96149" lon="4.77252">
        <ele>214</ele>
        <time>2018-02-06T11:20:51Z</time>
      </trkpt>
      <trkpt lat="45.96143" lon="4.77247">
        <ele>215</ele>
        <time>2018-02-06T11:20:52Z</time>
      </trkpt>
      <trkpt lat="45.96137" lon="4.77243">
        <ele>215</ele>
        <time>2018-02-06T11:20:53Z</time>
      </trkpt>
      <trkpt lat="45.9613" lon="4.77242">
        <ele>215</ele>
        <time>2018-02-06T11:20:54Z</time>
      </trkpt>
      <trkpt lat="45.96124" lon="4.77241">
        <ele>214</ele>
        <time>2018-02-06T11:20:55Z</time>
      </trkpt>
      <trkpt lat="45.96118" lon="4.7724">
        <ele>214</ele>
        <time>2018-02-06T11:20:56Z</time>
      </trkpt>
      <trkpt lat="45.96111" lon="4.7724">
        <ele>214</ele>
        <time>2018-02-06T11:20:57Z</time>
      </trkpt>
      <trkpt lat="45.96105" lon="4.77239">
        <ele>213</ele>
        <time>2018-02-06T11:20:58Z</time>
      </trkpt>
      <trkpt lat="45.96098" lon="4.77239">
        <ele>213</ele>
        <time>2018-02-06T11:20:59Z</time>
      </trkpt>
      <trkpt lat="45.96091" lon="4.77239">
        <ele>212</ele>
        <time>2018-02-06T11:21:00Z</time>
      </trkpt>
      <trkpt lat="45.96085" lon="4.7724">
        <ele>212</ele>
        <time>2018-02-06T11:21:01Z</time>
      </trkpt>
      <trkpt lat="45.96078" lon="4.77241">
        <ele>210</ele>
        <time>2018-02-06T11:21:02Z</time>
      </trkpt>
      <trkpt lat="45.9607" lon="4.77242">
        <ele>210</ele>
        <time>2018-02-06T11:21:03Z</time>
      </trkpt>
      <trkpt lat="45.96063" lon="4.77244">
        <ele>209</ele>
        <time>2018-02-06T11:21:04Z</time>
      </trkpt>
      <trkpt lat="45.96055" lon="4.77246">
        <ele>209</ele>
        <time>2018-02-06T11:21:05Z</time>
      </trkpt>
      <trkpt lat="45.96048" lon="4.77247">
        <ele>209</ele>
        <time>2018-02-06T11:21:06Z</time>
      </trkpt>
      <trkpt lat="45.9604" lon="4.77247">
        <ele>208</ele>
        <time>2018-02-06T11:21:07Z</time>
      </trkpt>
      <trkpt lat="45.96034" lon="4.77245">
        <ele>208</ele>
        <time>2018-02-06T11:21:08Z</time>
      </trkpt>
      <trkpt lat="45.96026" lon="4.77246">
        <ele>207</ele>
        <time>2018-02-06T11:21:09Z</time>
      </trkpt>
      <trkpt lat="45.96019" lon="4.77247">
        <ele>206</ele>
        <time>2018-02-06T11:21:10Z</time>
      </trkpt>
      <trkpt lat="45.96012" lon="4.77248">
        <ele>205</ele>
        <time>2018-02-06T11:21:11Z</time>
      </trkpt>
      <trkpt lat="45.96004" lon="4.77248">
        <ele>204</ele>
        <time>2018-02-06T11:21:12Z</time>
      </trkpt>
      <trkpt lat="45.95995" lon="4.77247">
        <ele>203</ele>
        <time>2018-02-06T11:21:13Z</time>
      </trkpt>
      <trkpt lat="45.95987" lon="4.77245">
        <ele>202</ele>
        <time>2018-02-06T11:21:14Z</time>
      </trkpt>
      <trkpt lat="45.9598" lon="4.77239">
        <ele>202</ele>
        <time>2018-02-06T11:21:15Z</time>
      </trkpt>
      <trkpt lat="45.95971" lon="4.77233">
        <ele>202</ele>
        <time>2018-02-06T11:21:16Z</time>
      </trkpt>
      <trkpt lat="45.95965" lon="4.77226">
        <ele>201</ele>
        <time>2018-02-06T11:21:17Z</time>
      </trkpt>
      <trkpt lat="45.95958" lon="4.77218">
        <ele>201</ele>
        <time>2018-02-06T11:21:18Z</time>
      </trkpt>
      <trkpt lat="45.95953" lon="4.77208">
        <ele>201</ele>
        <time>2018-02-06T11:21:19Z</time>
      </trkpt>
      <trkpt lat="45.95949" lon="4.77197">
        <ele>201</ele>
        <time>2018-02-06T11:21:20Z</time>
      </trkpt>
      <trkpt lat="45.95945" lon="4.77186">
        <ele>200</ele>
        <time>2018-02-06T11:21:21Z</time>
      </trkpt>
      <trkpt lat="45.95944" lon="4.77173">
        <ele>200</ele>
        <time>2018-02-06T11:21:22Z</time>
      </trkpt>
      <trkpt lat="45.95942" lon="4.77162">
        <ele>201</ele>
        <time>2018-02-06T11:21:23Z</time>
      </trkpt>
      <trkpt lat="45.9594" lon="4.77151">
        <ele>201</ele>
        <time>2018-02-06T11:21:24Z</time>
      </trkpt>
      <trkpt lat="45.95939" lon="4.7714">
        <ele>201</ele>
        <time>2018-02-06T11:21:25Z</time>
      </trkpt>
      <trkpt lat="45.95939" lon="4.77129">
        <ele>201</ele>
        <time>2018-02-06T11:21:26Z</time>
      </trkpt>
      <trkpt lat="45.95939" lon="4.77118">
        <ele>201</ele>
        <time>2018-02-06T11:21:27Z</time>
      </trkpt>
      <trkpt lat="45.9594" lon="4.77107">
        <ele>201</ele>
        <time>2018-02-06T11:21:28Z</time>
      </trkpt>
      <trkpt lat="45.95942" lon="4.77095">
        <ele>201</ele>
        <time>2018-02-06T11:21:29Z</time>
      </trkpt>
      <trkpt lat="45.95943" lon="4.77084">
        <ele>201</ele>
        <time>2018-02-06T11:21:30Z</time>
      </trkpt>
      <trkpt lat="45.95946" lon="4.77075">
        <ele>200</ele>
        <time>2018-02-06T11:21:31Z</time>
      </trkpt>
      <trkpt lat="45.95948" lon="4.77065">
        <ele>200</ele>
        <time>2018-02-06T11:21:32Z</time>
      </trkpt>
      <trkpt lat="45.95952" lon="4.77056">
        <ele>200</ele>
        <time>2018-02-06T11:21:33Z</time>
      </trkpt>
      <trkpt lat="45.95955" lon="4.77047">
        <ele>200</ele>
        <time>2018-02-06T11:21:34Z</time>
      </trkpt>
      <trkpt lat="45.95958" lon="4.77038">
        <ele>200</ele>
        <time>2018-02-06T11:21:35Z</time>
      </trkpt>
      <trkpt lat="45.95961" lon="4.77031">
        <ele>200</ele>
        <time>2018-02-06T11:21:36Z</time>
      </trkpt>
      <trkpt lat="45.95965" lon="4.77021">
        <ele>200</ele>
        <time>2018-02-06T11:21:37Z</time>
      </trkpt>
      <trkpt lat="45.95968" lon="4.77012">
        <ele>200</ele>
        <time>2018-02-06T11:21:38Z</time>
      </trkpt>
      <trkpt lat="45.95971" lon="4.77003">
        <ele>200</ele>
        <time>2018-02-06T11:21:39Z</time>
      </trkpt>
      <trkpt lat="45.95976" lon="4.76992">
        <ele>197</ele>
        <time>2018-02-06T11:21:40Z</time>
      </trkpt>
      <trkpt lat="45.95978" lon="4.76981">
        <ele>197</ele>
        <time>2018-02-06T11:21:41Z</time>
      </trkpt>
      <trkpt lat="45.95979" lon="4.76971">
        <ele>197</ele>
        <time>2018-02-06T11:21:42Z</time>
      </trkpt>
      <trkpt lat="45.95979" lon="4.76959">
        <ele>196</ele>
        <time>2018-02-06T11:21:43Z</time>
      </trkpt>
      <trkpt lat="45.95976" lon="4.76947">
        <ele>196</ele>
        <time>2018-02-06T11:21:44Z</time>
      </trkpt>
      <trkpt lat="45.95971" lon="4.76937">
        <ele>195</ele>
        <time>2018-02-06T11:21:45Z</time>
      </trkpt>
      <trkpt lat="45.95965" lon="4.76928">
        <ele>195</ele>
        <time>2018-02-06T11:21:46Z</time>
      </trkpt>
      <trkpt lat="45.95958" lon="4.7692">
        <ele>195</ele>
        <time>2018-02-06T11:21:47Z</time>
      </trkpt>
      <trkpt lat="45.9595" lon="4.76912">
        <ele>193</ele>
        <time>2018-02-06T11:21:48Z</time>
      </trkpt>
      <trkpt lat="45.95943" lon="4.76904">
        <ele>192</ele>
        <time>2018-02-06T11:21:49Z</time>
      </trkpt>
      <trkpt lat="45.95936" lon="4.76896">
        <ele>192</ele>
        <time>2018-02-06T11:21:50Z</time>
      </trkpt>
      <trkpt lat="45.95929" lon="4.76888">
        <ele>192</ele>
        <time>2018-02-06T11:21:51Z</time>
      </trkpt>
      <trkpt lat="45.95921" lon="4.7688">
        <ele>192</ele>
        <time>2018-02-06T11:21:52Z</time>
      </trkpt>
      <trkpt lat="45.95913" lon="4.76872">
        <ele>191</ele>
        <time>2018-02-06T11:21:53Z</time>
      </trkpt>
      <trkpt lat="45.95906" lon="4.76864">
        <ele>191</ele>
        <time>2018-02-06T11:21:54Z</time>
      </trkpt>
      <trkpt lat="45.95898" lon="4.76856">
        <ele>191</ele>
        <time>2018-02-06T11:21:55Z</time>
      </trkpt>
      <trkpt lat="45.95891" lon="4.76848">
        <ele>191</ele>
        <time>2018-02-06T11:21:56Z</time>
      </trkpt>
      <trkpt lat="45.95884" lon="4.76841">
        <ele>191</ele>
        <time>2018-02-06T11:21:57Z</time>
      </trkpt>
      <trkpt lat="45.95877" lon="4.76834">
        <ele>191</ele>
        <time>2018-02-06T11:21:58Z</time>
      </trkpt>
      <trkpt lat="45.9587" lon="4.76826">
        <ele>191</ele>
        <time>2018-02-06T11:21:59Z</time>
      </trkpt>
      <trkpt lat="45.95864" lon="4.76819">
        <ele>191</ele>
        <time>2018-02-06T11:22:00Z</time>
      </trkpt>
      <trkpt lat="45.95857" lon="4.76813">
        <ele>191</ele>
        <time>2018-02-06T11:22:01Z</time>
      </trkpt>
      <trkpt lat="45.95851" lon="4.76806">
        <ele>191</ele>
        <time>2018-02-06T11:22:02Z</time>
      </trkpt>
      <trkpt lat="45.95845" lon="4.76799">
        <ele>191</ele>
        <time>2018-02-06T11:22:03Z</time>
      </trkpt>
      <trkpt lat="45.9584" lon="4.76792">
        <ele>191</ele>
        <time>2018-02-06T11:22:04Z</time>
      </trkpt>
      <trkpt lat="45.95835" lon="4.76785">
        <ele>191</ele>
        <time>2018-02-06T11:22:05Z</time>
      </trkpt>
      <trkpt lat="45.9583" lon="4.76777">
        <ele>190</ele>
        <time>2018-02-06T11:22:06Z</time>
      </trkpt>
      <trkpt lat="45.95829" lon="4.76768">
        <ele>190</ele>
        <time>2018-02-06T11:22:07Z</time>
      </trkpt>
      <trkpt lat="45.95826" lon="4.76758">
        <ele>191</ele>
        <time>2018-02-06T11:22:08Z</time>
      </trkpt>
      <trkpt lat="45.95823" lon="4.76749">
        <ele>190</ele>
        <time>2018-02-06T11:22:09Z</time>
      </trkpt>
      <trkpt lat="45.95822" lon="4.7674">
        <ele>190</ele>
        <time>2018-02-06T11:22:10Z</time>
      </trkpt>
      <trkpt lat="45.9582" lon="4.7673">
        <ele>190</ele>
        <time>2018-02-06T11:22:11Z</time>
      </trkpt>
      <trkpt lat="45.95819" lon="4.76721">
        <ele>189</ele>
        <time>2018-02-06T11:22:12Z</time>
      </trkpt>
      <trkpt lat="45.95817" lon="4.76712">
        <ele>189</ele>
        <time>2018-02-06T11:22:13Z</time>
      </trkpt>
      <trkpt lat="45.95816" lon="4.76702">
        <ele>189</ele>
        <time>2018-02-06T11:22:14Z</time>
      </trkpt>
      <trkpt lat="45.95815" lon="4.76693">
        <ele>189</ele>
        <time>2018-02-06T11:22:15Z</time>
      </trkpt>
      <trkpt lat="45.95814" lon="4.76684">
        <ele>189</ele>
        <time>2018-02-06T11:22:16Z</time>
      </trkpt>
      <trkpt lat="45.95813" lon="4.76675">
        <ele>189</ele>
        <time>2018-02-06T11:22:17Z</time>
      </trkpt>
      <trkpt lat="45.95811" lon="4.76665">
        <ele>188</ele>
        <time>2018-02-06T11:22:18Z</time>
      </trkpt>
      <trkpt lat="45.9581" lon="4.76656">
        <ele>188</ele>
        <time>2018-02-06T11:22:19Z</time>
      </trkpt>
      <trkpt lat="45.95808" lon="4.76646">
        <ele>188</ele>
        <time>2018-02-06T11:22:20Z</time>
      </trkpt>
      <trkpt lat="45.95806" lon="4.76638">
        <ele>188</ele>
        <time>2018-02-06T11:22:21Z</time>
      </trkpt>
      <trkpt lat="45.95805" lon="4.76629">
        <ele>188</ele>
        <time>2018-02-06T11:22:22Z</time>
      </trkpt>
      <trkpt lat="45.95804" lon="4.76621">
        <ele>188</ele>
        <time>2018-02-06T11:22:23Z</time>
      </trkpt>
      <trkpt lat="45.95803" lon="4.76612">
        <ele>188</ele>
        <time>2018-02-06T11:22:24Z</time>
      </trkpt>
      <trkpt lat="45.95801" lon="4.76603">
        <ele>187</ele>
        <time>2018-02-06T11:22:25Z</time>
      </trkpt>
      <trkpt lat="45.958" lon="4.76595">
        <ele>187</ele>
        <time>2018-02-06T11:22:26Z</time>
      </trkpt>
      <trkpt lat="45.95798" lon="4.76586">
        <ele>187</ele>
        <time>2018-02-06T11:22:27Z</time>
      </trkpt>
      <trkpt lat="45.95797" lon="4.76578">
        <ele>187</ele>
        <time>2018-02-06T11:22:28Z</time>
      </trkpt>
      <trkpt lat="45.95796" lon="4.7657">
        <ele>187</ele>
        <time>2018-02-06T11:22:29Z</time>
      </trkpt>
      <trkpt lat="45.95795" lon="4.76562">
        <ele>187</ele>
        <time>2018-02-06T11:22:30Z</time>
      </trkpt>
      <trkpt lat="45.95794" lon="4.76552">
        <ele>187</ele>
        <time>2018-02-06T11:22:31Z</time>
      </trkpt>
      <trkpt lat="45.95793" lon="4.76545">
        <ele>187</ele>
        <time>2018-02-06T11:22:32Z</time>
      </trkpt>
      <trkpt lat="45.95793" lon="4.76537">
        <ele>187</ele>
        <time>2018-02-06T11:22:33Z</time>
      </trkpt>
      <trkpt lat="45.95792" lon="4.7653">
        <ele>187</ele>
        <time>2018-02-06T11:22:34Z</time>
      </trkpt>
      <trkpt lat="45.95791" lon="4.76522">
        <ele>187</ele>
        <time>2018-02-06T11:22:35Z</time>
      </trkpt>
      <trkpt lat="45.9579" lon="4.76515">
        <ele>187</ele>
        <time>2018-02-06T11:22:36Z</time>
      </trkpt>
      <trkpt lat="45.95788" lon="4.76508">
        <ele>187</ele>
        <time>2018-02-06T11:22:37Z</time>
      </trkpt>
      <trkpt lat="45.95787" lon="4.76501">
        <ele>187</ele>
        <time>2018-02-06T11:22:38Z</time>
      </trkpt>
      <trkpt lat="45.95786" lon="4.76494">
        <ele>186</ele>
        <time>2018-02-06T11:22:39Z</time>
      </trkpt>
      <trkpt lat="45.95785" lon="4.76488">
        <ele>186</ele>
        <time>2018-02-06T11:22:40Z</time>
      </trkpt>
      <trkpt lat="45.95784" lon="4.7648">
        <ele>186</ele>
        <time>2018-02-06T11:22:41Z</time>
      </trkpt>
      <trkpt lat="45.95782" lon="4.76473">
        <ele>186</ele>
        <time>2018-02-06T11:22:42Z</time>
      </trkpt>
      <trkpt lat="45.95781" lon="4.76466">
        <ele>186</ele>
        <time>2018-02-06T11:22:43Z</time>
      </trkpt>
      <trkpt lat="45.9578" lon="4.76459">
        <ele>186</ele>
        <time>2018-02-06T11:22:44Z</time>
      </trkpt>
      <trkpt lat="45.95779" lon="4.76452">
        <ele>186</ele>
        <time>2018-02-06T11:22:45Z</time>
      </trkpt>
      <trkpt lat="45.95778" lon="4.76446">
        <ele>186</ele>
        <time>2018-02-06T11:22:46Z</time>
      </trkpt>
      <trkpt lat="45.95778" lon="4.76439">
        <ele>186</ele>
        <time>2018-02-06T11:22:47Z</time>
      </trkpt>
      <trkpt lat="45.95777" lon="4.76431">
        <ele>186</ele>
        <time>2018-02-06T11:22:48Z</time>
      </trkpt>
      <trkpt lat="45.95776" lon="4.76424">
        <ele>186</ele>
        <time>2018-02-06T11:22:49Z</time>
      </trkpt>
      <trkpt lat="45.95775" lon="4.76416">
        <ele>186</ele>
        <time>2018-02-06T11:22:50Z</time>
      </trkpt>
      <trkpt lat="45.95774" lon="4.76408">
        <ele>186</ele>
        <time>2018-02-06T11:22:51Z</time>
      </trkpt>
      <trkpt lat="45.95773" lon="4.76401">
        <ele>186</ele>
        <time>2018-02-06T11:22:52Z</time>
      </trkpt>
      <trkpt lat="45.95772" lon="4.76393">
        <ele>186</ele>
        <time>2018-02-06T11:22:53Z</time>
      </trkpt>
      <trkpt lat="45.95772" lon="4.76385">
        <ele>186</ele>
        <time>2018-02-06T11:22:54Z</time>
      </trkpt>
      <trkpt lat="45.95771" lon="4.76378">
        <ele>186</ele>
        <time>2018-02-06T11:22:55Z</time>
      </trkpt>
      <trkpt lat="45.95769" lon="4.76371">
        <ele>186</ele>
        <time>2018-02-06T11:22:56Z</time>
      </trkpt>
      <trkpt lat="45.95769" lon="4.76363">
        <ele>186</ele>
        <time>2018-02-06T11:22:57Z</time>
      </trkpt>
      <trkpt lat="45.95768" lon="4.76356">
        <ele>186</ele>
        <time>2018-02-06T11:22:58Z</time>
      </trkpt>
      <trkpt lat="45.95767" lon="4.76348">
        <ele>186</ele>
        <time>2018-02-06T11:22:59Z</time>
      </trkpt>
      <trkpt lat="45.95768" lon="4.7634">
        <ele>186</ele>
        <time>2018-02-06T11:23:00Z</time>
      </trkpt>
      <trkpt lat="45.95767" lon="4.76332">
        <ele>185</ele>
        <time>2018-02-06T11:23:01Z</time>
      </trkpt>
      <trkpt lat="45.95767" lon="4.76325">
        <ele>185</ele>
        <time>2018-02-06T11:23:02Z</time>
      </trkpt>
      <trkpt lat="45.95766" lon="4.76317">
        <ele>185</ele>
        <time>2018-02-06T11:23:03Z</time>
      </trkpt>
      <trkpt lat="45.95766" lon="4.76308">
        <ele>185</ele>
        <time>2018-02-06T11:23:04Z</time>
      </trkpt>
      <trkpt lat="45.95766" lon="4.763">
        <ele>186</ele>
        <time>2018-02-06T11:23:05Z</time>
      </trkpt>
      <trkpt lat="45.95766" lon="4.76293">
        <ele>186</ele>
        <time>2018-02-06T11:23:06Z</time>
      </trkpt>
      <trkpt lat="45.95766" lon="4.76284">
        <ele>186</ele>
        <time>2018-02-06T11:23:07Z</time>
      </trkpt>
      <trkpt lat="45.95766" lon="4.76277">
        <ele>186</ele>
        <time>2018-02-06T11:23:08Z</time>
      </trkpt>
      <trkpt lat="45.95765" lon="4.76269">
        <ele>185</ele>
        <time>2018-02-06T11:23:09Z</time>
      </trkpt>
      <trkpt lat="45.95764" lon="4.76261">
        <ele>185</ele>
        <time>2018-02-06T11:23:10Z</time>
      </trkpt>
      <trkpt lat="45.95764" lon="4.76253">
        <ele>185</ele>
        <time>2018-02-06T11:23:11Z</time>
      </trkpt>
      <trkpt lat="45.95764" lon="4.76246">
        <ele>185</ele>
        <time>2018-02-06T11:23:12Z</time>
      </trkpt>
      <trkpt lat="45.95763" lon="4.76237">
        <ele>186</ele>
        <time>2018-02-06T11:23:13Z</time>
      </trkpt>
      <trkpt lat="45.95763" lon="4.76229">
        <ele>186</ele>
        <time>2018-02-06T11:23:14Z</time>
      </trkpt>
      <trkpt lat="45.95763" lon="4.76221">
        <ele>186</ele>
        <time>2018-02-06T11:23:15Z</time>
      </trkpt>
      <trkpt lat="45.95762" lon="4.76214">
        <ele>186</ele>
        <time>2018-02-06T11:23:16Z</time>
      </trkpt>
      <trkpt lat="45.95762" lon="4.76206">
        <ele>186</ele>
        <time>2018-02-06T11:23:17Z</time>
      </trkpt>
      <trkpt lat="45.95762" lon="4.76199">
        <ele>186</ele>
        <time>2018-02-06T11:23:18Z</time>
      </trkpt>
      <trkpt lat="45.95761" lon="4.76191">
        <ele>186</ele>
        <time>2018-02-06T11:23:19Z</time>
      </trkpt>
      <trkpt lat="45.95761" lon="4.76183">
        <ele>186</ele>
        <time>2018-02-06T11:23:20Z</time>
      </trkpt>
      <trkpt lat="45.95761" lon="4.76176">
        <ele>185</ele>
        <time>2018-02-06T11:23:21Z</time>
      </trkpt>
      <trkpt lat="45.95761" lon="4.76168">
        <ele>185</ele>
        <time>2018-02-06T11:23:22Z</time>
      </trkpt>
      <trkpt lat="45.9576" lon="4.7616">
        <ele>186</ele>
        <time>2018-02-06T11:23:23Z</time>
      </trkpt>
      <trkpt lat="45.9576" lon="4.76152">
        <ele>186</ele>
        <time>2018-02-06T11:23:24Z</time>
      </trkpt>
      <trkpt lat="45.95759" lon="4.76144">
        <ele>186</ele>
        <time>2018-02-06T11:23:25Z</time>
      </trkpt>
      <trkpt lat="45.95759" lon="4.76136">
        <ele>186</ele>
        <time>2018-02-06T11:23:26Z</time>
      </trkpt>
      <trkpt lat="45.95758" lon="4.76129">
        <ele>186</ele>
        <time>2018-02-06T11:23:27Z</time>
      </trkpt>
      <trkpt lat="45.95757" lon="4.76122">
        <ele>186</ele>
        <time>2018-02-06T11:23:28Z</time>
      </trkpt>
      <trkpt lat="45.95755" lon="4.76115">
        <ele>186</ele>
        <time>2018-02-06T11:23:29Z</time>
      </trkpt>
      <trkpt lat="45.95755" lon="4.76107">
        <ele>186</ele>
        <time>2018-02-06T11:23:30Z</time>
      </trkpt>
      <trkpt lat="45.95753" lon="4.761">
        <ele>186</ele>
        <time>2018-02-06T11:23:31Z</time>
      </trkpt>
      <trkpt lat="45.95751" lon="4.76093">
        <ele>185</ele>
        <time>2018-02-06T11:23:32Z</time>
      </trkpt>
      <trkpt lat="45.95749" lon="4.76086">
        <ele>185</ele>
        <time>2018-02-06T11:23:33Z</time>
      </trkpt>
      <trkpt lat="45.95747" lon="4.76079">
        <ele>185</ele>
        <time>2018-02-06T11:23:34Z</time>
      </trkpt>
      <trkpt lat="45.95744" lon="4.7607">
        <ele>185</ele>
        <time>2018-02-06T11:23:35Z</time>
      </trkpt>
      <trkpt lat="45.9574" lon="4.76064">
        <ele>184</ele>
        <time>2018-02-06T11:23:36Z</time>
      </trkpt>
      <trkpt lat="45.95737" lon="4.76057">
        <ele>184</ele>
        <time>2018-02-06T11:23:37Z</time>
      </trkpt>
      <trkpt lat="45.95734" lon="4.76049">
        <ele>184</ele>
        <time>2018-02-06T11:23:38Z</time>
      </trkpt>
      <trkpt lat="45.95731" lon="4.76042">
        <ele>184</ele>
        <time>2018-02-06T11:23:39Z</time>
      </trkpt>
      <trkpt lat="45.95728" lon="4.76035">
        <ele>184</ele>
        <time>2018-02-06T11:23:40Z</time>
      </trkpt>
      <trkpt lat="45.95724" lon="4.76027">
        <ele>184</ele>
        <time>2018-02-06T11:23:41Z</time>
      </trkpt>
      <trkpt lat="45.95721" lon="4.76019">
        <ele>184</ele>
        <time>2018-02-06T11:23:42Z</time>
      </trkpt>
      <trkpt lat="45.95717" lon="4.76013">
        <ele>184</ele>
        <time>2018-02-06T11:23:43Z</time>
      </trkpt>
      <trkpt lat="45.95714" lon="4.76005">
        <ele>184</ele>
        <time>2018-02-06T11:23:44Z</time>
      </trkpt>
      <trkpt lat="45.95711" lon="4.75997">
        <ele>185</ele>
        <time>2018-02-06T11:23:45Z</time>
      </trkpt>
      <trkpt lat="45.95708" lon="4.7599">
        <ele>185</ele>
        <time>2018-02-06T11:23:46Z</time>
      </trkpt>
      <trkpt lat="45.95705" lon="4.75984">
        <ele>185</ele>
        <time>2018-02-06T11:23:47Z</time>
      </trkpt>
      <trkpt lat="45.95702" lon="4.75978">
        <ele>185</ele>
        <time>2018-02-06T11:23:48Z</time>
      </trkpt>
      <trkpt lat="45.95699" lon="4.75971">
        <ele>185</ele>
        <time>2018-02-06T11:23:49Z</time>
      </trkpt>
      <trkpt lat="45.95695" lon="4.75964">
        <ele>185</ele>
        <time>2018-02-06T11:23:50Z</time>
      </trkpt>
      <trkpt lat="45.95692" lon="4.75957">
        <ele>185</ele>
        <time>2018-02-06T11:23:51Z</time>
      </trkpt>
      <trkpt lat="45.95689" lon="4.7595">
        <ele>185</ele>
        <time>2018-02-06T11:23:52Z</time>
      </trkpt>
      <trkpt lat="45.95685" lon="4.75942">
        <ele>185</ele>
        <time>2018-02-06T11:23:53Z</time>
      </trkpt>
      <trkpt lat="45.95682" lon="4.75935">
        <ele>185</ele>
        <time>2018-02-06T11:23:54Z</time>
      </trkpt>
      <trkpt lat="45.95679" lon="4.75928">
        <ele>185</ele>
        <time>2018-02-06T11:23:55Z</time>
      </trkpt>
      <trkpt lat="45.95675" lon="4.7592">
        <ele>184</ele>
        <time>2018-02-06T11:23:56Z</time>
      </trkpt>
      <trkpt lat="45.95672" lon="4.75913">
        <ele>185</ele>
        <time>2018-02-06T11:23:57Z</time>
      </trkpt>
      <trkpt lat="45.95669" lon="4.75905">
        <ele>185</ele>
        <time>2018-02-06T11:23:58Z</time>
      </trkpt>
      <trkpt lat="45.95666" lon="4.75897">
        <ele>184</ele>
        <time>2018-02-06T11:23:59Z</time>
      </trkpt>
      <trkpt lat="45.95664" lon="4.7589">
        <ele>184</ele>
        <time>2018-02-06T11:24:00Z</time>
      </trkpt>
      <trkpt lat="45.95661" lon="4.75883">
        <ele>184</ele>
        <time>2018-02-06T11:24:01Z</time>
      </trkpt>
      <trkpt lat="45.95658" lon="4.75876">
        <ele>184</ele>
        <time>2018-02-06T11:24:02Z</time>
      </trkpt>
      <trkpt lat="45.95656" lon="4.75869">
        <ele>184</ele>
        <time>2018-02-06T11:24:03Z</time>
      </trkpt>
      <trkpt lat="45.95655" lon="4.75861">
        <ele>184</ele>
        <time>2018-02-06T11:24:04Z</time>
      </trkpt>
      <trkpt lat="45.95653" lon="4.75854">
        <ele>184</ele>
        <time>2018-02-06T11:24:05Z</time>
      </trkpt>
      <trkpt lat="45.95651" lon="4.75847">
        <ele>185</ele>
        <time>2018-02-06T11:24:06Z</time>
      </trkpt>
      <trkpt lat="45.9565" lon="4.7584">
        <ele>185</ele>
        <time>2018-02-06T11:24:07Z</time>
      </trkpt>
      <trkpt lat="45.95647" lon="4.75833">
        <ele>185</ele>
        <time>2018-02-06T11:24:08Z</time>
      </trkpt>
      <trkpt lat="45.95645" lon="4.75826">
        <ele>185</ele>
        <time>2018-02-06T11:24:09Z</time>
      </trkpt>
      <trkpt lat="45.95643" lon="4.75819">
        <ele>185</ele>
        <time>2018-02-06T11:24:10Z</time>
      </trkpt>
      <trkpt lat="45.95643" lon="4.75813">
        <ele>185</ele>
        <time>2018-02-06T11:24:11Z</time>
      </trkpt>
      <trkpt lat="45.95641" lon="4.75806">
        <ele>185</ele>
        <time>2018-02-06T11:24:12Z</time>
      </trkpt>
      <trkpt lat="45.9564" lon="4.758">
        <ele>185</ele>
        <time>2018-02-06T11:24:13Z</time>
      </trkpt>
      <trkpt lat="45.95639" lon="4.75793">
        <ele>185</ele>
        <time>2018-02-06T11:24:14Z</time>
      </trkpt>
      <trkpt lat="45.95639" lon="4.75785">
        <ele>185</ele>
        <time>2018-02-06T11:24:15Z</time>
      </trkpt>
      <trkpt lat="45.95639" lon="4.75778">
        <ele>186</ele>
        <time>2018-02-06T11:24:16Z</time>
      </trkpt>
      <trkpt lat="45.95638" lon="4.75771">
        <ele>186</ele>
        <time>2018-02-06T11:24:17Z</time>
      </trkpt>
      <trkpt lat="45.95636" lon="4.75759">
        <ele>186</ele>
        <time>2018-02-06T11:24:19Z</time>
      </trkpt>
      <trkpt lat="45.95636" lon="4.75751">
        <ele>186</ele>
        <time>2018-02-06T11:24:20Z</time>
      </trkpt>
      <trkpt lat="45.95635" lon="4.75743">
        <ele>187</ele>
        <time>2018-02-06T11:24:21Z</time>
      </trkpt>
      <trkpt lat="45.95634" lon="4.75736">
        <ele>187</ele>
        <time>2018-02-06T11:24:22Z</time>
      </trkpt>
      <trkpt lat="45.95633" lon="4.75729">
        <ele>187</ele>
        <time>2018-02-06T11:24:23Z</time>
      </trkpt>
      <trkpt lat="45.95632" lon="4.75721">
        <ele>187</ele>
        <time>2018-02-06T11:24:24Z</time>
      </trkpt>
      <trkpt lat="45.95631" lon="4.75713">
        <ele>187</ele>
        <time>2018-02-06T11:24:25Z</time>
      </trkpt>
      <trkpt lat="45.95629" lon="4.75708">
        <ele>187</ele>
        <time>2018-02-06T11:24:26Z</time>
      </trkpt>
      <trkpt lat="45.95628" lon="4.757">
        <ele>187</ele>
        <time>2018-02-06T11:24:27Z</time>
      </trkpt>
      <trkpt lat="45.95627" lon="4.75694">
        <ele>187</ele>
        <time>2018-02-06T11:24:28Z</time>
      </trkpt>
      <trkpt lat="45.95626" lon="4.75687">
        <ele>187</ele>
        <time>2018-02-06T11:24:29Z</time>
      </trkpt>
      <trkpt lat="45.95625" lon="4.7568">
        <ele>187</ele>
        <time>2018-02-06T11:24:30Z</time>
      </trkpt>
      <trkpt lat="45.95623" lon="4.75673">
        <ele>187</ele>
        <time>2018-02-06T11:24:31Z</time>
      </trkpt>
      <trkpt lat="45.95622" lon="4.75667">
        <ele>188</ele>
        <time>2018-02-06T11:24:32Z</time>
      </trkpt>
      <trkpt lat="45.9562" lon="4.75659">
        <ele>188</ele>
        <time>2018-02-06T11:24:33Z</time>
      </trkpt>
      <trkpt lat="45.95619" lon="4.75653">
        <ele>188</ele>
        <time>2018-02-06T11:24:34Z</time>
      </trkpt>
      <trkpt lat="45.95617" lon="4.75646">
        <ele>188</ele>
        <time>2018-02-06T11:24:35Z</time>
      </trkpt>
      <trkpt lat="45.95616" lon="4.7564">
        <ele>188</ele>
        <time>2018-02-06T11:24:36Z</time>
      </trkpt>
      <trkpt lat="45.95615" lon="4.75634">
        <ele>188</ele>
        <time>2018-02-06T11:24:37Z</time>
      </trkpt>
      <trkpt lat="45.95613" lon="4.75627">
        <ele>188</ele>
        <time>2018-02-06T11:24:38Z</time>
      </trkpt>
      <trkpt lat="45.95611" lon="4.7562">
        <ele>188</ele>
        <time>2018-02-06T11:24:39Z</time>
      </trkpt>
      <trkpt lat="45.9561" lon="4.75614">
        <ele>188</ele>
        <time>2018-02-06T11:24:40Z</time>
      </trkpt>
      <trkpt lat="45.95607" lon="4.75607">
        <ele>188</ele>
        <time>2018-02-06T11:24:41Z</time>
      </trkpt>
      <trkpt lat="45.95605" lon="4.75601">
        <ele>187</ele>
        <time>2018-02-06T11:24:42Z</time>
      </trkpt>
      <trkpt lat="45.95602" lon="4.75595">
        <ele>187</ele>
        <time>2018-02-06T11:24:43Z</time>
      </trkpt>
      <trkpt lat="45.95599" lon="4.75589">
        <ele>187</ele>
        <time>2018-02-06T11:24:44Z</time>
      </trkpt>
      <trkpt lat="45.95594" lon="4.75579">
        <ele>187</ele>
        <time>2018-02-06T11:24:46Z</time>
      </trkpt>
      <trkpt lat="45.95591" lon="4.75574">
        <ele>187</ele>
        <time>2018-02-06T11:24:47Z</time>
      </trkpt>
      <trkpt lat="45.95588" lon="4.75568">
        <ele>188</ele>
        <time>2018-02-06T11:24:48Z</time>
      </trkpt>
      <trkpt lat="45.95585" lon="4.75563">
        <ele>188</ele>
        <time>2018-02-06T11:24:49Z</time>
      </trkpt>
      <trkpt lat="45.95582" lon="4.75557">
        <ele>186</ele>
        <time>2018-02-06T11:24:50Z</time>
      </trkpt>
      <trkpt lat="45.95577" lon="4.75551">
        <ele>186</ele>
        <time>2018-02-06T11:24:51Z</time>
      </trkpt>
      <trkpt lat="45.95573" lon="4.75546">
        <ele>186</ele>
        <time>2018-02-06T11:24:52Z</time>
      </trkpt>
      <trkpt lat="45.95569" lon="4.75541">
        <ele>186</ele>
        <time>2018-02-06T11:24:53Z</time>
      </trkpt>
      <trkpt lat="45.95565" lon="4.75536">
        <ele>186</ele>
        <time>2018-02-06T11:24:54Z</time>
      </trkpt>
      <trkpt lat="45.95561" lon="4.75531">
        <ele>186</ele>
        <time>2018-02-06T11:24:55Z</time>
      </trkpt>
      <trkpt lat="45.95556" lon="4.75526">
        <ele>186</ele>
        <time>2018-02-06T11:24:56Z</time>
      </trkpt>
      <trkpt lat="45.95552" lon="4.75521">
        <ele>186</ele>
        <time>2018-02-06T11:24:57Z</time>
      </trkpt>
      <trkpt lat="45.95549" lon="4.75517">
        <ele>186</ele>
        <time>2018-02-06T11:24:58Z</time>
      </trkpt>
      <trkpt lat="45.95545" lon="4.75513">
        <ele>186</ele>
        <time>2018-02-06T11:24:59Z</time>
      </trkpt>
      <trkpt lat="45.9554" lon="4.75502">
        <ele>186</ele>
        <time>2018-02-06T11:25:01Z</time>
      </trkpt>
      <trkpt lat="45.95539" lon="4.75496">
        <ele>187</ele>
        <time>2018-02-06T11:25:02Z</time>
      </trkpt>
      <trkpt lat="45.95539" lon="4.75484">
        <ele>187</ele>
        <time>2018-02-06T11:25:04Z</time>
      </trkpt>
      <trkpt lat="45.95539" lon="4.75479">
        <ele>187</ele>
        <time>2018-02-06T11:25:05Z</time>
      </trkpt>
      <trkpt lat="45.95539" lon="4.75466">
        <ele>187</ele>
        <time>2018-02-06T11:25:07Z</time>
      </trkpt>
      <trkpt lat="45.95538" lon="4.75459">
        <ele>187</ele>
        <time>2018-02-06T11:25:08Z</time>
      </trkpt>
      <trkpt lat="45.95532" lon="4.7545">
        <ele>187</ele>
        <time>2018-02-06T11:25:10Z</time>
      </trkpt>
      <trkpt lat="45.95528" lon="4.75446">
        <ele>187</ele>
        <time>2018-02-06T11:25:11Z</time>
      </trkpt>
      <trkpt lat="45.95524" lon="4.75442">
        <ele>187</ele>
        <time>2018-02-06T11:25:12Z</time>
      </trkpt>
      <trkpt lat="45.95519" lon="4.75437">
        <ele>187</ele>
        <time>2018-02-06T11:25:13Z</time>
      </trkpt>
      <trkpt lat="45.95516" lon="4.75431">
        <ele>186</ele>
        <time>2018-02-06T11:25:14Z</time>
      </trkpt>
      <trkpt lat="45.95512" lon="4.75425">
        <ele>186</ele>
        <time>2018-02-06T11:25:15Z</time>
      </trkpt>
      <trkpt lat="45.9551" lon="4.75417">
        <ele>186</ele>
        <time>2018-02-06T11:25:16Z</time>
      </trkpt>
      <trkpt lat="45.95509" lon="4.75411">
        <ele>187</ele>
        <time>2018-02-06T11:25:17Z</time>
      </trkpt>
      <trkpt lat="45.95506" lon="4.75404">
        <ele>187</ele>
        <time>2018-02-06T11:25:18Z</time>
      </trkpt>
      <trkpt lat="45.95503" lon="4.75398">
        <ele>187</ele>
        <time>2018-02-06T11:25:19Z</time>
      </trkpt>
      <trkpt lat="45.95502" lon="4.75391">
        <ele>188</ele>
        <time>2018-02-06T11:25:20Z</time>
      </trkpt>
      <trkpt lat="45.95499" lon="4.75386">
        <ele>185</ele>
        <time>2018-02-06T11:25:21Z</time>
      </trkpt>
      <trkpt lat="45.95495" lon="4.75376">
        <ele>185</ele>
        <time>2018-02-06T11:25:23Z</time>
      </trkpt>
      <trkpt lat="45.95492" lon="4.75371">
        <ele>185</ele>
        <time>2018-02-06T11:25:24Z</time>
      </trkpt>
      <trkpt lat="45.9549" lon="4.75366">
        <ele>186</ele>
        <time>2018-02-06T11:25:25Z</time>
      </trkpt>
      <trkpt lat="45.95487" lon="4.75361">
        <ele>186</ele>
        <time>2018-02-06T11:25:26Z</time>
      </trkpt>
      <trkpt lat="45.95484" lon="4.75355">
        <ele>186</ele>
        <time>2018-02-06T11:25:27Z</time>
      </trkpt>
      <trkpt lat="45.9548" lon="4.75351">
        <ele>186</ele>
        <time>2018-02-06T11:25:28Z</time>
      </trkpt>
      <trkpt lat="45.95477" lon="4.75345">
        <ele>186</ele>
        <time>2018-02-06T11:25:29Z</time>
      </trkpt>
      <trkpt lat="45.95474" lon="4.7534">
        <ele>186</ele>
        <time>2018-02-06T11:25:30Z</time>
      </trkpt>
      <trkpt lat="45.95472" lon="4.75334">
        <ele>186</ele>
        <time>2018-02-06T11:25:31Z</time>
      </trkpt>
      <trkpt lat="45.9547" lon="4.75328">
        <ele>188</ele>
        <time>2018-02-06T11:25:32Z</time>
      </trkpt>
      <trkpt lat="45.95466" lon="4.75322">
        <ele>188</ele>
        <time>2018-02-06T11:25:33Z</time>
      </trkpt>
      <trkpt lat="45.95463" lon="4.75317">
        <ele>188</ele>
        <time>2018-02-06T11:25:34Z</time>
      </trkpt>
      <trkpt lat="45.9546" lon="4.75311">
        <ele>188</ele>
        <time>2018-02-06T11:25:35Z</time>
      </trkpt>
      <trkpt lat="45.95457" lon="4.75306">
        <ele>188</ele>
        <time>2018-02-06T11:25:36Z</time>
      </trkpt>
      <trkpt lat="45.95454" lon="4.75299">
        <ele>188</ele>
        <time>2018-02-06T11:25:37Z</time>
      </trkpt>
      <trkpt lat="45.95451" lon="4.75293">
        <ele>188</ele>
        <time>2018-02-06T11:25:38Z</time>
      </trkpt>
      <trkpt lat="45.95448" lon="4.75288">
        <ele>188</ele>
        <time>2018-02-06T11:25:39Z</time>
      </trkpt>
      <trkpt lat="45.95443" lon="4.75281">
        <ele>188</ele>
        <time>2018-02-06T11:25:40Z</time>
      </trkpt>
      <trkpt lat="45.9544" lon="4.75277">
        <ele>188</ele>
        <time>2018-02-06T11:25:41Z</time>
      </trkpt>
      <trkpt lat="45.95437" lon="4.75271">
        <ele>189</ele>
        <time>2018-02-06T11:25:42Z</time>
      </trkpt>
      <trkpt lat="45.95433" lon="4.75265">
        <ele>189</ele>
        <time>2018-02-06T11:25:43Z</time>
      </trkpt>
      <trkpt lat="45.9543" lon="4.7526">
        <ele>189</ele>
        <time>2018-02-06T11:25:44Z</time>
      </trkpt>
      <trkpt lat="45.95427" lon="4.75253">
        <ele>189</ele>
        <time>2018-02-06T11:25:45Z</time>
      </trkpt>
      <trkpt lat="45.95425" lon="4.75247">
        <ele>190</ele>
        <time>2018-02-06T11:25:46Z</time>
      </trkpt>
      <trkpt lat="45.95421" lon="4.75242">
        <ele>190</ele>
        <time>2018-02-06T11:25:47Z</time>
      </trkpt>
      <trkpt lat="45.95418" lon="4.75237">
        <ele>190</ele>
        <time>2018-02-06T11:25:48Z</time>
      </trkpt>
      <trkpt lat="45.95415" lon="4.75231">
        <ele>189</ele>
        <time>2018-02-06T11:25:49Z</time>
      </trkpt>
      <trkpt lat="45.95412" lon="4.75225">
        <ele>189</ele>
        <time>2018-02-06T11:25:50Z</time>
      </trkpt>
      <trkpt lat="45.9541" lon="4.75219">
        <ele>189</ele>
        <time>2018-02-06T11:25:51Z</time>
      </trkpt>
      <trkpt lat="45.95406" lon="4.75213">
        <ele>189</ele>
        <time>2018-02-06T11:25:52Z</time>
      </trkpt>
      <trkpt lat="45.95402" lon="4.75207">
        <ele>189</ele>
        <time>2018-02-06T11:25:53Z</time>
      </trkpt>
      <trkpt lat="45.95398" lon="4.75201">
        <ele>189</ele>
        <time>2018-02-06T11:25:54Z</time>
      </trkpt>
      <trkpt lat="45.95396" lon="4.75195">
        <ele>189</ele>
        <time>2018-02-06T11:25:55Z</time>
      </trkpt>
      <trkpt lat="45.95393" lon="4.75189">
        <ele>189</ele>
        <time>2018-02-06T11:25:56Z</time>
      </trkpt>
      <trkpt lat="45.95389" lon="4.75183">
        <ele>189</ele>
        <time>2018-02-06T11:25:57Z</time>
      </trkpt>
      <trkpt lat="45.95386" lon="4.75176">
        <ele>189</ele>
        <time>2018-02-06T11:25:58Z</time>
      </trkpt>
      <trkpt lat="45.95382" lon="4.75172">
        <ele>189</ele>
        <time>2018-02-06T11:25:59Z</time>
      </trkpt>
      <trkpt lat="45.95379" lon="4.75166">
        <ele>191</ele>
        <time>2018-02-06T11:26:00Z</time>
      </trkpt>
      <trkpt lat="45.95375" lon="4.75161">
        <ele>191</ele>
        <time>2018-02-06T11:26:01Z</time>
      </trkpt>
      <trkpt lat="45.95371" lon="4.75156">
        <ele>191</ele>
        <time>2018-02-06T11:26:02Z</time>
      </trkpt>
      <trkpt lat="45.95367" lon="4.7515">
        <ele>191</ele>
        <time>2018-02-06T11:26:03Z</time>
      </trkpt>
      <trkpt lat="45.95363" lon="4.75144">
        <ele>191</ele>
        <time>2018-02-06T11:26:04Z</time>
      </trkpt>
      <trkpt lat="45.9536" lon="4.75138">
        <ele>191</ele>
        <time>2018-02-06T11:26:05Z</time>
      </trkpt>
      <trkpt lat="45.95357" lon="4.7513">
        <ele>191</ele>
        <time>2018-02-06T11:26:06Z</time>
      </trkpt>
      <trkpt lat="45.95354" lon="4.75124">
        <ele>191</ele>
        <time>2018-02-06T11:26:07Z</time>
      </trkpt>
      <trkpt lat="45.95351" lon="4.75118">
        <ele>191</ele>
        <time>2018-02-06T11:26:08Z</time>
      </trkpt>
      <trkpt lat="45.95347" lon="4.75114">
        <ele>192</ele>
        <time>2018-02-06T11:26:09Z</time>
      </trkpt>
      <trkpt lat="45.95343" lon="4.75108">
        <ele>192</ele>
        <time>2018-02-06T11:26:10Z</time>
      </trkpt>
      <trkpt lat="45.9534" lon="4.75102">
        <ele>192</ele>
        <time>2018-02-06T11:26:11Z</time>
      </trkpt>
      <trkpt lat="45.95336" lon="4.75097">
        <ele>192</ele>
        <time>2018-02-06T11:26:12Z</time>
      </trkpt>
      <trkpt lat="45.95333" lon="4.75091">
        <ele>192</ele>
        <time>2018-02-06T11:26:13Z</time>
      </trkpt>
      <trkpt lat="45.95329" lon="4.75086">
        <ele>192</ele>
        <time>2018-02-06T11:26:14Z</time>
      </trkpt>
      <trkpt lat="45.95325" lon="4.75081">
        <ele>192</ele>
        <time>2018-02-06T11:26:15Z</time>
      </trkpt>
      <trkpt lat="45.95321" lon="4.75076">
        <ele>192</ele>
        <time>2018-02-06T11:26:16Z</time>
      </trkpt>
      <trkpt lat="45.95318" lon="4.75071">
        <ele>192</ele>
        <time>2018-02-06T11:26:17Z</time>
      </trkpt>
      <trkpt lat="45.95314" lon="4.75066">
        <ele>192</ele>
        <time>2018-02-06T11:26:18Z</time>
      </trkpt>
      <trkpt lat="45.95311" lon="4.75061">
        <ele>192</ele>
        <time>2018-02-06T11:26:19Z</time>
      </trkpt>
      <trkpt lat="45.95307" lon="4.75054">
        <ele>192</ele>
        <time>2018-02-06T11:26:20Z</time>
      </trkpt>
      <trkpt lat="45.95304" lon="4.75048">
        <ele>191</ele>
        <time>2018-02-06T11:26:21Z</time>
      </trkpt>
      <trkpt lat="45.95299" lon="4.75044">
        <ele>191</ele>
        <time>2018-02-06T11:26:22Z</time>
      </trkpt>
      <trkpt lat="45.95296" lon="4.75038">
        <ele>191</ele>
        <time>2018-02-06T11:26:23Z</time>
      </trkpt>
      <trkpt lat="45.95292" lon="4.75033">
        <ele>191</ele>
        <time>2018-02-06T11:26:24Z</time>
      </trkpt>
      <trkpt lat="45.95288" lon="4.75027">
        <ele>191</ele>
        <time>2018-02-06T11:26:25Z</time>
      </trkpt>
      <trkpt lat="45.95284" lon="4.75023">
        <ele>191</ele>
        <time>2018-02-06T11:26:26Z</time>
      </trkpt>
      <trkpt lat="45.95281" lon="4.75017">
        <ele>191</ele>
        <time>2018-02-06T11:26:27Z</time>
      </trkpt>
      <trkpt lat="45.95278" lon="4.75012">
        <ele>191</ele>
        <time>2018-02-06T11:26:28Z</time>
      </trkpt>
      <trkpt lat="45.95275" lon="4.75006">
        <ele>191</ele>
        <time>2018-02-06T11:26:29Z</time>
      </trkpt>
      <trkpt lat="45.95272" lon="4.75001">
        <ele>191</ele>
        <time>2018-02-06T11:26:30Z</time>
      </trkpt>
      <trkpt lat="45.95268" lon="4.74994">
        <ele>192</ele>
        <time>2018-02-06T11:26:31Z</time>
      </trkpt>
      <trkpt lat="45.95265" lon="4.74989">
        <ele>192</ele>
        <time>2018-02-06T11:26:32Z</time>
      </trkpt>
      <trkpt lat="45.95261" lon="4.74984">
        <ele>192</ele>
        <time>2018-02-06T11:26:33Z</time>
      </trkpt>
      <trkpt lat="45.95258" lon="4.74979">
        <ele>192</ele>
        <time>2018-02-06T11:26:34Z</time>
      </trkpt>
      <trkpt lat="45.95254" lon="4.74974">
        <ele>192</ele>
        <time>2018-02-06T11:26:35Z</time>
      </trkpt>
      <trkpt lat="45.9525" lon="4.74968">
        <ele>192</ele>
        <time>2018-02-06T11:26:36Z</time>
      </trkpt>
      <trkpt lat="45.95246" lon="4.74962">
        <ele>191</ele>
        <time>2018-02-06T11:26:37Z</time>
      </trkpt>
      <trkpt lat="45.95243" lon="4.74956">
        <ele>192</ele>
        <time>2018-02-06T11:26:38Z</time>
      </trkpt>
      <trkpt lat="45.9524" lon="4.74951">
        <ele>192</ele>
        <time>2018-02-06T11:26:39Z</time>
      </trkpt>
      <trkpt lat="45.95237" lon="4.74945">
        <ele>192</ele>
        <time>2018-02-06T11:26:40Z</time>
      </trkpt>
      <trkpt lat="45.95233" lon="4.74939">
        <ele>192</ele>
        <time>2018-02-06T11:26:41Z</time>
      </trkpt>
      <trkpt lat="45.9523" lon="4.74934">
        <ele>192</ele>
        <time>2018-02-06T11:26:42Z</time>
      </trkpt>
      <trkpt lat="45.95226" lon="4.74929">
        <ele>192</ele>
        <time>2018-02-06T11:26:43Z</time>
      </trkpt>
      <trkpt lat="45.95223" lon="4.74923">
        <ele>192</ele>
        <time>2018-02-06T11:26:44Z</time>
      </trkpt>
      <trkpt lat="45.95219" lon="4.74917">
        <ele>192</ele>
        <time>2018-02-06T11:26:45Z</time>
      </trkpt>
      <trkpt lat="45.95216" lon="4.74912">
        <ele>193</ele>
        <time>2018-02-06T11:26:46Z</time>
      </trkpt>
      <trkpt lat="45.95212" lon="4.74907">
        <ele>193</ele>
        <time>2018-02-06T11:26:47Z</time>
      </trkpt>
      <trkpt lat="45.95208" lon="4.74901">
        <ele>194</ele>
        <time>2018-02-06T11:26:48Z</time>
      </trkpt>
      <trkpt lat="45.95204" lon="4.74895">
        <ele>194</ele>
        <time>2018-02-06T11:26:49Z</time>
      </trkpt>
      <trkpt lat="45.952" lon="4.74889">
        <ele>194</ele>
        <time>2018-02-06T11:26:50Z</time>
      </trkpt>
      <trkpt lat="45.95196" lon="4.74884">
        <ele>194</ele>
        <time>2018-02-06T11:26:51Z</time>
      </trkpt>
      <trkpt lat="45.95192" lon="4.74878">
        <ele>194</ele>
        <time>2018-02-06T11:26:52Z</time>
      </trkpt>
      <trkpt lat="45.95189" lon="4.74872">
        <ele>194</ele>
        <time>2018-02-06T11:26:53Z</time>
      </trkpt>
      <trkpt lat="45.95185" lon="4.74867">
        <ele>194</ele>
        <time>2018-02-06T11:26:54Z</time>
      </trkpt>
      <trkpt lat="45.95181" lon="4.74861">
        <ele>194</ele>
        <time>2018-02-06T11:26:55Z</time>
      </trkpt>
      <trkpt lat="45.95177" lon="4.74853">
        <ele>194</ele>
        <time>2018-02-06T11:26:56Z</time>
      </trkpt>
      <trkpt lat="45.95173" lon="4.74847">
        <ele>194</ele>
        <time>2018-02-06T11:26:57Z</time>
      </trkpt>
      <trkpt lat="45.95168" lon="4.74841">
        <ele>194</ele>
        <time>2018-02-06T11:26:58Z</time>
      </trkpt>
      <trkpt lat="45.95165" lon="4.74835">
        <ele>194</ele>
        <time>2018-02-06T11:26:59Z</time>
      </trkpt>
      <trkpt lat="45.95161" lon="4.74829">
        <ele>194</ele>
        <time>2018-02-06T11:27:00Z</time>
      </trkpt>
      <trkpt lat="45.95156" lon="4.74823">
        <ele>194</ele>
        <time>2018-02-06T11:27:01Z</time>
      </trkpt>
      <trkpt lat="45.95152" lon="4.74816">
        <ele>194</ele>
        <time>2018-02-06T11:27:02Z</time>
      </trkpt>
      <trkpt lat="45.95149" lon="4.7481">
        <ele>194</ele>
        <time>2018-02-06T11:27:03Z</time>
      </trkpt>
      <trkpt lat="45.95145" lon="4.74803">
        <ele>194</ele>
        <time>2018-02-06T11:27:04Z</time>
      </trkpt>
      <trkpt lat="45.95141" lon="4.74797">
        <ele>194</ele>
        <time>2018-02-06T11:27:05Z</time>
      </trkpt>
      <trkpt lat="45.95138" lon="4.7479">
        <ele>194</ele>
        <time>2018-02-06T11:27:06Z</time>
      </trkpt>
      <trkpt lat="45.95135" lon="4.74785">
        <ele>194</ele>
        <time>2018-02-06T11:27:07Z</time>
      </trkpt>
      <trkpt lat="45.95131" lon="4.7478">
        <ele>194</ele>
        <time>2018-02-06T11:27:08Z</time>
      </trkpt>
      <trkpt lat="45.95127" lon="4.74773">
        <ele>194</ele>
        <time>2018-02-06T11:27:09Z</time>
      </trkpt>
      <trkpt lat="45.95125" lon="4.74766">
        <ele>194</ele>
        <time>2018-02-06T11:27:10Z</time>
      </trkpt>
      <trkpt lat="45.95121" lon="4.7476">
        <ele>194</ele>
        <time>2018-02-06T11:27:11Z</time>
      </trkpt>
      <trkpt lat="45.95118" lon="4.74754">
        <ele>194</ele>
        <time>2018-02-06T11:27:12Z</time>
      </trkpt>
      <trkpt lat="45.95114" lon="4.74747">
        <ele>194</ele>
        <time>2018-02-06T11:27:13Z</time>
      </trkpt>
      <trkpt lat="45.95111" lon="4.7474">
        <ele>194</ele>
        <time>2018-02-06T11:27:14Z</time>
      </trkpt>
      <trkpt lat="45.95108" lon="4.74735">
        <ele>194</ele>
        <time>2018-02-06T11:27:15Z</time>
      </trkpt>
      <trkpt lat="45.95105" lon="4.74727">
        <ele>194</ele>
        <time>2018-02-06T11:27:16Z</time>
      </trkpt>
      <trkpt lat="45.95103" lon="4.7472">
        <ele>194</ele>
        <time>2018-02-06T11:27:17Z</time>
      </trkpt>
      <trkpt lat="45.95099" lon="4.74714">
        <ele>194</ele>
        <time>2018-02-06T11:27:18Z</time>
      </trkpt>
      <trkpt lat="45.95094" lon="4.74708">
        <ele>194</ele>
        <time>2018-02-06T11:27:19Z</time>
      </trkpt>
      <trkpt lat="45.9509" lon="4.74701">
        <ele>194</ele>
        <time>2018-02-06T11:27:20Z</time>
      </trkpt>
      <trkpt lat="45.95086" lon="4.74695">
        <ele>194</ele>
        <time>2018-02-06T11:27:21Z</time>
      </trkpt>
      <trkpt lat="45.95082" lon="4.74689">
        <ele>194</ele>
        <time>2018-02-06T11:27:22Z</time>
      </trkpt>
      <trkpt lat="45.95078" lon="4.74683">
        <ele>194</ele>
        <time>2018-02-06T11:27:23Z</time>
      </trkpt>
      <trkpt lat="45.95075" lon="4.74676">
        <ele>194</ele>
        <time>2018-02-06T11:27:24Z</time>
      </trkpt>
      <trkpt lat="45.95071" lon="4.74669">
        <ele>194</ele>
        <time>2018-02-06T11:27:25Z</time>
      </trkpt>
      <trkpt lat="45.95068" lon="4.74663">
        <ele>195</ele>
        <time>2018-02-06T11:27:26Z</time>
      </trkpt>
      <trkpt lat="45.95064" lon="4.74656">
        <ele>195</ele>
        <time>2018-02-06T11:27:27Z</time>
      </trkpt>
      <trkpt lat="45.95061" lon="4.7465">
        <ele>194</ele>
        <time>2018-02-06T11:27:28Z</time>
      </trkpt>
      <trkpt lat="45.95057" lon="4.74644">
        <ele>194</ele>
        <time>2018-02-06T11:27:29Z</time>
      </trkpt>
      <trkpt lat="45.95052" lon="4.74638">
        <ele>194</ele>
        <time>2018-02-06T11:27:30Z</time>
      </trkpt>
      <trkpt lat="45.95049" lon="4.74632">
        <ele>194</ele>
        <time>2018-02-06T11:27:31Z</time>
      </trkpt>
      <trkpt lat="45.95045" lon="4.74625">
        <ele>194</ele>
        <time>2018-02-06T11:27:32Z</time>
      </trkpt>
      <trkpt lat="45.95041" lon="4.74619">
        <ele>194</ele>
        <time>2018-02-06T11:27:33Z</time>
      </trkpt>
      <trkpt lat="45.95038" lon="4.74613">
        <ele>194</ele>
        <time>2018-02-06T11:27:34Z</time>
      </trkpt>
      <trkpt lat="45.95034" lon="4.74606">
        <ele>194</ele>
        <time>2018-02-06T11:27:35Z</time>
      </trkpt>
      <trkpt lat="45.9503" lon="4.74599">
        <ele>194</ele>
        <time>2018-02-06T11:27:36Z</time>
      </trkpt>
      <trkpt lat="45.95026" lon="4.74593">
        <ele>194</ele>
        <time>2018-02-06T11:27:37Z</time>
      </trkpt>
      <trkpt lat="45.95023" lon="4.74586">
        <ele>194</ele>
        <time>2018-02-06T11:27:38Z</time>
      </trkpt>
      <trkpt lat="45.9502" lon="4.7458">
        <ele>194</ele>
        <time>2018-02-06T11:27:39Z</time>
      </trkpt>
      <trkpt lat="45.95016" lon="4.74572">
        <ele>194</ele>
        <time>2018-02-06T11:27:40Z</time>
      </trkpt>
      <trkpt lat="45.95012" lon="4.74566">
        <ele>194</ele>
        <time>2018-02-06T11:27:41Z</time>
      </trkpt>
      <trkpt lat="45.95009" lon="4.7456">
        <ele>194</ele>
        <time>2018-02-06T11:27:42Z</time>
      </trkpt>
      <trkpt lat="45.95005" lon="4.74554">
        <ele>194</ele>
        <time>2018-02-06T11:27:43Z</time>
      </trkpt>
      <trkpt lat="45.95001" lon="4.74548">
        <ele>194</ele>
        <time>2018-02-06T11:27:44Z</time>
      </trkpt>
      <trkpt lat="45.94999" lon="4.74542">
        <ele>193</ele>
        <time>2018-02-06T11:27:45Z</time>
      </trkpt>
      <trkpt lat="45.94996" lon="4.74535">
        <ele>193</ele>
        <time>2018-02-06T11:27:46Z</time>
      </trkpt>
      <trkpt lat="45.94993" lon="4.74529">
        <ele>193</ele>
        <time>2018-02-06T11:27:47Z</time>
      </trkpt>
      <trkpt lat="45.9499" lon="4.74522">
        <ele>193</ele>
        <time>2018-02-06T11:27:48Z</time>
      </trkpt>
      <trkpt lat="45.94987" lon="4.74516">
        <ele>193</ele>
        <time>2018-02-06T11:27:49Z</time>
      </trkpt>
      <trkpt lat="45.94983" lon="4.74509">
        <ele>193</ele>
        <time>2018-02-06T11:27:50Z</time>
      </trkpt>
      <trkpt lat="45.94979" lon="4.74502">
        <ele>193</ele>
        <time>2018-02-06T11:27:51Z</time>
      </trkpt>
      <trkpt lat="45.94976" lon="4.74496">
        <ele>193</ele>
        <time>2018-02-06T11:27:52Z</time>
      </trkpt>
      <trkpt lat="45.94972" lon="4.74488">
        <ele>193</ele>
        <time>2018-02-06T11:27:53Z</time>
      </trkpt>
      <trkpt lat="45.94968" lon="4.74481">
        <ele>193</ele>
        <time>2018-02-06T11:27:54Z</time>
      </trkpt>
      <trkpt lat="45.94965" lon="4.74474">
        <ele>193</ele>
        <time>2018-02-06T11:27:55Z</time>
      </trkpt>
      <trkpt lat="45.94961" lon="4.74466">
        <ele>193</ele>
        <time>2018-02-06T11:27:56Z</time>
      </trkpt>
      <trkpt lat="45.94957" lon="4.74458">
        <ele>192</ele>
        <time>2018-02-06T11:27:57Z</time>
      </trkpt>
      <trkpt lat="45.94953" lon="4.74451">
        <ele>192</ele>
        <time>2018-02-06T11:27:58Z</time>
      </trkpt>
      <trkpt lat="45.94949" lon="4.74443">
        <ele>192</ele>
        <time>2018-02-06T11:27:59Z</time>
      </trkpt>
      <trkpt lat="45.94946" lon="4.74435">
        <ele>192</ele>
        <time>2018-02-06T11:28:00Z</time>
      </trkpt>
      <trkpt lat="45.94943" lon="4.74429">
        <ele>192</ele>
        <time>2018-02-06T11:28:01Z</time>
      </trkpt>
      <trkpt lat="45.9494" lon="4.74422">
        <ele>192</ele>
        <time>2018-02-06T11:28:02Z</time>
      </trkpt>
      <trkpt lat="45.94936" lon="4.74415">
        <ele>192</ele>
        <time>2018-02-06T11:28:03Z</time>
      </trkpt>
      <trkpt lat="45.94932" lon="4.74408">
        <ele>192</ele>
        <time>2018-02-06T11:28:04Z</time>
      </trkpt>
      <trkpt lat="45.94929" lon="4.74401">
        <ele>192</ele>
        <time>2018-02-06T11:28:05Z</time>
      </trkpt>
      <trkpt lat="45.94925" lon="4.74393">
        <ele>192</ele>
        <time>2018-02-06T11:28:06Z</time>
      </trkpt>
      <trkpt lat="45.9492" lon="4.74386">
        <ele>192</ele>
        <time>2018-02-06T11:28:07Z</time>
      </trkpt>
      <trkpt lat="45.94916" lon="4.74378">
        <ele>191</ele>
        <time>2018-02-06T11:28:08Z</time>
      </trkpt>
      <trkpt lat="45.94913" lon="4.74371">
        <ele>191</ele>
        <time>2018-02-06T11:28:09Z</time>
      </trkpt>
      <trkpt lat="45.94908" lon="4.74364">
        <ele>191</ele>
        <time>2018-02-06T11:28:10Z</time>
      </trkpt>
      <trkpt lat="45.94904" lon="4.74356">
        <ele>191</ele>
        <time>2018-02-06T11:28:11Z</time>
      </trkpt>
      <trkpt lat="45.94899" lon="4.74349">
        <ele>191</ele>
        <time>2018-02-06T11:28:12Z</time>
      </trkpt>
      <trkpt lat="45.94894" lon="4.74341">
        <ele>191</ele>
        <time>2018-02-06T11:28:13Z</time>
      </trkpt>
      <trkpt lat="45.9489" lon="4.74334">
        <ele>191</ele>
        <time>2018-02-06T11:28:14Z</time>
      </trkpt>
      <trkpt lat="45.94886" lon="4.74326">
        <ele>191</ele>
        <time>2018-02-06T11:28:15Z</time>
      </trkpt>
      <trkpt lat="45.94883" lon="4.74318">
        <ele>191</ele>
        <time>2018-02-06T11:28:16Z</time>
      </trkpt>
      <trkpt lat="45.94879" lon="4.74311">
        <ele>191</ele>
        <time>2018-02-06T11:28:17Z</time>
      </trkpt>
      <trkpt lat="45.94875" lon="4.74305">
        <ele>191</ele>
        <time>2018-02-06T11:28:18Z</time>
      </trkpt>
      <trkpt lat="45.94871" lon="4.74298">
        <ele>191</ele>
        <time>2018-02-06T11:28:19Z</time>
      </trkpt>
      <trkpt lat="45.94867" lon="4.74291">
        <ele>191</ele>
        <time>2018-02-06T11:28:20Z</time>
      </trkpt>
      <trkpt lat="45.94863" lon="4.74284">
        <ele>191</ele>
        <time>2018-02-06T11:28:21Z</time>
      </trkpt>
      <trkpt lat="45.9486" lon="4.74275">
        <ele>190</ele>
        <time>2018-02-06T11:28:22Z</time>
      </trkpt>
      <trkpt lat="45.94856" lon="4.74267">
        <ele>190</ele>
        <time>2018-02-06T11:28:23Z</time>
      </trkpt>
      <trkpt lat="45.94852" lon="4.74257">
        <ele>190</ele>
        <time>2018-02-06T11:28:24Z</time>
      </trkpt>
      <trkpt lat="45.94849" lon="4.74249">
        <ele>190</ele>
        <time>2018-02-06T11:28:25Z</time>
      </trkpt>
      <trkpt lat="45.94845" lon="4.74241">
        <ele>190</ele>
        <time>2018-02-06T11:28:26Z</time>
      </trkpt>
      <trkpt lat="45.94842" lon="4.74233">
        <ele>190</ele>
        <time>2018-02-06T11:28:27Z</time>
      </trkpt>
      <trkpt lat="45.94838" lon="4.74226">
        <ele>190</ele>
        <time>2018-02-06T11:28:28Z</time>
      </trkpt>
      <trkpt lat="45.94835" lon="4.74218">
        <ele>190</ele>
        <time>2018-02-06T11:28:29Z</time>
      </trkpt>
      <trkpt lat="45.94831" lon="4.74212">
        <ele>189</ele>
        <time>2018-02-06T11:28:30Z</time>
      </trkpt>
      <trkpt lat="45.94827" lon="4.74206">
        <ele>189</ele>
        <time>2018-02-06T11:28:31Z</time>
      </trkpt>
      <trkpt lat="45.94823" lon="4.74198">
        <ele>189</ele>
        <time>2018-02-06T11:28:32Z</time>
      </trkpt>
      <trkpt lat="45.9482" lon="4.74192">
        <ele>189</ele>
        <time>2018-02-06T11:28:33Z</time>
      </trkpt>
      <trkpt lat="45.94816" lon="4.74185">
        <ele>189</ele>
        <time>2018-02-06T11:28:34Z</time>
      </trkpt>
      <trkpt lat="45.94812" lon="4.74179">
        <ele>189</ele>
        <time>2018-02-06T11:28:35Z</time>
      </trkpt>
      <trkpt lat="45.94808" lon="4.74173">
        <ele>189</ele>
        <time>2018-02-06T11:28:36Z</time>
      </trkpt>
      <trkpt lat="45.94804" lon="4.74167">
        <ele>189</ele>
        <time>2018-02-06T11:28:37Z</time>
      </trkpt>
      <trkpt lat="45.948" lon="4.74161">
        <ele>189</ele>
        <time>2018-02-06T11:28:38Z</time>
      </trkpt>
      <trkpt lat="45.94797" lon="4.74153">
        <ele>189</ele>
        <time>2018-02-06T11:28:39Z</time>
      </trkpt>
      <trkpt lat="45.94793" lon="4.74146">
        <ele>189</ele>
        <time>2018-02-06T11:28:40Z</time>
      </trkpt>
      <trkpt lat="45.94789" lon="4.7414">
        <ele>189</ele>
        <time>2018-02-06T11:28:41Z</time>
      </trkpt>
      <trkpt lat="45.94784" lon="4.74133">
        <ele>189</ele>
        <time>2018-02-06T11:28:42Z</time>
      </trkpt>
      <trkpt lat="45.9478" lon="4.74126">
        <ele>189</ele>
        <time>2018-02-06T11:28:43Z</time>
      </trkpt>
      <trkpt lat="45.94776" lon="4.7412">
        <ele>189</ele>
        <time>2018-02-06T11:28:44Z</time>
      </trkpt>
      <trkpt lat="45.94773" lon="4.74115">
        <ele>189</ele>
        <time>2018-02-06T11:28:45Z</time>
      </trkpt>
      <trkpt lat="45.94768" lon="4.74109">
        <ele>189</ele>
        <time>2018-02-06T11:28:46Z</time>
      </trkpt>
      <trkpt lat="45.94764" lon="4.74104">
        <ele>189</ele>
        <time>2018-02-06T11:28:47Z</time>
      </trkpt>
      <trkpt lat="45.94759" lon="4.74098">
        <ele>189</ele>
        <time>2018-02-06T11:28:48Z</time>
      </trkpt>
      <trkpt lat="45.94755" lon="4.74093">
        <ele>189</ele>
        <time>2018-02-06T11:28:49Z</time>
      </trkpt>
      <trkpt lat="45.94751" lon="4.74087">
        <ele>189</ele>
        <time>2018-02-06T11:28:50Z</time>
      </trkpt>
      <trkpt lat="45.94746" lon="4.74081">
        <ele>189</ele>
        <time>2018-02-06T11:28:51Z</time>
      </trkpt>
      <trkpt lat="45.94742" lon="4.74076">
        <ele>188</ele>
        <time>2018-02-06T11:28:52Z</time>
      </trkpt>
      <trkpt lat="45.94738" lon="4.7407">
        <ele>188</ele>
        <time>2018-02-06T11:28:53Z</time>
      </trkpt>
      <trkpt lat="45.94733" lon="4.74064">
        <ele>188</ele>
        <time>2018-02-06T11:28:54Z</time>
      </trkpt>
      <trkpt lat="45.94729" lon="4.74059">
        <ele>188</ele>
        <time>2018-02-06T11:28:55Z</time>
      </trkpt>
      <trkpt lat="45.94724" lon="4.74053">
        <ele>188</ele>
        <time>2018-02-06T11:28:56Z</time>
      </trkpt>
      <trkpt lat="45.94721" lon="4.74048">
        <ele>187</ele>
        <time>2018-02-06T11:28:57Z</time>
      </trkpt>
      <trkpt lat="45.94716" lon="4.74041">
        <ele>187</ele>
        <time>2018-02-06T11:28:58Z</time>
      </trkpt>
      <trkpt lat="45.94712" lon="4.74035">
        <ele>187</ele>
        <time>2018-02-06T11:28:59Z</time>
      </trkpt>
      <trkpt lat="45.94707" lon="4.7403">
        <ele>187</ele>
        <time>2018-02-06T11:29:00Z</time>
      </trkpt>
      <trkpt lat="45.94703" lon="4.74025">
        <ele>187</ele>
        <time>2018-02-06T11:29:01Z</time>
      </trkpt>
      <trkpt lat="45.94699" lon="4.7402">
        <ele>187</ele>
        <time>2018-02-06T11:29:02Z</time>
      </trkpt>
      <trkpt lat="45.94696" lon="4.74015">
        <ele>187</ele>
        <time>2018-02-06T11:29:03Z</time>
      </trkpt>
      <trkpt lat="45.94692" lon="4.74009">
        <ele>187</ele>
        <time>2018-02-06T11:29:04Z</time>
      </trkpt>
      <trkpt lat="45.94688" lon="4.74003">
        <ele>187</ele>
        <time>2018-02-06T11:29:05Z</time>
      </trkpt>
      <trkpt lat="45.94684" lon="4.73998">
        <ele>187</ele>
        <time>2018-02-06T11:29:06Z</time>
      </trkpt>
      <trkpt lat="45.94679" lon="4.73992">
        <ele>187</ele>
        <time>2018-02-06T11:29:07Z</time>
      </trkpt>
      <trkpt lat="45.94675" lon="4.73986">
        <ele>187</ele>
        <time>2018-02-06T11:29:08Z</time>
      </trkpt>
      <trkpt lat="45.94672" lon="4.7398">
        <ele>187</ele>
        <time>2018-02-06T11:29:09Z</time>
      </trkpt>
      <trkpt lat="45.94668" lon="4.73975">
        <ele>187</ele>
        <time>2018-02-06T11:29:10Z</time>
      </trkpt>
      <trkpt lat="45.94663" lon="4.7397">
        <ele>187</ele>
        <time>2018-02-06T11:29:11Z</time>
      </trkpt>
      <trkpt lat="45.94658" lon="4.73964">
        <ele>187</ele>
        <time>2018-02-06T11:29:12Z</time>
      </trkpt>
      <trkpt lat="45.94654" lon="4.73959">
        <ele>187</ele>
        <time>2018-02-06T11:29:13Z</time>
      </trkpt>
      <trkpt lat="45.9465" lon="4.73954">
        <ele>187</ele>
        <time>2018-02-06T11:29:14Z</time>
      </trkpt>
      <trkpt lat="45.94645" lon="4.73949">
        <ele>187</ele>
        <time>2018-02-06T11:29:15Z</time>
      </trkpt>
      <trkpt lat="45.94641" lon="4.73944">
        <ele>187</ele>
        <time>2018-02-06T11:29:16Z</time>
      </trkpt>
      <trkpt lat="45.94637" lon="4.73939">
        <ele>187</ele>
        <time>2018-02-06T11:29:17Z</time>
      </trkpt>
      <trkpt lat="45.94634" lon="4.73934">
        <ele>187</ele>
        <time>2018-02-06T11:29:18Z</time>
      </trkpt>
      <trkpt lat="45.9463" lon="4.73927">
        <ele>187</ele>
        <time>2018-02-06T11:29:19Z</time>
      </trkpt>
      <trkpt lat="45.94626" lon="4.73921">
        <ele>187</ele>
        <time>2018-02-06T11:29:20Z</time>
      </trkpt>
      <trkpt lat="45.94622" lon="4.73915">
        <ele>187</ele>
        <time>2018-02-06T11:29:21Z</time>
      </trkpt>
      <trkpt lat="45.94617" lon="4.7391">
        <ele>187</ele>
        <time>2018-02-06T11:29:22Z</time>
      </trkpt>
      <trkpt lat="45.94613" lon="4.73904">
        <ele>187</ele>
        <time>2018-02-06T11:29:23Z</time>
      </trkpt>
      <trkpt lat="45.94609" lon="4.73898">
        <ele>187</ele>
        <time>2018-02-06T11:29:24Z</time>
      </trkpt>
      <trkpt lat="45.94603" lon="4.73893">
        <ele>187</ele>
        <time>2018-02-06T11:29:25Z</time>
      </trkpt>
      <trkpt lat="45.94599" lon="4.73886">
        <ele>187</ele>
        <time>2018-02-06T11:29:26Z</time>
      </trkpt>
      <trkpt lat="45.94594" lon="4.7388">
        <ele>187</ele>
        <time>2018-02-06T11:29:27Z</time>
      </trkpt>
      <trkpt lat="45.94589" lon="4.73874">
        <ele>187</ele>
        <time>2018-02-06T11:29:28Z</time>
      </trkpt>
      <trkpt lat="45.94585" lon="4.73868">
        <ele>187</ele>
        <time>2018-02-06T11:29:29Z</time>
      </trkpt>
      <trkpt lat="45.9458" lon="4.73863">
        <ele>186</ele>
        <time>2018-02-06T11:29:30Z</time>
      </trkpt>
      <trkpt lat="45.94575" lon="4.73858">
        <ele>186</ele>
        <time>2018-02-06T11:29:31Z</time>
      </trkpt>
      <trkpt lat="45.94569" lon="4.73853">
        <ele>186</ele>
        <time>2018-02-06T11:29:32Z</time>
      </trkpt>
      <trkpt lat="45.94563" lon="4.73849">
        <ele>186</ele>
        <time>2018-02-06T11:29:33Z</time>
      </trkpt>
      <trkpt lat="45.94558" lon="4.73844">
        <ele>186</ele>
        <time>2018-02-06T11:29:34Z</time>
      </trkpt>
      <trkpt lat="45.94554" lon="4.73839">
        <ele>186</ele>
        <time>2018-02-06T11:29:35Z</time>
      </trkpt>
      <trkpt lat="45.94549" lon="4.73833">
        <ele>186</ele>
        <time>2018-02-06T11:29:36Z</time>
      </trkpt>
      <trkpt lat="45.94543" lon="4.73829">
        <ele>186</ele>
        <time>2018-02-06T11:29:37Z</time>
      </trkpt>
      <trkpt lat="45.94539" lon="4.73825">
        <ele>186</ele>
        <time>2018-02-06T11:29:38Z</time>
      </trkpt>
      <trkpt lat="45.94534" lon="4.7382">
        <ele>186</ele>
        <time>2018-02-06T11:29:39Z</time>
      </trkpt>
      <trkpt lat="45.9453" lon="4.73815">
        <ele>186</ele>
        <time>2018-02-06T11:29:40Z</time>
      </trkpt>
      <trkpt lat="45.94526" lon="4.7381">
        <ele>186</ele>
        <time>2018-02-06T11:29:41Z</time>
      </trkpt>
      <trkpt lat="45.94522" lon="4.73803">
        <ele>186</ele>
        <time>2018-02-06T11:29:42Z</time>
      </trkpt>
      <trkpt lat="45.94517" lon="4.73799">
        <ele>186</ele>
        <time>2018-02-06T11:29:43Z</time>
      </trkpt>
      <trkpt lat="45.94513" lon="4.73795">
        <ele>186</ele>
        <time>2018-02-06T11:29:44Z</time>
      </trkpt>
      <trkpt lat="45.94508" lon="4.73789">
        <ele>186</ele>
        <time>2018-02-06T11:29:45Z</time>
      </trkpt>
      <trkpt lat="45.94502" lon="4.73786">
        <ele>186</ele>
        <time>2018-02-06T11:29:46Z</time>
      </trkpt>
      <trkpt lat="45.94497" lon="4.73781">
        <ele>186</ele>
        <time>2018-02-06T11:29:47Z</time>
      </trkpt>
      <trkpt lat="45.94494" lon="4.73775">
        <ele>186</ele>
        <time>2018-02-06T11:29:48Z</time>
      </trkpt>
      <trkpt lat="45.9449" lon="4.73769">
        <ele>186</ele>
        <time>2018-02-06T11:29:49Z</time>
      </trkpt>
      <trkpt lat="45.94486" lon="4.73764">
        <ele>186</ele>
        <time>2018-02-06T11:29:50Z</time>
      </trkpt>
      <trkpt lat="45.94484" lon="4.73758">
        <ele>186</ele>
        <time>2018-02-06T11:29:51Z</time>
      </trkpt>
      <trkpt lat="45.94482" lon="4.73751">
        <ele>186</ele>
        <time>2018-02-06T11:29:52Z</time>
      </trkpt>
      <trkpt lat="45.94481" lon="4.73743">
        <ele>186</ele>
        <time>2018-02-06T11:29:53Z</time>
      </trkpt>
      <trkpt lat="45.94483" lon="4.73735">
        <ele>186</ele>
        <time>2018-02-06T11:29:54Z</time>
      </trkpt>
      <trkpt lat="45.94483" lon="4.73727">
        <ele>186</ele>
        <time>2018-02-06T11:29:55Z</time>
      </trkpt>
      <trkpt lat="45.94484" lon="4.73719">
        <ele>186</ele>
        <time>2018-02-06T11:29:56Z</time>
      </trkpt>
      <trkpt lat="45.94486" lon="4.73711">
        <ele>186</ele>
        <time>2018-02-06T11:29:57Z</time>
      </trkpt>
      <trkpt lat="45.94488" lon="4.73704">
        <ele>186</ele>
        <time>2018-02-06T11:29:58Z</time>
      </trkpt>
      <trkpt lat="45.94488" lon="4.73696">
        <ele>186</ele>
        <time>2018-02-06T11:29:59Z</time>
      </trkpt>
      <trkpt lat="45.94489" lon="4.73689">
        <ele>186</ele>
        <time>2018-02-06T11:30:00Z</time>
      </trkpt>
      <trkpt lat="45.94489" lon="4.73682">
        <ele>186</ele>
        <time>2018-02-06T11:30:01Z</time>
      </trkpt>
      <trkpt lat="45.94491" lon="4.73674">
        <ele>185</ele>
        <time>2018-02-06T11:30:02Z</time>
      </trkpt>
      <trkpt lat="45.94492" lon="4.73665">
        <ele>185</ele>
        <time>2018-02-06T11:30:03Z</time>
      </trkpt>
      <trkpt lat="45.94493" lon="4.73658">
        <ele>185</ele>
        <time>2018-02-06T11:30:04Z</time>
      </trkpt>
      <trkpt lat="45.94494" lon="4.73649">
        <ele>185</ele>
        <time>2018-02-06T11:30:05Z</time>
      </trkpt>
      <trkpt lat="45.94495" lon="4.73642">
        <ele>186</ele>
        <time>2018-02-06T11:30:06Z</time>
      </trkpt>
      <trkpt lat="45.94496" lon="4.73634">
        <ele>186</ele>
        <time>2018-02-06T11:30:07Z</time>
      </trkpt>
      <trkpt lat="45.94497" lon="4.73625">
        <ele>186</ele>
        <time>2018-02-06T11:30:08Z</time>
      </trkpt>
      <trkpt lat="45.94499" lon="4.73618">
        <ele>186</ele>
        <time>2018-02-06T11:30:09Z</time>
      </trkpt>
      <trkpt lat="45.945" lon="4.7361">
        <ele>186</ele>
        <time>2018-02-06T11:30:10Z</time>
      </trkpt>
      <trkpt lat="45.945" lon="4.73602">
        <ele>184</ele>
        <time>2018-02-06T11:30:11Z</time>
      </trkpt>
      <trkpt lat="45.94501" lon="4.73594">
        <ele>184</ele>
        <time>2018-02-06T11:30:12Z</time>
      </trkpt>
      <trkpt lat="45.94501" lon="4.73587">
        <ele>185</ele>
        <time>2018-02-06T11:30:13Z</time>
      </trkpt>
      <trkpt lat="45.94501" lon="4.7358">
        <ele>185</ele>
        <time>2018-02-06T11:30:14Z</time>
      </trkpt>
      <trkpt lat="45.94501" lon="4.73572">
        <ele>184</ele>
        <time>2018-02-06T11:30:15Z</time>
      </trkpt>
      <trkpt lat="45.94501" lon="4.73565">
        <ele>184</ele>
        <time>2018-02-06T11:30:16Z</time>
      </trkpt>
      <trkpt lat="45.94502" lon="4.73557">
        <ele>184</ele>
        <time>2018-02-06T11:30:17Z</time>
      </trkpt>
      <trkpt lat="45.94501" lon="4.73549">
        <ele>183</ele>
        <time>2018-02-06T11:30:18Z</time>
      </trkpt>
      <trkpt lat="45.94501" lon="4.73541">
        <ele>183</ele>
        <time>2018-02-06T11:30:19Z</time>
      </trkpt>
      <trkpt lat="45.94501" lon="4.7353">
        <ele>183</ele>
        <time>2018-02-06T11:30:20Z</time>
      </trkpt>
      <trkpt lat="45.94501" lon="4.73522">
        <ele>183</ele>
        <time>2018-02-06T11:30:21Z</time>
      </trkpt>
      <trkpt lat="45.945" lon="4.73512">
        <ele>183</ele>
        <time>2018-02-06T11:30:22Z</time>
      </trkpt>
      <trkpt lat="45.945" lon="4.73503">
        <ele>183</ele>
        <time>2018-02-06T11:30:23Z</time>
      </trkpt>
      <trkpt lat="45.945" lon="4.73493">
        <ele>182</ele>
        <time>2018-02-06T11:30:24Z</time>
      </trkpt>
      <trkpt lat="45.94501" lon="4.73484">
        <ele>182</ele>
        <time>2018-02-06T11:30:25Z</time>
      </trkpt>
      <trkpt lat="45.94501" lon="4.73476">
        <ele>182</ele>
        <time>2018-02-06T11:30:26Z</time>
      </trkpt>
      <trkpt lat="45.945" lon="4.73467">
        <ele>181</ele>
        <time>2018-02-06T11:30:27Z</time>
      </trkpt>
      <trkpt lat="45.94501" lon="4.73458">
        <ele>181</ele>
        <time>2018-02-06T11:30:28Z</time>
      </trkpt>
      <trkpt lat="45.94504" lon="4.73444">
        <ele>181</ele>
        <time>2018-02-06T11:30:29Z</time>
      </trkpt>
      <trkpt lat="45.94503" lon="4.73435">
        <ele>181</ele>
        <time>2018-02-06T11:30:30Z</time>
      </trkpt>
      <trkpt lat="45.94505" lon="4.73425">
        <ele>180</ele>
        <time>2018-02-06T11:30:31Z</time>
      </trkpt>
      <trkpt lat="45.94504" lon="4.73416">
        <ele>180</ele>
        <time>2018-02-06T11:30:32Z</time>
      </trkpt>
      <trkpt lat="45.94503" lon="4.73406">
        <ele>179</ele>
        <time>2018-02-06T11:30:33Z</time>
      </trkpt>
      <trkpt lat="45.94503" lon="4.73396">
        <ele>179</ele>
        <time>2018-02-06T11:30:34Z</time>
      </trkpt>
      <trkpt lat="45.94501" lon="4.73387">
        <ele>179</ele>
        <time>2018-02-06T11:30:35Z</time>
      </trkpt>
      <trkpt lat="45.945" lon="4.73376">
        <ele>179</ele>
        <time>2018-02-06T11:30:36Z</time>
      </trkpt>
      <trkpt lat="45.94498" lon="4.73368">
        <ele>179</ele>
        <time>2018-02-06T11:30:37Z</time>
      </trkpt>
      <trkpt lat="45.94497" lon="4.73358">
        <ele>178</ele>
        <time>2018-02-06T11:30:38Z</time>
      </trkpt>
      <trkpt lat="45.94495" lon="4.73348">
        <ele>178</ele>
        <time>2018-02-06T11:30:39Z</time>
      </trkpt>
      <trkpt lat="45.94494" lon="4.73339">
        <ele>178</ele>
        <time>2018-02-06T11:30:40Z</time>
      </trkpt>
      <trkpt lat="45.94494" lon="4.73329">
        <ele>177</ele>
        <time>2018-02-06T11:30:41Z</time>
      </trkpt>
      <trkpt lat="45.94492" lon="4.73319">
        <ele>177</ele>
        <time>2018-02-06T11:30:42Z</time>
      </trkpt>
      <trkpt lat="45.94491" lon="4.73309">
        <ele>177</ele>
        <time>2018-02-06T11:30:43Z</time>
      </trkpt>
      <trkpt lat="45.94489" lon="4.73298">
        <ele>177</ele>
        <time>2018-02-06T11:30:44Z</time>
      </trkpt>
      <trkpt lat="45.94487" lon="4.73288">
        <ele>177</ele>
        <time>2018-02-06T11:30:45Z</time>
      </trkpt>
      <trkpt lat="45.94486" lon="4.73279">
        <ele>177</ele>
        <time>2018-02-06T11:30:46Z</time>
      </trkpt>
      <trkpt lat="45.94484" lon="4.73268">
        <ele>177</ele>
        <time>2018-02-06T11:30:47Z</time>
      </trkpt>
      <trkpt lat="45.94482" lon="4.73258">
        <ele>176</ele>
        <time>2018-02-06T11:30:48Z</time>
      </trkpt>
      <trkpt lat="45.9448" lon="4.73249">
        <ele>175</ele>
        <time>2018-02-06T11:30:49Z</time>
      </trkpt>
      <trkpt lat="45.94478" lon="4.73238">
        <ele>175</ele>
        <time>2018-02-06T11:30:50Z</time>
      </trkpt>
      <trkpt lat="45.94478" lon="4.73226">
        <ele>175</ele>
        <time>2018-02-06T11:30:51Z</time>
      </trkpt>
      <trkpt lat="45.94475" lon="4.73216">
        <ele>175</ele>
        <time>2018-02-06T11:30:52Z</time>
      </trkpt>
      <trkpt lat="45.94474" lon="4.73206">
        <ele>175</ele>
        <time>2018-02-06T11:30:53Z</time>
      </trkpt>
      <trkpt lat="45.94473" lon="4.73195">
        <ele>174</ele>
        <time>2018-02-06T11:30:54Z</time>
      </trkpt>
      <trkpt lat="45.94472" lon="4.73184">
        <ele>174</ele>
        <time>2018-02-06T11:30:55Z</time>
      </trkpt>
      <trkpt lat="45.94471" lon="4.73173">
        <ele>174</ele>
        <time>2018-02-06T11:30:56Z</time>
      </trkpt>
      <trkpt lat="45.9447" lon="4.73162">
        <ele>172</ele>
        <time>2018-02-06T11:30:57Z</time>
      </trkpt>
      <trkpt lat="45.94469" lon="4.73153">
        <ele>172</ele>
        <time>2018-02-06T11:30:58Z</time>
      </trkpt>
      <trkpt lat="45.94467" lon="4.73142">
        <ele>172</ele>
        <time>2018-02-06T11:30:59Z</time>
      </trkpt>
      <trkpt lat="45.94467" lon="4.73132">
        <ele>172</ele>
        <time>2018-02-06T11:31:00Z</time>
      </trkpt>
      <trkpt lat="45.94466" lon="4.73123">
        <ele>172</ele>
        <time>2018-02-06T11:31:01Z</time>
      </trkpt>
      <trkpt lat="45.94465" lon="4.73113">
        <ele>172</ele>
        <time>2018-02-06T11:31:02Z</time>
      </trkpt>
      <trkpt lat="45.94464" lon="4.73103">
        <ele>172</ele>
        <time>2018-02-06T11:31:03Z</time>
      </trkpt>
      <trkpt lat="45.94462" lon="4.73091">
        <ele>171</ele>
        <time>2018-02-06T11:31:04Z</time>
      </trkpt>
      <trkpt lat="45.9446" lon="4.73082">
        <ele>170</ele>
        <time>2018-02-06T11:31:05Z</time>
      </trkpt>
      <trkpt lat="45.94458" lon="4.73071">
        <ele>170</ele>
        <time>2018-02-06T11:31:06Z</time>
      </trkpt>
      <trkpt lat="45.94457" lon="4.73062">
        <ele>170</ele>
        <time>2018-02-06T11:31:07Z</time>
      </trkpt>
      <trkpt lat="45.94456" lon="4.73053">
        <ele>170</ele>
        <time>2018-02-06T11:31:08Z</time>
      </trkpt>
      <trkpt lat="45.94455" lon="4.73045">
        <ele>169</ele>
        <time>2018-02-06T11:31:09Z</time>
      </trkpt>
      <trkpt lat="45.94454" lon="4.73036">
        <ele>169</ele>
        <time>2018-02-06T11:31:10Z</time>
      </trkpt>
      <trkpt lat="45.94453" lon="4.73028">
        <ele>169</ele>
        <time>2018-02-06T11:31:11Z</time>
      </trkpt>
      <trkpt lat="45.94452" lon="4.73021">
        <ele>169</ele>
        <time>2018-02-06T11:31:12Z</time>
      </trkpt>
      <trkpt lat="45.94451" lon="4.73014">
        <ele>169</ele>
        <time>2018-02-06T11:31:13Z</time>
      </trkpt>
      <trkpt lat="45.9445" lon="4.73006">
        <ele>169</ele>
        <time>2018-02-06T11:31:14Z</time>
      </trkpt>
      <trkpt lat="45.94448" lon="4.72999">
        <ele>167</ele>
        <time>2018-02-06T11:31:15Z</time>
      </trkpt>
      <trkpt lat="45.94448" lon="4.72991">
        <ele>167</ele>
        <time>2018-02-06T11:31:16Z</time>
      </trkpt>
      <trkpt lat="45.94447" lon="4.72985">
        <ele>167</ele>
        <time>2018-02-06T11:31:17Z</time>
      </trkpt>
      <trkpt lat="45.94446" lon="4.72978">
        <ele>167</ele>
        <time>2018-02-06T11:31:18Z</time>
      </trkpt>
      <trkpt lat="45.94446" lon="4.72971">
        <ele>167</ele>
        <time>2018-02-06T11:31:19Z</time>
      </trkpt>
      <trkpt lat="45.94445" lon="4.72965">
        <ele>167</ele>
        <time>2018-02-06T11:31:20Z</time>
      </trkpt>
      <trkpt lat="45.94445" lon="4.72957">
        <ele>167</ele>
        <time>2018-02-06T11:31:21Z</time>
      </trkpt>
      <trkpt lat="45.94444" lon="4.7295">
        <ele>167</ele>
        <time>2018-02-06T11:31:22Z</time>
      </trkpt>
      <trkpt lat="45.94444" lon="4.72944">
        <ele>167</ele>
        <time>2018-02-06T11:31:23Z</time>
      </trkpt>
      <trkpt lat="45.94442" lon="4.72932">
        <ele>167</ele>
        <time>2018-02-06T11:31:25Z</time>
      </trkpt>
      <trkpt lat="45.94441" lon="4.72927">
        <ele>167</ele>
        <time>2018-02-06T11:31:26Z</time>
      </trkpt>
      <trkpt lat="45.94439" lon="4.72917">
        <ele>166</ele>
        <time>2018-02-06T11:31:28Z</time>
      </trkpt>
      <trkpt lat="45.94439" lon="4.7291">
        <ele>166</ele>
        <time>2018-02-06T11:31:29Z</time>
      </trkpt>
      <trkpt lat="45.94437" lon="4.729">
        <ele>166</ele>
        <time>2018-02-06T11:31:31Z</time>
      </trkpt>
      <trkpt lat="45.94436" lon="4.72894">
        <ele>166</ele>
        <time>2018-02-06T11:31:32Z</time>
      </trkpt>
      <trkpt lat="45.94434" lon="4.72883">
        <ele>166</ele>
        <time>2018-02-06T11:31:34Z</time>
      </trkpt>
      <trkpt lat="45.94433" lon="4.72878">
        <ele>166</ele>
        <time>2018-02-06T11:31:35Z</time>
      </trkpt>
      <trkpt lat="45.94431" lon="4.72867">
        <ele>166</ele>
        <time>2018-02-06T11:31:37Z</time>
      </trkpt>
      <trkpt lat="45.9443" lon="4.72861">
        <ele>166</ele>
        <time>2018-02-06T11:31:38Z</time>
      </trkpt>
      <trkpt lat="45.9443" lon="4.72848">
        <ele>166</ele>
        <time>2018-02-06T11:31:40Z</time>
      </trkpt>
      <trkpt lat="45.94429" lon="4.72844">
        <ele>166</ele>
        <time>2018-02-06T11:31:41Z</time>
      </trkpt>
      <trkpt lat="45.94428" lon="4.72833">
        <ele>166</ele>
        <time>2018-02-06T11:31:45Z</time>
      </trkpt>
      <trkpt lat="45.94427" lon="4.72831">
        <ele>166</ele>
        <time>2018-02-06T11:31:46Z</time>
      </trkpt>
      <trkpt lat="45.94425" lon="4.72821">
        <ele>167</ele>
        <time>2018-02-06T11:31:49Z</time>
      </trkpt>
      <trkpt lat="45.94425" lon="4.72817">
        <ele>167</ele>
        <time>2018-02-06T11:31:50Z</time>
      </trkpt>
      <trkpt lat="45.94424" lon="4.72806">
        <ele>167</ele>
        <time>2018-02-06T11:32:00Z</time>
      </trkpt>
      <trkpt lat="45.94423" lon="4.72803">
        <ele>167</ele>
        <time>2018-02-06T11:32:01Z</time>
      </trkpt>
      <trkpt lat="45.9442" lon="4.72792">
        <ele>168</ele>
        <time>2018-02-06T11:32:04Z</time>
      </trkpt>
      <trkpt lat="45.94418" lon="4.72787">
        <ele>168</ele>
        <time>2018-02-06T11:32:05Z</time>
      </trkpt>
      <trkpt lat="45.94417" lon="4.72776">
        <ele>168</ele>
        <time>2018-02-06T11:32:07Z</time>
      </trkpt>
      <trkpt lat="45.94416" lon="4.7277">
        <ele>169</ele>
        <time>2018-02-06T11:32:08Z</time>
      </trkpt>
      <trkpt lat="45.94415" lon="4.72763">
        <ele>170</ele>
        <time>2018-02-06T11:32:09Z</time>
      </trkpt>
      <trkpt lat="45.94414" lon="4.72755">
        <ele>170</ele>
        <time>2018-02-06T11:32:10Z</time>
      </trkpt>
      <trkpt lat="45.94413" lon="4.72747">
        <ele>171</ele>
        <time>2018-02-06T11:32:11Z</time>
      </trkpt>
      <trkpt lat="45.94412" lon="4.7274">
        <ele>171</ele>
        <time>2018-02-06T11:32:12Z</time>
      </trkpt>
      <trkpt lat="45.94412" lon="4.72732">
        <ele>172</ele>
        <time>2018-02-06T11:32:13Z</time>
      </trkpt>
      <trkpt lat="45.94411" lon="4.72724">
        <ele>172</ele>
        <time>2018-02-06T11:32:14Z</time>
      </trkpt>
      <trkpt lat="45.9441" lon="4.72716">
        <ele>172</ele>
        <time>2018-02-06T11:32:15Z</time>
      </trkpt>
      <trkpt lat="45.94408" lon="4.72709">
        <ele>172</ele>
        <time>2018-02-06T11:32:16Z</time>
      </trkpt>
      <trkpt lat="45.94408" lon="4.72702">
        <ele>172</ele>
        <time>2018-02-06T11:32:17Z</time>
      </trkpt>
      <trkpt lat="45.94407" lon="4.72694">
        <ele>173</ele>
        <time>2018-02-06T11:32:18Z</time>
      </trkpt>
      <trkpt lat="45.94406" lon="4.72686">
        <ele>173</ele>
        <time>2018-02-06T11:32:19Z</time>
      </trkpt>
      <trkpt lat="45.94405" lon="4.72679">
        <ele>173</ele>
        <time>2018-02-06T11:32:20Z</time>
      </trkpt>
      <trkpt lat="45.94404" lon="4.72671">
        <ele>173</ele>
        <time>2018-02-06T11:32:21Z</time>
      </trkpt>
      <trkpt lat="45.94403" lon="4.72662">
        <ele>174</ele>
        <time>2018-02-06T11:32:22Z</time>
      </trkpt>
      <trkpt lat="45.94402" lon="4.72653">
        <ele>174</ele>
        <time>2018-02-06T11:32:23Z</time>
      </trkpt>
      <trkpt lat="45.94401" lon="4.72645">
        <ele>174</ele>
        <time>2018-02-06T11:32:24Z</time>
      </trkpt>
      <trkpt lat="45.944" lon="4.72636">
        <ele>174</ele>
        <time>2018-02-06T11:32:25Z</time>
      </trkpt>
      <trkpt lat="45.94399" lon="4.72627">
        <ele>174</ele>
        <time>2018-02-06T11:32:26Z</time>
      </trkpt>
      <trkpt lat="45.94398" lon="4.72619">
        <ele>173</ele>
        <time>2018-02-06T11:32:27Z</time>
      </trkpt>
      <trkpt lat="45.94397" lon="4.7261">
        <ele>173</ele>
        <time>2018-02-06T11:32:28Z</time>
      </trkpt>
      <trkpt lat="45.94397" lon="4.72602">
        <ele>173</ele>
        <time>2018-02-06T11:32:29Z</time>
      </trkpt>
      <trkpt lat="45.94395" lon="4.72594">
        <ele>173</ele>
        <time>2018-02-06T11:32:30Z</time>
      </trkpt>
      <trkpt lat="45.94395" lon="4.72584">
        <ele>173</ele>
        <time>2018-02-06T11:32:31Z</time>
      </trkpt>
      <trkpt lat="45.94394" lon="4.72575">
        <ele>173</ele>
        <time>2018-02-06T11:32:32Z</time>
      </trkpt>
      <trkpt lat="45.94391" lon="4.72567">
        <ele>173</ele>
        <time>2018-02-06T11:32:33Z</time>
      </trkpt>
      <trkpt lat="45.94391" lon="4.72559">
        <ele>173</ele>
        <time>2018-02-06T11:32:34Z</time>
      </trkpt>
      <trkpt lat="45.94389" lon="4.7255">
        <ele>173</ele>
        <time>2018-02-06T11:32:35Z</time>
      </trkpt>
      <trkpt lat="45.94388" lon="4.72543">
        <ele>173</ele>
        <time>2018-02-06T11:32:36Z</time>
      </trkpt>
      <trkpt lat="45.94386" lon="4.72536">
        <ele>174</ele>
        <time>2018-02-06T11:32:37Z</time>
      </trkpt>
      <trkpt lat="45.94385" lon="4.72528">
        <ele>174</ele>
        <time>2018-02-06T11:32:38Z</time>
      </trkpt>
      <trkpt lat="45.94383" lon="4.72519">
        <ele>174</ele>
        <time>2018-02-06T11:32:39Z</time>
      </trkpt>
      <trkpt lat="45.9438" lon="4.72512">
        <ele>174</ele>
        <time>2018-02-06T11:32:40Z</time>
      </trkpt>
      <trkpt lat="45.94376" lon="4.72505">
        <ele>174</ele>
        <time>2018-02-06T11:32:41Z</time>
      </trkpt>
      <trkpt lat="45.94373" lon="4.72497">
        <ele>173</ele>
        <time>2018-02-06T11:32:42Z</time>
      </trkpt>
      <trkpt lat="45.94371" lon="4.72489">
        <ele>173</ele>
        <time>2018-02-06T11:32:43Z</time>
      </trkpt>
      <trkpt lat="45.94367" lon="4.72482">
        <ele>173</ele>
        <time>2018-02-06T11:32:44Z</time>
      </trkpt>
      <trkpt lat="45.94363" lon="4.72474">
        <ele>173</ele>
        <time>2018-02-06T11:32:45Z</time>
      </trkpt>
      <trkpt lat="45.94361" lon="4.72468">
        <ele>173</ele>
        <time>2018-02-06T11:32:46Z</time>
      </trkpt>
      <trkpt lat="45.94357" lon="4.72461">
        <ele>173</ele>
        <time>2018-02-06T11:32:47Z</time>
      </trkpt>
      <trkpt lat="45.94355" lon="4.72455">
        <ele>173</ele>
        <time>2018-02-06T11:32:48Z</time>
      </trkpt>
      <trkpt lat="45.94352" lon="4.72449">
        <ele>173</ele>
        <time>2018-02-06T11:32:49Z</time>
      </trkpt>
      <trkpt lat="45.94349" lon="4.72441">
        <ele>173</ele>
        <time>2018-02-06T11:32:50Z</time>
      </trkpt>
      <trkpt lat="45.94346" lon="4.72433">
        <ele>173</ele>
        <time>2018-02-06T11:32:51Z</time>
      </trkpt>
      <trkpt lat="45.94343" lon="4.72427">
        <ele>173</ele>
        <time>2018-02-06T11:32:52Z</time>
      </trkpt>
      <trkpt lat="45.9434" lon="4.72421">
        <ele>173</ele>
        <time>2018-02-06T11:32:53Z</time>
      </trkpt>
      <trkpt lat="45.94338" lon="4.72415">
        <ele>173</ele>
        <time>2018-02-06T11:32:54Z</time>
      </trkpt>
      <trkpt lat="45.94334" lon="4.72408">
        <ele>173</ele>
        <time>2018-02-06T11:32:55Z</time>
      </trkpt>
      <trkpt lat="45.94331" lon="4.72402">
        <ele>173</ele>
        <time>2018-02-06T11:32:56Z</time>
      </trkpt>
      <trkpt lat="45.94328" lon="4.72395">
        <ele>172</ele>
        <time>2018-02-06T11:32:57Z</time>
      </trkpt>
      <trkpt lat="45.94326" lon="4.72389">
        <ele>172</ele>
        <time>2018-02-06T11:32:58Z</time>
      </trkpt>
      <trkpt lat="45.94322" lon="4.72384">
        <ele>172</ele>
        <time>2018-02-06T11:32:59Z</time>
      </trkpt>
      <trkpt lat="45.9432" lon="4.72378">
        <ele>172</ele>
        <time>2018-02-06T11:33:00Z</time>
      </trkpt>
      <trkpt lat="45.94317" lon="4.72371">
        <ele>172</ele>
        <time>2018-02-06T11:33:01Z</time>
      </trkpt>
      <trkpt lat="45.94314" lon="4.72366">
        <ele>172</ele>
        <time>2018-02-06T11:33:02Z</time>
      </trkpt>
      <trkpt lat="45.94312" lon="4.72359">
        <ele>172</ele>
        <time>2018-02-06T11:33:03Z</time>
      </trkpt>
      <trkpt lat="45.9431" lon="4.72353">
        <ele>172</ele>
        <time>2018-02-06T11:33:04Z</time>
      </trkpt>
      <trkpt lat="45.94309" lon="4.72345">
        <ele>172</ele>
        <time>2018-02-06T11:33:05Z</time>
      </trkpt>
      <trkpt lat="45.94306" lon="4.7234">
        <ele>172</ele>
        <time>2018-02-06T11:33:06Z</time>
      </trkpt>
      <trkpt lat="45.94301" lon="4.72332">
        <ele>171</ele>
        <time>2018-02-06T11:33:08Z</time>
      </trkpt>
      <trkpt lat="45.94299" lon="4.72325">
        <ele>171</ele>
        <time>2018-02-06T11:33:09Z</time>
      </trkpt>
      <trkpt lat="45.94295" lon="4.72316">
        <ele>171</ele>
        <time>2018-02-06T11:33:11Z</time>
      </trkpt>
      <trkpt lat="45.94293" lon="4.72311">
        <ele>171</ele>
        <time>2018-02-06T11:33:12Z</time>
      </trkpt>
      <trkpt lat="45.9429" lon="4.72301">
        <ele>171</ele>
        <time>2018-02-06T11:33:14Z</time>
      </trkpt>
      <trkpt lat="45.94288" lon="4.72295">
        <ele>171</ele>
        <time>2018-02-06T11:33:15Z</time>
      </trkpt>
      <trkpt lat="45.94285" lon="4.72287">
        <ele>171</ele>
        <time>2018-02-06T11:33:17Z</time>
      </trkpt>
      <trkpt lat="45.94283" lon="4.72283">
        <ele>171</ele>
        <time>2018-02-06T11:33:18Z</time>
      </trkpt>
      <trkpt lat="45.94279" lon="4.72273">
        <ele>171</ele>
        <time>2018-02-06T11:33:21Z</time>
      </trkpt>
      <trkpt lat="45.94278" lon="4.7227">
        <ele>171</ele>
        <time>2018-02-06T11:33:22Z</time>
      </trkpt>
      <trkpt lat="45.94272" lon="4.72267">
        <ele>171</ele>
        <time>2018-02-06T11:33:24Z</time>
      </trkpt>
      <trkpt lat="45.94268" lon="4.72268">
        <ele>171</ele>
        <time>2018-02-06T11:33:25Z</time>
      </trkpt>
      <trkpt lat="45.94264" lon="4.72272">
        <ele>171</ele>
        <time>2018-02-06T11:33:26Z</time>
      </trkpt>
      <trkpt lat="45.94259" lon="4.72274">
        <ele>171</ele>
        <time>2018-02-06T11:33:27Z</time>
      </trkpt>
      <trkpt lat="45.94254" lon="4.72275">
        <ele>171</ele>
        <time>2018-02-06T11:33:28Z</time>
      </trkpt>
      <trkpt lat="45.94249" lon="4.72276">
        <ele>171</ele>
        <time>2018-02-06T11:33:29Z</time>
      </trkpt>
      <trkpt lat="45.94244" lon="4.72278">
        <ele>171</ele>
        <time>2018-02-06T11:33:30Z</time>
      </trkpt>
      <trkpt lat="45.94238" lon="4.72281">
        <ele>171</ele>
        <time>2018-02-06T11:33:31Z</time>
      </trkpt>
      <trkpt lat="45.94233" lon="4.72283">
        <ele>171</ele>
        <time>2018-02-06T11:33:32Z</time>
      </trkpt>
      <trkpt lat="45.94228" lon="4.72284">
        <ele>171</ele>
        <time>2018-02-06T11:33:33Z</time>
      </trkpt>
      <trkpt lat="45.94223" lon="4.72285">
        <ele>171</ele>
        <time>2018-02-06T11:33:34Z</time>
      </trkpt>
      <trkpt lat="45.94217" lon="4.72287">
        <ele>171</ele>
        <time>2018-02-06T11:33:35Z</time>
      </trkpt>
      <trkpt lat="45.94211" lon="4.72288">
        <ele>171</ele>
        <time>2018-02-06T11:33:36Z</time>
      </trkpt>
      <trkpt lat="45.94205" lon="4.72288">
        <ele>171</ele>
        <time>2018-02-06T11:33:37Z</time>
      </trkpt>
      <trkpt lat="45.942" lon="4.72288">
        <ele>171</ele>
        <time>2018-02-06T11:33:38Z</time>
      </trkpt>
      <trkpt lat="45.94194" lon="4.72288">
        <ele>171</ele>
        <time>2018-02-06T11:33:39Z</time>
      </trkpt>
      <trkpt lat="45.94189" lon="4.72287">
        <ele>171</ele>
        <time>2018-02-06T11:33:40Z</time>
      </trkpt>
      <trkpt lat="45.94183" lon="4.72287">
        <ele>171</ele>
        <time>2018-02-06T11:33:41Z</time>
      </trkpt>
      <trkpt lat="45.94177" lon="4.72286">
        <ele>171</ele>
        <time>2018-02-06T11:33:42Z</time>
      </trkpt>
      <trkpt lat="45.94172" lon="4.72287">
        <ele>171</ele>
        <time>2018-02-06T11:33:43Z</time>
      </trkpt>
      <trkpt lat="45.94167" lon="4.72287">
        <ele>171</ele>
        <time>2018-02-06T11:33:44Z</time>
      </trkpt>
      <trkpt lat="45.94162" lon="4.72286">
        <ele>171</ele>
        <time>2018-02-06T11:33:45Z</time>
      </trkpt>
      <trkpt lat="45.94157" lon="4.72285">
        <ele>171</ele>
        <time>2018-02-06T11:33:46Z</time>
      </trkpt>
      <trkpt lat="45.94152" lon="4.72284">
        <ele>171</ele>
        <time>2018-02-06T11:33:47Z</time>
      </trkpt>
      <trkpt lat="45.94148" lon="4.72282">
        <ele>171</ele>
        <time>2018-02-06T11:33:48Z</time>
      </trkpt>
      <trkpt lat="45.94142" lon="4.72279">
        <ele>171</ele>
        <time>2018-02-06T11:33:49Z</time>
      </trkpt>
      <trkpt lat="45.94133" lon="4.72275">
        <ele>171</ele>
        <time>2018-02-06T11:33:51Z</time>
      </trkpt>
      <trkpt lat="45.94128" lon="4.72272">
        <ele>171</ele>
        <time>2018-02-06T11:33:52Z</time>
      </trkpt>
      <trkpt lat="45.94123" lon="4.72269">
        <ele>171</ele>
        <time>2018-02-06T11:33:53Z</time>
      </trkpt>
      <trkpt lat="45.94117" lon="4.72266">
        <ele>171</ele>
        <time>2018-02-06T11:33:54Z</time>
      </trkpt>
      <trkpt lat="45.94112" lon="4.72264">
        <ele>171</ele>
        <time>2018-02-06T11:33:55Z</time>
      </trkpt>
      <trkpt lat="45.94107" lon="4.72262">
        <ele>171</ele>
        <time>2018-02-06T11:33:56Z</time>
      </trkpt>
      <trkpt lat="45.94101" lon="4.72261">
        <ele>171</ele>
        <time>2018-02-06T11:33:57Z</time>
      </trkpt>
      <trkpt lat="45.94096" lon="4.7226">
        <ele>171</ele>
        <time>2018-02-06T11:33:58Z</time>
      </trkpt>
      <trkpt lat="45.94089" lon="4.72262">
        <ele>171</ele>
        <time>2018-02-06T11:33:59Z</time>
      </trkpt>
      <trkpt lat="45.94084" lon="4.72263">
        <ele>171</ele>
        <time>2018-02-06T11:34:00Z</time>
      </trkpt>
      <trkpt lat="45.94076" lon="4.72267">
        <ele>171</ele>
        <time>2018-02-06T11:34:02Z</time>
      </trkpt>
      <trkpt lat="45.94072" lon="4.72271">
        <ele>171</ele>
        <time>2018-02-06T11:34:03Z</time>
      </trkpt>
      <trkpt lat="45.94068" lon="4.72276">
        <ele>171</ele>
        <time>2018-02-06T11:34:04Z</time>
      </trkpt>
      <trkpt lat="45.94063" lon="4.72281">
        <ele>171</ele>
        <time>2018-02-06T11:34:05Z</time>
      </trkpt>
      <trkpt lat="45.94059" lon="4.72286">
        <ele>171</ele>
        <time>2018-02-06T11:34:06Z</time>
      </trkpt>
      <trkpt lat="45.94055" lon="4.7229">
        <ele>171</ele>
        <time>2018-02-06T11:34:07Z</time>
      </trkpt>
      <trkpt lat="45.94051" lon="4.72295">
        <ele>171</ele>
        <time>2018-02-06T11:34:08Z</time>
      </trkpt>
      <trkpt lat="45.94048" lon="4.723">
        <ele>171</ele>
        <time>2018-02-06T11:34:09Z</time>
      </trkpt>
      <trkpt lat="45.94044" lon="4.72305">
        <ele>171</ele>
        <time>2018-02-06T11:34:10Z</time>
      </trkpt>
      <trkpt lat="45.9404" lon="4.72311">
        <ele>171</ele>
        <time>2018-02-06T11:34:11Z</time>
      </trkpt>
      <trkpt lat="45.94036" lon="4.72317">
        <ele>171</ele>
        <time>2018-02-06T11:34:12Z</time>
      </trkpt>
      <trkpt lat="45.94032" lon="4.72322">
        <ele>171</ele>
        <time>2018-02-06T11:34:13Z</time>
      </trkpt>
      <trkpt lat="45.94028" lon="4.72329">
        <ele>171</ele>
        <time>2018-02-06T11:34:14Z</time>
      </trkpt>
      <trkpt lat="45.94023" lon="4.72336">
        <ele>171</ele>
        <time>2018-02-06T11:34:15Z</time>
      </trkpt>
      <trkpt lat="45.94019" lon="4.72342">
        <ele>171</ele>
        <time>2018-02-06T11:34:16Z</time>
      </trkpt>
      <trkpt lat="45.94014" lon="4.72347">
        <ele>171</ele>
        <time>2018-02-06T11:34:17Z</time>
      </trkpt>
      <trkpt lat="45.9401" lon="4.72352">
        <ele>171</ele>
        <time>2018-02-06T11:34:18Z</time>
      </trkpt>
      <trkpt lat="45.94005" lon="4.72359">
        <ele>171</ele>
        <time>2018-02-06T11:34:19Z</time>
      </trkpt>
      <trkpt lat="45.94" lon="4.72365">
        <ele>171</ele>
        <time>2018-02-06T11:34:20Z</time>
      </trkpt>
      <trkpt lat="45.93995" lon="4.72371">
        <ele>171</ele>
        <time>2018-02-06T11:34:21Z</time>
      </trkpt>
      <trkpt lat="45.93992" lon="4.72375">
        <ele>171</ele>
        <time>2018-02-06T11:34:22Z</time>
      </trkpt>
      <trkpt lat="45.93987" lon="4.7238">
        <ele>171</ele>
        <time>2018-02-06T11:34:23Z</time>
      </trkpt>
      <trkpt lat="45.93982" lon="4.72385">
        <ele>171</ele>
        <time>2018-02-06T11:34:24Z</time>
      </trkpt>
      <trkpt lat="45.93978" lon="4.7239">
        <ele>171</ele>
        <time>2018-02-06T11:34:25Z</time>
      </trkpt>
      <trkpt lat="45.93974" lon="4.72395">
        <ele>171</ele>
        <time>2018-02-06T11:34:26Z</time>
      </trkpt>
      <trkpt lat="45.9397" lon="4.72401">
        <ele>171</ele>
        <time>2018-02-06T11:34:27Z</time>
      </trkpt>
      <trkpt lat="45.93967" lon="4.72406">
        <ele>171</ele>
        <time>2018-02-06T11:34:28Z</time>
      </trkpt>
      <trkpt lat="45.93963" lon="4.72411">
        <ele>171</ele>
        <time>2018-02-06T11:34:29Z</time>
      </trkpt>
      <trkpt lat="45.93958" lon="4.72415">
        <ele>171</ele>
        <time>2018-02-06T11:34:30Z</time>
      </trkpt>
      <trkpt lat="45.93954" lon="4.72421">
        <ele>171</ele>
        <time>2018-02-06T11:34:31Z</time>
      </trkpt>
      <trkpt lat="45.93949" lon="4.72426">
        <ele>171</ele>
        <time>2018-02-06T11:34:32Z</time>
      </trkpt>
      <trkpt lat="45.93945" lon="4.72431">
        <ele>171</ele>
        <time>2018-02-06T11:34:33Z</time>
      </trkpt>
      <trkpt lat="45.93942" lon="4.72436">
        <ele>171</ele>
        <time>2018-02-06T11:34:34Z</time>
      </trkpt>
      <trkpt lat="45.93937" lon="4.72442">
        <ele>171</ele>
        <time>2018-02-06T11:34:35Z</time>
      </trkpt>
      <trkpt lat="45.93933" lon="4.72446">
        <ele>171</ele>
        <time>2018-02-06T11:34:36Z</time>
      </trkpt>
      <trkpt lat="45.93929" lon="4.7245">
        <ele>171</ele>
        <time>2018-02-06T11:34:37Z</time>
      </trkpt>
      <trkpt lat="45.93925" lon="4.72455">
        <ele>171</ele>
        <time>2018-02-06T11:34:38Z</time>
      </trkpt>
      <trkpt lat="45.93922" lon="4.72459">
        <ele>171</ele>
        <time>2018-02-06T11:34:39Z</time>
      </trkpt>
      <trkpt lat="45.93917" lon="4.72462">
        <ele>171</ele>
        <time>2018-02-06T11:34:40Z</time>
      </trkpt>
      <trkpt lat="45.93913" lon="4.72467">
        <ele>172</ele>
        <time>2018-02-06T11:34:41Z</time>
      </trkpt>
      <trkpt lat="45.93909" lon="4.72471">
        <ele>172</ele>
        <time>2018-02-06T11:34:42Z</time>
      </trkpt>
      <trkpt lat="45.93905" lon="4.72474">
        <ele>172</ele>
        <time>2018-02-06T11:34:43Z</time>
      </trkpt>
      <trkpt lat="45.93901" lon="4.72479">
        <ele>172</ele>
        <time>2018-02-06T11:34:44Z</time>
      </trkpt>
      <trkpt lat="45.93897" lon="4.72484">
        <ele>172</ele>
        <time>2018-02-06T11:34:45Z</time>
      </trkpt>
      <trkpt lat="45.93894" lon="4.72489">
        <ele>172</ele>
        <time>2018-02-06T11:34:46Z</time>
      </trkpt>
      <trkpt lat="45.9389" lon="4.72493">
        <ele>172</ele>
        <time>2018-02-06T11:34:47Z</time>
      </trkpt>
      <trkpt lat="45.93886" lon="4.72498">
        <ele>172</ele>
        <time>2018-02-06T11:34:48Z</time>
      </trkpt>
      <trkpt lat="45.93882" lon="4.72502">
        <ele>173</ele>
        <time>2018-02-06T11:34:49Z</time>
      </trkpt>
      <trkpt lat="45.93878" lon="4.72505">
        <ele>173</ele>
        <time>2018-02-06T11:34:50Z</time>
      </trkpt>
      <trkpt lat="45.93874" lon="4.7251">
        <ele>173</ele>
        <time>2018-02-06T11:34:51Z</time>
      </trkpt>
      <trkpt lat="45.9387" lon="4.72512">
        <ele>173</ele>
        <time>2018-02-06T11:34:52Z</time>
      </trkpt>
      <trkpt lat="45.93865" lon="4.72511">
        <ele>173</ele>
        <time>2018-02-06T11:34:53Z</time>
      </trkpt>
      <trkpt lat="45.93857" lon="4.72507">
        <ele>173</ele>
        <time>2018-02-06T11:34:55Z</time>
      </trkpt>
      <trkpt lat="45.93852" lon="4.72504">
        <ele>173</ele>
        <time>2018-02-06T11:34:56Z</time>
      </trkpt>
      <trkpt lat="45.93843" lon="4.72505">
        <ele>174</ele>
        <time>2018-02-06T11:35:00Z</time>
      </trkpt>
      <trkpt lat="45.93842" lon="4.72506">
        <ele>174</ele>
        <time>2018-02-06T11:35:01Z</time>
      </trkpt>
      <trkpt lat="45.93841" lon="4.72507">
        <ele>174</ele>
        <time>2018-02-06T11:35:02Z</time>
      </trkpt>
      <trkpt lat="45.93829" lon="4.72491">
        <ele>173</ele>
        <time>2018-02-06T11:35:03Z</time>
      </trkpt>
      <trkpt lat="45.9382" lon="4.72485">
        <ele>173</ele>
        <time>2018-02-06T11:35:04Z</time>
      </trkpt>
      <trkpt lat="45.93814" lon="4.7248">
        <ele>172</ele>
        <time>2018-02-06T11:35:05Z</time>
      </trkpt>
      <trkpt lat="45.93808" lon="4.72476">
        <ele>172</ele>
        <time>2018-02-06T11:35:06Z</time>
      </trkpt>
      <trkpt lat="45.93802" lon="4.7247">
        <ele>172</ele>
        <time>2018-02-06T11:35:08Z</time>
      </trkpt>
      <trkpt lat="45.93799" lon="4.72464">
        <ele>172</ele>
        <time>2018-02-06T11:35:09Z</time>
      </trkpt>
      <trkpt lat="45.93792" lon="4.72458">
        <ele>172</ele>
        <time>2018-02-06T11:35:10Z</time>
      </trkpt>
      <trkpt lat="45.93787" lon="4.72455">
        <ele>172</ele>
        <time>2018-02-06T11:35:11Z</time>
      </trkpt>
      <trkpt lat="45.93782" lon="4.72451">
        <ele>172</ele>
        <time>2018-02-06T11:35:12Z</time>
      </trkpt>
      <trkpt lat="45.93779" lon="4.72446">
        <ele>172</ele>
        <time>2018-02-06T11:35:13Z</time>
      </trkpt>
      <trkpt lat="45.93774" lon="4.72443">
        <ele>172</ele>
        <time>2018-02-06T11:35:14Z</time>
      </trkpt>
      <trkpt lat="45.9377" lon="4.72438">
        <ele>171</ele>
        <time>2018-02-06T11:35:15Z</time>
      </trkpt>
      <trkpt lat="45.93767" lon="4.72434">
        <ele>171</ele>
        <time>2018-02-06T11:35:16Z</time>
      </trkpt>
      <trkpt lat="45.93763" lon="4.72428">
        <ele>171</ele>
        <time>2018-02-06T11:35:17Z</time>
      </trkpt>
      <trkpt lat="45.9376" lon="4.72423">
        <ele>171</ele>
        <time>2018-02-06T11:35:18Z</time>
      </trkpt>
      <trkpt lat="45.93757" lon="4.72418">
        <ele>171</ele>
        <time>2018-02-06T11:35:19Z</time>
      </trkpt>
      <trkpt lat="45.93752" lon="4.72412">
        <ele>171</ele>
        <time>2018-02-06T11:35:20Z</time>
      </trkpt>
      <trkpt lat="45.93747" lon="4.72408">
        <ele>171</ele>
        <time>2018-02-06T11:35:21Z</time>
      </trkpt>
      <trkpt lat="45.93739" lon="4.724">
        <ele>171</ele>
        <time>2018-02-06T11:35:23Z</time>
      </trkpt>
      <trkpt lat="45.93735" lon="4.72397">
        <ele>171</ele>
        <time>2018-02-06T11:35:24Z</time>
      </trkpt>
      <trkpt lat="45.93731" lon="4.72393">
        <ele>171</ele>
        <time>2018-02-06T11:35:25Z</time>
      </trkpt>
      <trkpt lat="45.93726" lon="4.72389">
        <ele>171</ele>
        <time>2018-02-06T11:35:26Z</time>
      </trkpt>
      <trkpt lat="45.93723" lon="4.72385">
        <ele>171</ele>
        <time>2018-02-06T11:35:27Z</time>
      </trkpt>
      <trkpt lat="45.93719" lon="4.72379">
        <ele>171</ele>
        <time>2018-02-06T11:35:28Z</time>
      </trkpt>
      <trkpt lat="45.93714" lon="4.72375">
        <ele>172</ele>
        <time>2018-02-06T11:35:29Z</time>
      </trkpt>
      <trkpt lat="45.9371" lon="4.72371">
        <ele>172</ele>
        <time>2018-02-06T11:35:30Z</time>
      </trkpt>
      <trkpt lat="45.93702" lon="4.72364">
        <ele>171</ele>
        <time>2018-02-06T11:35:32Z</time>
      </trkpt>
      <trkpt lat="45.93697" lon="4.7236">
        <ele>171</ele>
        <time>2018-02-06T11:35:33Z</time>
      </trkpt>
      <trkpt lat="45.93693" lon="4.72356">
        <ele>171</ele>
        <time>2018-02-06T11:35:35Z</time>
      </trkpt>
      <trkpt lat="45.93687" lon="4.72352">
        <ele>171</ele>
        <time>2018-02-06T11:35:36Z</time>
      </trkpt>
      <trkpt lat="45.93684" lon="4.72348">
        <ele>171</ele>
        <time>2018-02-06T11:35:37Z</time>
      </trkpt>
      <trkpt lat="45.93681" lon="4.7234">
        <ele>171</ele>
        <time>2018-02-06T11:35:38Z</time>
      </trkpt>
      <trkpt lat="45.93676" lon="4.72335">
        <ele>171</ele>
        <time>2018-02-06T11:35:39Z</time>
      </trkpt>
      <trkpt lat="45.93673" lon="4.72332">
        <ele>171</ele>
        <time>2018-02-06T11:35:40Z</time>
      </trkpt>
      <trkpt lat="45.93668" lon="4.72329">
        <ele>171</ele>
        <time>2018-02-06T11:35:41Z</time>
      </trkpt>
      <trkpt lat="45.93664" lon="4.72326">
        <ele>171</ele>
        <time>2018-02-06T11:35:42Z</time>
      </trkpt>
      <trkpt lat="45.93659" lon="4.72325">
        <ele>171</ele>
        <time>2018-02-06T11:35:43Z</time>
      </trkpt>
      <trkpt lat="45.93653" lon="4.72322">
        <ele>172</ele>
        <time>2018-02-06T11:35:44Z</time>
      </trkpt>
      <trkpt lat="45.93649" lon="4.72318">
        <ele>172</ele>
        <time>2018-02-06T11:35:45Z</time>
      </trkpt>
      <trkpt lat="45.93645" lon="4.72315">
        <ele>172</ele>
        <time>2018-02-06T11:35:46Z</time>
      </trkpt>
      <trkpt lat="45.93639" lon="4.72305">
        <ele>172</ele>
        <time>2018-02-06T11:35:48Z</time>
      </trkpt>
      <trkpt lat="45.93636" lon="4.72301">
        <ele>172</ele>
        <time>2018-02-06T11:35:49Z</time>
      </trkpt>
      <trkpt lat="45.9363" lon="4.72293">
        <ele>172</ele>
        <time>2018-02-06T11:35:51Z</time>
      </trkpt>
      <trkpt lat="45.93626" lon="4.7229">
        <ele>172</ele>
        <time>2018-02-06T11:35:52Z</time>
      </trkpt>
      <trkpt lat="45.93624" lon="4.72285">
        <ele>172</ele>
        <time>2018-02-06T11:35:53Z</time>
      </trkpt>
      <trkpt lat="45.9362" lon="4.7228">
        <ele>172</ele>
        <time>2018-02-06T11:35:54Z</time>
      </trkpt>
      <trkpt lat="45.93616" lon="4.72276">
        <ele>172</ele>
        <time>2018-02-06T11:35:55Z</time>
      </trkpt>
      <trkpt lat="45.93612" lon="4.72273">
        <ele>172</ele>
        <time>2018-02-06T11:35:56Z</time>
      </trkpt>
      <trkpt lat="45.93605" lon="4.72266">
        <ele>173</ele>
        <time>2018-02-06T11:35:58Z</time>
      </trkpt>
      <trkpt lat="45.93603" lon="4.72262">
        <ele>173</ele>
        <time>2018-02-06T11:35:59Z</time>
      </trkpt>
      <trkpt lat="45.93597" lon="4.72256">
        <ele>173</ele>
        <time>2018-02-06T11:36:01Z</time>
      </trkpt>
      <trkpt lat="45.93592" lon="4.72253">
        <ele>173</ele>
        <time>2018-02-06T11:36:02Z</time>
      </trkpt>
      <trkpt lat="45.93585" lon="4.72247">
        <ele>173</ele>
        <time>2018-02-06T11:36:04Z</time>
      </trkpt>
      <trkpt lat="45.93582" lon="4.72243">
        <ele>173</ele>
        <time>2018-02-06T11:36:05Z</time>
      </trkpt>
      <trkpt lat="45.93576" lon="4.72237">
        <ele>173</ele>
        <time>2018-02-06T11:36:07Z</time>
      </trkpt>
      <trkpt lat="45.93574" lon="4.72234">
        <ele>173</ele>
        <time>2018-02-06T11:36:08Z</time>
      </trkpt>
      <trkpt lat="45.93566" lon="4.72227">
        <ele>173</ele>
        <time>2018-02-06T11:36:11Z</time>
      </trkpt>
      <trkpt lat="45.93564" lon="4.72225">
        <ele>173</ele>
        <time>2018-02-06T11:36:12Z</time>
      </trkpt>
      <trkpt lat="45.93556" lon="4.72223">
        <ele>173</ele>
        <time>2018-02-06T11:36:15Z</time>
      </trkpt>
      <trkpt lat="45.93554" lon="4.72225">
        <ele>173</ele>
        <time>2018-02-06T11:36:16Z</time>
      </trkpt>
      <trkpt lat="45.93549" lon="4.7223">
        <ele>172</ele>
        <time>2018-02-06T11:36:18Z</time>
      </trkpt>
      <trkpt lat="45.93547" lon="4.72234">
        <ele>172</ele>
        <time>2018-02-06T11:36:19Z</time>
      </trkpt>
      <trkpt lat="45.93542" lon="4.7224">
        <ele>172</ele>
        <time>2018-02-06T11:36:21Z</time>
      </trkpt>
      <trkpt lat="45.93539" lon="4.72245">
        <ele>172</ele>
        <time>2018-02-06T11:36:22Z</time>
      </trkpt>
      <trkpt lat="45.93534" lon="4.72254">
        <ele>172</ele>
        <time>2018-02-06T11:36:24Z</time>
      </trkpt>
      <trkpt lat="45.93532" lon="4.7226">
        <ele>172</ele>
        <time>2018-02-06T11:36:25Z</time>
      </trkpt>
      <trkpt lat="45.93531" lon="4.72266">
        <ele>172</ele>
        <time>2018-02-06T11:36:26Z</time>
      </trkpt>
      <trkpt lat="45.93528" lon="4.72272">
        <ele>172</ele>
        <time>2018-02-06T11:36:27Z</time>
      </trkpt>
      <trkpt lat="45.93525" lon="4.72279">
        <ele>172</ele>
        <time>2018-02-06T11:36:28Z</time>
      </trkpt>
      <trkpt lat="45.93523" lon="4.72286">
        <ele>172</ele>
        <time>2018-02-06T11:36:29Z</time>
      </trkpt>
      <trkpt lat="45.9352" lon="4.72293">
        <ele>172</ele>
        <time>2018-02-06T11:36:30Z</time>
      </trkpt>
      <trkpt lat="45.93516" lon="4.723">
        <ele>172</ele>
        <time>2018-02-06T11:36:31Z</time>
      </trkpt>
      <trkpt lat="45.93513" lon="4.72306">
        <ele>173</ele>
        <time>2018-02-06T11:36:32Z</time>
      </trkpt>
      <trkpt lat="45.93509" lon="4.72312">
        <ele>173</ele>
        <time>2018-02-06T11:36:33Z</time>
      </trkpt>
      <trkpt lat="45.93504" lon="4.72318">
        <ele>173</ele>
        <time>2018-02-06T11:36:34Z</time>
      </trkpt>
      <trkpt lat="45.935" lon="4.72324">
        <ele>173</ele>
        <time>2018-02-06T11:36:35Z</time>
      </trkpt>
      <trkpt lat="45.93495" lon="4.72329">
        <ele>173</ele>
        <time>2018-02-06T11:36:36Z</time>
      </trkpt>
      <trkpt lat="45.93491" lon="4.72334">
        <ele>173</ele>
        <time>2018-02-06T11:36:37Z</time>
      </trkpt>
      <trkpt lat="45.93487" lon="4.72341">
        <ele>173</ele>
        <time>2018-02-06T11:36:38Z</time>
      </trkpt>
      <trkpt lat="45.93482" lon="4.72346">
        <ele>173</ele>
        <time>2018-02-06T11:36:39Z</time>
      </trkpt>
      <trkpt lat="45.93478" lon="4.72351">
        <ele>173</ele>
        <time>2018-02-06T11:36:40Z</time>
      </trkpt>
      <trkpt lat="45.93473" lon="4.72356">
        <ele>173</ele>
        <time>2018-02-06T11:36:41Z</time>
      </trkpt>
      <trkpt lat="45.93469" lon="4.72362">
        <ele>173</ele>
        <time>2018-02-06T11:36:42Z</time>
      </trkpt>
      <trkpt lat="45.93464" lon="4.72369">
        <ele>173</ele>
        <time>2018-02-06T11:36:43Z</time>
      </trkpt>
      <trkpt lat="45.93461" lon="4.72374">
        <ele>173</ele>
        <time>2018-02-06T11:36:44Z</time>
      </trkpt>
      <trkpt lat="45.93456" lon="4.72379">
        <ele>173</ele>
        <time>2018-02-06T11:36:45Z</time>
      </trkpt>
      <trkpt lat="45.93452" lon="4.72383">
        <ele>173</ele>
        <time>2018-02-06T11:36:46Z</time>
      </trkpt>
      <trkpt lat="45.93446" lon="4.72387">
        <ele>173</ele>
        <time>2018-02-06T11:36:47Z</time>
      </trkpt>
      <trkpt lat="45.9344" lon="4.72391">
        <ele>173</ele>
        <time>2018-02-06T11:36:48Z</time>
      </trkpt>
      <trkpt lat="45.93435" lon="4.72395">
        <ele>173</ele>
        <time>2018-02-06T11:36:49Z</time>
      </trkpt>
      <trkpt lat="45.9343" lon="4.72396">
        <ele>174</ele>
        <time>2018-02-06T11:36:50Z</time>
      </trkpt>
      <trkpt lat="45.93423" lon="4.72399">
        <ele>174</ele>
        <time>2018-02-06T11:36:51Z</time>
      </trkpt>
      <trkpt lat="45.93415" lon="4.72403">
        <ele>174</ele>
        <time>2018-02-06T11:36:53Z</time>
      </trkpt>
      <trkpt lat="45.93411" lon="4.72406">
        <ele>174</ele>
        <time>2018-02-06T11:36:54Z</time>
      </trkpt>
      <trkpt lat="45.93406" lon="4.72405">
        <ele>174</ele>
        <time>2018-02-06T11:36:55Z</time>
      </trkpt>
      <trkpt lat="45.934" lon="4.72406">
        <ele>174</ele>
        <time>2018-02-06T11:36:56Z</time>
      </trkpt>
      <trkpt lat="45.93394" lon="4.72407">
        <ele>174</ele>
        <time>2018-02-06T11:36:57Z</time>
      </trkpt>
      <trkpt lat="45.9339" lon="4.72408">
        <ele>174</ele>
        <time>2018-02-06T11:36:58Z</time>
      </trkpt>
      <trkpt lat="45.93384" lon="4.72413">
        <ele>174</ele>
        <time>2018-02-06T11:37:00Z</time>
      </trkpt>
      <trkpt lat="45.93383" lon="4.7242">
        <ele>173</ele>
        <time>2018-02-06T11:37:01Z</time>
      </trkpt>
      <trkpt lat="45.93384" lon="4.72427">
        <ele>173</ele>
        <time>2018-02-06T11:37:02Z</time>
      </trkpt>
      <trkpt lat="45.93385" lon="4.72434">
        <ele>173</ele>
        <time>2018-02-06T11:37:03Z</time>
      </trkpt>
      <trkpt lat="45.93387" lon="4.72441">
        <ele>173</ele>
        <time>2018-02-06T11:37:04Z</time>
      </trkpt>
      <trkpt lat="45.93387" lon="4.72448">
        <ele>173</ele>
        <time>2018-02-06T11:37:05Z</time>
      </trkpt>
      <trkpt lat="45.93387" lon="4.72455">
        <ele>173</ele>
        <time>2018-02-06T11:37:06Z</time>
      </trkpt>
      <trkpt lat="45.93385" lon="4.72462">
        <ele>173</ele>
        <time>2018-02-06T11:37:07Z</time>
      </trkpt>
      <trkpt lat="45.93382" lon="4.72468">
        <ele>173</ele>
        <time>2018-02-06T11:37:08Z</time>
      </trkpt>
      <trkpt lat="45.93377" lon="4.72473">
        <ele>173</ele>
        <time>2018-02-06T11:37:09Z</time>
      </trkpt>
      <trkpt lat="45.93372" lon="4.72478">
        <ele>173</ele>
        <time>2018-02-06T11:37:10Z</time>
      </trkpt>
      <trkpt lat="45.93368" lon="4.72484">
        <ele>173</ele>
        <time>2018-02-06T11:37:11Z</time>
      </trkpt>
      <trkpt lat="45.93363" lon="4.72489">
        <ele>173</ele>
        <time>2018-02-06T11:37:12Z</time>
      </trkpt>
      <trkpt lat="45.93358" lon="4.72495">
        <ele>173</ele>
        <time>2018-02-06T11:37:13Z</time>
      </trkpt>
      <trkpt lat="45.93353" lon="4.725">
        <ele>173</ele>
        <time>2018-02-06T11:37:14Z</time>
      </trkpt>
      <trkpt lat="45.93349" lon="4.72505">
        <ele>172</ele>
        <time>2018-02-06T11:37:15Z</time>
      </trkpt>
      <trkpt lat="45.93345" lon="4.7251">
        <ele>172</ele>
        <time>2018-02-06T11:37:16Z</time>
      </trkpt>
      <trkpt lat="45.9334" lon="4.72516">
        <ele>172</ele>
        <time>2018-02-06T11:37:17Z</time>
      </trkpt>
      <trkpt lat="45.93336" lon="4.7252">
        <ele>172</ele>
        <time>2018-02-06T11:37:18Z</time>
      </trkpt>
      <trkpt lat="45.93333" lon="4.72524">
        <ele>172</ele>
        <time>2018-02-06T11:37:19Z</time>
      </trkpt>
      <trkpt lat="45.93326" lon="4.72532">
        <ele>172</ele>
        <time>2018-02-06T11:37:21Z</time>
      </trkpt>
      <trkpt lat="45.93322" lon="4.72536">
        <ele>172</ele>
        <time>2018-02-06T11:37:22Z</time>
      </trkpt>
      <trkpt lat="45.93319" lon="4.72541">
        <ele>172</ele>
        <time>2018-02-06T11:37:23Z</time>
      </trkpt>
      <trkpt lat="45.93315" lon="4.72545">
        <ele>172</ele>
        <time>2018-02-06T11:37:24Z</time>
      </trkpt>
      <trkpt lat="45.9331" lon="4.7255">
        <ele>172</ele>
        <time>2018-02-06T11:37:25Z</time>
      </trkpt>
      <trkpt lat="45.93307" lon="4.72554">
        <ele>172</ele>
        <time>2018-02-06T11:37:26Z</time>
      </trkpt>
      <trkpt lat="45.93303" lon="4.7256">
        <ele>172</ele>
        <time>2018-02-06T11:37:27Z</time>
      </trkpt>
      <trkpt lat="45.93298" lon="4.72566">
        <ele>172</ele>
        <time>2018-02-06T11:37:28Z</time>
      </trkpt>
      <trkpt lat="45.93293" lon="4.72571">
        <ele>172</ele>
        <time>2018-02-06T11:37:29Z</time>
      </trkpt>
      <trkpt lat="45.93291" lon="4.72576">
        <ele>171</ele>
        <time>2018-02-06T11:37:30Z</time>
      </trkpt>
      <trkpt lat="45.93286" lon="4.72581">
        <ele>171</ele>
        <time>2018-02-06T11:37:31Z</time>
      </trkpt>
      <trkpt lat="45.93281" lon="4.72587">
        <ele>170</ele>
        <time>2018-02-06T11:37:32Z</time>
      </trkpt>
      <trkpt lat="45.93278" lon="4.72592">
        <ele>170</ele>
        <time>2018-02-06T11:37:33Z</time>
      </trkpt>
      <trkpt lat="45.93274" lon="4.72596">
        <ele>170</ele>
        <time>2018-02-06T11:37:34Z</time>
      </trkpt>
      <trkpt lat="45.93269" lon="4.72602">
        <ele>170</ele>
        <time>2018-02-06T11:37:35Z</time>
      </trkpt>
      <trkpt lat="45.93265" lon="4.72607">
        <ele>170</ele>
        <time>2018-02-06T11:37:36Z</time>
      </trkpt>
      <trkpt lat="45.93261" lon="4.72612">
        <ele>170</ele>
        <time>2018-02-06T11:37:37Z</time>
      </trkpt>
      <trkpt lat="45.93257" lon="4.72616">
        <ele>170</ele>
        <time>2018-02-06T11:37:38Z</time>
      </trkpt>
      <trkpt lat="45.93252" lon="4.72621">
        <ele>170</ele>
        <time>2018-02-06T11:37:39Z</time>
      </trkpt>
      <trkpt lat="45.93249" lon="4.72625">
        <ele>170</ele>
        <time>2018-02-06T11:37:40Z</time>
      </trkpt>
      <trkpt lat="45.93245" lon="4.7263">
        <ele>170</ele>
        <time>2018-02-06T11:37:41Z</time>
      </trkpt>
      <trkpt lat="45.93242" lon="4.72634">
        <ele>170</ele>
        <time>2018-02-06T11:37:42Z</time>
      </trkpt>
      <trkpt lat="45.93238" lon="4.72639">
        <ele>170</ele>
        <time>2018-02-06T11:37:43Z</time>
      </trkpt>
      <trkpt lat="45.93234" lon="4.72643">
        <ele>170</ele>
        <time>2018-02-06T11:37:44Z</time>
      </trkpt>
      <trkpt lat="45.9323" lon="4.72648">
        <ele>170</ele>
        <time>2018-02-06T11:37:45Z</time>
      </trkpt>
      <trkpt lat="45.93226" lon="4.72652">
        <ele>170</ele>
        <time>2018-02-06T11:37:46Z</time>
      </trkpt>
      <trkpt lat="45.93221" lon="4.72656">
        <ele>170</ele>
        <time>2018-02-06T11:37:47Z</time>
      </trkpt>
      <trkpt lat="45.93218" lon="4.7266">
        <ele>170</ele>
        <time>2018-02-06T11:37:48Z</time>
      </trkpt>
      <trkpt lat="45.93214" lon="4.72664">
        <ele>170</ele>
        <time>2018-02-06T11:37:49Z</time>
      </trkpt>
      <trkpt lat="45.9321" lon="4.72668">
        <ele>169</ele>
        <time>2018-02-06T11:37:50Z</time>
      </trkpt>
      <trkpt lat="45.93207" lon="4.72673">
        <ele>169</ele>
        <time>2018-02-06T11:37:51Z</time>
      </trkpt>
      <trkpt lat="45.93203" lon="4.72677">
        <ele>169</ele>
        <time>2018-02-06T11:37:52Z</time>
      </trkpt>
      <trkpt lat="45.93199" lon="4.72682">
        <ele>169</ele>
        <time>2018-02-06T11:37:53Z</time>
      </trkpt>
      <trkpt lat="45.93195" lon="4.72688">
        <ele>169</ele>
        <time>2018-02-06T11:37:54Z</time>
      </trkpt>
      <trkpt lat="45.9319" lon="4.72692">
        <ele>169</ele>
        <time>2018-02-06T11:37:55Z</time>
      </trkpt>
      <trkpt lat="45.93186" lon="4.72698">
        <ele>169</ele>
        <time>2018-02-06T11:37:56Z</time>
      </trkpt>
      <trkpt lat="45.93183" lon="4.72704">
        <ele>169</ele>
        <time>2018-02-06T11:37:57Z</time>
      </trkpt>
      <trkpt lat="45.93179" lon="4.72709">
        <ele>169</ele>
        <time>2018-02-06T11:37:58Z</time>
      </trkpt>
      <trkpt lat="45.93175" lon="4.72715">
        <ele>170</ele>
        <time>2018-02-06T11:37:59Z</time>
      </trkpt>
      <trkpt lat="45.9317" lon="4.72721">
        <ele>170</ele>
        <time>2018-02-06T11:38:00Z</time>
      </trkpt>
      <trkpt lat="45.93166" lon="4.72726">
        <ele>170</ele>
        <time>2018-02-06T11:38:01Z</time>
      </trkpt>
      <trkpt lat="45.93162" lon="4.72732">
        <ele>170</ele>
        <time>2018-02-06T11:38:02Z</time>
      </trkpt>
      <trkpt lat="45.93157" lon="4.72737">
        <ele>170</ele>
        <time>2018-02-06T11:38:03Z</time>
      </trkpt>
      <trkpt lat="45.93152" lon="4.72741">
        <ele>170</ele>
        <time>2018-02-06T11:38:04Z</time>
      </trkpt>
      <trkpt lat="45.93148" lon="4.72745">
        <ele>170</ele>
        <time>2018-02-06T11:38:05Z</time>
      </trkpt>
      <trkpt lat="45.93144" lon="4.72749">
        <ele>170</ele>
        <time>2018-02-06T11:38:06Z</time>
      </trkpt>
      <trkpt lat="45.93141" lon="4.72753">
        <ele>171</ele>
        <time>2018-02-06T11:38:07Z</time>
      </trkpt>
      <trkpt lat="45.93136" lon="4.72758">
        <ele>171</ele>
        <time>2018-02-06T11:38:08Z</time>
      </trkpt>
      <trkpt lat="45.93133" lon="4.72763">
        <ele>171</ele>
        <time>2018-02-06T11:38:09Z</time>
      </trkpt>
      <trkpt lat="45.93129" lon="4.72769">
        <ele>171</ele>
        <time>2018-02-06T11:38:10Z</time>
      </trkpt>
      <trkpt lat="45.93125" lon="4.72774">
        <ele>171</ele>
        <time>2018-02-06T11:38:11Z</time>
      </trkpt>
      <trkpt lat="45.9312" lon="4.7278">
        <ele>171</ele>
        <time>2018-02-06T11:38:12Z</time>
      </trkpt>
      <trkpt lat="45.93115" lon="4.72786">
        <ele>171</ele>
        <time>2018-02-06T11:38:13Z</time>
      </trkpt>
      <trkpt lat="45.9311" lon="4.7279">
        <ele>171</ele>
        <time>2018-02-06T11:38:14Z</time>
      </trkpt>
      <trkpt lat="45.93105" lon="4.72795">
        <ele>171</ele>
        <time>2018-02-06T11:38:15Z</time>
      </trkpt>
      <trkpt lat="45.931" lon="4.72801">
        <ele>171</ele>
        <time>2018-02-06T11:38:16Z</time>
      </trkpt>
      <trkpt lat="45.93095" lon="4.72805">
        <ele>171</ele>
        <time>2018-02-06T11:38:17Z</time>
      </trkpt>
      <trkpt lat="45.9309" lon="4.72811">
        <ele>172</ele>
        <time>2018-02-06T11:38:18Z</time>
      </trkpt>
      <trkpt lat="45.93086" lon="4.72816">
        <ele>172</ele>
        <time>2018-02-06T11:38:19Z</time>
      </trkpt>
      <trkpt lat="45.93081" lon="4.7282">
        <ele>173</ele>
        <time>2018-02-06T11:38:20Z</time>
      </trkpt>
      <trkpt lat="45.93077" lon="4.72827">
        <ele>173</ele>
        <time>2018-02-06T11:38:21Z</time>
      </trkpt>
      <trkpt lat="45.93073" lon="4.72832">
        <ele>173</ele>
        <time>2018-02-06T11:38:22Z</time>
      </trkpt>
      <trkpt lat="45.93067" lon="4.7284">
        <ele>173</ele>
        <time>2018-02-06T11:38:23Z</time>
      </trkpt>
      <trkpt lat="45.93065" lon="4.72844">
        <ele>172</ele>
        <time>2018-02-06T11:38:24Z</time>
      </trkpt>
      <trkpt lat="45.9306" lon="4.72851">
        <ele>172</ele>
        <time>2018-02-06T11:38:25Z</time>
      </trkpt>
      <trkpt lat="45.93056" lon="4.72853">
        <ele>172</ele>
        <time>2018-02-06T11:38:26Z</time>
      </trkpt>
      <trkpt lat="45.9305" lon="4.72859">
        <ele>172</ele>
        <time>2018-02-06T11:38:27Z</time>
      </trkpt>
      <trkpt lat="45.93044" lon="4.72862">
        <ele>172</ele>
        <time>2018-02-06T11:38:28Z</time>
      </trkpt>
      <trkpt lat="45.93038" lon="4.72869">
        <ele>172</ele>
        <time>2018-02-06T11:38:29Z</time>
      </trkpt>
      <trkpt lat="45.93033" lon="4.72874">
        <ele>172</ele>
        <time>2018-02-06T11:38:30Z</time>
      </trkpt>
      <trkpt lat="45.93029" lon="4.72881">
        <ele>172</ele>
        <time>2018-02-06T11:38:31Z</time>
      </trkpt>
      <trkpt lat="45.93024" lon="4.72886">
        <ele>172</ele>
        <time>2018-02-06T11:38:32Z</time>
      </trkpt>
      <trkpt lat="45.93018" lon="4.72893">
        <ele>172</ele>
        <time>2018-02-06T11:38:33Z</time>
      </trkpt>
      <trkpt lat="45.93012" lon="4.72896">
        <ele>172</ele>
        <time>2018-02-06T11:38:34Z</time>
      </trkpt>
      <trkpt lat="45.93009" lon="4.72902">
        <ele>172</ele>
        <time>2018-02-06T11:38:35Z</time>
      </trkpt>
      <trkpt lat="45.93004" lon="4.72907">
        <ele>171</ele>
        <time>2018-02-06T11:38:36Z</time>
      </trkpt>
      <trkpt lat="45.92998" lon="4.72914">
        <ele>171</ele>
        <time>2018-02-06T11:38:37Z</time>
      </trkpt>
      <trkpt lat="45.92995" lon="4.72919">
        <ele>171</ele>
        <time>2018-02-06T11:38:38Z</time>
      </trkpt>
      <trkpt lat="45.92992" lon="4.72924">
        <ele>171</ele>
        <time>2018-02-06T11:38:39Z</time>
      </trkpt>
      <trkpt lat="45.92987" lon="4.72929">
        <ele>171</ele>
        <time>2018-02-06T11:38:40Z</time>
      </trkpt>
      <trkpt lat="45.92984" lon="4.72933">
        <ele>171</ele>
        <time>2018-02-06T11:38:41Z</time>
      </trkpt>
      <trkpt lat="45.92979" lon="4.7294">
        <ele>171</ele>
        <time>2018-02-06T11:38:42Z</time>
      </trkpt>
      <trkpt lat="45.92975" lon="4.72946">
        <ele>171</ele>
        <time>2018-02-06T11:38:43Z</time>
      </trkpt>
      <trkpt lat="45.92971" lon="4.72951">
        <ele>171</ele>
        <time>2018-02-06T11:38:44Z</time>
      </trkpt>
      <trkpt lat="45.92967" lon="4.72956">
        <ele>171</ele>
        <time>2018-02-06T11:38:45Z</time>
      </trkpt>
      <trkpt lat="45.92963" lon="4.72961">
        <ele>171</ele>
        <time>2018-02-06T11:38:46Z</time>
      </trkpt>
      <trkpt lat="45.92958" lon="4.72967">
        <ele>171</ele>
        <time>2018-02-06T11:38:47Z</time>
      </trkpt>
      <trkpt lat="45.92952" lon="4.72974">
        <ele>171</ele>
        <time>2018-02-06T11:38:48Z</time>
      </trkpt>
      <trkpt lat="45.92948" lon="4.72978">
        <ele>171</ele>
        <time>2018-02-06T11:38:49Z</time>
      </trkpt>
      <trkpt lat="45.92943" lon="4.72984">
        <ele>171</ele>
        <time>2018-02-06T11:38:50Z</time>
      </trkpt>
      <trkpt lat="45.92939" lon="4.7299">
        <ele>171</ele>
        <time>2018-02-06T11:38:51Z</time>
      </trkpt>
      <trkpt lat="45.92934" lon="4.72998">
        <ele>172</ele>
        <time>2018-02-06T11:38:52Z</time>
      </trkpt>
      <trkpt lat="45.9293" lon="4.73004">
        <ele>172</ele>
        <time>2018-02-06T11:38:53Z</time>
      </trkpt>
      <trkpt lat="45.92924" lon="4.7301">
        <ele>172</ele>
        <time>2018-02-06T11:38:54Z</time>
      </trkpt>
      <trkpt lat="45.92919" lon="4.73016">
        <ele>172</ele>
        <time>2018-02-06T11:38:55Z</time>
      </trkpt>
      <trkpt lat="45.92914" lon="4.73022">
        <ele>172</ele>
        <time>2018-02-06T11:38:56Z</time>
      </trkpt>
      <trkpt lat="45.92909" lon="4.73028">
        <ele>172</ele>
        <time>2018-02-06T11:38:57Z</time>
      </trkpt>
      <trkpt lat="45.92905" lon="4.73034">
        <ele>172</ele>
        <time>2018-02-06T11:38:58Z</time>
      </trkpt>
      <trkpt lat="45.92901" lon="4.73041">
        <ele>172</ele>
        <time>2018-02-06T11:38:59Z</time>
      </trkpt>
      <trkpt lat="45.92896" lon="4.73047">
        <ele>172</ele>
        <time>2018-02-06T11:39:00Z</time>
      </trkpt>
      <trkpt lat="45.92892" lon="4.73052">
        <ele>172</ele>
        <time>2018-02-06T11:39:01Z</time>
      </trkpt>
      <trkpt lat="45.92888" lon="4.73059">
        <ele>172</ele>
        <time>2018-02-06T11:39:02Z</time>
      </trkpt>
      <trkpt lat="45.92884" lon="4.73065">
        <ele>172</ele>
        <time>2018-02-06T11:39:03Z</time>
      </trkpt>
      <trkpt lat="45.92881" lon="4.73072">
        <ele>172</ele>
        <time>2018-02-06T11:39:04Z</time>
      </trkpt>
      <trkpt lat="45.92877" lon="4.73077">
        <ele>172</ele>
        <time>2018-02-06T11:39:05Z</time>
      </trkpt>
      <trkpt lat="45.92874" lon="4.73082">
        <ele>172</ele>
        <time>2018-02-06T11:39:06Z</time>
      </trkpt>
      <trkpt lat="45.9287" lon="4.73087">
        <ele>172</ele>
        <time>2018-02-06T11:39:07Z</time>
      </trkpt>
      <trkpt lat="45.92868" lon="4.73093">
        <ele>172</ele>
        <time>2018-02-06T11:39:08Z</time>
      </trkpt>
      <trkpt lat="45.92864" lon="4.73098">
        <ele>171</ele>
        <time>2018-02-06T11:39:09Z</time>
      </trkpt>
      <trkpt lat="45.9286" lon="4.73102">
        <ele>171</ele>
        <time>2018-02-06T11:39:10Z</time>
      </trkpt>
      <trkpt lat="45.92855" lon="4.73101">
        <ele>171</ele>
        <time>2018-02-06T11:39:11Z</time>
      </trkpt>
      <trkpt lat="45.9285" lon="4.731">
        <ele>171</ele>
        <time>2018-02-06T11:39:12Z</time>
      </trkpt>
      <trkpt lat="45.92846" lon="4.73095">
        <ele>171</ele>
        <time>2018-02-06T11:39:13Z</time>
      </trkpt>
      <trkpt lat="45.92844" lon="4.73089">
        <ele>171</ele>
        <time>2018-02-06T11:39:14Z</time>
      </trkpt>
      <trkpt lat="45.92844" lon="4.73081">
        <ele>171</ele>
        <time>2018-02-06T11:39:15Z</time>
      </trkpt>
      <trkpt lat="45.92843" lon="4.73074">
        <ele>171</ele>
        <time>2018-02-06T11:39:16Z</time>
      </trkpt>
      <trkpt lat="45.92841" lon="4.73067">
        <ele>171</ele>
        <time>2018-02-06T11:39:17Z</time>
      </trkpt>
      <trkpt lat="45.9284" lon="4.73059">
        <ele>171</ele>
        <time>2018-02-06T11:39:18Z</time>
      </trkpt>
      <trkpt lat="45.92838" lon="4.73051">
        <ele>171</ele>
        <time>2018-02-06T11:39:19Z</time>
      </trkpt>
      <trkpt lat="45.92837" lon="4.73043">
        <ele>171</ele>
        <time>2018-02-06T11:39:20Z</time>
      </trkpt>
      <trkpt lat="45.92836" lon="4.73035">
        <ele>171</ele>
        <time>2018-02-06T11:39:21Z</time>
      </trkpt>
      <trkpt lat="45.92834" lon="4.73027">
        <ele>171</ele>
        <time>2018-02-06T11:39:22Z</time>
      </trkpt>
      <trkpt lat="45.92832" lon="4.73019">
        <ele>170</ele>
        <time>2018-02-06T11:39:23Z</time>
      </trkpt>
      <trkpt lat="45.92831" lon="4.73012">
        <ele>170</ele>
        <time>2018-02-06T11:39:24Z</time>
      </trkpt>
      <trkpt lat="45.9283" lon="4.73004">
        <ele>170</ele>
        <time>2018-02-06T11:39:25Z</time>
      </trkpt>
      <trkpt lat="45.92829" lon="4.72996">
        <ele>170</ele>
        <time>2018-02-06T11:39:26Z</time>
      </trkpt>
      <trkpt lat="45.92828" lon="4.72989">
        <ele>170</ele>
        <time>2018-02-06T11:39:27Z</time>
      </trkpt>
      <trkpt lat="45.92827" lon="4.72983">
        <ele>170</ele>
        <time>2018-02-06T11:39:28Z</time>
      </trkpt>
      <trkpt lat="45.92826" lon="4.7297">
        <ele>170</ele>
        <time>2018-02-06T11:39:30Z</time>
      </trkpt>
      <trkpt lat="45.92825" lon="4.72964">
        <ele>170</ele>
        <time>2018-02-06T11:39:31Z</time>
      </trkpt>
      <trkpt lat="45.92824" lon="4.72957">
        <ele>170</ele>
        <time>2018-02-06T11:39:32Z</time>
      </trkpt>
      <trkpt lat="45.92824" lon="4.7295">
        <ele>170</ele>
        <time>2018-02-06T11:39:33Z</time>
      </trkpt>
      <trkpt lat="45.92824" lon="4.72944">
        <ele>170</ele>
        <time>2018-02-06T11:39:34Z</time>
      </trkpt>
      <trkpt lat="45.92822" lon="4.72937">
        <ele>170</ele>
        <time>2018-02-06T11:39:35Z</time>
      </trkpt>
      <trkpt lat="45.92821" lon="4.72929">
        <ele>170</ele>
        <time>2018-02-06T11:39:36Z</time>
      </trkpt>
      <trkpt lat="45.92821" lon="4.72923">
        <ele>170</ele>
        <time>2018-02-06T11:39:37Z</time>
      </trkpt>
      <trkpt lat="45.9282" lon="4.72915">
        <ele>170</ele>
        <time>2018-02-06T11:39:38Z</time>
      </trkpt>
      <trkpt lat="45.9282" lon="4.72907">
        <ele>170</ele>
        <time>2018-02-06T11:39:39Z</time>
      </trkpt>
      <trkpt lat="45.92819" lon="4.729">
        <ele>170</ele>
        <time>2018-02-06T11:39:40Z</time>
      </trkpt>
      <trkpt lat="45.92818" lon="4.72893">
        <ele>170</ele>
        <time>2018-02-06T11:39:41Z</time>
      </trkpt>
      <trkpt lat="45.92816" lon="4.72887">
        <ele>170</ele>
        <time>2018-02-06T11:39:42Z</time>
      </trkpt>
      <trkpt lat="45.92815" lon="4.72879">
        <ele>170</ele>
        <time>2018-02-06T11:39:43Z</time>
      </trkpt>
      <trkpt lat="45.92813" lon="4.72873">
        <ele>170</ele>
        <time>2018-02-06T11:39:44Z</time>
      </trkpt>
      <trkpt lat="45.92812" lon="4.72865">
        <ele>170</ele>
        <time>2018-02-06T11:39:45Z</time>
      </trkpt>
      <trkpt lat="45.9281" lon="4.72858">
        <ele>170</ele>
        <time>2018-02-06T11:39:46Z</time>
      </trkpt>
      <trkpt lat="45.92809" lon="4.72852">
        <ele>170</ele>
        <time>2018-02-06T11:39:47Z</time>
      </trkpt>
      <trkpt lat="45.92808" lon="4.72845">
        <ele>170</ele>
        <time>2018-02-06T11:39:48Z</time>
      </trkpt>
      <trkpt lat="45.92806" lon="4.72838">
        <ele>170</ele>
        <time>2018-02-06T11:39:49Z</time>
      </trkpt>
      <trkpt lat="45.92805" lon="4.72832">
        <ele>171</ele>
        <time>2018-02-06T11:39:50Z</time>
      </trkpt>
      <trkpt lat="45.92803" lon="4.72824">
        <ele>171</ele>
        <time>2018-02-06T11:39:51Z</time>
      </trkpt>
      <trkpt lat="45.92802" lon="4.72817">
        <ele>170</ele>
        <time>2018-02-06T11:39:52Z</time>
      </trkpt>
      <trkpt lat="45.92801" lon="4.7281">
        <ele>170</ele>
        <time>2018-02-06T11:39:53Z</time>
      </trkpt>
      <trkpt lat="45.928" lon="4.72798">
        <ele>171</ele>
        <time>2018-02-06T11:39:55Z</time>
      </trkpt>
      <trkpt lat="45.92798" lon="4.72792">
        <ele>171</ele>
        <time>2018-02-06T11:39:56Z</time>
      </trkpt>
      <trkpt lat="45.92794" lon="4.72783">
        <ele>171</ele>
        <time>2018-02-06T11:39:58Z</time>
      </trkpt>
      <trkpt lat="45.92791" lon="4.72782">
        <ele>171</ele>
        <time>2018-02-06T11:39:59Z</time>
      </trkpt>
      <trkpt lat="45.92786" lon="4.72784">
        <ele>171</ele>
        <time>2018-02-06T11:40:00Z</time>
      </trkpt>
      <trkpt lat="45.92781" lon="4.72788">
        <ele>170</ele>
        <time>2018-02-06T11:40:01Z</time>
      </trkpt>
      <trkpt lat="45.92776" lon="4.72791">
        <ele>170</ele>
        <time>2018-02-06T11:40:02Z</time>
      </trkpt>
      <trkpt lat="45.92773" lon="4.72794">
        <ele>170</ele>
        <time>2018-02-06T11:40:03Z</time>
      </trkpt>
      <trkpt lat="45.92768" lon="4.72797">
        <ele>170</ele>
        <time>2018-02-06T11:40:04Z</time>
      </trkpt>
      <trkpt lat="45.92764" lon="4.72801">
        <ele>170</ele>
        <time>2018-02-06T11:40:05Z</time>
      </trkpt>
      <trkpt lat="45.92759" lon="4.72805">
        <ele>170</ele>
        <time>2018-02-06T11:40:06Z</time>
      </trkpt>
      <trkpt lat="45.92756" lon="4.72809">
        <ele>170</ele>
        <time>2018-02-06T11:40:07Z</time>
      </trkpt>
      <trkpt lat="45.92752" lon="4.72812">
        <ele>170</ele>
        <time>2018-02-06T11:40:08Z</time>
      </trkpt>
      <trkpt lat="45.92748" lon="4.72816">
        <ele>170</ele>
        <time>2018-02-06T11:40:09Z</time>
      </trkpt>
      <trkpt lat="45.92743" lon="4.72819">
        <ele>169</ele>
        <time>2018-02-06T11:40:10Z</time>
      </trkpt>
      <trkpt lat="45.92739" lon="4.72822">
        <ele>169</ele>
        <time>2018-02-06T11:40:11Z</time>
      </trkpt>
      <trkpt lat="45.92733" lon="4.72826">
        <ele>169</ele>
        <time>2018-02-06T11:40:12Z</time>
      </trkpt>
      <trkpt lat="45.92729" lon="4.7283">
        <ele>170</ele>
        <time>2018-02-06T11:40:13Z</time>
      </trkpt>
      <trkpt lat="45.92725" lon="4.72835">
        <ele>169</ele>
        <time>2018-02-06T11:40:14Z</time>
      </trkpt>
      <trkpt lat="45.92721" lon="4.7284">
        <ele>169</ele>
        <time>2018-02-06T11:40:15Z</time>
      </trkpt>
      <trkpt lat="45.92716" lon="4.72844">
        <ele>169</ele>
        <time>2018-02-06T11:40:16Z</time>
      </trkpt>
      <trkpt lat="45.92711" lon="4.72847">
        <ele>169</ele>
        <time>2018-02-06T11:40:17Z</time>
      </trkpt>
      <trkpt lat="45.92705" lon="4.72852">
        <ele>169</ele>
        <time>2018-02-06T11:40:18Z</time>
      </trkpt>
      <trkpt lat="45.927" lon="4.72856">
        <ele>169</ele>
        <time>2018-02-06T11:40:19Z</time>
      </trkpt>
      <trkpt lat="45.92695" lon="4.72861">
        <ele>169</ele>
        <time>2018-02-06T11:40:20Z</time>
      </trkpt>
      <trkpt lat="45.92689" lon="4.72866">
        <ele>169</ele>
        <time>2018-02-06T11:40:21Z</time>
      </trkpt>
      <trkpt lat="45.92684" lon="4.72871">
        <ele>169</ele>
        <time>2018-02-06T11:40:22Z</time>
      </trkpt>
      <trkpt lat="45.92679" lon="4.72876">
        <ele>170</ele>
        <time>2018-02-06T11:40:23Z</time>
      </trkpt>
      <trkpt lat="45.92673" lon="4.7288">
        <ele>170</ele>
        <time>2018-02-06T11:40:24Z</time>
      </trkpt>
      <trkpt lat="45.92668" lon="4.72883">
        <ele>170</ele>
        <time>2018-02-06T11:40:25Z</time>
      </trkpt>
      <trkpt lat="45.92663" lon="4.72887">
        <ele>169</ele>
        <time>2018-02-06T11:40:26Z</time>
      </trkpt>
      <trkpt lat="45.92658" lon="4.72891">
        <ele>169</ele>
        <time>2018-02-06T11:40:27Z</time>
      </trkpt>
      <trkpt lat="45.92653" lon="4.72895">
        <ele>169</ele>
        <time>2018-02-06T11:40:28Z</time>
      </trkpt>
      <trkpt lat="45.92647" lon="4.72899">
        <ele>169</ele>
        <time>2018-02-06T11:40:29Z</time>
      </trkpt>
      <trkpt lat="45.92641" lon="4.72904">
        <ele>169</ele>
        <time>2018-02-06T11:40:30Z</time>
      </trkpt>
      <trkpt lat="45.92637" lon="4.72907">
        <ele>169</ele>
        <time>2018-02-06T11:40:31Z</time>
      </trkpt>
      <trkpt lat="45.92632" lon="4.72911">
        <ele>169</ele>
        <time>2018-02-06T11:40:32Z</time>
      </trkpt>
      <trkpt lat="45.92627" lon="4.72916">
        <ele>169</ele>
        <time>2018-02-06T11:40:33Z</time>
      </trkpt>
      <trkpt lat="45.92622" lon="4.7292">
        <ele>169</ele>
        <time>2018-02-06T11:40:34Z</time>
      </trkpt>
      <trkpt lat="45.92617" lon="4.72924">
        <ele>169</ele>
        <time>2018-02-06T11:40:35Z</time>
      </trkpt>
      <trkpt lat="45.92611" lon="4.72928">
        <ele>169</ele>
        <time>2018-02-06T11:40:36Z</time>
      </trkpt>
      <trkpt lat="45.92606" lon="4.72933">
        <ele>169</ele>
        <time>2018-02-06T11:40:37Z</time>
      </trkpt>
      <trkpt lat="45.92601" lon="4.72938">
        <ele>169</ele>
        <time>2018-02-06T11:40:38Z</time>
      </trkpt>
      <trkpt lat="45.92597" lon="4.72945">
        <ele>169</ele>
        <time>2018-02-06T11:40:39Z</time>
      </trkpt>
      <trkpt lat="45.92592" lon="4.72951">
        <ele>169</ele>
        <time>2018-02-06T11:40:40Z</time>
      </trkpt>
      <trkpt lat="45.92588" lon="4.72957">
        <ele>169</ele>
        <time>2018-02-06T11:40:41Z</time>
      </trkpt>
      <trkpt lat="45.92583" lon="4.72962">
        <ele>169</ele>
        <time>2018-02-06T11:40:42Z</time>
      </trkpt>
      <trkpt lat="45.92577" lon="4.72968">
        <ele>169</ele>
        <time>2018-02-06T11:40:43Z</time>
      </trkpt>
      <trkpt lat="45.92572" lon="4.72974">
        <ele>169</ele>
        <time>2018-02-06T11:40:44Z</time>
      </trkpt>
      <trkpt lat="45.92568" lon="4.72979">
        <ele>169</ele>
        <time>2018-02-06T11:40:45Z</time>
      </trkpt>
      <trkpt lat="45.92563" lon="4.72984">
        <ele>169</ele>
        <time>2018-02-06T11:40:46Z</time>
      </trkpt>
      <trkpt lat="45.92557" lon="4.7299">
        <ele>169</ele>
        <time>2018-02-06T11:40:47Z</time>
      </trkpt>
      <trkpt lat="45.92552" lon="4.72994">
        <ele>169</ele>
        <time>2018-02-06T11:40:48Z</time>
      </trkpt>
      <trkpt lat="45.92546" lon="4.72999">
        <ele>169</ele>
        <time>2018-02-06T11:40:49Z</time>
      </trkpt>
      <trkpt lat="45.92541" lon="4.73005">
        <ele>169</ele>
        <time>2018-02-06T11:40:50Z</time>
      </trkpt>
      <trkpt lat="45.92535" lon="4.7301">
        <ele>169</ele>
        <time>2018-02-06T11:40:51Z</time>
      </trkpt>
      <trkpt lat="45.9253" lon="4.73015">
        <ele>169</ele>
        <time>2018-02-06T11:40:52Z</time>
      </trkpt>
      <trkpt lat="45.92525" lon="4.73019">
        <ele>169</ele>
        <time>2018-02-06T11:40:53Z</time>
      </trkpt>
      <trkpt lat="45.9252" lon="4.73024">
        <ele>169</ele>
        <time>2018-02-06T11:40:54Z</time>
      </trkpt>
      <trkpt lat="45.92515" lon="4.73028">
        <ele>169</ele>
        <time>2018-02-06T11:40:55Z</time>
      </trkpt>
      <trkpt lat="45.9251" lon="4.73033">
        <ele>169</ele>
        <time>2018-02-06T11:40:56Z</time>
      </trkpt>
      <trkpt lat="45.92505" lon="4.73037">
        <ele>169</ele>
        <time>2018-02-06T11:40:57Z</time>
      </trkpt>
      <trkpt lat="45.925" lon="4.73042">
        <ele>170</ele>
        <time>2018-02-06T11:40:58Z</time>
      </trkpt>
      <trkpt lat="45.92495" lon="4.73047">
        <ele>170</ele>
        <time>2018-02-06T11:40:59Z</time>
      </trkpt>
      <trkpt lat="45.9249" lon="4.73051">
        <ele>170</ele>
        <time>2018-02-06T11:41:00Z</time>
      </trkpt>
      <trkpt lat="45.92484" lon="4.73055">
        <ele>170</ele>
        <time>2018-02-06T11:41:01Z</time>
      </trkpt>
      <trkpt lat="45.92479" lon="4.7306">
        <ele>170</ele>
        <time>2018-02-06T11:41:02Z</time>
      </trkpt>
      <trkpt lat="45.92474" lon="4.73065">
        <ele>170</ele>
        <time>2018-02-06T11:41:03Z</time>
      </trkpt>
      <trkpt lat="45.9247" lon="4.73068">
        <ele>170</ele>
        <time>2018-02-06T11:41:04Z</time>
      </trkpt>
      <trkpt lat="45.92465" lon="4.73072">
        <ele>170</ele>
        <time>2018-02-06T11:41:05Z</time>
      </trkpt>
      <trkpt lat="45.9246" lon="4.73076">
        <ele>170</ele>
        <time>2018-02-06T11:41:06Z</time>
      </trkpt>
      <trkpt lat="45.92455" lon="4.7308">
        <ele>170</ele>
        <time>2018-02-06T11:41:07Z</time>
      </trkpt>
      <trkpt lat="45.92451" lon="4.73083">
        <ele>170</ele>
        <time>2018-02-06T11:41:08Z</time>
      </trkpt>
      <trkpt lat="45.92447" lon="4.73087">
        <ele>170</ele>
        <time>2018-02-06T11:41:09Z</time>
      </trkpt>
      <trkpt lat="45.92443" lon="4.73091">
        <ele>170</ele>
        <time>2018-02-06T11:41:10Z</time>
      </trkpt>
      <trkpt lat="45.92437" lon="4.73095">
        <ele>171</ele>
        <time>2018-02-06T11:41:11Z</time>
      </trkpt>
      <trkpt lat="45.92433" lon="4.73099">
        <ele>171</ele>
        <time>2018-02-06T11:41:12Z</time>
      </trkpt>
      <trkpt lat="45.92428" lon="4.73104">
        <ele>171</ele>
        <time>2018-02-06T11:41:13Z</time>
      </trkpt>
      <trkpt lat="45.92423" lon="4.73107">
        <ele>171</ele>
        <time>2018-02-06T11:41:14Z</time>
      </trkpt>
      <trkpt lat="45.92418" lon="4.73111">
        <ele>170</ele>
        <time>2018-02-06T11:41:15Z</time>
      </trkpt>
      <trkpt lat="45.92413" lon="4.73116">
        <ele>171</ele>
        <time>2018-02-06T11:41:16Z</time>
      </trkpt>
      <trkpt lat="45.92409" lon="4.73121">
        <ele>171</ele>
        <time>2018-02-06T11:41:17Z</time>
      </trkpt>
      <trkpt lat="45.92407" lon="4.73129">
        <ele>171</ele>
        <time>2018-02-06T11:41:18Z</time>
      </trkpt>
      <trkpt lat="45.92406" lon="4.73138">
        <ele>171</ele>
        <time>2018-02-06T11:41:19Z</time>
      </trkpt>
      <trkpt lat="45.92405" lon="4.73147">
        <ele>171</ele>
        <time>2018-02-06T11:41:20Z</time>
      </trkpt>
      <trkpt lat="45.92405" lon="4.73156">
        <ele>171</ele>
        <time>2018-02-06T11:41:21Z</time>
      </trkpt>
      <trkpt lat="45.92405" lon="4.73165">
        <ele>170</ele>
        <time>2018-02-06T11:41:22Z</time>
      </trkpt>
      <trkpt lat="45.92405" lon="4.73173">
        <ele>171</ele>
        <time>2018-02-06T11:41:23Z</time>
      </trkpt>
      <trkpt lat="45.92405" lon="4.73182">
        <ele>171</ele>
        <time>2018-02-06T11:41:24Z</time>
      </trkpt>
      <trkpt lat="45.92406" lon="4.73191">
        <ele>171</ele>
        <time>2018-02-06T11:41:25Z</time>
      </trkpt>
      <trkpt lat="45.92406" lon="4.73199">
        <ele>171</ele>
        <time>2018-02-06T11:41:26Z</time>
      </trkpt>
      <trkpt lat="45.92406" lon="4.73206">
        <ele>171</ele>
        <time>2018-02-06T11:41:27Z</time>
      </trkpt>
      <trkpt lat="45.92407" lon="4.73214">
        <ele>171</ele>
        <time>2018-02-06T11:41:28Z</time>
      </trkpt>
      <trkpt lat="45.92408" lon="4.73222">
        <ele>171</ele>
        <time>2018-02-06T11:41:29Z</time>
      </trkpt>
      <trkpt lat="45.92408" lon="4.7323">
        <ele>171</ele>
        <time>2018-02-06T11:41:30Z</time>
      </trkpt>
      <trkpt lat="45.92408" lon="4.73238">
        <ele>171</ele>
        <time>2018-02-06T11:41:31Z</time>
      </trkpt>
      <trkpt lat="45.92409" lon="4.73246">
        <ele>171</ele>
        <time>2018-02-06T11:41:32Z</time>
      </trkpt>
      <trkpt lat="45.92409" lon="4.73254">
        <ele>171</ele>
        <time>2018-02-06T11:41:33Z</time>
      </trkpt>
      <trkpt lat="45.9241" lon="4.73262">
        <ele>171</ele>
        <time>2018-02-06T11:41:34Z</time>
      </trkpt>
      <trkpt lat="45.9241" lon="4.7327">
        <ele>171</ele>
        <time>2018-02-06T11:41:35Z</time>
      </trkpt>
      <trkpt lat="45.92411" lon="4.73277">
        <ele>171</ele>
        <time>2018-02-06T11:41:36Z</time>
      </trkpt>
      <trkpt lat="45.92411" lon="4.73286">
        <ele>171</ele>
        <time>2018-02-06T11:41:37Z</time>
      </trkpt>
      <trkpt lat="45.92412" lon="4.73294">
        <ele>171</ele>
        <time>2018-02-06T11:41:38Z</time>
      </trkpt>
      <trkpt lat="45.92412" lon="4.73301">
        <ele>171</ele>
        <time>2018-02-06T11:41:39Z</time>
      </trkpt>
      <trkpt lat="45.92413" lon="4.73308">
        <ele>171</ele>
        <time>2018-02-06T11:41:40Z</time>
      </trkpt>
      <trkpt lat="45.92413" lon="4.73316">
        <ele>171</ele>
        <time>2018-02-06T11:41:41Z</time>
      </trkpt>
      <trkpt lat="45.92414" lon="4.73323">
        <ele>171</ele>
        <time>2018-02-06T11:41:42Z</time>
      </trkpt>
      <trkpt lat="45.92414" lon="4.73331">
        <ele>171</ele>
        <time>2018-02-06T11:41:43Z</time>
      </trkpt>
      <trkpt lat="45.92415" lon="4.73339">
        <ele>171</ele>
        <time>2018-02-06T11:41:44Z</time>
      </trkpt>
      <trkpt lat="45.92416" lon="4.73347">
        <ele>171</ele>
        <time>2018-02-06T11:41:45Z</time>
      </trkpt>
      <trkpt lat="45.92417" lon="4.73354">
        <ele>171</ele>
        <time>2018-02-06T11:41:46Z</time>
      </trkpt>
      <trkpt lat="45.92418" lon="4.73362">
        <ele>172</ele>
        <time>2018-02-06T11:41:47Z</time>
      </trkpt>
      <trkpt lat="45.92419" lon="4.73369">
        <ele>172</ele>
        <time>2018-02-06T11:41:48Z</time>
      </trkpt>
      <trkpt lat="45.92421" lon="4.73376">
        <ele>172</ele>
        <time>2018-02-06T11:41:49Z</time>
      </trkpt>
      <trkpt lat="45.92422" lon="4.73386">
        <ele>172</ele>
        <time>2018-02-06T11:41:50Z</time>
      </trkpt>
      <trkpt lat="45.92423" lon="4.73394">
        <ele>172</ele>
        <time>2018-02-06T11:41:51Z</time>
      </trkpt>
      <trkpt lat="45.92426" lon="4.73401">
        <ele>172</ele>
        <time>2018-02-06T11:41:52Z</time>
      </trkpt>
      <trkpt lat="45.92429" lon="4.73407">
        <ele>172</ele>
        <time>2018-02-06T11:41:53Z</time>
      </trkpt>
      <trkpt lat="45.92433" lon="4.73413">
        <ele>172</ele>
        <time>2018-02-06T11:41:54Z</time>
      </trkpt>
      <trkpt lat="45.92438" lon="4.73416">
        <ele>172</ele>
        <time>2018-02-06T11:41:55Z</time>
      </trkpt>
      <trkpt lat="45.92442" lon="4.73419">
        <ele>173</ele>
        <time>2018-02-06T11:41:56Z</time>
      </trkpt>
      <trkpt lat="45.92447" lon="4.73422">
        <ele>173</ele>
        <time>2018-02-06T11:41:57Z</time>
      </trkpt>
      <trkpt lat="45.92452" lon="4.73426">
        <ele>173</ele>
        <time>2018-02-06T11:41:58Z</time>
      </trkpt>
      <trkpt lat="45.92457" lon="4.73433">
        <ele>173</ele>
        <time>2018-02-06T11:41:59Z</time>
      </trkpt>
      <trkpt lat="45.92461" lon="4.73438">
        <ele>173</ele>
        <time>2018-02-06T11:42:00Z</time>
      </trkpt>
      <trkpt lat="45.92464" lon="4.73445">
        <ele>173</ele>
        <time>2018-02-06T11:42:01Z</time>
      </trkpt>
      <trkpt lat="45.92466" lon="4.73453">
        <ele>173</ele>
        <time>2018-02-06T11:42:02Z</time>
      </trkpt>
      <trkpt lat="45.92468" lon="4.73461">
        <ele>173</ele>
        <time>2018-02-06T11:42:03Z</time>
      </trkpt>
      <trkpt lat="45.92468" lon="4.7347">
        <ele>173</ele>
        <time>2018-02-06T11:42:04Z</time>
      </trkpt>
      <trkpt lat="45.92468" lon="4.73478">
        <ele>173</ele>
        <time>2018-02-06T11:42:05Z</time>
      </trkpt>
      <trkpt lat="45.92468" lon="4.73485">
        <ele>173</ele>
        <time>2018-02-06T11:42:06Z</time>
      </trkpt>
      <trkpt lat="45.92467" lon="4.73493">
        <ele>173</ele>
        <time>2018-02-06T11:42:07Z</time>
      </trkpt>
      <trkpt lat="45.92467" lon="4.73499">
        <ele>173</ele>
        <time>2018-02-06T11:42:08Z</time>
      </trkpt>
      <trkpt lat="45.92467" lon="4.73507">
        <ele>174</ele>
        <time>2018-02-06T11:42:09Z</time>
      </trkpt>
      <trkpt lat="45.92467" lon="4.73514">
        <ele>174</ele>
        <time>2018-02-06T11:42:10Z</time>
      </trkpt>
      <trkpt lat="45.92468" lon="4.7352">
        <ele>174</ele>
        <time>2018-02-06T11:42:11Z</time>
      </trkpt>
      <trkpt lat="45.92467" lon="4.73533">
        <ele>174</ele>
        <time>2018-02-06T11:42:13Z</time>
      </trkpt>
      <trkpt lat="45.92466" lon="4.73538">
        <ele>174</ele>
        <time>2018-02-06T11:42:14Z</time>
      </trkpt>
      <trkpt lat="45.92467" lon="4.73549">
        <ele>173</ele>
        <time>2018-02-06T11:42:16Z</time>
      </trkpt>
      <trkpt lat="45.92467" lon="4.73556">
        <ele>173</ele>
        <time>2018-02-06T11:42:17Z</time>
      </trkpt>
      <trkpt lat="45.92468" lon="4.73562">
        <ele>173</ele>
        <time>2018-02-06T11:42:18Z</time>
      </trkpt>
      <trkpt lat="45.92467" lon="4.7357">
        <ele>173</ele>
        <time>2018-02-06T11:42:19Z</time>
      </trkpt>
      <trkpt lat="45.92468" lon="4.73578">
        <ele>173</ele>
        <time>2018-02-06T11:42:20Z</time>
      </trkpt>
      <trkpt lat="45.92468" lon="4.73586">
        <ele>174</ele>
        <time>2018-02-06T11:42:21Z</time>
      </trkpt>
      <trkpt lat="45.92468" lon="4.73594">
        <ele>174</ele>
        <time>2018-02-06T11:42:22Z</time>
      </trkpt>
      <trkpt lat="45.92468" lon="4.73602">
        <ele>174</ele>
        <time>2018-02-06T11:42:23Z</time>
      </trkpt>
      <trkpt lat="45.92468" lon="4.7361">
        <ele>174</ele>
        <time>2018-02-06T11:42:24Z</time>
      </trkpt>
      <trkpt lat="45.92468" lon="4.73617">
        <ele>174</ele>
        <time>2018-02-06T11:42:25Z</time>
      </trkpt>
      <trkpt lat="45.92468" lon="4.73625">
        <ele>174</ele>
        <time>2018-02-06T11:42:26Z</time>
      </trkpt>
      <trkpt lat="45.92467" lon="4.73633">
        <ele>174</ele>
        <time>2018-02-06T11:42:27Z</time>
      </trkpt>
      <trkpt lat="45.92467" lon="4.73639">
        <ele>174</ele>
        <time>2018-02-06T11:42:28Z</time>
      </trkpt>
      <trkpt lat="45.92467" lon="4.73648">
        <ele>174</ele>
        <time>2018-02-06T11:42:29Z</time>
      </trkpt>
      <trkpt lat="45.92467" lon="4.73656">
        <ele>174</ele>
        <time>2018-02-06T11:42:30Z</time>
      </trkpt>
      <trkpt lat="45.92467" lon="4.73662">
        <ele>174</ele>
        <time>2018-02-06T11:42:31Z</time>
      </trkpt>
      <trkpt lat="45.92467" lon="4.73669">
        <ele>174</ele>
        <time>2018-02-06T11:42:32Z</time>
      </trkpt>
      <trkpt lat="45.92467" lon="4.73676">
        <ele>174</ele>
        <time>2018-02-06T11:42:33Z</time>
      </trkpt>
      <trkpt lat="45.92467" lon="4.73682">
        <ele>174</ele>
        <time>2018-02-06T11:42:34Z</time>
      </trkpt>
      <trkpt lat="45.92465" lon="4.73691">
        <ele>174</ele>
        <time>2018-02-06T11:42:35Z</time>
      </trkpt>
      <trkpt lat="45.92463" lon="4.73702">
        <ele>174</ele>
        <time>2018-02-06T11:42:37Z</time>
      </trkpt>
      <trkpt lat="45.92463" lon="4.73707">
        <ele>174</ele>
        <time>2018-02-06T11:42:38Z</time>
      </trkpt>
      <trkpt lat="45.92454" lon="4.73709">
        <ele>174</ele>
        <time>2018-02-06T11:43:17.672Z</time>
      </trkpt>
    </trkseg>
  </trk>
</gpx>